<?xml version="1.0" encoding="UTF-8" standalone="no" ?>
<gpx xmlns="http://www.topografix.com/GPX/1/1" xmlns:xsi="http://www.w3.org/2001/XMLSchema-instance" xsi:schemaLocation="http://www.topografix.com/GPX/1/1 http://www.topografix.com/GPX/1/1/gpx.xsd" version="1.1" creator="VisuGPX - https://www.visugpx.com">
  <metadata>
    <name>Engins - Auberge des Allières - Saint Nizier -Engins</name>
    <desc><![CDATA[Parcours effectué le 6 Aout 2019 en VTTAE.
Engins - Auberge des Allières - Saint Nizier -Engins]]></desc>
  </metadata>
  <trk>
    <name><![CDATA[Engins - Auberge des Allières - Saint Nizier -Engins]]></name>
    <trkseg>
      <trkpt lat="45.19027" lon="5.61971">
        <ele>925.29448294409</ele>
        <time>2019-08-06T05:50:21Z</time>
      </trkpt>
      <trkpt lat="45.19024" lon="5.6197">
        <ele>920.05425949805</ele>
        <time>2019-08-06T05:50:42Z</time>
      </trkpt>
      <trkpt lat="45.19018" lon="5.61973">
        <ele>917.5711072933</ele>
        <time>2019-08-06T05:50:46Z</time>
      </trkpt>
      <trkpt lat="45.19013" lon="5.61971">
        <ele>916.81724626221</ele>
        <time>2019-08-06T05:50:50Z</time>
      </trkpt>
      <trkpt lat="45.19005" lon="5.61965">
        <ele>916.05561019207</ele>
        <time>2019-08-06T05:50:54Z</time>
      </trkpt>
      <trkpt lat="45.18993" lon="5.61966">
        <ele>915.69854535072</ele>
        <time>2019-08-06T05:50:58Z</time>
      </trkpt>
      <trkpt lat="45.18975" lon="5.61969">
        <ele>915.31344592335</ele>
        <time>2019-08-06T05:51:03Z</time>
      </trkpt>
      <trkpt lat="45.18958" lon="5.61972">
        <ele>914.74606310285</ele>
        <time>2019-08-06T05:51:07Z</time>
      </trkpt>
      <trkpt lat="45.18942" lon="5.61973">
        <ele>914.37649048577</ele>
        <time>2019-08-06T05:51:10Z</time>
      </trkpt>
      <trkpt lat="45.18919" lon="5.61972">
        <ele>914.40573368429</ele>
        <time>2019-08-06T05:51:15Z</time>
      </trkpt>
      <trkpt lat="45.18903" lon="5.6197">
        <ele>914.5292246931</ele>
        <time>2019-08-06T05:51:19Z</time>
      </trkpt>
      <trkpt lat="45.18885" lon="5.61961">
        <ele>914.93253631028</ele>
        <time>2019-08-06T05:51:24Z</time>
      </trkpt>
      <trkpt lat="45.18876" lon="5.61954">
        <ele>915.37288593922</ele>
        <time>2019-08-06T05:51:27Z</time>
      </trkpt>
      <trkpt lat="45.18866" lon="5.61944">
        <ele>916.40227545257</ele>
        <time>2019-08-06T05:51:32Z</time>
      </trkpt>
      <trkpt lat="45.18856" lon="5.61932">
        <ele>917.38472197109</ele>
        <time>2019-08-06T05:51:37Z</time>
      </trkpt>
      <trkpt lat="45.18848" lon="5.6192">
        <ele>918.17887818605</ele>
        <time>2019-08-06T05:51:42Z</time>
      </trkpt>
      <trkpt lat="45.18841" lon="5.61907">
        <ele>919.05394637958</ele>
        <time>2019-08-06T05:51:46Z</time>
      </trkpt>
      <trkpt lat="45.18836" lon="5.61893">
        <ele>919.67745323807</ele>
        <time>2019-08-06T05:51:50Z</time>
      </trkpt>
      <trkpt lat="45.18831" lon="5.61875">
        <ele>920.91125881632</ele>
        <time>2019-08-06T05:51:55Z</time>
      </trkpt>
      <trkpt lat="45.18827" lon="5.6186">
        <ele>921.73730508454</ele>
        <time>2019-08-06T05:51:59Z</time>
      </trkpt>
      <trkpt lat="45.18824" lon="5.61847">
        <ele>921.62467813201</ele>
        <time>2019-08-06T05:52:02Z</time>
      </trkpt>
      <trkpt lat="45.1882" lon="5.61829">
        <ele>921.20295297578</ele>
        <time>2019-08-06T05:52:06Z</time>
      </trkpt>
      <trkpt lat="45.18815" lon="5.61797">
        <ele>920.33336288667</ele>
        <time>2019-08-06T05:52:10Z</time>
      </trkpt>
      <trkpt lat="45.18811" lon="5.61766">
        <ele>920.0055422025</ele>
        <time>2019-08-06T05:52:14Z</time>
      </trkpt>
      <trkpt lat="45.18805" lon="5.61727">
        <ele>919.81184419371</ele>
        <time>2019-08-06T05:52:19Z</time>
      </trkpt>
      <trkpt lat="45.18795" lon="5.61687">
        <ele>919.30154061417</ele>
        <time>2019-08-06T05:52:24Z</time>
      </trkpt>
      <trkpt lat="45.18789" lon="5.61661">
        <ele>918.94264655018</ele>
        <time>2019-08-06T05:52:27Z</time>
      </trkpt>
      <trkpt lat="45.18784" lon="5.61627">
        <ele>918.69508524249</ele>
        <time>2019-08-06T05:52:31Z</time>
      </trkpt>
      <trkpt lat="45.18774" lon="5.61585">
        <ele>918.73063252157</ele>
        <time>2019-08-06T05:52:36Z</time>
      </trkpt>
      <trkpt lat="45.18762" lon="5.61555">
        <ele>918.70287171113</ele>
        <time>2019-08-06T05:52:40Z</time>
      </trkpt>
      <trkpt lat="45.18745" lon="5.61518">
        <ele>918.39061492923</ele>
        <time>2019-08-06T05:52:45Z</time>
      </trkpt>
      <trkpt lat="45.18729" lon="5.61491">
        <ele>917.7805768895</ele>
        <time>2019-08-06T05:52:49Z</time>
      </trkpt>
      <trkpt lat="45.18712" lon="5.61481">
        <ele>916.55102982843</ele>
        <time>2019-08-06T05:52:52Z</time>
      </trkpt>
      <trkpt lat="45.1869" lon="5.61505">
        <ele>915.35677422919</ele>
        <time>2019-08-06T05:52:56Z</time>
      </trkpt>
      <trkpt lat="45.18687" lon="5.61537">
        <ele>913.95636733616</ele>
        <time>2019-08-06T05:52:59Z</time>
      </trkpt>
      <trkpt lat="45.18673" lon="5.61584">
        <ele>913.22679334037</ele>
        <time>2019-08-06T05:53:04Z</time>
      </trkpt>
      <trkpt lat="45.18658" lon="5.61614">
        <ele>913.29596279274</ele>
        <time>2019-08-06T05:53:08Z</time>
      </trkpt>
      <trkpt lat="45.18635" lon="5.61643">
        <ele>914.18571158224</ele>
        <time>2019-08-06T05:53:13Z</time>
      </trkpt>
      <trkpt lat="45.18613" lon="5.61662">
        <ele>915.30592037361</ele>
        <time>2019-08-06T05:53:18Z</time>
      </trkpt>
      <trkpt lat="45.18596" lon="5.61681">
        <ele>914.93415898076</ele>
        <time>2019-08-06T05:53:22Z</time>
      </trkpt>
      <trkpt lat="45.18577" lon="5.61701">
        <ele>914.76373043622</ele>
        <time>2019-08-06T05:53:26Z</time>
      </trkpt>
      <trkpt lat="45.18553" lon="5.61728">
        <ele>914.37933885637</ele>
        <time>2019-08-06T05:53:31Z</time>
      </trkpt>
      <trkpt lat="45.1854" lon="5.61746">
        <ele>914.66970529142</ele>
        <time>2019-08-06T05:53:34Z</time>
      </trkpt>
      <trkpt lat="45.18526" lon="5.61773">
        <ele>914.75424932843</ele>
        <time>2019-08-06T05:53:38Z</time>
      </trkpt>
      <trkpt lat="45.18511" lon="5.61809">
        <ele>914.86137822366</ele>
        <time>2019-08-06T05:53:43Z</time>
      </trkpt>
      <trkpt lat="45.18496" lon="5.61843">
        <ele>914.99628254778</ele>
        <time>2019-08-06T05:53:48Z</time>
      </trkpt>
      <trkpt lat="45.18477" lon="5.61867">
        <ele>914.11254248293</ele>
        <time>2019-08-06T05:53:52Z</time>
      </trkpt>
      <trkpt lat="45.18449" lon="5.61878">
        <ele>913.25884616855</ele>
        <time>2019-08-06T05:53:57Z</time>
      </trkpt>
      <trkpt lat="45.1842" lon="5.61873">
        <ele>914.06648254632</ele>
        <time>2019-08-06T05:54:02Z</time>
      </trkpt>
      <trkpt lat="45.18401" lon="5.61862">
        <ele>914.98324186137</ele>
        <time>2019-08-06T05:54:06Z</time>
      </trkpt>
      <trkpt lat="45.18378" lon="5.61845">
        <ele>914.71081452624</ele>
        <time>2019-08-06T05:54:11Z</time>
      </trkpt>
      <trkpt lat="45.18365" lon="5.61837">
        <ele>915.03253005851</ele>
        <time>2019-08-06T05:54:14Z</time>
      </trkpt>
      <trkpt lat="45.18348" lon="5.61826">
        <ele>914.82502770435</ele>
        <time>2019-08-06T05:54:18Z</time>
      </trkpt>
      <trkpt lat="45.18334" lon="5.61819">
        <ele>914.5098592531</ele>
        <time>2019-08-06T05:54:21Z</time>
      </trkpt>
      <trkpt lat="45.18314" lon="5.6181">
        <ele>913.76041309532</ele>
        <time>2019-08-06T05:54:25Z</time>
      </trkpt>
      <trkpt lat="45.18298" lon="5.61801">
        <ele>913.09373398745</ele>
        <time>2019-08-06T05:54:28Z</time>
      </trkpt>
      <trkpt lat="45.18283" lon="5.61782">
        <ele>913.74309637824</ele>
        <time>2019-08-06T05:54:32Z</time>
      </trkpt>
      <trkpt lat="45.18272" lon="5.61769">
        <ele>915.941636638</ele>
        <time>2019-08-06T05:54:37Z</time>
      </trkpt>
      <trkpt lat="45.18262" lon="5.61761">
        <ele>917.35740365206</ele>
        <time>2019-08-06T05:54:41Z</time>
      </trkpt>
      <trkpt lat="45.18252" lon="5.61749">
        <ele>919.36535189485</ele>
        <time>2019-08-06T05:54:46Z</time>
      </trkpt>
      <trkpt lat="45.18245" lon="5.61737">
        <ele>920.49952099174</ele>
        <time>2019-08-06T05:54:50Z</time>
      </trkpt>
      <trkpt lat="45.1824" lon="5.61727">
        <ele>921.62792378105</ele>
        <time>2019-08-06T05:54:54Z</time>
      </trkpt>
      <trkpt lat="45.18232" lon="5.61718">
        <ele>923.1144820907</ele>
        <time>2019-08-06T05:54:59Z</time>
      </trkpt>
      <trkpt lat="45.18227" lon="5.61714">
        <ele>923.42854223439</ele>
        <time>2019-08-06T05:55:02Z</time>
      </trkpt>
      <trkpt lat="45.18217" lon="5.61708">
        <ele>925.38731853588</ele>
        <time>2019-08-06T05:55:07Z</time>
      </trkpt>
      <trkpt lat="45.18208" lon="5.61706">
        <ele>926.5794776992</ele>
        <time>2019-08-06T05:55:11Z</time>
      </trkpt>
      <trkpt lat="45.18199" lon="5.61704">
        <ele>927.06001459965</ele>
        <time>2019-08-06T05:55:15Z</time>
      </trkpt>
      <trkpt lat="45.1819" lon="5.61704">
        <ele>927.5361522208</ele>
        <time>2019-08-06T05:55:19Z</time>
      </trkpt>
      <trkpt lat="45.18178" lon="5.61702">
        <ele>927.76861894081</ele>
        <time>2019-08-06T05:55:24Z</time>
      </trkpt>
      <trkpt lat="45.18166" lon="5.617">
        <ele>929.88445963516</ele>
        <time>2019-08-06T05:55:27Z</time>
      </trkpt>
      <trkpt lat="45.18153" lon="5.61697">
        <ele>930.64466525254</ele>
        <time>2019-08-06T05:55:32Z</time>
      </trkpt>
      <trkpt lat="45.18143" lon="5.6169">
        <ele>930.70378607354</ele>
        <time>2019-08-06T05:55:36Z</time>
      </trkpt>
      <trkpt lat="45.18126" lon="5.61685">
        <ele>930.93185774839</ele>
        <time>2019-08-06T05:55:40Z</time>
      </trkpt>
      <trkpt lat="45.1811" lon="5.61682">
        <ele>930.82526974883</ele>
        <time>2019-08-06T05:55:44Z</time>
      </trkpt>
      <trkpt lat="45.18095" lon="5.61678">
        <ele>930.95445572638</ele>
        <time>2019-08-06T05:55:48Z</time>
      </trkpt>
      <trkpt lat="45.18079" lon="5.61673">
        <ele>931.16648282984</ele>
        <time>2019-08-06T05:55:52Z</time>
      </trkpt>
      <trkpt lat="45.18063" lon="5.61667">
        <ele>931.69910416942</ele>
        <time>2019-08-06T05:55:56Z</time>
      </trkpt>
      <trkpt lat="45.18047" lon="5.61662">
        <ele>932.05772684318</ele>
        <time>2019-08-06T05:56:00Z</time>
      </trkpt>
      <trkpt lat="45.18031" lon="5.61657">
        <ele>932.68149099058</ele>
        <time>2019-08-06T05:56:04Z</time>
      </trkpt>
      <trkpt lat="45.18015" lon="5.61651">
        <ele>934.66723993252</ele>
        <time>2019-08-06T05:56:09Z</time>
      </trkpt>
      <trkpt lat="45.18004" lon="5.61647">
        <ele>935.77785903997</ele>
        <time>2019-08-06T05:56:13Z</time>
      </trkpt>
      <trkpt lat="45.17994" lon="5.61641">
        <ele>936.74080508567</ele>
        <time>2019-08-06T05:56:16Z</time>
      </trkpt>
      <trkpt lat="45.17982" lon="5.61635">
        <ele>938.05909763597</ele>
        <time>2019-08-06T05:56:20Z</time>
      </trkpt>
      <trkpt lat="45.17967" lon="5.61627">
        <ele>939.12614551916</ele>
        <time>2019-08-06T05:56:25Z</time>
      </trkpt>
      <trkpt lat="45.17954" lon="5.61619">
        <ele>939.65766550806</ele>
        <time>2019-08-06T05:56:29Z</time>
      </trkpt>
      <trkpt lat="45.17932" lon="5.61612">
        <ele>940.47722760211</ele>
        <time>2019-08-06T05:56:34Z</time>
      </trkpt>
      <trkpt lat="45.1792" lon="5.61609">
        <ele>940.99668838271</ele>
        <time>2019-08-06T05:56:37Z</time>
      </trkpt>
      <trkpt lat="45.17904" lon="5.616">
        <ele>941.58737784483</ele>
        <time>2019-08-06T05:56:41Z</time>
      </trkpt>
      <trkpt lat="45.1789" lon="5.61589">
        <ele>941.43711756354</ele>
        <time>2019-08-06T05:56:45Z</time>
      </trkpt>
      <trkpt lat="45.17872" lon="5.61575">
        <ele>940.2452588403</ele>
        <time>2019-08-06T05:56:50Z</time>
      </trkpt>
      <trkpt lat="45.1785" lon="5.61567">
        <ele>940.62964804305</ele>
        <time>2019-08-06T05:56:55Z</time>
      </trkpt>
      <trkpt lat="45.17834" lon="5.61566">
        <ele>941.79884433671</ele>
        <time>2019-08-06T05:56:59Z</time>
      </trkpt>
      <trkpt lat="45.17822" lon="5.61563">
        <ele>941.59911545653</ele>
        <time>2019-08-06T05:57:02Z</time>
      </trkpt>
      <trkpt lat="45.17804" lon="5.61551">
        <ele>940.7404972138</ele>
        <time>2019-08-06T05:57:07Z</time>
      </trkpt>
      <trkpt lat="45.17792" lon="5.61538">
        <ele>941.06825635147</ele>
        <time>2019-08-06T05:57:11Z</time>
      </trkpt>
      <trkpt lat="45.17776" lon="5.61519">
        <ele>940.04880716702</ele>
        <time>2019-08-06T05:57:16Z</time>
      </trkpt>
      <trkpt lat="45.17763" lon="5.61503">
        <ele>938.3004726287</ele>
        <time>2019-08-06T05:57:19Z</time>
      </trkpt>
      <trkpt lat="45.17739" lon="5.61476">
        <ele>934.89964986278</ele>
        <time>2019-08-06T05:57:23Z</time>
      </trkpt>
      <trkpt lat="45.17724" lon="5.61434">
        <ele>934.14428813321</ele>
        <time>2019-08-06T05:57:27Z</time>
      </trkpt>
      <trkpt lat="45.1772" lon="5.61394">
        <ele>934.60744681629</ele>
        <time>2019-08-06T05:57:31Z</time>
      </trkpt>
      <trkpt lat="45.17715" lon="5.61362">
        <ele>935.42013504512</ele>
        <time>2019-08-06T05:57:35Z</time>
      </trkpt>
      <trkpt lat="45.17708" lon="5.61327">
        <ele>936.49945546564</ele>
        <time>2019-08-06T05:57:40Z</time>
      </trkpt>
      <trkpt lat="45.17699" lon="5.61302">
        <ele>937.04650504286</ele>
        <time>2019-08-06T05:57:44Z</time>
      </trkpt>
      <trkpt lat="45.17689" lon="5.6127">
        <ele>938.14769989287</ele>
        <time>2019-08-06T05:57:49Z</time>
      </trkpt>
      <trkpt lat="45.17685" lon="5.61245">
        <ele>938.81032293678</ele>
        <time>2019-08-06T05:57:53Z</time>
      </trkpt>
      <trkpt lat="45.17683" lon="5.6121">
        <ele>939.22684225182</ele>
        <time>2019-08-06T05:57:58Z</time>
      </trkpt>
      <trkpt lat="45.17675" lon="5.61179">
        <ele>940.93413238125</ele>
        <time>2019-08-06T05:58:03Z</time>
      </trkpt>
      <trkpt lat="45.17672" lon="5.61158">
        <ele>942.3763220005</ele>
        <time>2019-08-06T05:58:07Z</time>
      </trkpt>
      <trkpt lat="45.17669" lon="5.61139">
        <ele>943.69876950388</ele>
        <time>2019-08-06T05:58:11Z</time>
      </trkpt>
      <trkpt lat="45.17664" lon="5.61118">
        <ele>944.77206510205</ele>
        <time>2019-08-06T05:58:15Z</time>
      </trkpt>
      <trkpt lat="45.17661" lon="5.61098">
        <ele>945.2384819372</ele>
        <time>2019-08-06T05:58:19Z</time>
      </trkpt>
      <trkpt lat="45.17658" lon="5.61072">
        <ele>945.95058573093</ele>
        <time>2019-08-06T05:58:24Z</time>
      </trkpt>
      <trkpt lat="45.17655" lon="5.61046">
        <ele>946.4168149586</ele>
        <time>2019-08-06T05:58:29Z</time>
      </trkpt>
      <trkpt lat="45.17649" lon="5.61026">
        <ele>945.60503090415</ele>
        <time>2019-08-06T05:58:33Z</time>
      </trkpt>
      <trkpt lat="45.17644" lon="5.61023">
        <ele>944.17822695821</ele>
        <time>2019-08-06T05:58:36Z</time>
      </trkpt>
      <trkpt lat="45.17636" lon="5.61023">
        <ele>939.5270534629</ele>
        <time>2019-08-06T05:58:40Z</time>
      </trkpt>
      <trkpt lat="45.17624" lon="5.61035">
        <ele>938.23168359883</ele>
        <time>2019-08-06T05:58:44Z</time>
      </trkpt>
      <trkpt lat="45.17615" lon="5.61041">
        <ele>935.01811120583</ele>
        <time>2019-08-06T05:58:47Z</time>
      </trkpt>
      <trkpt lat="45.17598" lon="5.61059">
        <ele>933.16381114867</ele>
        <time>2019-08-06T05:58:51Z</time>
      </trkpt>
      <trkpt lat="45.1759" lon="5.61081">
        <ele>929.94047519431</ele>
        <time>2019-08-06T05:58:56Z</time>
      </trkpt>
      <trkpt lat="45.17586" lon="5.61095">
        <ele>928.93517878323</ele>
        <time>2019-08-06T05:58:59Z</time>
      </trkpt>
      <trkpt lat="45.17582" lon="5.61111">
        <ele>930.89003446564</ele>
        <time>2019-08-06T05:59:03Z</time>
      </trkpt>
      <trkpt lat="45.17578" lon="5.61128">
        <ele>932.65311140165</ele>
        <time>2019-08-06T05:59:08Z</time>
      </trkpt>
      <trkpt lat="45.17576" lon="5.61136">
        <ele>933.72248847526</ele>
        <time>2019-08-06T05:59:11Z</time>
      </trkpt>
      <trkpt lat="45.17574" lon="5.61156">
        <ele>936.60837125653</ele>
        <time>2019-08-06T05:59:16Z</time>
      </trkpt>
      <trkpt lat="45.17574" lon="5.61169">
        <ele>937.97085851075</ele>
        <time>2019-08-06T05:59:21Z</time>
      </trkpt>
      <trkpt lat="45.17573" lon="5.61179">
        <ele>938.4877593851</ele>
        <time>2019-08-06T05:59:25Z</time>
      </trkpt>
      <trkpt lat="45.17575" lon="5.61193">
        <ele>939.44040012875</ele>
        <time>2019-08-06T05:59:29Z</time>
      </trkpt>
      <trkpt lat="45.17575" lon="5.61208">
        <ele>943.78768185291</ele>
        <time>2019-08-06T05:59:34Z</time>
      </trkpt>
      <trkpt lat="45.17574" lon="5.61214">
        <ele>946.717914608</ele>
        <time>2019-08-06T05:59:37Z</time>
      </trkpt>
      <trkpt lat="45.17572" lon="5.61225">
        <ele>951.86167799726</ele>
        <time>2019-08-06T05:59:42Z</time>
      </trkpt>
      <trkpt lat="45.17568" lon="5.61236">
        <ele>956.90279752844</ele>
        <time>2019-08-06T05:59:46Z</time>
      </trkpt>
      <trkpt lat="45.17565" lon="5.61246">
        <ele>959.79734237499</ele>
        <time>2019-08-06T05:59:49Z</time>
      </trkpt>
      <trkpt lat="45.17562" lon="5.61254">
        <ele>965.97314852895</ele>
        <time>2019-08-06T05:59:53Z</time>
      </trkpt>
      <trkpt lat="45.17558" lon="5.61262">
        <ele>965.6214414995</ele>
        <time>2019-08-06T05:59:57Z</time>
      </trkpt>
      <trkpt lat="45.17554" lon="5.61266">
        <ele>968.34641243253</ele>
        <time>2019-08-06T06:00:01Z</time>
      </trkpt>
      <trkpt lat="45.17548" lon="5.61279">
        <ele>970.55149458687</ele>
        <time>2019-08-06T06:00:06Z</time>
      </trkpt>
      <trkpt lat="45.17544" lon="5.61284">
        <ele>971.89892914575</ele>
        <time>2019-08-06T06:00:09Z</time>
      </trkpt>
      <trkpt lat="45.17538" lon="5.61294">
        <ele>976.00078982728</ele>
        <time>2019-08-06T06:00:14Z</time>
      </trkpt>
      <trkpt lat="45.17533" lon="5.61301">
        <ele>978.41463804525</ele>
        <time>2019-08-06T06:00:18Z</time>
      </trkpt>
      <trkpt lat="45.17529" lon="5.61307">
        <ele>981.67055510207</ele>
        <time>2019-08-06T06:00:22Z</time>
      </trkpt>
      <trkpt lat="45.17525" lon="5.61314">
        <ele>984.85491294224</ele>
        <time>2019-08-06T06:00:26Z</time>
      </trkpt>
      <trkpt lat="45.1752" lon="5.61324">
        <ele>986.18024939099</ele>
        <time>2019-08-06T06:00:31Z</time>
      </trkpt>
      <trkpt lat="45.17514" lon="5.61329">
        <ele>987.96472652215</ele>
        <time>2019-08-06T06:00:36Z</time>
      </trkpt>
      <trkpt lat="45.17508" lon="5.61333">
        <ele>986.88504743538</ele>
        <time>2019-08-06T06:00:40Z</time>
      </trkpt>
      <trkpt lat="45.17503" lon="5.61335">
        <ele>983.61169482733</ele>
        <time>2019-08-06T06:00:44Z</time>
      </trkpt>
      <trkpt lat="45.17499" lon="5.61331">
        <ele>982.35586075285</ele>
        <time>2019-08-06T06:00:48Z</time>
      </trkpt>
      <trkpt lat="45.17495" lon="5.61325">
        <ele>982.30645804729</ele>
        <time>2019-08-06T06:00:52Z</time>
      </trkpt>
      <trkpt lat="45.17491" lon="5.6132">
        <ele>982.50394170278</ele>
        <time>2019-08-06T06:00:56Z</time>
      </trkpt>
      <trkpt lat="45.17486" lon="5.61314">
        <ele>983.52580134193</ele>
        <time>2019-08-06T06:01:00Z</time>
      </trkpt>
      <trkpt lat="45.1748" lon="5.61309">
        <ele>984.96483760405</ele>
        <time>2019-08-06T06:01:05Z</time>
      </trkpt>
      <trkpt lat="45.17476" lon="5.61303">
        <ele>986.51817005782</ele>
        <time>2019-08-06T06:01:09Z</time>
      </trkpt>
      <trkpt lat="45.17472" lon="5.61298">
        <ele>987.24638275229</ele>
        <time>2019-08-06T06:01:13Z</time>
      </trkpt>
      <trkpt lat="45.17467" lon="5.6129">
        <ele>988.77287551121</ele>
        <time>2019-08-06T06:01:18Z</time>
      </trkpt>
      <trkpt lat="45.17464" lon="5.61285">
        <ele>989.26442069032</ele>
        <time>2019-08-06T06:01:21Z</time>
      </trkpt>
      <trkpt lat="45.17459" lon="5.61279">
        <ele>989.65362535821</ele>
        <time>2019-08-06T06:01:25Z</time>
      </trkpt>
      <trkpt lat="45.17454" lon="5.61274">
        <ele>990.17362845035</ele>
        <time>2019-08-06T06:01:29Z</time>
      </trkpt>
      <trkpt lat="45.1745" lon="5.61274">
        <ele>990.69332980502</ele>
        <time>2019-08-06T06:01:38Z</time>
      </trkpt>
      <trkpt lat="45.17447" lon="5.6127">
        <ele>990.83949945895</ele>
        <time>2019-08-06T06:01:58Z</time>
      </trkpt>
      <trkpt lat="45.17443" lon="5.61265">
        <ele>992.38693534095</ele>
        <time>2019-08-06T06:02:01Z</time>
      </trkpt>
      <trkpt lat="45.17435" lon="5.61257">
        <ele>991.39573802091</ele>
        <time>2019-08-06T06:02:06Z</time>
      </trkpt>
      <trkpt lat="45.17427" lon="5.61249">
        <ele>991.08786785255</ele>
        <time>2019-08-06T06:02:10Z</time>
      </trkpt>
      <trkpt lat="45.17407" lon="5.61238">
        <ele>991.31889474875</ele>
        <time>2019-08-06T06:02:15Z</time>
      </trkpt>
      <trkpt lat="45.17397" lon="5.6123">
        <ele>992.03418792395</ele>
        <time>2019-08-06T06:02:19Z</time>
      </trkpt>
      <trkpt lat="45.17387" lon="5.61222">
        <ele>991.91613169182</ele>
        <time>2019-08-06T06:02:23Z</time>
      </trkpt>
      <trkpt lat="45.17371" lon="5.61206">
        <ele>991.2638073468</ele>
        <time>2019-08-06T06:02:28Z</time>
      </trkpt>
      <trkpt lat="45.1736" lon="5.61191">
        <ele>990.6883434181</ele>
        <time>2019-08-06T06:02:33Z</time>
      </trkpt>
      <trkpt lat="45.17352" lon="5.61181">
        <ele>990.46872347216</ele>
        <time>2019-08-06T06:02:36Z</time>
      </trkpt>
      <trkpt lat="45.17341" lon="5.61156">
        <ele>988.13595549888</ele>
        <time>2019-08-06T06:02:40Z</time>
      </trkpt>
      <trkpt lat="45.17323" lon="5.6114">
        <ele>989.78057742174</ele>
        <time>2019-08-06T06:02:45Z</time>
      </trkpt>
      <trkpt lat="45.17315" lon="5.61141">
        <ele>991.05115728237</ele>
        <time>2019-08-06T06:02:49Z</time>
      </trkpt>
      <trkpt lat="45.17305" lon="5.61139">
        <ele>991.99400727599</ele>
        <time>2019-08-06T06:02:53Z</time>
      </trkpt>
      <trkpt lat="45.17296" lon="5.61136">
        <ele>993.56442183799</ele>
        <time>2019-08-06T06:02:57Z</time>
      </trkpt>
      <trkpt lat="45.17286" lon="5.6113">
        <ele>994.08438226876</ele>
        <time>2019-08-06T06:03:02Z</time>
      </trkpt>
      <trkpt lat="45.17276" lon="5.61125">
        <ele>995.06935346666</ele>
        <time>2019-08-06T06:03:06Z</time>
      </trkpt>
      <trkpt lat="45.17267" lon="5.61119">
        <ele>996.62395771312</ele>
        <time>2019-08-06T06:03:10Z</time>
      </trkpt>
      <trkpt lat="45.17253" lon="5.61111">
        <ele>996.88961999009</ele>
        <time>2019-08-06T06:03:15Z</time>
      </trkpt>
      <trkpt lat="45.17231" lon="5.61099">
        <ele>995.56046652672</ele>
        <time>2019-08-06T06:03:20Z</time>
      </trkpt>
      <trkpt lat="45.17223" lon="5.61093">
        <ele>996.20073844305</ele>
        <time>2019-08-06T06:03:23Z</time>
      </trkpt>
      <trkpt lat="45.17214" lon="5.61085">
        <ele>994.28142467344</ele>
        <time>2019-08-06T06:03:27Z</time>
      </trkpt>
      <trkpt lat="45.17202" lon="5.61074">
        <ele>992.67101223708</ele>
        <time>2019-08-06T06:03:32Z</time>
      </trkpt>
      <trkpt lat="45.17186" lon="5.6106">
        <ele>992.97656958004</ele>
        <time>2019-08-06T06:03:35Z</time>
      </trkpt>
      <trkpt lat="45.17163" lon="5.6105">
        <ele>994.51664230509</ele>
        <time>2019-08-06T06:03:40Z</time>
      </trkpt>
      <trkpt lat="45.17144" lon="5.61049">
        <ele>1000.8175989261</ele>
        <time>2019-08-06T06:03:45Z</time>
      </trkpt>
      <trkpt lat="45.17134" lon="5.61049">
        <ele>999.01607841474</ele>
        <time>2019-08-06T06:03:49Z</time>
      </trkpt>
      <trkpt lat="45.17121" lon="5.61047">
        <ele>999.96003293909</ele>
        <time>2019-08-06T06:03:53Z</time>
      </trkpt>
      <trkpt lat="45.17103" lon="5.61043">
        <ele>999.72347243674</ele>
        <time>2019-08-06T06:03:57Z</time>
      </trkpt>
      <trkpt lat="45.17084" lon="5.61039">
        <ele>998.60705903656</ele>
        <time>2019-08-06T06:04:02Z</time>
      </trkpt>
      <trkpt lat="45.17074" lon="5.61037">
        <ele>998.15539264375</ele>
        <time>2019-08-06T06:04:06Z</time>
      </trkpt>
      <trkpt lat="45.17055" lon="5.61037">
        <ele>996.52375594166</ele>
        <time>2019-08-06T06:04:10Z</time>
      </trkpt>
      <trkpt lat="45.17033" lon="5.61036">
        <ele>994.84873560012</ele>
        <time>2019-08-06T06:04:14Z</time>
      </trkpt>
      <trkpt lat="45.17012" lon="5.61033">
        <ele>993.56403834453</ele>
        <time>2019-08-06T06:04:18Z</time>
      </trkpt>
      <trkpt lat="45.16983" lon="5.61027">
        <ele>990.78506263836</ele>
        <time>2019-08-06T06:04:23Z</time>
      </trkpt>
      <trkpt lat="45.16959" lon="5.61018">
        <ele>987.8646569451</ele>
        <time>2019-08-06T06:04:27Z</time>
      </trkpt>
      <trkpt lat="45.16952" lon="5.61012">
        <ele>987.68108884546</ele>
        <time>2019-08-06T06:04:30Z</time>
      </trkpt>
      <trkpt lat="45.16946" lon="5.61009">
        <ele>987.24586571678</ele>
        <time>2019-08-06T06:04:34Z</time>
      </trkpt>
      <trkpt lat="45.16942" lon="5.61006">
        <ele>987.86851518474</ele>
        <time>2019-08-06T06:04:37Z</time>
      </trkpt>
      <trkpt lat="45.16937" lon="5.61">
        <ele>988.42838510574</ele>
        <time>2019-08-06T06:04:41Z</time>
      </trkpt>
      <trkpt lat="45.16941" lon="5.61003">
        <ele>988.00151917515</ele>
        <time>2019-08-06T06:04:45Z</time>
      </trkpt>
      <trkpt lat="45.16946" lon="5.61014">
        <ele>985.69132075371</ele>
        <time>2019-08-06T06:04:49Z</time>
      </trkpt>
      <trkpt lat="45.16951" lon="5.61023">
        <ele>985.5867216873</ele>
        <time>2019-08-06T06:04:53Z</time>
      </trkpt>
      <trkpt lat="45.16948" lon="5.61024">
        <ele>985.72670594265</ele>
        <time>2019-08-06T06:04:58Z</time>
      </trkpt>
      <trkpt lat="45.16942" lon="5.61021">
        <ele>983.31292182152</ele>
        <time>2019-08-06T06:05:02Z</time>
      </trkpt>
      <trkpt lat="45.16931" lon="5.61015">
        <ele>982.67554417319</ele>
        <time>2019-08-06T06:05:07Z</time>
      </trkpt>
      <trkpt lat="45.16923" lon="5.61011">
        <ele>981.93889691799</ele>
        <time>2019-08-06T06:05:10Z</time>
      </trkpt>
      <trkpt lat="45.16914" lon="5.61005">
        <ele>979.99619832879</ele>
        <time>2019-08-06T06:05:14Z</time>
      </trkpt>
      <trkpt lat="45.16904" lon="5.60997">
        <ele>977.46356565178</ele>
        <time>2019-08-06T06:05:19Z</time>
      </trkpt>
      <trkpt lat="45.16891" lon="5.60989">
        <ele>973.56498818327</ele>
        <time>2019-08-06T06:05:23Z</time>
      </trkpt>
      <trkpt lat="45.16879" lon="5.60984">
        <ele>973.44530615555</ele>
        <time>2019-08-06T06:05:28Z</time>
      </trkpt>
      <trkpt lat="45.16866" lon="5.60982">
        <ele>970.70018463584</ele>
        <time>2019-08-06T06:05:32Z</time>
      </trkpt>
      <trkpt lat="45.1685" lon="5.60975">
        <ele>965.54687166955</ele>
        <time>2019-08-06T06:05:37Z</time>
      </trkpt>
      <trkpt lat="45.16834" lon="5.60969">
        <ele>961.664135971</ele>
        <time>2019-08-06T06:05:42Z</time>
      </trkpt>
      <trkpt lat="45.16821" lon="5.60964">
        <ele>962.16596722782</ele>
        <time>2019-08-06T06:05:46Z</time>
      </trkpt>
      <trkpt lat="45.16804" lon="5.60958">
        <ele>959.70344386612</ele>
        <time>2019-08-06T06:05:51Z</time>
      </trkpt>
      <trkpt lat="45.16794" lon="5.60954">
        <ele>956.5839919593</ele>
        <time>2019-08-06T06:05:54Z</time>
      </trkpt>
      <trkpt lat="45.16777" lon="5.60944">
        <ele>956.8299789825</ele>
        <time>2019-08-06T06:05:58Z</time>
      </trkpt>
      <trkpt lat="45.16756" lon="5.60934">
        <ele>953.37176851217</ele>
        <time>2019-08-06T06:06:03Z</time>
      </trkpt>
      <trkpt lat="45.16735" lon="5.60928">
        <ele>954.41838229765</ele>
        <time>2019-08-06T06:06:07Z</time>
      </trkpt>
      <trkpt lat="45.16716" lon="5.6092">
        <ele>951.31771558624</ele>
        <time>2019-08-06T06:06:11Z</time>
      </trkpt>
      <trkpt lat="45.167" lon="5.60914">
        <ele>948.72115178735</ele>
        <time>2019-08-06T06:06:15Z</time>
      </trkpt>
      <trkpt lat="45.16689" lon="5.60909">
        <ele>948.00241226054</ele>
        <time>2019-08-06T06:06:18Z</time>
      </trkpt>
      <trkpt lat="45.16675" lon="5.60905">
        <ele>945.46181850351</ele>
        <time>2019-08-06T06:06:22Z</time>
      </trkpt>
      <trkpt lat="45.16655" lon="5.60897">
        <ele>940.15798801907</ele>
        <time>2019-08-06T06:06:27Z</time>
      </trkpt>
      <trkpt lat="45.16638" lon="5.60892">
        <ele>937.81296210241</ele>
        <time>2019-08-06T06:06:31Z</time>
      </trkpt>
      <trkpt lat="45.16626" lon="5.60892">
        <ele>937.03561472824</ele>
        <time>2019-08-06T06:06:35Z</time>
      </trkpt>
      <trkpt lat="45.16608" lon="5.60895">
        <ele>931.36823353116</ele>
        <time>2019-08-06T06:06:40Z</time>
      </trkpt>
      <trkpt lat="45.16598" lon="5.60895">
        <ele>929.12256189616</ele>
        <time>2019-08-06T06:06:43Z</time>
      </trkpt>
      <trkpt lat="45.16581" lon="5.60893">
        <ele>926.0635421513</ele>
        <time>2019-08-06T06:06:48Z</time>
      </trkpt>
      <trkpt lat="45.16571" lon="5.60891">
        <ele>923.13732891662</ele>
        <time>2019-08-06T06:06:51Z</time>
      </trkpt>
      <trkpt lat="45.16556" lon="5.6089">
        <ele>919.76499199039</ele>
        <time>2019-08-06T06:06:55Z</time>
      </trkpt>
      <trkpt lat="45.16551" lon="5.60906">
        <ele>916.02417262391</ele>
        <time>2019-08-06T06:07:00Z</time>
      </trkpt>
      <trkpt lat="45.16554" lon="5.60924">
        <ele>914.52399999214</ele>
        <time>2019-08-06T06:07:04Z</time>
      </trkpt>
      <trkpt lat="45.16556" lon="5.60929">
        <ele>913.12124758018</ele>
        <time>2019-08-06T06:07:11Z</time>
      </trkpt>
      <trkpt lat="45.16559" lon="5.60938">
        <ele>911.79837843377</ele>
        <time>2019-08-06T06:07:16Z</time>
      </trkpt>
      <trkpt lat="45.16564" lon="5.60951">
        <ele>910.31624379614</ele>
        <time>2019-08-06T06:07:20Z</time>
      </trkpt>
      <trkpt lat="45.16566" lon="5.60971">
        <ele>908.55600573654</ele>
        <time>2019-08-06T06:07:25Z</time>
      </trkpt>
      <trkpt lat="45.1656" lon="5.60975">
        <ele>906.15376582053</ele>
        <time>2019-08-06T06:07:28Z</time>
      </trkpt>
      <trkpt lat="45.16545" lon="5.60965">
        <ele>902.7628789455</ele>
        <time>2019-08-06T06:07:32Z</time>
      </trkpt>
      <trkpt lat="45.16532" lon="5.60948">
        <ele>899.22703933939</ele>
        <time>2019-08-06T06:07:36Z</time>
      </trkpt>
      <trkpt lat="45.16516" lon="5.60928">
        <ele>894.90351742199</ele>
        <time>2019-08-06T06:07:41Z</time>
      </trkpt>
      <trkpt lat="45.16508" lon="5.60932">
        <ele>893.29251523832</ele>
        <time>2019-08-06T06:07:46Z</time>
      </trkpt>
      <trkpt lat="45.16508" lon="5.60961">
        <ele>891.51583667786</ele>
        <time>2019-08-06T06:07:50Z</time>
      </trkpt>
      <trkpt lat="45.16507" lon="5.6098">
        <ele>889.78782818688</ele>
        <time>2019-08-06T06:07:55Z</time>
      </trkpt>
      <trkpt lat="45.16505" lon="5.61009">
        <ele>888.52615766307</ele>
        <time>2019-08-06T06:07:59Z</time>
      </trkpt>
      <trkpt lat="45.16501" lon="5.61027">
        <ele>887.58850869798</ele>
        <time>2019-08-06T06:08:02Z</time>
      </trkpt>
      <trkpt lat="45.16499" lon="5.61051">
        <ele>886.25685202612</ele>
        <time>2019-08-06T06:08:06Z</time>
      </trkpt>
      <trkpt lat="45.16497" lon="5.61063">
        <ele>884.48632755243</ele>
        <time>2019-08-06T06:08:10Z</time>
      </trkpt>
      <trkpt lat="45.16496" lon="5.61068">
        <ele>884.23417916486</ele>
        <time>2019-08-06T06:08:13Z</time>
      </trkpt>
      <trkpt lat="45.16492" lon="5.61069">
        <ele>883.88554323016</ele>
        <time>2019-08-06T06:08:19Z</time>
      </trkpt>
      <trkpt lat="45.16484" lon="5.61059">
        <ele>884.29298190542</ele>
        <time>2019-08-06T06:08:23Z</time>
      </trkpt>
      <trkpt lat="45.16471" lon="5.61046">
        <ele>884.60935308454</ele>
        <time>2019-08-06T06:08:28Z</time>
      </trkpt>
      <trkpt lat="45.16463" lon="5.61036">
        <ele>884.72962326304</ele>
        <time>2019-08-06T06:08:32Z</time>
      </trkpt>
      <trkpt lat="45.1645" lon="5.61025">
        <ele>884.9165670883</ele>
        <time>2019-08-06T06:08:36Z</time>
      </trkpt>
      <trkpt lat="45.16433" lon="5.61011">
        <ele>884.99310696302</ele>
        <time>2019-08-06T06:08:40Z</time>
      </trkpt>
      <trkpt lat="45.16417" lon="5.60995">
        <ele>885.00426320297</ele>
        <time>2019-08-06T06:08:45Z</time>
      </trkpt>
      <trkpt lat="45.16399" lon="5.6098">
        <ele>885.46193499624</ele>
        <time>2019-08-06T06:08:50Z</time>
      </trkpt>
      <trkpt lat="45.16384" lon="5.6097">
        <ele>885.32703765917</ele>
        <time>2019-08-06T06:08:54Z</time>
      </trkpt>
      <trkpt lat="45.16366" lon="5.60964">
        <ele>885.0155573359</ele>
        <time>2019-08-06T06:08:58Z</time>
      </trkpt>
      <trkpt lat="45.16353" lon="5.60961">
        <ele>885.17328218908</ele>
        <time>2019-08-06T06:09:01Z</time>
      </trkpt>
      <trkpt lat="45.16335" lon="5.60958">
        <ele>885.06186261511</ele>
        <time>2019-08-06T06:09:05Z</time>
      </trkpt>
      <trkpt lat="45.16316" lon="5.60954">
        <ele>885.00066527352</ele>
        <time>2019-08-06T06:09:09Z</time>
      </trkpt>
      <trkpt lat="45.16297" lon="5.60951">
        <ele>885.17213883699</ele>
        <time>2019-08-06T06:09:13Z</time>
      </trkpt>
      <trkpt lat="45.16272" lon="5.60947">
        <ele>885.90199905348</ele>
        <time>2019-08-06T06:09:18Z</time>
      </trkpt>
      <trkpt lat="45.16253" lon="5.60944">
        <ele>886.29411710482</ele>
        <time>2019-08-06T06:09:22Z</time>
      </trkpt>
      <trkpt lat="45.16233" lon="5.60941">
        <ele>887.02182725053</ele>
        <time>2019-08-06T06:09:26Z</time>
      </trkpt>
      <trkpt lat="45.16213" lon="5.60939">
        <ele>887.72706934473</ele>
        <time>2019-08-06T06:09:30Z</time>
      </trkpt>
      <trkpt lat="45.16193" lon="5.60937">
        <ele>888.67812109153</ele>
        <time>2019-08-06T06:09:34Z</time>
      </trkpt>
      <trkpt lat="45.16172" lon="5.60937">
        <ele>889.80951847277</ele>
        <time>2019-08-06T06:09:38Z</time>
      </trkpt>
      <trkpt lat="45.16151" lon="5.60936">
        <ele>890.00022526108</ele>
        <time>2019-08-06T06:09:42Z</time>
      </trkpt>
      <trkpt lat="45.1613" lon="5.60935">
        <ele>890.3303633819</ele>
        <time>2019-08-06T06:09:46Z</time>
      </trkpt>
      <trkpt lat="45.16104" lon="5.60932">
        <ele>890.58456481192</ele>
        <time>2019-08-06T06:09:51Z</time>
      </trkpt>
      <trkpt lat="45.16077" lon="5.60925">
        <ele>890.5341390738</ele>
        <time>2019-08-06T06:09:56Z</time>
      </trkpt>
      <trkpt lat="45.16061" lon="5.60918">
        <ele>890.60559016967</ele>
        <time>2019-08-06T06:09:59Z</time>
      </trkpt>
      <trkpt lat="45.1604" lon="5.60908">
        <ele>890.41871161546</ele>
        <time>2019-08-06T06:10:03Z</time>
      </trkpt>
      <trkpt lat="45.1602" lon="5.60897">
        <ele>890.7229754595</ele>
        <time>2019-08-06T06:10:07Z</time>
      </trkpt>
      <trkpt lat="45.15999" lon="5.60886">
        <ele>889.89432566144</ele>
        <time>2019-08-06T06:10:11Z</time>
      </trkpt>
      <trkpt lat="45.15983" lon="5.60876">
        <ele>889.82024545182</ele>
        <time>2019-08-06T06:10:14Z</time>
      </trkpt>
      <trkpt lat="45.15964" lon="5.6086">
        <ele>890.23719503768</ele>
        <time>2019-08-06T06:10:18Z</time>
      </trkpt>
      <trkpt lat="45.15946" lon="5.60845">
        <ele>890.62592276427</ele>
        <time>2019-08-06T06:10:22Z</time>
      </trkpt>
      <trkpt lat="45.15924" lon="5.6083">
        <ele>891.26910938736</ele>
        <time>2019-08-06T06:10:27Z</time>
      </trkpt>
      <trkpt lat="45.1591" lon="5.60822">
        <ele>891.33773427622</ele>
        <time>2019-08-06T06:10:30Z</time>
      </trkpt>
      <trkpt lat="45.15892" lon="5.60813">
        <ele>891.72303466623</ele>
        <time>2019-08-06T06:10:34Z</time>
      </trkpt>
      <trkpt lat="45.15873" lon="5.60803">
        <ele>892.32795215711</ele>
        <time>2019-08-06T06:10:38Z</time>
      </trkpt>
      <trkpt lat="45.15859" lon="5.60795">
        <ele>892.76699668338</ele>
        <time>2019-08-06T06:10:41Z</time>
      </trkpt>
      <trkpt lat="45.1584" lon="5.60786">
        <ele>892.90320452625</ele>
        <time>2019-08-06T06:10:45Z</time>
      </trkpt>
      <trkpt lat="45.1582" lon="5.60778">
        <ele>893.40936937388</ele>
        <time>2019-08-06T06:10:49Z</time>
      </trkpt>
      <trkpt lat="45.158" lon="5.6077">
        <ele>893.3962977584</ele>
        <time>2019-08-06T06:10:53Z</time>
      </trkpt>
      <trkpt lat="45.15781" lon="5.60758">
        <ele>893.22383209321</ele>
        <time>2019-08-06T06:10:57Z</time>
      </trkpt>
      <trkpt lat="45.15762" lon="5.60743">
        <ele>893.04904800446</ele>
        <time>2019-08-06T06:11:01Z</time>
      </trkpt>
      <trkpt lat="45.15749" lon="5.6073">
        <ele>893.2955566271</ele>
        <time>2019-08-06T06:11:04Z</time>
      </trkpt>
      <trkpt lat="45.15731" lon="5.60715">
        <ele>893.57086029995</ele>
        <time>2019-08-06T06:11:08Z</time>
      </trkpt>
      <trkpt lat="45.15717" lon="5.60705">
        <ele>893.38544123195</ele>
        <time>2019-08-06T06:11:11Z</time>
      </trkpt>
      <trkpt lat="45.15702" lon="5.60696">
        <ele>893.1541885603</ele>
        <time>2019-08-06T06:11:15Z</time>
      </trkpt>
      <trkpt lat="45.15676" lon="5.6068">
        <ele>893.18299254696</ele>
        <time>2019-08-06T06:11:19Z</time>
      </trkpt>
      <trkpt lat="45.15656" lon="5.60667">
        <ele>893.44859629275</ele>
        <time>2019-08-06T06:11:23Z</time>
      </trkpt>
      <trkpt lat="45.15641" lon="5.60658">
        <ele>893.72412125906</ele>
        <time>2019-08-06T06:11:26Z</time>
      </trkpt>
      <trkpt lat="45.15617" lon="5.60645">
        <ele>893.9598106282</ele>
        <time>2019-08-06T06:11:31Z</time>
      </trkpt>
      <trkpt lat="45.15597" lon="5.60637">
        <ele>894.15548143458</ele>
        <time>2019-08-06T06:11:35Z</time>
      </trkpt>
      <trkpt lat="45.15578" lon="5.6063">
        <ele>894.22580759814</ele>
        <time>2019-08-06T06:11:39Z</time>
      </trkpt>
      <trkpt lat="45.15558" lon="5.60623">
        <ele>894.52801133589</ele>
        <time>2019-08-06T06:11:43Z</time>
      </trkpt>
      <trkpt lat="45.15539" lon="5.60615">
        <ele>894.59182295591</ele>
        <time>2019-08-06T06:11:47Z</time>
      </trkpt>
      <trkpt lat="45.15515" lon="5.60606">
        <ele>894.82666946041</ele>
        <time>2019-08-06T06:11:52Z</time>
      </trkpt>
      <trkpt lat="45.1549" lon="5.60597">
        <ele>895.65009537996</ele>
        <time>2019-08-06T06:11:57Z</time>
      </trkpt>
      <trkpt lat="45.1547" lon="5.6059">
        <ele>896.6060416414</ele>
        <time>2019-08-06T06:12:01Z</time>
      </trkpt>
      <trkpt lat="45.15456" lon="5.60583">
        <ele>897.28908559684</ele>
        <time>2019-08-06T06:12:04Z</time>
      </trkpt>
      <trkpt lat="45.15437" lon="5.60573">
        <ele>897.48020532817</ele>
        <time>2019-08-06T06:12:08Z</time>
      </trkpt>
      <trkpt lat="45.15421" lon="5.60557">
        <ele>898.19460276621</ele>
        <time>2019-08-06T06:12:12Z</time>
      </trkpt>
      <trkpt lat="45.15406" lon="5.6053">
        <ele>899.80779863682</ele>
        <time>2019-08-06T06:12:17Z</time>
      </trkpt>
      <trkpt lat="45.15394" lon="5.60498">
        <ele>901.40696992485</ele>
        <time>2019-08-06T06:12:22Z</time>
      </trkpt>
      <trkpt lat="45.15386" lon="5.60475">
        <ele>901.8600115227</ele>
        <time>2019-08-06T06:12:26Z</time>
      </trkpt>
      <trkpt lat="45.15381" lon="5.60458">
        <ele>901.99093305699</ele>
        <time>2019-08-06T06:12:29Z</time>
      </trkpt>
      <trkpt lat="45.15376" lon="5.60443">
        <ele>902.2023240133</ele>
        <time>2019-08-06T06:12:33Z</time>
      </trkpt>
      <trkpt lat="45.15369" lon="5.60437">
        <ele>902.26446514558</ele>
        <time>2019-08-06T06:12:38Z</time>
      </trkpt>
      <trkpt lat="45.1536" lon="5.60452">
        <ele>901.04401782672</ele>
        <time>2019-08-06T06:12:43Z</time>
      </trkpt>
      <trkpt lat="45.15358" lon="5.60467">
        <ele>899.86627646997</ele>
        <time>2019-08-06T06:12:47Z</time>
      </trkpt>
      <trkpt lat="45.15364" lon="5.60485">
        <ele>898.79806050226</ele>
        <time>2019-08-06T06:12:51Z</time>
      </trkpt>
      <trkpt lat="45.15375" lon="5.60511">
        <ele>895.2161301477</ele>
        <time>2019-08-06T06:12:56Z</time>
      </trkpt>
      <trkpt lat="45.15385" lon="5.60536">
        <ele>897.2614966915</ele>
        <time>2019-08-06T06:13:01Z</time>
      </trkpt>
      <trkpt lat="45.15387" lon="5.60548">
        <ele>897.68920688689</ele>
        <time>2019-08-06T06:13:05Z</time>
      </trkpt>
      <trkpt lat="45.15385" lon="5.60553">
        <ele>900.28654697829</ele>
        <time>2019-08-06T06:13:10Z</time>
      </trkpt>
      <trkpt lat="45.15379" lon="5.60547">
        <ele>901.43401249829</ele>
        <time>2019-08-06T06:13:15Z</time>
      </trkpt>
      <trkpt lat="45.15371" lon="5.60537">
        <ele>901.93865129884</ele>
        <time>2019-08-06T06:13:19Z</time>
      </trkpt>
      <trkpt lat="45.15367" lon="5.60531">
        <ele>903.70800180428</ele>
        <time>2019-08-06T06:13:22Z</time>
      </trkpt>
      <trkpt lat="45.1536" lon="5.60522">
        <ele>904.54256393607</ele>
        <time>2019-08-06T06:13:26Z</time>
      </trkpt>
      <trkpt lat="45.15348" lon="5.60511">
        <ele>907.98927013692</ele>
        <time>2019-08-06T06:13:31Z</time>
      </trkpt>
      <trkpt lat="45.15341" lon="5.60503">
        <ele>909.93475773654</ele>
        <time>2019-08-06T06:13:35Z</time>
      </trkpt>
      <trkpt lat="45.1533" lon="5.60498">
        <ele>909.65175995801</ele>
        <time>2019-08-06T06:13:39Z</time>
      </trkpt>
      <trkpt lat="45.15324" lon="5.60491">
        <ele>911.08352585126</ele>
        <time>2019-08-06T06:13:43Z</time>
      </trkpt>
      <trkpt lat="45.15315" lon="5.60483">
        <ele>912.28373543089</ele>
        <time>2019-08-06T06:13:48Z</time>
      </trkpt>
      <trkpt lat="45.15306" lon="5.60476">
        <ele>914.24231246848</ele>
        <time>2019-08-06T06:13:52Z</time>
      </trkpt>
      <trkpt lat="45.15295" lon="5.60465">
        <ele>919.65480061531</ele>
        <time>2019-08-06T06:13:57Z</time>
      </trkpt>
      <trkpt lat="45.1529" lon="5.60459">
        <ele>920.84353037468</ele>
        <time>2019-08-06T06:14:00Z</time>
      </trkpt>
      <trkpt lat="45.15281" lon="5.6045">
        <ele>923.03134986738</ele>
        <time>2019-08-06T06:14:04Z</time>
      </trkpt>
      <trkpt lat="45.15272" lon="5.60439">
        <ele>926.52873477679</ele>
        <time>2019-08-06T06:14:09Z</time>
      </trkpt>
      <trkpt lat="45.15262" lon="5.60429">
        <ele>924.40907886717</ele>
        <time>2019-08-06T06:14:13Z</time>
      </trkpt>
      <trkpt lat="45.15254" lon="5.60418">
        <ele>924.6209295353</ele>
        <time>2019-08-06T06:14:16Z</time>
      </trkpt>
      <trkpt lat="45.15247" lon="5.60409">
        <ele>924.09148120902</ele>
        <time>2019-08-06T06:14:19Z</time>
      </trkpt>
      <trkpt lat="45.15235" lon="5.60394">
        <ele>923.37776256101</ele>
        <time>2019-08-06T06:14:24Z</time>
      </trkpt>
      <trkpt lat="45.1523" lon="5.60386">
        <ele>923.36528773507</ele>
        <time>2019-08-06T06:14:28Z</time>
      </trkpt>
      <trkpt lat="45.15222" lon="5.60377">
        <ele>923.03228425027</ele>
        <time>2019-08-06T06:14:32Z</time>
      </trkpt>
      <trkpt lat="45.15213" lon="5.60367">
        <ele>922.98177219402</ele>
        <time>2019-08-06T06:14:36Z</time>
      </trkpt>
      <trkpt lat="45.15205" lon="5.60357">
        <ele>922.55259110116</ele>
        <time>2019-08-06T06:14:40Z</time>
      </trkpt>
      <trkpt lat="45.15194" lon="5.60345">
        <ele>922.65682418462</ele>
        <time>2019-08-06T06:14:45Z</time>
      </trkpt>
      <trkpt lat="45.15186" lon="5.60335">
        <ele>922.18951194485</ele>
        <time>2019-08-06T06:14:49Z</time>
      </trkpt>
      <trkpt lat="45.1518" lon="5.60328">
        <ele>921.80856833378</ele>
        <time>2019-08-06T06:14:52Z</time>
      </trkpt>
      <trkpt lat="45.15172" lon="5.60318">
        <ele>924.5016120923</ele>
        <time>2019-08-06T06:14:56Z</time>
      </trkpt>
      <trkpt lat="45.15162" lon="5.60305">
        <ele>925.50836670593</ele>
        <time>2019-08-06T06:15:00Z</time>
      </trkpt>
      <trkpt lat="45.15145" lon="5.60285">
        <ele>924.96173371651</ele>
        <time>2019-08-06T06:15:05Z</time>
      </trkpt>
      <trkpt lat="45.15134" lon="5.6027">
        <ele>926.83832200812</ele>
        <time>2019-08-06T06:15:10Z</time>
      </trkpt>
      <trkpt lat="45.15128" lon="5.6026">
        <ele>928.2202889301</ele>
        <time>2019-08-06T06:15:13Z</time>
      </trkpt>
      <trkpt lat="45.15121" lon="5.6025">
        <ele>928.5056988911</ele>
        <time>2019-08-06T06:15:16Z</time>
      </trkpt>
      <trkpt lat="45.15109" lon="5.60233">
        <ele>931.85410281824</ele>
        <time>2019-08-06T06:15:21Z</time>
      </trkpt>
      <trkpt lat="45.15102" lon="5.60222">
        <ele>932.70766551525</ele>
        <time>2019-08-06T06:15:24Z</time>
      </trkpt>
      <trkpt lat="45.15093" lon="5.60207">
        <ele>935.00818658024</ele>
        <time>2019-08-06T06:15:28Z</time>
      </trkpt>
      <trkpt lat="45.15085" lon="5.60193">
        <ele>935.54405861578</ele>
        <time>2019-08-06T06:15:32Z</time>
      </trkpt>
      <trkpt lat="45.15076" lon="5.60177">
        <ele>937.00539323603</ele>
        <time>2019-08-06T06:15:37Z</time>
      </trkpt>
      <trkpt lat="45.15067" lon="5.60166">
        <ele>935.55207015082</ele>
        <time>2019-08-06T06:15:41Z</time>
      </trkpt>
      <trkpt lat="45.15056" lon="5.60155">
        <ele>932.13779852182</ele>
        <time>2019-08-06T06:15:45Z</time>
      </trkpt>
      <trkpt lat="45.15036" lon="5.60136">
        <ele>935.33053950141</ele>
        <time>2019-08-06T06:15:49Z</time>
      </trkpt>
      <trkpt lat="45.15013" lon="5.60114">
        <ele>934.74169493631</ele>
        <time>2019-08-06T06:15:54Z</time>
      </trkpt>
      <trkpt lat="45.14981" lon="5.60094">
        <ele>932.39399103137</ele>
        <time>2019-08-06T06:15:59Z</time>
      </trkpt>
      <trkpt lat="45.14954" lon="5.60081">
        <ele>931.02576347383</ele>
        <time>2019-08-06T06:16:03Z</time>
      </trkpt>
      <trkpt lat="45.14932" lon="5.60079">
        <ele>929.09742483196</ele>
        <time>2019-08-06T06:16:08Z</time>
      </trkpt>
      <trkpt lat="45.1489" lon="5.60066">
        <ele>927.06933221546</ele>
        <time>2019-08-06T06:16:12Z</time>
      </trkpt>
      <trkpt lat="45.14862" lon="5.60062">
        <ele>926.1968055743</ele>
        <time>2019-08-06T06:16:17Z</time>
      </trkpt>
      <trkpt lat="45.14846" lon="5.60057">
        <ele>926.53154012107</ele>
        <time>2019-08-06T06:16:21Z</time>
      </trkpt>
      <trkpt lat="45.14839" lon="5.60043">
        <ele>926.79040364357</ele>
        <time>2019-08-06T06:16:25Z</time>
      </trkpt>
      <trkpt lat="45.14845" lon="5.60031">
        <ele>927.2599927128</ele>
        <time>2019-08-06T06:16:29Z</time>
      </trkpt>
      <trkpt lat="45.14854" lon="5.60026">
        <ele>927.98217695448</ele>
        <time>2019-08-06T06:16:33Z</time>
      </trkpt>
      <trkpt lat="45.14861" lon="5.60023">
        <ele>928.75726724064</ele>
        <time>2019-08-06T06:16:38Z</time>
      </trkpt>
      <trkpt lat="45.14871" lon="5.60018">
        <ele>929.04197699505</ele>
        <time>2019-08-06T06:16:43Z</time>
      </trkpt>
      <trkpt lat="45.14876" lon="5.60016">
        <ele>928.97809706905</ele>
        <time>2019-08-06T06:16:47Z</time>
      </trkpt>
      <trkpt lat="45.14876" lon="5.60012">
        <ele>928.20117539593</ele>
        <time>2019-08-06T06:16:58Z</time>
      </trkpt>
      <trkpt lat="45.14867" lon="5.60007">
        <ele>927.88121125623</ele>
        <time>2019-08-06T06:17:02Z</time>
      </trkpt>
      <trkpt lat="45.14845" lon="5.60011">
        <ele>927.72717727711</ele>
        <time>2019-08-06T06:17:07Z</time>
      </trkpt>
      <trkpt lat="45.14833" lon="5.60015">
        <ele>927.62442806418</ele>
        <time>2019-08-06T06:17:10Z</time>
      </trkpt>
      <trkpt lat="45.14812" lon="5.60019">
        <ele>927.94798338366</ele>
        <time>2019-08-06T06:17:15Z</time>
      </trkpt>
      <trkpt lat="45.14795" lon="5.60022">
        <ele>928.54095036118</ele>
        <time>2019-08-06T06:17:19Z</time>
      </trkpt>
      <trkpt lat="45.14778" lon="5.60023">
        <ele>929.72553862741</ele>
        <time>2019-08-06T06:17:23Z</time>
      </trkpt>
      <trkpt lat="45.14757" lon="5.60024">
        <ele>930.98590518656</ele>
        <time>2019-08-06T06:17:28Z</time>
      </trkpt>
      <trkpt lat="45.14744" lon="5.60023">
        <ele>931.54767861764</ele>
        <time>2019-08-06T06:17:31Z</time>
      </trkpt>
      <trkpt lat="45.14727" lon="5.60017">
        <ele>931.66161780786</ele>
        <time>2019-08-06T06:17:35Z</time>
      </trkpt>
      <trkpt lat="45.14708" lon="5.60005">
        <ele>932.07054146207</ele>
        <time>2019-08-06T06:17:40Z</time>
      </trkpt>
      <trkpt lat="45.14694" lon="5.59991">
        <ele>932.19351950111</ele>
        <time>2019-08-06T06:17:44Z</time>
      </trkpt>
      <trkpt lat="45.1468" lon="5.59975">
        <ele>932.62047979885</ele>
        <time>2019-08-06T06:17:48Z</time>
      </trkpt>
      <trkpt lat="45.14668" lon="5.59955">
        <ele>931.03749008138</ele>
        <time>2019-08-06T06:17:52Z</time>
      </trkpt>
      <trkpt lat="45.14659" lon="5.59941">
        <ele>930.00039629713</ele>
        <time>2019-08-06T06:17:55Z</time>
      </trkpt>
      <trkpt lat="45.14645" lon="5.59918">
        <ele>929.15373936187</ele>
        <time>2019-08-06T06:18:00Z</time>
      </trkpt>
      <trkpt lat="45.14635" lon="5.59897">
        <ele>929.65757100379</ele>
        <time>2019-08-06T06:18:04Z</time>
      </trkpt>
      <trkpt lat="45.14628" lon="5.59874">
        <ele>930.22377075027</ele>
        <time>2019-08-06T06:18:08Z</time>
      </trkpt>
      <trkpt lat="45.14622" lon="5.59851">
        <ele>930.81951653452</ele>
        <time>2019-08-06T06:18:12Z</time>
      </trkpt>
      <trkpt lat="45.14616" lon="5.59822">
        <ele>931.639021811</ele>
        <time>2019-08-06T06:18:17Z</time>
      </trkpt>
      <trkpt lat="45.14611" lon="5.59804">
        <ele>932.12393748632</ele>
        <time>2019-08-06T06:18:20Z</time>
      </trkpt>
      <trkpt lat="45.14601" lon="5.59776">
        <ele>933.46067259387</ele>
        <time>2019-08-06T06:18:25Z</time>
      </trkpt>
      <trkpt lat="45.14589" lon="5.59758">
        <ele>934.396603157</ele>
        <time>2019-08-06T06:18:29Z</time>
      </trkpt>
      <trkpt lat="45.14572" lon="5.59741">
        <ele>934.40236597468</ele>
        <time>2019-08-06T06:18:34Z</time>
      </trkpt>
      <trkpt lat="45.14556" lon="5.59735">
        <ele>934.89302856842</ele>
        <time>2019-08-06T06:18:38Z</time>
      </trkpt>
      <trkpt lat="45.14538" lon="5.59734">
        <ele>935.506069013</ele>
        <time>2019-08-06T06:18:42Z</time>
      </trkpt>
      <trkpt lat="45.14524" lon="5.59736">
        <ele>935.20239743507</ele>
        <time>2019-08-06T06:18:45Z</time>
      </trkpt>
      <trkpt lat="45.14507" lon="5.5974">
        <ele>934.56905748819</ele>
        <time>2019-08-06T06:18:49Z</time>
      </trkpt>
      <trkpt lat="45.14489" lon="5.59745">
        <ele>935.46165134955</ele>
        <time>2019-08-06T06:18:53Z</time>
      </trkpt>
      <trkpt lat="45.14471" lon="5.59749">
        <ele>935.97275662424</ele>
        <time>2019-08-06T06:18:57Z</time>
      </trkpt>
      <trkpt lat="45.14449" lon="5.59748">
        <ele>936.708538295</ele>
        <time>2019-08-06T06:19:02Z</time>
      </trkpt>
      <trkpt lat="45.14432" lon="5.59742">
        <ele>937.04821646747</ele>
        <time>2019-08-06T06:19:06Z</time>
      </trkpt>
      <trkpt lat="45.14418" lon="5.59736">
        <ele>937.275543485</ele>
        <time>2019-08-06T06:19:09Z</time>
      </trkpt>
      <trkpt lat="45.14401" lon="5.59728">
        <ele>937.93567275595</ele>
        <time>2019-08-06T06:19:13Z</time>
      </trkpt>
      <trkpt lat="45.14389" lon="5.59719">
        <ele>938.18292121147</ele>
        <time>2019-08-06T06:19:16Z</time>
      </trkpt>
      <trkpt lat="45.14372" lon="5.597">
        <ele>936.7915614287</ele>
        <time>2019-08-06T06:19:21Z</time>
      </trkpt>
      <trkpt lat="45.14363" lon="5.59678">
        <ele>936.1642989467</ele>
        <time>2019-08-06T06:19:25Z</time>
      </trkpt>
      <trkpt lat="45.14355" lon="5.5965">
        <ele>935.88174037347</ele>
        <time>2019-08-06T06:19:30Z</time>
      </trkpt>
      <trkpt lat="45.14347" lon="5.59627">
        <ele>936.466897736</ele>
        <time>2019-08-06T06:19:34Z</time>
      </trkpt>
      <trkpt lat="45.1434" lon="5.59605">
        <ele>936.49162768053</ele>
        <time>2019-08-06T06:19:38Z</time>
      </trkpt>
      <trkpt lat="45.14331" lon="5.59584">
        <ele>936.42740163373</ele>
        <time>2019-08-06T06:19:42Z</time>
      </trkpt>
      <trkpt lat="45.1432" lon="5.59557">
        <ele>936.56641982799</ele>
        <time>2019-08-06T06:19:47Z</time>
      </trkpt>
      <trkpt lat="45.1431" lon="5.59531">
        <ele>936.933390738</ele>
        <time>2019-08-06T06:19:52Z</time>
      </trkpt>
      <trkpt lat="45.14299" lon="5.59506">
        <ele>937.6388381614</ele>
        <time>2019-08-06T06:19:57Z</time>
      </trkpt>
      <trkpt lat="45.14291" lon="5.59486">
        <ele>938.37504034891</ele>
        <time>2019-08-06T06:20:01Z</time>
      </trkpt>
      <trkpt lat="45.14285" lon="5.59471">
        <ele>938.43141905839</ele>
        <time>2019-08-06T06:20:04Z</time>
      </trkpt>
      <trkpt lat="45.14276" lon="5.59451">
        <ele>938.65423433273</ele>
        <time>2019-08-06T06:20:08Z</time>
      </trkpt>
      <trkpt lat="45.14268" lon="5.5943">
        <ele>938.0326106003</ele>
        <time>2019-08-06T06:20:12Z</time>
      </trkpt>
      <trkpt lat="45.14256" lon="5.59405">
        <ele>938.94581706208</ele>
        <time>2019-08-06T06:20:17Z</time>
      </trkpt>
      <trkpt lat="45.14248" lon="5.59384">
        <ele>939.20110468773</ele>
        <time>2019-08-06T06:20:21Z</time>
      </trkpt>
      <trkpt lat="45.14243" lon="5.59368">
        <ele>939.4576453772</ele>
        <time>2019-08-06T06:20:24Z</time>
      </trkpt>
      <trkpt lat="45.14233" lon="5.59341">
        <ele>939.9378373878</ele>
        <time>2019-08-06T06:20:29Z</time>
      </trkpt>
      <trkpt lat="45.14222" lon="5.59322">
        <ele>940.37595110585</ele>
        <time>2019-08-06T06:20:33Z</time>
      </trkpt>
      <trkpt lat="45.1421" lon="5.59304">
        <ele>940.83997427831</ele>
        <time>2019-08-06T06:20:37Z</time>
      </trkpt>
      <trkpt lat="45.14194" lon="5.59283">
        <ele>941.55359616268</ele>
        <time>2019-08-06T06:20:42Z</time>
      </trkpt>
      <trkpt lat="45.14184" lon="5.59272">
        <ele>942.21848049364</ele>
        <time>2019-08-06T06:20:45Z</time>
      </trkpt>
      <trkpt lat="45.1417" lon="5.59261">
        <ele>942.48990456905</ele>
        <time>2019-08-06T06:20:49Z</time>
      </trkpt>
      <trkpt lat="45.14154" lon="5.5925">
        <ele>942.81885933732</ele>
        <time>2019-08-06T06:20:53Z</time>
      </trkpt>
      <trkpt lat="45.14138" lon="5.59241">
        <ele>942.98631741859</ele>
        <time>2019-08-06T06:20:57Z</time>
      </trkpt>
      <trkpt lat="45.14126" lon="5.59234">
        <ele>943.5021201581</ele>
        <time>2019-08-06T06:21:00Z</time>
      </trkpt>
      <trkpt lat="45.14109" lon="5.59218">
        <ele>944.46752483416</ele>
        <time>2019-08-06T06:21:05Z</time>
      </trkpt>
      <trkpt lat="45.14099" lon="5.59203">
        <ele>945.35576271736</ele>
        <time>2019-08-06T06:21:09Z</time>
      </trkpt>
      <trkpt lat="45.14091" lon="5.59183">
        <ele>946.44344514992</ele>
        <time>2019-08-06T06:21:14Z</time>
      </trkpt>
      <trkpt lat="45.14087" lon="5.59165">
        <ele>947.40028793743</ele>
        <time>2019-08-06T06:21:18Z</time>
      </trkpt>
      <trkpt lat="45.14087" lon="5.59146">
        <ele>948.09460144775</ele>
        <time>2019-08-06T06:21:22Z</time>
      </trkpt>
      <trkpt lat="45.14089" lon="5.59124">
        <ele>949.09004883393</ele>
        <time>2019-08-06T06:21:27Z</time>
      </trkpt>
      <trkpt lat="45.14091" lon="5.59113">
        <ele>949.36498174833</ele>
        <time>2019-08-06T06:21:30Z</time>
      </trkpt>
      <trkpt lat="45.14094" lon="5.59099">
        <ele>950.39291866852</ele>
        <time>2019-08-06T06:21:34Z</time>
      </trkpt>
      <trkpt lat="45.14088" lon="5.59093">
        <ele>950.71465728111</ele>
        <time>2019-08-06T06:21:38Z</time>
      </trkpt>
      <trkpt lat="45.14082" lon="5.59103">
        <ele>951.43061108584</ele>
        <time>2019-08-06T06:21:42Z</time>
      </trkpt>
      <trkpt lat="45.14075" lon="5.59112">
        <ele>952.06910933807</ele>
        <time>2019-08-06T06:21:46Z</time>
      </trkpt>
      <trkpt lat="45.14067" lon="5.59122">
        <ele>952.73448527935</ele>
        <time>2019-08-06T06:21:51Z</time>
      </trkpt>
      <trkpt lat="45.1406" lon="5.59129">
        <ele>953.20988501385</ele>
        <time>2019-08-06T06:21:55Z</time>
      </trkpt>
      <trkpt lat="45.14051" lon="5.59139">
        <ele>953.44691485945</ele>
        <time>2019-08-06T06:22:00Z</time>
      </trkpt>
      <trkpt lat="45.14043" lon="5.59147">
        <ele>953.74102544742</ele>
        <time>2019-08-06T06:22:05Z</time>
      </trkpt>
      <trkpt lat="45.14037" lon="5.59152">
        <ele>954.06171807699</ele>
        <time>2019-08-06T06:22:09Z</time>
      </trkpt>
      <trkpt lat="45.14027" lon="5.5916">
        <ele>954.61444790026</ele>
        <time>2019-08-06T06:22:14Z</time>
      </trkpt>
      <trkpt lat="45.1402" lon="5.59165">
        <ele>954.80144527186</ele>
        <time>2019-08-06T06:22:18Z</time>
      </trkpt>
      <trkpt lat="45.14013" lon="5.59174">
        <ele>955.21855584406</ele>
        <time>2019-08-06T06:22:23Z</time>
      </trkpt>
      <trkpt lat="45.14008" lon="5.59181">
        <ele>955.51704535566</ele>
        <time>2019-08-06T06:22:27Z</time>
      </trkpt>
      <trkpt lat="45.14004" lon="5.59188">
        <ele>955.72705435154</ele>
        <time>2019-08-06T06:22:30Z</time>
      </trkpt>
      <trkpt lat="45.14002" lon="5.592">
        <ele>956.75817888488</ele>
        <time>2019-08-06T06:22:35Z</time>
      </trkpt>
      <trkpt lat="45.14003" lon="5.59209">
        <ele>958.00702911006</ele>
        <time>2019-08-06T06:22:39Z</time>
      </trkpt>
      <trkpt lat="45.14007" lon="5.59216">
        <ele>959.10434568807</ele>
        <time>2019-08-06T06:22:43Z</time>
      </trkpt>
      <trkpt lat="45.14013" lon="5.59224">
        <ele>960.09786724012</ele>
        <time>2019-08-06T06:22:48Z</time>
      </trkpt>
      <trkpt lat="45.14012" lon="5.59237">
        <ele>961.78965495312</ele>
        <time>2019-08-06T06:22:53Z</time>
      </trkpt>
      <trkpt lat="45.14008" lon="5.59245">
        <ele>962.75926715355</ele>
        <time>2019-08-06T06:22:57Z</time>
      </trkpt>
      <trkpt lat="45.14005" lon="5.59251">
        <ele>963.72761662641</ele>
        <time>2019-08-06T06:23:00Z</time>
      </trkpt>
      <trkpt lat="45.14002" lon="5.5926">
        <ele>964.65158993718</ele>
        <time>2019-08-06T06:23:04Z</time>
      </trkpt>
      <trkpt lat="45.13999" lon="5.59269">
        <ele>966.0074389799</ele>
        <time>2019-08-06T06:23:08Z</time>
      </trkpt>
      <trkpt lat="45.13997" lon="5.59281">
        <ele>967.36543157465</ele>
        <time>2019-08-06T06:23:13Z</time>
      </trkpt>
      <trkpt lat="45.13995" lon="5.59292">
        <ele>968.96786901223</ele>
        <time>2019-08-06T06:23:18Z</time>
      </trkpt>
      <trkpt lat="45.13993" lon="5.59297">
        <ele>969.94950524779</ele>
        <time>2019-08-06T06:23:21Z</time>
      </trkpt>
      <trkpt lat="45.13991" lon="5.59309">
        <ele>971.09170535157</ele>
        <time>2019-08-06T06:23:26Z</time>
      </trkpt>
      <trkpt lat="45.13989" lon="5.59316">
        <ele>972.17655864279</ele>
        <time>2019-08-06T06:23:30Z</time>
      </trkpt>
      <trkpt lat="45.13988" lon="5.59325">
        <ele>973.23038334897</ele>
        <time>2019-08-06T06:23:34Z</time>
      </trkpt>
      <trkpt lat="45.13988" lon="5.59334">
        <ele>973.7865700403</ele>
        <time>2019-08-06T06:23:38Z</time>
      </trkpt>
      <trkpt lat="45.1399" lon="5.59345">
        <ele>974.57637700805</ele>
        <time>2019-08-06T06:23:43Z</time>
      </trkpt>
      <trkpt lat="45.13992" lon="5.59354">
        <ele>975.21181487614</ele>
        <time>2019-08-06T06:23:47Z</time>
      </trkpt>
      <trkpt lat="45.13995" lon="5.59366">
        <ele>976.54538980223</ele>
        <time>2019-08-06T06:23:52Z</time>
      </trkpt>
      <trkpt lat="45.13998" lon="5.59373">
        <ele>977.30454009021</ele>
        <time>2019-08-06T06:23:56Z</time>
      </trkpt>
      <trkpt lat="45.14003" lon="5.59381">
        <ele>978.74658323104</ele>
        <time>2019-08-06T06:24:01Z</time>
      </trkpt>
      <trkpt lat="45.14006" lon="5.59389">
        <ele>979.90930358404</ele>
        <time>2019-08-06T06:24:05Z</time>
      </trkpt>
      <trkpt lat="45.14008" lon="5.59396">
        <ele>980.49971109697</ele>
        <time>2019-08-06T06:24:08Z</time>
      </trkpt>
      <trkpt lat="45.1401" lon="5.59407">
        <ele>981.52927478987</ele>
        <time>2019-08-06T06:24:13Z</time>
      </trkpt>
      <trkpt lat="45.14011" lon="5.59416">
        <ele>982.27014922258</ele>
        <time>2019-08-06T06:24:17Z</time>
      </trkpt>
      <trkpt lat="45.14011" lon="5.59426">
        <ele>983.15035160402</ele>
        <time>2019-08-06T06:24:21Z</time>
      </trkpt>
      <trkpt lat="45.14011" lon="5.59437">
        <ele>984.21371103842</ele>
        <time>2019-08-06T06:24:26Z</time>
      </trkpt>
      <trkpt lat="45.14011" lon="5.59447">
        <ele>985.04678624583</ele>
        <time>2019-08-06T06:24:30Z</time>
      </trkpt>
      <trkpt lat="45.14012" lon="5.59456">
        <ele>985.81409652756</ele>
        <time>2019-08-06T06:24:34Z</time>
      </trkpt>
      <trkpt lat="45.14014" lon="5.59469">
        <ele>986.84421051712</ele>
        <time>2019-08-06T06:24:39Z</time>
      </trkpt>
      <trkpt lat="45.14015" lon="5.59479">
        <ele>987.55022066524</ele>
        <time>2019-08-06T06:24:43Z</time>
      </trkpt>
      <trkpt lat="45.14015" lon="5.59489">
        <ele>987.85008145631</ele>
        <time>2019-08-06T06:24:47Z</time>
      </trkpt>
      <trkpt lat="45.14013" lon="5.59504">
        <ele>989.99676693948</ele>
        <time>2019-08-06T06:24:52Z</time>
      </trkpt>
      <trkpt lat="45.14009" lon="5.59515">
        <ele>990.07173322115</ele>
        <time>2019-08-06T06:24:56Z</time>
      </trkpt>
      <trkpt lat="45.14006" lon="5.59521">
        <ele>990.62882469597</ele>
        <time>2019-08-06T06:25:01Z</time>
      </trkpt>
      <trkpt lat="45.14003" lon="5.59522">
        <ele>989.76719109075</ele>
        <time>2019-08-06T06:25:15Z</time>
      </trkpt>
      <trkpt lat="45.13994" lon="5.59517">
        <ele>989.81607496059</ele>
        <time>2019-08-06T06:25:19Z</time>
      </trkpt>
      <trkpt lat="45.13984" lon="5.59513">
        <ele>990.04254314488</ele>
        <time>2019-08-06T06:25:23Z</time>
      </trkpt>
      <trkpt lat="45.13973" lon="5.59509">
        <ele>990.40142406654</ele>
        <time>2019-08-06T06:25:27Z</time>
      </trkpt>
      <trkpt lat="45.1396" lon="5.59505">
        <ele>991.027032729</ele>
        <time>2019-08-06T06:25:32Z</time>
      </trkpt>
      <trkpt lat="45.13952" lon="5.59502">
        <ele>991.36374032351</ele>
        <time>2019-08-06T06:25:35Z</time>
      </trkpt>
      <trkpt lat="45.13941" lon="5.59498">
        <ele>991.76977638478</ele>
        <time>2019-08-06T06:25:39Z</time>
      </trkpt>
      <trkpt lat="45.13931" lon="5.59493">
        <ele>992.78806451051</ele>
        <time>2019-08-06T06:25:43Z</time>
      </trkpt>
      <trkpt lat="45.13921" lon="5.5949">
        <ele>994.06953471102</ele>
        <time>2019-08-06T06:25:47Z</time>
      </trkpt>
      <trkpt lat="45.13911" lon="5.59486">
        <ele>995.20545658452</ele>
        <time>2019-08-06T06:25:51Z</time>
      </trkpt>
      <trkpt lat="45.13904" lon="5.59484">
        <ele>996.2125189362</ele>
        <time>2019-08-06T06:25:55Z</time>
      </trkpt>
      <trkpt lat="45.13894" lon="5.5948">
        <ele>997.43455952729</ele>
        <time>2019-08-06T06:26:00Z</time>
      </trkpt>
      <trkpt lat="45.13885" lon="5.59479">
        <ele>998.50585856942</ele>
        <time>2019-08-06T06:26:05Z</time>
      </trkpt>
      <trkpt lat="45.13875" lon="5.59477">
        <ele>999.86226342989</ele>
        <time>2019-08-06T06:26:10Z</time>
      </trkpt>
      <trkpt lat="45.13869" lon="5.59475">
        <ele>1000.4352050819</ele>
        <time>2019-08-06T06:26:13Z</time>
      </trkpt>
      <trkpt lat="45.13863" lon="5.59474">
        <ele>1001.0256451738</ele>
        <time>2019-08-06T06:26:16Z</time>
      </trkpt>
      <trkpt lat="45.13853" lon="5.5947">
        <ele>1002.1118730186</ele>
        <time>2019-08-06T06:26:21Z</time>
      </trkpt>
      <trkpt lat="45.13845" lon="5.59468">
        <ele>1003.1620707185</ele>
        <time>2019-08-06T06:26:25Z</time>
      </trkpt>
      <trkpt lat="45.13835" lon="5.59465">
        <ele>1005.0830234792</ele>
        <time>2019-08-06T06:26:30Z</time>
      </trkpt>
      <trkpt lat="45.13828" lon="5.59461">
        <ele>1006.0759569416</ele>
        <time>2019-08-06T06:26:34Z</time>
      </trkpt>
      <trkpt lat="45.13819" lon="5.59457">
        <ele>1007.3341715333</ele>
        <time>2019-08-06T06:26:39Z</time>
      </trkpt>
      <trkpt lat="45.13811" lon="5.59454">
        <ele>1008.7216960727</ele>
        <time>2019-08-06T06:26:44Z</time>
      </trkpt>
      <trkpt lat="45.13806" lon="5.59451">
        <ele>1009.5458043897</ele>
        <time>2019-08-06T06:26:47Z</time>
      </trkpt>
      <trkpt lat="45.13801" lon="5.59448">
        <ele>1010.5444417811</ele>
        <time>2019-08-06T06:26:50Z</time>
      </trkpt>
      <trkpt lat="45.13796" lon="5.59442">
        <ele>1011.5501265361</ele>
        <time>2019-08-06T06:26:54Z</time>
      </trkpt>
      <trkpt lat="45.13792" lon="5.59437">
        <ele>1013.0780148314</ele>
        <time>2019-08-06T06:26:58Z</time>
      </trkpt>
      <trkpt lat="45.13785" lon="5.59433">
        <ele>1014.6943066179</ele>
        <time>2019-08-06T06:27:03Z</time>
      </trkpt>
      <trkpt lat="45.1378" lon="5.59436">
        <ele>1015.6144267168</ele>
        <time>2019-08-06T06:27:07Z</time>
      </trkpt>
      <trkpt lat="45.13778" lon="5.59443">
        <ele>1016.2862861819</ele>
        <time>2019-08-06T06:27:11Z</time>
      </trkpt>
      <trkpt lat="45.13778" lon="5.59452">
        <ele>1016.6638617148</ele>
        <time>2019-08-06T06:27:14Z</time>
      </trkpt>
      <trkpt lat="45.13779" lon="5.59465">
        <ele>1017.318554294</ele>
        <time>2019-08-06T06:27:19Z</time>
      </trkpt>
      <trkpt lat="45.13779" lon="5.5948">
        <ele>1018.0178732811</ele>
        <time>2019-08-06T06:27:24Z</time>
      </trkpt>
      <trkpt lat="45.13778" lon="5.59492">
        <ele>1018.755477181</ele>
        <time>2019-08-06T06:27:28Z</time>
      </trkpt>
      <trkpt lat="45.13778" lon="5.59504">
        <ele>1019.2822116361</ele>
        <time>2019-08-06T06:27:32Z</time>
      </trkpt>
      <trkpt lat="45.13777" lon="5.59516">
        <ele>1019.6195241368</ele>
        <time>2019-08-06T06:27:36Z</time>
      </trkpt>
      <trkpt lat="45.13777" lon="5.59529">
        <ele>1019.7839806145</ele>
        <time>2019-08-06T06:27:40Z</time>
      </trkpt>
      <trkpt lat="45.13776" lon="5.59544">
        <ele>1019.8280861149</ele>
        <time>2019-08-06T06:27:44Z</time>
      </trkpt>
      <trkpt lat="45.13774" lon="5.59564">
        <ele>1020.1650007109</ele>
        <time>2019-08-06T06:27:49Z</time>
      </trkpt>
      <trkpt lat="45.13772" lon="5.59581">
        <ele>1020.3484990272</ele>
        <time>2019-08-06T06:27:53Z</time>
      </trkpt>
      <trkpt lat="45.13767" lon="5.59597">
        <ele>1020.5480292865</ele>
        <time>2019-08-06T06:27:57Z</time>
      </trkpt>
      <trkpt lat="45.13759" lon="5.59617">
        <ele>1020.5704472138</ele>
        <time>2019-08-06T06:28:02Z</time>
      </trkpt>
      <trkpt lat="45.13752" lon="5.59632">
        <ele>1020.86334309</ele>
        <time>2019-08-06T06:28:06Z</time>
      </trkpt>
      <trkpt lat="45.13743" lon="5.59645">
        <ele>1021.1608608713</ele>
        <time>2019-08-06T06:28:10Z</time>
      </trkpt>
      <trkpt lat="45.13734" lon="5.59659">
        <ele>1021.4430609672</ele>
        <time>2019-08-06T06:28:14Z</time>
      </trkpt>
      <trkpt lat="45.13726" lon="5.59674">
        <ele>1021.8457068854</ele>
        <time>2019-08-06T06:28:18Z</time>
      </trkpt>
      <trkpt lat="45.13717" lon="5.59692">
        <ele>1022.3997259111</ele>
        <time>2019-08-06T06:28:23Z</time>
      </trkpt>
      <trkpt lat="45.13709" lon="5.59708">
        <ele>1022.486059648</ele>
        <time>2019-08-06T06:28:27Z</time>
      </trkpt>
      <trkpt lat="45.13701" lon="5.59721">
        <ele>1022.7102310547</ele>
        <time>2019-08-06T06:28:31Z</time>
      </trkpt>
      <trkpt lat="45.13691" lon="5.59733">
        <ele>1023.0079840402</ele>
        <time>2019-08-06T06:28:35Z</time>
      </trkpt>
      <trkpt lat="45.13677" lon="5.59748">
        <ele>1023.3679339849</ele>
        <time>2019-08-06T06:28:40Z</time>
      </trkpt>
      <trkpt lat="45.13667" lon="5.59759">
        <ele>1023.6871281475</ele>
        <time>2019-08-06T06:28:44Z</time>
      </trkpt>
      <trkpt lat="45.13656" lon="5.59772">
        <ele>1024.4501382582</ele>
        <time>2019-08-06T06:28:48Z</time>
      </trkpt>
      <trkpt lat="45.13647" lon="5.59785">
        <ele>1024.9821489101</ele>
        <time>2019-08-06T06:28:52Z</time>
      </trkpt>
      <trkpt lat="45.13641" lon="5.59797">
        <ele>1025.4305427098</ele>
        <time>2019-08-06T06:28:55Z</time>
      </trkpt>
      <trkpt lat="45.13633" lon="5.59812">
        <ele>1026.164201023</ele>
        <time>2019-08-06T06:28:59Z</time>
      </trkpt>
      <trkpt lat="45.13625" lon="5.59826">
        <ele>1026.7216319931</ele>
        <time>2019-08-06T06:29:03Z</time>
      </trkpt>
      <trkpt lat="45.13613" lon="5.59842">
        <ele>1027.3345491763</ele>
        <time>2019-08-06T06:29:08Z</time>
      </trkpt>
      <trkpt lat="45.13603" lon="5.59847">
        <ele>1027.2530753469</ele>
        <time>2019-08-06T06:29:12Z</time>
      </trkpt>
      <trkpt lat="45.13593" lon="5.59843">
        <ele>1027.005822261</ele>
        <time>2019-08-06T06:29:16Z</time>
      </trkpt>
      <trkpt lat="45.13579" lon="5.59831">
        <ele>1026.1271049864</ele>
        <time>2019-08-06T06:29:21Z</time>
      </trkpt>
      <trkpt lat="45.13555" lon="5.59813">
        <ele>1024.6205979863</ele>
        <time>2019-08-06T06:29:26Z</time>
      </trkpt>
      <trkpt lat="45.13536" lon="5.59796">
        <ele>1023.3124127929</ele>
        <time>2019-08-06T06:29:30Z</time>
      </trkpt>
      <trkpt lat="45.1352" lon="5.59783">
        <ele>1022.4792325453</ele>
        <time>2019-08-06T06:29:33Z</time>
      </trkpt>
      <trkpt lat="45.13492" lon="5.5976">
        <ele>1021.6717960305</ele>
        <time>2019-08-06T06:29:38Z</time>
      </trkpt>
      <trkpt lat="45.13474" lon="5.59738">
        <ele>1021.4401130948</ele>
        <time>2019-08-06T06:29:42Z</time>
      </trkpt>
      <trkpt lat="45.13458" lon="5.5972">
        <ele>1021.5573780444</ele>
        <time>2019-08-06T06:29:46Z</time>
      </trkpt>
      <trkpt lat="45.13446" lon="5.59709">
        <ele>1021.4469724749</ele>
        <time>2019-08-06T06:29:49Z</time>
      </trkpt>
      <trkpt lat="45.13429" lon="5.59698">
        <ele>1020.1122979431</ele>
        <time>2019-08-06T06:29:53Z</time>
      </trkpt>
      <trkpt lat="45.13402" lon="5.59688">
        <ele>1016.7836708084</ele>
        <time>2019-08-06T06:29:57Z</time>
      </trkpt>
      <trkpt lat="45.13369" lon="5.59685">
        <ele>1015.2761614557</ele>
        <time>2019-08-06T06:30:01Z</time>
      </trkpt>
      <trkpt lat="45.13336" lon="5.59676">
        <ele>1015.2079830171</ele>
        <time>2019-08-06T06:30:05Z</time>
      </trkpt>
      <trkpt lat="45.13309" lon="5.59647">
        <ele>1015.2359564965</ele>
        <time>2019-08-06T06:30:10Z</time>
      </trkpt>
      <trkpt lat="45.13296" lon="5.5963">
        <ele>1015.4793356519</ele>
        <time>2019-08-06T06:30:13Z</time>
      </trkpt>
      <trkpt lat="45.13281" lon="5.59615">
        <ele>1017.1406879744</ele>
        <time>2019-08-06T06:30:17Z</time>
      </trkpt>
      <trkpt lat="45.13272" lon="5.59607">
        <ele>1019.0319292109</ele>
        <time>2019-08-06T06:30:21Z</time>
      </trkpt>
      <trkpt lat="45.13264" lon="5.59601">
        <ele>1020.3607947714</ele>
        <time>2019-08-06T06:30:25Z</time>
      </trkpt>
      <trkpt lat="45.13255" lon="5.59596">
        <ele>1021.2183738339</ele>
        <time>2019-08-06T06:30:29Z</time>
      </trkpt>
      <trkpt lat="45.13244" lon="5.59589">
        <ele>1022.5956680839</ele>
        <time>2019-08-06T06:30:34Z</time>
      </trkpt>
      <trkpt lat="45.13234" lon="5.59584">
        <ele>1023.4099286266</ele>
        <time>2019-08-06T06:30:38Z</time>
      </trkpt>
      <trkpt lat="45.13223" lon="5.59578">
        <ele>1023.7680308741</ele>
        <time>2019-08-06T06:30:42Z</time>
      </trkpt>
      <trkpt lat="45.13209" lon="5.59572">
        <ele>1024.3133904721</ele>
        <time>2019-08-06T06:30:47Z</time>
      </trkpt>
      <trkpt lat="45.13193" lon="5.59565">
        <ele>1024.4599147092</ele>
        <time>2019-08-06T06:30:51Z</time>
      </trkpt>
      <trkpt lat="45.13182" lon="5.59562">
        <ele>1024.5278770706</ele>
        <time>2019-08-06T06:30:54Z</time>
      </trkpt>
      <trkpt lat="45.13167" lon="5.59558">
        <ele>1024.384921881</ele>
        <time>2019-08-06T06:30:58Z</time>
      </trkpt>
      <trkpt lat="45.13151" lon="5.59553">
        <ele>1024.5543202456</ele>
        <time>2019-08-06T06:31:02Z</time>
      </trkpt>
      <trkpt lat="45.1313" lon="5.59549">
        <ele>1024.3702376067</ele>
        <time>2019-08-06T06:31:07Z</time>
      </trkpt>
      <trkpt lat="45.13107" lon="5.59546">
        <ele>1023.8547996428</ele>
        <time>2019-08-06T06:31:12Z</time>
      </trkpt>
      <trkpt lat="45.13081" lon="5.59544">
        <ele>1023.4294999105</ele>
        <time>2019-08-06T06:31:17Z</time>
      </trkpt>
      <trkpt lat="45.13059" lon="5.59543">
        <ele>1022.7816934613</ele>
        <time>2019-08-06T06:31:21Z</time>
      </trkpt>
      <trkpt lat="45.13031" lon="5.59541">
        <ele>1022.8355676054</ele>
        <time>2019-08-06T06:31:26Z</time>
      </trkpt>
      <trkpt lat="45.13006" lon="5.59533">
        <ele>1023.2100529417</ele>
        <time>2019-08-06T06:31:31Z</time>
      </trkpt>
      <trkpt lat="45.12987" lon="5.59523">
        <ele>1023.7852536333</ele>
        <time>2019-08-06T06:31:35Z</time>
      </trkpt>
      <trkpt lat="45.1297" lon="5.59513">
        <ele>1024.8430931852</ele>
        <time>2019-08-06T06:31:39Z</time>
      </trkpt>
      <trkpt lat="45.12951" lon="5.59501">
        <ele>1024.794982298</ele>
        <time>2019-08-06T06:31:44Z</time>
      </trkpt>
      <trkpt lat="45.12937" lon="5.59491">
        <ele>1024.9204366316</ele>
        <time>2019-08-06T06:31:48Z</time>
      </trkpt>
      <trkpt lat="45.12925" lon="5.59483">
        <ele>1025.1860747601</ele>
        <time>2019-08-06T06:31:51Z</time>
      </trkpt>
      <trkpt lat="45.12913" lon="5.5948">
        <ele>1025.0741913805</ele>
        <time>2019-08-06T06:31:55Z</time>
      </trkpt>
      <trkpt lat="45.12903" lon="5.5949">
        <ele>1025.0765895064</ele>
        <time>2019-08-06T06:31:59Z</time>
      </trkpt>
      <trkpt lat="45.1289" lon="5.5951">
        <ele>1025.6716555253</ele>
        <time>2019-08-06T06:32:03Z</time>
      </trkpt>
      <trkpt lat="45.1288" lon="5.59526">
        <ele>1026.2586881222</ele>
        <time>2019-08-06T06:32:07Z</time>
      </trkpt>
      <trkpt lat="45.12874" lon="5.59551">
        <ele>1027.1547239513</ele>
        <time>2019-08-06T06:32:12Z</time>
      </trkpt>
      <trkpt lat="45.12872" lon="5.59573">
        <ele>1026.6742691546</ele>
        <time>2019-08-06T06:32:16Z</time>
      </trkpt>
      <trkpt lat="45.12862" lon="5.59598">
        <ele>1026.8749472732</ele>
        <time>2019-08-06T06:32:21Z</time>
      </trkpt>
      <trkpt lat="45.12854" lon="5.59617">
        <ele>1028.0629728159</ele>
        <time>2019-08-06T06:32:26Z</time>
      </trkpt>
      <trkpt lat="45.12847" lon="5.59639">
        <ele>1028.292627546</ele>
        <time>2019-08-06T06:32:31Z</time>
      </trkpt>
      <trkpt lat="45.12843" lon="5.59658">
        <ele>1028.8995483297</ele>
        <time>2019-08-06T06:32:34Z</time>
      </trkpt>
      <trkpt lat="45.12839" lon="5.59672">
        <ele>1029.7847071045</ele>
        <time>2019-08-06T06:32:39Z</time>
      </trkpt>
      <trkpt lat="45.12835" lon="5.59696">
        <ele>1031.0669762922</ele>
        <time>2019-08-06T06:32:43Z</time>
      </trkpt>
      <trkpt lat="45.12832" lon="5.5971">
        <ele>1031.8399852286</ele>
        <time>2019-08-06T06:32:46Z</time>
      </trkpt>
      <trkpt lat="45.12828" lon="5.5974">
        <ele>1032.0839308687</ele>
        <time>2019-08-06T06:32:51Z</time>
      </trkpt>
      <trkpt lat="45.12823" lon="5.59758">
        <ele>1032.6661119951</ele>
        <time>2019-08-06T06:32:55Z</time>
      </trkpt>
      <trkpt lat="45.12819" lon="5.59774">
        <ele>1033.6431252073</ele>
        <time>2019-08-06T06:32:59Z</time>
      </trkpt>
      <trkpt lat="45.12809" lon="5.59791">
        <ele>1035.162258521</ele>
        <time>2019-08-06T06:33:04Z</time>
      </trkpt>
      <trkpt lat="45.12802" lon="5.59798">
        <ele>1035.7590474377</ele>
        <time>2019-08-06T06:33:07Z</time>
      </trkpt>
      <trkpt lat="45.12789" lon="5.59812">
        <ele>1036.8208822432</ele>
        <time>2019-08-06T06:33:11Z</time>
      </trkpt>
      <trkpt lat="45.12772" lon="5.59829">
        <ele>1037.8359645342</ele>
        <time>2019-08-06T06:33:16Z</time>
      </trkpt>
      <trkpt lat="45.12763" lon="5.59842">
        <ele>1038.5733426676</ele>
        <time>2019-08-06T06:33:20Z</time>
      </trkpt>
      <trkpt lat="45.12752" lon="5.59864">
        <ele>1040.2085189076</ele>
        <time>2019-08-06T06:33:25Z</time>
      </trkpt>
      <trkpt lat="45.12745" lon="5.59879">
        <ele>1041.6686426119</ele>
        <time>2019-08-06T06:33:29Z</time>
      </trkpt>
      <trkpt lat="45.12736" lon="5.59895">
        <ele>1043.1728518474</ele>
        <time>2019-08-06T06:33:34Z</time>
      </trkpt>
      <trkpt lat="45.12723" lon="5.59903">
        <ele>1043.2829369014</ele>
        <time>2019-08-06T06:33:38Z</time>
      </trkpt>
      <trkpt lat="45.12707" lon="5.59891">
        <ele>1042.4616989643</ele>
        <time>2019-08-06T06:33:42Z</time>
      </trkpt>
      <trkpt lat="45.12691" lon="5.59881">
        <ele>1042.248454349</ele>
        <time>2019-08-06T06:33:45Z</time>
      </trkpt>
      <trkpt lat="45.12665" lon="5.59861">
        <ele>1042.0528717545</ele>
        <time>2019-08-06T06:33:50Z</time>
      </trkpt>
      <trkpt lat="45.12647" lon="5.59836">
        <ele>1041.2753848544</ele>
        <time>2019-08-06T06:33:54Z</time>
      </trkpt>
      <trkpt lat="45.12635" lon="5.59804">
        <ele>1039.9393452824</ele>
        <time>2019-08-06T06:33:58Z</time>
      </trkpt>
      <trkpt lat="45.12631" lon="5.59767">
        <ele>1038.9005393187</ele>
        <time>2019-08-06T06:34:02Z</time>
      </trkpt>
      <trkpt lat="45.12633" lon="5.59727">
        <ele>1037.2113816681</ele>
        <time>2019-08-06T06:34:06Z</time>
      </trkpt>
      <trkpt lat="45.12637" lon="5.59685">
        <ele>1035.3265737234</ele>
        <time>2019-08-06T06:34:10Z</time>
      </trkpt>
      <trkpt lat="45.12641" lon="5.5964">
        <ele>1033.7499645792</ele>
        <time>2019-08-06T06:34:14Z</time>
      </trkpt>
      <trkpt lat="45.12643" lon="5.5959">
        <ele>1031.5482878415</ele>
        <time>2019-08-06T06:34:19Z</time>
      </trkpt>
      <trkpt lat="45.12643" lon="5.59558">
        <ele>1030.2560028286</ele>
        <time>2019-08-06T06:34:23Z</time>
      </trkpt>
      <trkpt lat="45.12623" lon="5.59539">
        <ele>1029.360551686</ele>
        <time>2019-08-06T06:34:27Z</time>
      </trkpt>
      <trkpt lat="45.12597" lon="5.59523">
        <ele>1028.7674556093</ele>
        <time>2019-08-06T06:34:32Z</time>
      </trkpt>
      <trkpt lat="45.12579" lon="5.595">
        <ele>1027.9669906938</ele>
        <time>2019-08-06T06:34:36Z</time>
      </trkpt>
      <trkpt lat="45.1256" lon="5.59474">
        <ele>1026.6621821723</ele>
        <time>2019-08-06T06:34:40Z</time>
      </trkpt>
      <trkpt lat="45.12536" lon="5.59437">
        <ele>1025.0003637585</ele>
        <time>2019-08-06T06:34:45Z</time>
      </trkpt>
      <trkpt lat="45.12516" lon="5.59403">
        <ele>1022.6392802797</ele>
        <time>2019-08-06T06:34:49Z</time>
      </trkpt>
      <trkpt lat="45.12491" lon="5.59366">
        <ele>1020.0245889178</ele>
        <time>2019-08-06T06:34:53Z</time>
      </trkpt>
      <trkpt lat="45.12458" lon="5.59322">
        <ele>1016.6931322952</ele>
        <time>2019-08-06T06:34:58Z</time>
      </trkpt>
      <trkpt lat="45.12448" lon="5.59263">
        <ele>1015.6862281952</ele>
        <time>2019-08-06T06:35:03Z</time>
      </trkpt>
      <trkpt lat="45.12447" lon="5.59216">
        <ele>1014.8360321903</ele>
        <time>2019-08-06T06:35:07Z</time>
      </trkpt>
      <trkpt lat="45.12444" lon="5.59171">
        <ele>1014.2000998224</ele>
        <time>2019-08-06T06:35:11Z</time>
      </trkpt>
      <trkpt lat="45.1244" lon="5.59128">
        <ele>1013.1702377048</ele>
        <time>2019-08-06T06:35:15Z</time>
      </trkpt>
      <trkpt lat="45.12438" lon="5.59087">
        <ele>1012.64969652</ele>
        <time>2019-08-06T06:35:19Z</time>
      </trkpt>
      <trkpt lat="45.12435" lon="5.59067">
        <ele>1012.5745129734</ele>
        <time>2019-08-06T06:35:22Z</time>
      </trkpt>
      <trkpt lat="45.12417" lon="5.59061">
        <ele>1012.1576158155</ele>
        <time>2019-08-06T06:35:26Z</time>
      </trkpt>
      <trkpt lat="45.12395" lon="5.59063">
        <ele>1011.6240698951</ele>
        <time>2019-08-06T06:35:30Z</time>
      </trkpt>
      <trkpt lat="45.12379" lon="5.59062">
        <ele>1011.5205772795</ele>
        <time>2019-08-06T06:35:33Z</time>
      </trkpt>
      <trkpt lat="45.12353" lon="5.5905">
        <ele>1011.3486272438</ele>
        <time>2019-08-06T06:35:38Z</time>
      </trkpt>
      <trkpt lat="45.12341" lon="5.59041">
        <ele>1011.7766362279</ele>
        <time>2019-08-06T06:35:41Z</time>
      </trkpt>
      <trkpt lat="45.12325" lon="5.59027">
        <ele>1012.3300398047</ele>
        <time>2019-08-06T06:35:45Z</time>
      </trkpt>
      <trkpt lat="45.1231" lon="5.59011">
        <ele>1013.0244336495</ele>
        <time>2019-08-06T06:35:49Z</time>
      </trkpt>
      <trkpt lat="45.123" lon="5.58998">
        <ele>1013.3422994455</ele>
        <time>2019-08-06T06:35:52Z</time>
      </trkpt>
      <trkpt lat="45.12287" lon="5.58978">
        <ele>1013.5557064285</ele>
        <time>2019-08-06T06:35:56Z</time>
      </trkpt>
      <trkpt lat="45.12275" lon="5.58958">
        <ele>1014.130179687</ele>
        <time>2019-08-06T06:36:00Z</time>
      </trkpt>
      <trkpt lat="45.12261" lon="5.58932">
        <ele>1014.4105079987</ele>
        <time>2019-08-06T06:36:05Z</time>
      </trkpt>
      <trkpt lat="45.12246" lon="5.58905">
        <ele>1014.4424968466</ele>
        <time>2019-08-06T06:36:10Z</time>
      </trkpt>
      <trkpt lat="45.12234" lon="5.58882">
        <ele>1014.3967640137</ele>
        <time>2019-08-06T06:36:14Z</time>
      </trkpt>
      <trkpt lat="45.12221" lon="5.5886">
        <ele>1014.3774670778</ele>
        <time>2019-08-06T06:36:18Z</time>
      </trkpt>
      <trkpt lat="45.12207" lon="5.58836">
        <ele>1014.4738873544</ele>
        <time>2019-08-06T06:36:23Z</time>
      </trkpt>
      <trkpt lat="45.12197" lon="5.58817">
        <ele>1014.7730202448</ele>
        <time>2019-08-06T06:36:27Z</time>
      </trkpt>
      <trkpt lat="45.12184" lon="5.58799">
        <ele>1014.8849417049</ele>
        <time>2019-08-06T06:36:31Z</time>
      </trkpt>
      <trkpt lat="45.12167" lon="5.5878">
        <ele>1015.3073582399</ele>
        <time>2019-08-06T06:36:36Z</time>
      </trkpt>
      <trkpt lat="45.12151" lon="5.58768">
        <ele>1015.6290404616</ele>
        <time>2019-08-06T06:36:40Z</time>
      </trkpt>
      <trkpt lat="45.12129" lon="5.58758">
        <ele>1015.7541026312</ele>
        <time>2019-08-06T06:36:45Z</time>
      </trkpt>
      <trkpt lat="45.12112" lon="5.5875">
        <ele>1015.9318710286</ele>
        <time>2019-08-06T06:36:49Z</time>
      </trkpt>
      <trkpt lat="45.12098" lon="5.58746">
        <ele>1015.9865951718</ele>
        <time>2019-08-06T06:36:52Z</time>
      </trkpt>
      <trkpt lat="45.12078" lon="5.5874">
        <ele>1016.0890962497</ele>
        <time>2019-08-06T06:36:56Z</time>
      </trkpt>
      <trkpt lat="45.12063" lon="5.58738">
        <ele>1016.1467403268</ele>
        <time>2019-08-06T06:36:59Z</time>
      </trkpt>
      <trkpt lat="45.12038" lon="5.58738">
        <ele>1016.2769837211</ele>
        <time>2019-08-06T06:37:04Z</time>
      </trkpt>
      <trkpt lat="45.12018" lon="5.58739">
        <ele>1016.6649647044</ele>
        <time>2019-08-06T06:37:08Z</time>
      </trkpt>
      <trkpt lat="45.11998" lon="5.5874">
        <ele>1017.2274582515</ele>
        <time>2019-08-06T06:37:12Z</time>
      </trkpt>
      <trkpt lat="45.1198" lon="5.58741">
        <ele>1017.6728063566</ele>
        <time>2019-08-06T06:37:16Z</time>
      </trkpt>
      <trkpt lat="45.1196" lon="5.58735">
        <ele>1019.0384442529</ele>
        <time>2019-08-06T06:37:21Z</time>
      </trkpt>
      <trkpt lat="45.11951" lon="5.58716">
        <ele>1019.1481049714</ele>
        <time>2019-08-06T06:37:25Z</time>
      </trkpt>
      <trkpt lat="45.11945" lon="5.58692">
        <ele>1018.9379835765</ele>
        <time>2019-08-06T06:37:29Z</time>
      </trkpt>
      <trkpt lat="45.1194" lon="5.5866">
        <ele>1018.8762661371</ele>
        <time>2019-08-06T06:37:34Z</time>
      </trkpt>
      <trkpt lat="45.11941" lon="5.5864">
        <ele>1019.1711114912</ele>
        <time>2019-08-06T06:37:37Z</time>
      </trkpt>
      <trkpt lat="45.11942" lon="5.58613">
        <ele>1019.8650464478</ele>
        <time>2019-08-06T06:37:41Z</time>
      </trkpt>
      <trkpt lat="45.11941" lon="5.58589">
        <ele>1020.9751225451</ele>
        <time>2019-08-06T06:37:45Z</time>
      </trkpt>
      <trkpt lat="45.11934" lon="5.58562">
        <ele>1021.4728045461</ele>
        <time>2019-08-06T06:37:50Z</time>
      </trkpt>
      <trkpt lat="45.11926" lon="5.58534">
        <ele>1022.4693941905</ele>
        <time>2019-08-06T06:37:55Z</time>
      </trkpt>
      <trkpt lat="45.11911" lon="5.58519">
        <ele>1023.1989936991</ele>
        <time>2019-08-06T06:38:00Z</time>
      </trkpt>
      <trkpt lat="45.11897" lon="5.58529">
        <ele>1023.3028579967</ele>
        <time>2019-08-06T06:38:04Z</time>
      </trkpt>
      <trkpt lat="45.11884" lon="5.58543">
        <ele>1023.1336367659</ele>
        <time>2019-08-06T06:38:08Z</time>
      </trkpt>
      <trkpt lat="45.11869" lon="5.58555">
        <ele>1023.6808577907</ele>
        <time>2019-08-06T06:38:12Z</time>
      </trkpt>
      <trkpt lat="45.11851" lon="5.58563">
        <ele>1024.134862021</ele>
        <time>2019-08-06T06:38:17Z</time>
      </trkpt>
      <trkpt lat="45.1184" lon="5.5856">
        <ele>1024.4380485725</ele>
        <time>2019-08-06T06:38:20Z</time>
      </trkpt>
      <trkpt lat="45.11822" lon="5.58552">
        <ele>1024.2826577592</ele>
        <time>2019-08-06T06:38:25Z</time>
      </trkpt>
      <trkpt lat="45.11802" lon="5.58542">
        <ele>1023.8541081206</ele>
        <time>2019-08-06T06:38:30Z</time>
      </trkpt>
      <trkpt lat="45.11796" lon="5.5854">
        <ele>1023.4130316003</ele>
        <time>2019-08-06T06:38:34Z</time>
      </trkpt>
      <trkpt lat="45.11793" lon="5.5854">
        <ele>1023.6639625984</ele>
        <time>2019-08-06T06:38:53Z</time>
      </trkpt>
      <trkpt lat="45.11782" lon="5.58546">
        <ele>1024.2124710066</ele>
        <time>2019-08-06T06:38:57Z</time>
      </trkpt>
      <trkpt lat="45.1177" lon="5.58555">
        <ele>1025.9215084771</ele>
        <time>2019-08-06T06:39:02Z</time>
      </trkpt>
      <trkpt lat="45.1176" lon="5.5856">
        <ele>1026.2903817994</ele>
        <time>2019-08-06T06:39:06Z</time>
      </trkpt>
      <trkpt lat="45.11748" lon="5.58562">
        <ele>1028.1456867848</ele>
        <time>2019-08-06T06:39:11Z</time>
      </trkpt>
      <trkpt lat="45.11739" lon="5.58562">
        <ele>1029.3689604086</ele>
        <time>2019-08-06T06:39:15Z</time>
      </trkpt>
      <trkpt lat="45.11731" lon="5.58558">
        <ele>1030.594050719</ele>
        <time>2019-08-06T06:39:19Z</time>
      </trkpt>
      <trkpt lat="45.11723" lon="5.58554">
        <ele>1031.4687422077</ele>
        <time>2019-08-06T06:39:23Z</time>
      </trkpt>
      <trkpt lat="45.11715" lon="5.58552">
        <ele>1032.7201624032</ele>
        <time>2019-08-06T06:39:27Z</time>
      </trkpt>
      <trkpt lat="45.11704" lon="5.58551">
        <ele>1033.6486519109</ele>
        <time>2019-08-06T06:39:32Z</time>
      </trkpt>
      <trkpt lat="45.11693" lon="5.58554">
        <ele>1034.8537140285</ele>
        <time>2019-08-06T06:39:37Z</time>
      </trkpt>
      <trkpt lat="45.11683" lon="5.58557">
        <ele>1036.1231780605</ele>
        <time>2019-08-06T06:39:42Z</time>
      </trkpt>
      <trkpt lat="45.11673" lon="5.58563">
        <ele>1036.224658297</ele>
        <time>2019-08-06T06:39:47Z</time>
      </trkpt>
      <trkpt lat="45.11667" lon="5.58567">
        <ele>1037.231251697</ele>
        <time>2019-08-06T06:39:50Z</time>
      </trkpt>
      <trkpt lat="45.11659" lon="5.58571">
        <ele>1037.9629442437</ele>
        <time>2019-08-06T06:39:54Z</time>
      </trkpt>
      <trkpt lat="45.11653" lon="5.58577">
        <ele>1039.0434335956</ele>
        <time>2019-08-06T06:39:58Z</time>
      </trkpt>
      <trkpt lat="45.11646" lon="5.58585">
        <ele>1040.1219139736</ele>
        <time>2019-08-06T06:40:02Z</time>
      </trkpt>
      <trkpt lat="45.11638" lon="5.58593">
        <ele>1041.3928959841</ele>
        <time>2019-08-06T06:40:07Z</time>
      </trkpt>
      <trkpt lat="45.11633" lon="5.586">
        <ele>1042.8049947793</ele>
        <time>2019-08-06T06:40:11Z</time>
      </trkpt>
      <trkpt lat="45.11627" lon="5.58606">
        <ele>1044.1384451165</ele>
        <time>2019-08-06T06:40:15Z</time>
      </trkpt>
      <trkpt lat="45.11621" lon="5.58612">
        <ele>1045.3428172204</ele>
        <time>2019-08-06T06:40:19Z</time>
      </trkpt>
      <trkpt lat="45.11612" lon="5.58612">
        <ele>1046.8102671184</ele>
        <time>2019-08-06T06:40:24Z</time>
      </trkpt>
      <trkpt lat="45.11604" lon="5.58611">
        <ele>1047.6806812082</ele>
        <time>2019-08-06T06:40:28Z</time>
      </trkpt>
      <trkpt lat="45.11596" lon="5.58609">
        <ele>1048.4228772929</ele>
        <time>2019-08-06T06:40:32Z</time>
      </trkpt>
      <trkpt lat="45.1159" lon="5.58607">
        <ele>1048.7738176667</ele>
        <time>2019-08-06T06:40:35Z</time>
      </trkpt>
      <trkpt lat="45.11581" lon="5.58603">
        <ele>1049.3331116319</ele>
        <time>2019-08-06T06:40:39Z</time>
      </trkpt>
      <trkpt lat="45.11569" lon="5.58599">
        <ele>1049.9811797308</ele>
        <time>2019-08-06T06:40:44Z</time>
      </trkpt>
      <trkpt lat="45.11556" lon="5.58595">
        <ele>1050.4717288092</ele>
        <time>2019-08-06T06:40:49Z</time>
      </trkpt>
      <trkpt lat="45.11543" lon="5.58591">
        <ele>1051.3170535038</ele>
        <time>2019-08-06T06:40:54Z</time>
      </trkpt>
      <trkpt lat="45.11533" lon="5.5859">
        <ele>1052.0382533247</ele>
        <time>2019-08-06T06:40:58Z</time>
      </trkpt>
      <trkpt lat="45.11518" lon="5.58595">
        <ele>1051.6928943834</ele>
        <time>2019-08-06T06:41:03Z</time>
      </trkpt>
      <trkpt lat="45.11498" lon="5.58603">
        <ele>1049.9522785389</ele>
        <time>2019-08-06T06:41:07Z</time>
      </trkpt>
      <trkpt lat="45.11469" lon="5.58613">
        <ele>1048.7656821254</ele>
        <time>2019-08-06T06:41:12Z</time>
      </trkpt>
      <trkpt lat="45.11451" lon="5.58618">
        <ele>1048.2823883649</ele>
        <time>2019-08-06T06:41:15Z</time>
      </trkpt>
      <trkpt lat="45.11439" lon="5.58638">
        <ele>1050.0244761225</ele>
        <time>2019-08-06T06:41:20Z</time>
      </trkpt>
      <trkpt lat="45.11437" lon="5.58646">
        <ele>1052.083476398</ele>
        <time>2019-08-06T06:41:24Z</time>
      </trkpt>
      <trkpt lat="45.11433" lon="5.58651">
        <ele>1053.9059270836</ele>
        <time>2019-08-06T06:41:28Z</time>
      </trkpt>
      <trkpt lat="45.11429" lon="5.58652">
        <ele>1054.8229873126</ele>
        <time>2019-08-06T06:41:32Z</time>
      </trkpt>
      <trkpt lat="45.11422" lon="5.58654">
        <ele>1055.369347787</ele>
        <time>2019-08-06T06:41:36Z</time>
      </trkpt>
      <trkpt lat="45.11415" lon="5.58654">
        <ele>1055.447118999</ele>
        <time>2019-08-06T06:41:40Z</time>
      </trkpt>
      <trkpt lat="45.11408" lon="5.58655">
        <ele>1057.31440316</ele>
        <time>2019-08-06T06:41:44Z</time>
      </trkpt>
      <trkpt lat="45.11399" lon="5.58655">
        <ele>1058.3013041457</ele>
        <time>2019-08-06T06:41:48Z</time>
      </trkpt>
      <trkpt lat="45.11391" lon="5.5865">
        <ele>1059.1160789143</ele>
        <time>2019-08-06T06:41:53Z</time>
      </trkpt>
      <trkpt lat="45.11381" lon="5.58645">
        <ele>1060.8244109995</ele>
        <time>2019-08-06T06:41:58Z</time>
      </trkpt>
      <trkpt lat="45.11374" lon="5.58643">
        <ele>1061.6092905423</ele>
        <time>2019-08-06T06:42:01Z</time>
      </trkpt>
      <trkpt lat="45.11363" lon="5.58643">
        <ele>1063.2858176684</ele>
        <time>2019-08-06T06:42:06Z</time>
      </trkpt>
      <trkpt lat="45.11354" lon="5.58643">
        <ele>1063.6091736537</ele>
        <time>2019-08-06T06:42:10Z</time>
      </trkpt>
      <trkpt lat="45.11345" lon="5.58642">
        <ele>1064.7033866921</ele>
        <time>2019-08-06T06:42:14Z</time>
      </trkpt>
      <trkpt lat="45.11337" lon="5.5864">
        <ele>1063.6315233891</ele>
        <time>2019-08-06T06:42:18Z</time>
      </trkpt>
      <trkpt lat="45.11325" lon="5.58638">
        <ele>1065.732881497</ele>
        <time>2019-08-06T06:42:23Z</time>
      </trkpt>
      <trkpt lat="45.11317" lon="5.58636">
        <ele>1066.0804971311</ele>
        <time>2019-08-06T06:42:27Z</time>
      </trkpt>
      <trkpt lat="45.11306" lon="5.58634">
        <ele>1065.2956231605</ele>
        <time>2019-08-06T06:42:32Z</time>
      </trkpt>
      <trkpt lat="45.11295" lon="5.58634">
        <ele>1064.9261697731</ele>
        <time>2019-08-06T06:42:37Z</time>
      </trkpt>
      <trkpt lat="45.11287" lon="5.58634">
        <ele>1066.3455077646</ele>
        <time>2019-08-06T06:42:41Z</time>
      </trkpt>
      <trkpt lat="45.11279" lon="5.58633">
        <ele>1066.7480329114</ele>
        <time>2019-08-06T06:42:45Z</time>
      </trkpt>
      <trkpt lat="45.1127" lon="5.58633">
        <ele>1066.2202295894</ele>
        <time>2019-08-06T06:42:49Z</time>
      </trkpt>
      <trkpt lat="45.11259" lon="5.58634">
        <ele>1067.8187084174</ele>
        <time>2019-08-06T06:42:54Z</time>
      </trkpt>
      <trkpt lat="45.11251" lon="5.58635">
        <ele>1072.4585875367</ele>
        <time>2019-08-06T06:42:58Z</time>
      </trkpt>
      <trkpt lat="45.11243" lon="5.58636">
        <ele>1075.3094301251</ele>
        <time>2019-08-06T06:43:02Z</time>
      </trkpt>
      <trkpt lat="45.11234" lon="5.58639">
        <ele>1077.3226360225</ele>
        <time>2019-08-06T06:43:06Z</time>
      </trkpt>
      <trkpt lat="45.11223" lon="5.58644">
        <ele>1078.7547211969</ele>
        <time>2019-08-06T06:43:11Z</time>
      </trkpt>
      <trkpt lat="45.11216" lon="5.58646">
        <ele>1080.8900494836</ele>
        <time>2019-08-06T06:43:15Z</time>
      </trkpt>
      <trkpt lat="45.11206" lon="5.58648">
        <ele>1081.4813461878</ele>
        <time>2019-08-06T06:43:20Z</time>
      </trkpt>
      <trkpt lat="45.11199" lon="5.58649">
        <ele>1081.7934303307</ele>
        <time>2019-08-06T06:43:24Z</time>
      </trkpt>
      <trkpt lat="45.11194" lon="5.58652">
        <ele>1083.3784130126</ele>
        <time>2019-08-06T06:43:27Z</time>
      </trkpt>
      <trkpt lat="45.11187" lon="5.58653">
        <ele>1084.2948090063</ele>
        <time>2019-08-06T06:43:31Z</time>
      </trkpt>
      <trkpt lat="45.11178" lon="5.58656">
        <ele>1087.7059364523</ele>
        <time>2019-08-06T06:43:36Z</time>
      </trkpt>
      <trkpt lat="45.11172" lon="5.58658">
        <ele>1088.7715002539</ele>
        <time>2019-08-06T06:43:40Z</time>
      </trkpt>
      <trkpt lat="45.11166" lon="5.58659">
        <ele>1089.257661578</ele>
        <time>2019-08-06T06:43:44Z</time>
      </trkpt>
      <trkpt lat="45.11158" lon="5.5866">
        <ele>1089.6213155586</ele>
        <time>2019-08-06T06:43:48Z</time>
      </trkpt>
      <trkpt lat="45.11151" lon="5.5866">
        <ele>1089.3199487846</ele>
        <time>2019-08-06T06:43:53Z</time>
      </trkpt>
      <trkpt lat="45.11147" lon="5.58658">
        <ele>1088.5635219365</ele>
        <time>2019-08-06T06:43:56Z</time>
      </trkpt>
      <trkpt lat="45.11141" lon="5.58658">
        <ele>1087.2351015361</ele>
        <time>2019-08-06T06:43:59Z</time>
      </trkpt>
      <trkpt lat="45.1113" lon="5.58659">
        <ele>1088.5054889662</ele>
        <time>2019-08-06T06:44:04Z</time>
      </trkpt>
      <trkpt lat="45.11117" lon="5.58663">
        <ele>1087.4414585434</ele>
        <time>2019-08-06T06:44:09Z</time>
      </trkpt>
      <trkpt lat="45.11109" lon="5.58664">
        <ele>1091.2810579839</ele>
        <time>2019-08-06T06:44:14Z</time>
      </trkpt>
      <trkpt lat="45.11101" lon="5.58663">
        <ele>1091.9333369165</ele>
        <time>2019-08-06T06:44:18Z</time>
      </trkpt>
      <trkpt lat="45.11092" lon="5.58663">
        <ele>1092.3191482774</ele>
        <time>2019-08-06T06:44:23Z</time>
      </trkpt>
      <trkpt lat="45.11087" lon="5.58663">
        <ele>1092.0205299284</ele>
        <time>2019-08-06T06:44:26Z</time>
      </trkpt>
      <trkpt lat="45.11079" lon="5.58661">
        <ele>1092.2779213167</ele>
        <time>2019-08-06T06:44:30Z</time>
      </trkpt>
      <trkpt lat="45.11069" lon="5.58659">
        <ele>1092.441006504</ele>
        <time>2019-08-06T06:44:35Z</time>
      </trkpt>
      <trkpt lat="45.11056" lon="5.58655">
        <ele>1092.5639188502</ele>
        <time>2019-08-06T06:44:38Z</time>
      </trkpt>
      <trkpt lat="45.11033" lon="5.58648">
        <ele>1090.4838780958</ele>
        <time>2019-08-06T06:44:43Z</time>
      </trkpt>
      <trkpt lat="45.11021" lon="5.58651">
        <ele>1089.0206878325</ele>
        <time>2019-08-06T06:44:48Z</time>
      </trkpt>
      <trkpt lat="45.11023" lon="5.58654">
        <ele>1088.1295646587</ele>
        <time>2019-08-06T06:45:17Z</time>
      </trkpt>
      <trkpt lat="45.11028" lon="5.58657">
        <ele>1089.8358148993</ele>
        <time>2019-08-06T06:45:21Z</time>
      </trkpt>
      <trkpt lat="45.11035" lon="5.5866">
        <ele>1091.6847072419</ele>
        <time>2019-08-06T06:45:25Z</time>
      </trkpt>
      <trkpt lat="45.11041" lon="5.58665">
        <ele>1092.7867934322</ele>
        <time>2019-08-06T06:45:29Z</time>
      </trkpt>
      <trkpt lat="45.11048" lon="5.58671">
        <ele>1094.5307758238</ele>
        <time>2019-08-06T06:45:33Z</time>
      </trkpt>
      <trkpt lat="45.11056" lon="5.5868">
        <ele>1099.927861804</ele>
        <time>2019-08-06T06:45:38Z</time>
      </trkpt>
      <trkpt lat="45.11061" lon="5.58683">
        <ele>1100.8653217024</ele>
        <time>2019-08-06T06:45:42Z</time>
      </trkpt>
      <trkpt lat="45.11066" lon="5.58689">
        <ele>1100.8928310339</ele>
        <time>2019-08-06T06:45:46Z</time>
      </trkpt>
      <trkpt lat="45.11074" lon="5.58693">
        <ele>1101.5628422268</ele>
        <time>2019-08-06T06:45:51Z</time>
      </trkpt>
      <trkpt lat="45.1108" lon="5.58698">
        <ele>1105.1502252291</ele>
        <time>2019-08-06T06:45:55Z</time>
      </trkpt>
      <trkpt lat="45.11086" lon="5.58703">
        <ele>1105.0422493536</ele>
        <time>2019-08-06T06:46:00Z</time>
      </trkpt>
      <trkpt lat="45.1109" lon="5.58709">
        <ele>1105.8814761717</ele>
        <time>2019-08-06T06:46:03Z</time>
      </trkpt>
      <trkpt lat="45.11096" lon="5.58713">
        <ele>1108.1704653699</ele>
        <time>2019-08-06T06:46:07Z</time>
      </trkpt>
      <trkpt lat="45.11103" lon="5.58716">
        <ele>1109.54218537</ele>
        <time>2019-08-06T06:46:12Z</time>
      </trkpt>
      <trkpt lat="45.11107" lon="5.58714">
        <ele>1112.6759634027</ele>
        <time>2019-08-06T06:46:20Z</time>
      </trkpt>
      <trkpt lat="45.11109" lon="5.58718">
        <ele>1113.5488429205</ele>
        <time>2019-08-06T06:46:24Z</time>
      </trkpt>
      <trkpt lat="45.11112" lon="5.58722">
        <ele>1114.6991879297</ele>
        <time>2019-08-06T06:46:29Z</time>
      </trkpt>
      <trkpt lat="45.11116" lon="5.58726">
        <ele>1113.8201504657</ele>
        <time>2019-08-06T06:47:11Z</time>
      </trkpt>
      <trkpt lat="45.11117" lon="5.5873">
        <ele>1115.0571307173</ele>
        <time>2019-08-06T06:47:16Z</time>
      </trkpt>
      <trkpt lat="45.11125" lon="5.58735">
        <ele>1115.0396766554</ele>
        <time>2019-08-06T06:47:21Z</time>
      </trkpt>
      <trkpt lat="45.11132" lon="5.5874">
        <ele>1114.6517587203</ele>
        <time>2019-08-06T06:47:25Z</time>
      </trkpt>
      <trkpt lat="45.11139" lon="5.58744">
        <ele>1115.538793744</ele>
        <time>2019-08-06T06:47:29Z</time>
      </trkpt>
      <trkpt lat="45.11146" lon="5.58748">
        <ele>1115.5404394257</ele>
        <time>2019-08-06T06:47:33Z</time>
      </trkpt>
      <trkpt lat="45.11153" lon="5.58751">
        <ele>1117.607457599</ele>
        <time>2019-08-06T06:47:37Z</time>
      </trkpt>
      <trkpt lat="45.11162" lon="5.58756">
        <ele>1118.3077141953</ele>
        <time>2019-08-06T06:47:42Z</time>
      </trkpt>
      <trkpt lat="45.11165" lon="5.58758">
        <ele>1119.9632215142</ele>
        <time>2019-08-06T06:47:45Z</time>
      </trkpt>
      <trkpt lat="45.11172" lon="5.5876">
        <ele>1124.7111801578</ele>
        <time>2019-08-06T06:47:49Z</time>
      </trkpt>
      <trkpt lat="45.11181" lon="5.58766">
        <ele>1126.9650275434</ele>
        <time>2019-08-06T06:47:54Z</time>
      </trkpt>
      <trkpt lat="45.11187" lon="5.58769">
        <ele>1126.3645196569</ele>
        <time>2019-08-06T06:47:58Z</time>
      </trkpt>
      <trkpt lat="45.11196" lon="5.58773">
        <ele>1126.0205626958</ele>
        <time>2019-08-06T06:48:03Z</time>
      </trkpt>
      <trkpt lat="45.112" lon="5.58775">
        <ele>1126.4223992449</ele>
        <time>2019-08-06T06:48:07Z</time>
      </trkpt>
      <trkpt lat="45.11203" lon="5.58778">
        <ele>1130.6535701544</ele>
        <time>2019-08-06T06:48:31Z</time>
      </trkpt>
      <trkpt lat="45.11209" lon="5.58782">
        <ele>1131.9636216581</ele>
        <time>2019-08-06T06:48:35Z</time>
      </trkpt>
      <trkpt lat="45.11213" lon="5.58785">
        <ele>1131.2841123608</ele>
        <time>2019-08-06T06:48:39Z</time>
      </trkpt>
      <trkpt lat="45.11222" lon="5.58789">
        <ele>1132.2383809287</ele>
        <time>2019-08-06T06:48:44Z</time>
      </trkpt>
      <trkpt lat="45.11228" lon="5.58793">
        <ele>1131.4058846137</ele>
        <time>2019-08-06T06:48:48Z</time>
      </trkpt>
      <trkpt lat="45.11239" lon="5.58803">
        <ele>1135.7994852329</ele>
        <time>2019-08-06T06:48:53Z</time>
      </trkpt>
      <trkpt lat="45.11246" lon="5.58808">
        <ele>1135.5963072017</ele>
        <time>2019-08-06T06:48:57Z</time>
      </trkpt>
      <trkpt lat="45.11254" lon="5.58816">
        <ele>1136.9052069953</ele>
        <time>2019-08-06T06:49:02Z</time>
      </trkpt>
      <trkpt lat="45.11259" lon="5.58824">
        <ele>1137.3751624516</ele>
        <time>2019-08-06T06:49:06Z</time>
      </trkpt>
      <trkpt lat="45.11265" lon="5.58835">
        <ele>1136.7321008915</ele>
        <time>2019-08-06T06:49:11Z</time>
      </trkpt>
      <trkpt lat="45.1127" lon="5.58844">
        <ele>1136.941962319</ele>
        <time>2019-08-06T06:49:15Z</time>
      </trkpt>
      <trkpt lat="45.11278" lon="5.58861">
        <ele>1137.5552489856</ele>
        <time>2019-08-06T06:49:20Z</time>
      </trkpt>
      <trkpt lat="45.11284" lon="5.58877">
        <ele>1138.4390944812</ele>
        <time>2019-08-06T06:49:25Z</time>
      </trkpt>
      <trkpt lat="45.11289" lon="5.58891">
        <ele>1138.5623980513</ele>
        <time>2019-08-06T06:49:29Z</time>
      </trkpt>
      <trkpt lat="45.11291" lon="5.58907">
        <ele>1137.594414068</ele>
        <time>2019-08-06T06:49:33Z</time>
      </trkpt>
      <trkpt lat="45.11292" lon="5.58924">
        <ele>1137.4946845925</ele>
        <time>2019-08-06T06:49:37Z</time>
      </trkpt>
      <trkpt lat="45.11294" lon="5.58945">
        <ele>1136.7808801048</ele>
        <time>2019-08-06T06:49:42Z</time>
      </trkpt>
      <trkpt lat="45.11295" lon="5.5896">
        <ele>1136.91466896</ele>
        <time>2019-08-06T06:49:46Z</time>
      </trkpt>
      <trkpt lat="45.11295" lon="5.58971">
        <ele>1136.2845561815</ele>
        <time>2019-08-06T06:49:49Z</time>
      </trkpt>
      <trkpt lat="45.11297" lon="5.58987">
        <ele>1136.3716375294</ele>
        <time>2019-08-06T06:49:53Z</time>
      </trkpt>
      <trkpt lat="45.11304" lon="5.59004">
        <ele>1137.0402516239</ele>
        <time>2019-08-06T06:49:58Z</time>
      </trkpt>
      <trkpt lat="45.1131" lon="5.59016">
        <ele>1136.6604512375</ele>
        <time>2019-08-06T06:50:02Z</time>
      </trkpt>
      <trkpt lat="45.11317" lon="5.59027">
        <ele>1136.6169735657</ele>
        <time>2019-08-06T06:50:06Z</time>
      </trkpt>
      <trkpt lat="45.11326" lon="5.59038">
        <ele>1136.3402157623</ele>
        <time>2019-08-06T06:50:10Z</time>
      </trkpt>
      <trkpt lat="45.11341" lon="5.5905">
        <ele>1136.3132024098</ele>
        <time>2019-08-06T06:50:15Z</time>
      </trkpt>
      <trkpt lat="45.11353" lon="5.5906">
        <ele>1135.9672455417</ele>
        <time>2019-08-06T06:50:18Z</time>
      </trkpt>
      <trkpt lat="45.11362" lon="5.59067">
        <ele>1136.7261880192</ele>
        <time>2019-08-06T06:50:22Z</time>
      </trkpt>
      <trkpt lat="45.11388" lon="5.59094">
        <ele>1134.0087216578</ele>
        <time>2019-08-06T06:50:27Z</time>
      </trkpt>
      <trkpt lat="45.11396" lon="5.59105">
        <ele>1135.7922912457</ele>
        <time>2019-08-06T06:50:31Z</time>
      </trkpt>
      <trkpt lat="45.11406" lon="5.59116">
        <ele>1136.7704412738</ele>
        <time>2019-08-06T06:50:35Z</time>
      </trkpt>
      <trkpt lat="45.11415" lon="5.59128">
        <ele>1138.897337853</ele>
        <time>2019-08-06T06:50:40Z</time>
      </trkpt>
      <trkpt lat="45.1142" lon="5.59136">
        <ele>1139.7469397902</ele>
        <time>2019-08-06T06:50:44Z</time>
      </trkpt>
      <trkpt lat="45.11423" lon="5.59144">
        <ele>1140.7531671194</ele>
        <time>2019-08-06T06:50:48Z</time>
      </trkpt>
      <trkpt lat="45.11425" lon="5.59154">
        <ele>1140.7928796001</ele>
        <time>2019-08-06T06:50:52Z</time>
      </trkpt>
      <trkpt lat="45.11429" lon="5.59166">
        <ele>1138.4135776222</ele>
        <time>2019-08-06T06:50:57Z</time>
      </trkpt>
      <trkpt lat="45.11433" lon="5.59176">
        <ele>1138.8491298367</ele>
        <time>2019-08-06T06:51:01Z</time>
      </trkpt>
      <trkpt lat="45.11436" lon="5.59181">
        <ele>1141.6439969565</ele>
        <time>2019-08-06T06:51:06Z</time>
      </trkpt>
      <trkpt lat="45.1144" lon="5.5919">
        <ele>1142.1989952522</ele>
        <time>2019-08-06T06:51:10Z</time>
      </trkpt>
      <trkpt lat="45.11445" lon="5.59199">
        <ele>1146.5084722132</ele>
        <time>2019-08-06T06:51:14Z</time>
      </trkpt>
      <trkpt lat="45.11448" lon="5.59213">
        <ele>1147.6132880722</ele>
        <time>2019-08-06T06:51:19Z</time>
      </trkpt>
      <trkpt lat="45.1145" lon="5.59219">
        <ele>1150.6259087912</ele>
        <time>2019-08-06T06:51:24Z</time>
      </trkpt>
      <trkpt lat="45.11452" lon="5.59224">
        <ele>1153.067416237</ele>
        <time>2019-08-06T06:51:44Z</time>
      </trkpt>
      <trkpt lat="45.11455" lon="5.59234">
        <ele>1153.0662821482</ele>
        <time>2019-08-06T06:51:48Z</time>
      </trkpt>
      <trkpt lat="45.11458" lon="5.59245">
        <ele>1154.1645593593</ele>
        <time>2019-08-06T06:51:52Z</time>
      </trkpt>
      <trkpt lat="45.1146" lon="5.59261">
        <ele>1153.4806604718</ele>
        <time>2019-08-06T06:51:57Z</time>
      </trkpt>
      <trkpt lat="45.11459" lon="5.59273">
        <ele>1154.2694177156</ele>
        <time>2019-08-06T06:52:01Z</time>
      </trkpt>
      <trkpt lat="45.1146" lon="5.59282">
        <ele>1154.0352493208</ele>
        <time>2019-08-06T06:52:06Z</time>
      </trkpt>
      <trkpt lat="45.11461" lon="5.5929">
        <ele>1153.934867816</ele>
        <time>2019-08-06T06:52:10Z</time>
      </trkpt>
      <trkpt lat="45.11461" lon="5.59298">
        <ele>1156.5459708608</ele>
        <time>2019-08-06T06:52:14Z</time>
      </trkpt>
      <trkpt lat="45.1146" lon="5.59307">
        <ele>1156.175971855</ele>
        <time>2019-08-06T06:52:18Z</time>
      </trkpt>
      <trkpt lat="45.11458" lon="5.5932">
        <ele>1158.010414034</ele>
        <time>2019-08-06T06:52:23Z</time>
      </trkpt>
      <trkpt lat="45.11456" lon="5.59328">
        <ele>1157.8468347191</ele>
        <time>2019-08-06T06:52:27Z</time>
      </trkpt>
      <trkpt lat="45.11455" lon="5.59335">
        <ele>1159.272525704</ele>
        <time>2019-08-06T06:52:31Z</time>
      </trkpt>
      <trkpt lat="45.11453" lon="5.59348">
        <ele>1164.7639464219</ele>
        <time>2019-08-06T06:52:36Z</time>
      </trkpt>
      <trkpt lat="45.11452" lon="5.59358">
        <ele>1165.0012559973</ele>
        <time>2019-08-06T06:52:41Z</time>
      </trkpt>
      <trkpt lat="45.1145" lon="5.59365">
        <ele>1164.3811236624</ele>
        <time>2019-08-06T06:52:45Z</time>
      </trkpt>
      <trkpt lat="45.1145" lon="5.59375">
        <ele>1166.9516611771</ele>
        <time>2019-08-06T06:52:50Z</time>
      </trkpt>
      <trkpt lat="45.11448" lon="5.59384">
        <ele>1169.4778885229</ele>
        <time>2019-08-06T06:52:55Z</time>
      </trkpt>
      <trkpt lat="45.11446" lon="5.5939">
        <ele>1171.521773202</ele>
        <time>2019-08-06T06:52:59Z</time>
      </trkpt>
      <trkpt lat="45.11444" lon="5.59398">
        <ele>1172.3133809127</ele>
        <time>2019-08-06T06:53:04Z</time>
      </trkpt>
      <trkpt lat="45.11443" lon="5.59407">
        <ele>1172.8488793933</ele>
        <time>2019-08-06T06:53:08Z</time>
      </trkpt>
      <trkpt lat="45.11442" lon="5.59416">
        <ele>1176.8688831042</ele>
        <time>2019-08-06T06:53:13Z</time>
      </trkpt>
      <trkpt lat="45.11441" lon="5.59425">
        <ele>1177.3810882659</ele>
        <time>2019-08-06T06:53:17Z</time>
      </trkpt>
      <trkpt lat="45.1144" lon="5.59433">
        <ele>1178.6076476556</ele>
        <time>2019-08-06T06:53:21Z</time>
      </trkpt>
      <trkpt lat="45.11439" lon="5.59438">
        <ele>1179.8652413198</ele>
        <time>2019-08-06T06:53:30Z</time>
      </trkpt>
      <trkpt lat="45.11438" lon="5.59442">
        <ele>1181.2945742568</ele>
        <time>2019-08-06T06:53:36Z</time>
      </trkpt>
      <trkpt lat="45.11437" lon="5.59448">
        <ele>1182.1391163384</ele>
        <time>2019-08-06T06:53:41Z</time>
      </trkpt>
      <trkpt lat="45.11437" lon="5.59455">
        <ele>1182.6283006933</ele>
        <time>2019-08-06T06:53:48Z</time>
      </trkpt>
      <trkpt lat="45.11433" lon="5.59452">
        <ele>1182.5534863309</ele>
        <time>2019-08-06T06:54:25Z</time>
      </trkpt>
      <trkpt lat="45.1143" lon="5.59445">
        <ele>1182.9444371195</ele>
        <time>2019-08-06T06:54:29Z</time>
      </trkpt>
      <trkpt lat="45.11428" lon="5.59433">
        <ele>1186.8569651507</ele>
        <time>2019-08-06T06:54:34Z</time>
      </trkpt>
      <trkpt lat="45.11428" lon="5.59422">
        <ele>1187.499841769</ele>
        <time>2019-08-06T06:54:38Z</time>
      </trkpt>
      <trkpt lat="45.11426" lon="5.59417">
        <ele>1192.4694201269</ele>
        <time>2019-08-06T06:54:56Z</time>
      </trkpt>
      <trkpt lat="45.11427" lon="5.59408">
        <ele>1191.7416514018</ele>
        <time>2019-08-06T06:54:59Z</time>
      </trkpt>
      <trkpt lat="45.11427" lon="5.5939">
        <ele>1191.5091828435</ele>
        <time>2019-08-06T06:55:03Z</time>
      </trkpt>
      <trkpt lat="45.11427" lon="5.59362">
        <ele>1190.4911476873</ele>
        <time>2019-08-06T06:55:07Z</time>
      </trkpt>
      <trkpt lat="45.11425" lon="5.59343">
        <ele>1191.2754956813</ele>
        <time>2019-08-06T06:55:12Z</time>
      </trkpt>
      <trkpt lat="45.11421" lon="5.59327">
        <ele>1191.755530632</ele>
        <time>2019-08-06T06:55:16Z</time>
      </trkpt>
      <trkpt lat="45.11419" lon="5.59318">
        <ele>1192.4633858977</ele>
        <time>2019-08-06T06:55:19Z</time>
      </trkpt>
      <trkpt lat="45.11415" lon="5.59307">
        <ele>1192.3635206919</ele>
        <time>2019-08-06T06:55:24Z</time>
      </trkpt>
      <trkpt lat="45.11412" lon="5.59301">
        <ele>1193.7334755426</ele>
        <time>2019-08-06T06:55:27Z</time>
      </trkpt>
      <trkpt lat="45.11408" lon="5.59295">
        <ele>1194.861957418</ele>
        <time>2019-08-06T06:55:31Z</time>
      </trkpt>
      <trkpt lat="45.11402" lon="5.59288">
        <ele>1195.5856195216</ele>
        <time>2019-08-06T06:55:36Z</time>
      </trkpt>
      <trkpt lat="45.11395" lon="5.59287">
        <ele>1194.4301110379</ele>
        <time>2019-08-06T06:55:40Z</time>
      </trkpt>
      <trkpt lat="45.11388" lon="5.59286">
        <ele>1194.7274028618</ele>
        <time>2019-08-06T06:55:44Z</time>
      </trkpt>
      <trkpt lat="45.11379" lon="5.59286">
        <ele>1196.481077333</ele>
        <time>2019-08-06T06:55:49Z</time>
      </trkpt>
      <trkpt lat="45.11372" lon="5.59285">
        <ele>1197.730403179</ele>
        <time>2019-08-06T06:55:53Z</time>
      </trkpt>
      <trkpt lat="45.11366" lon="5.59283">
        <ele>1197.4423754582</ele>
        <time>2019-08-06T06:55:58Z</time>
      </trkpt>
      <trkpt lat="45.1136" lon="5.59283">
        <ele>1200.1350951455</ele>
        <time>2019-08-06T06:56:01Z</time>
      </trkpt>
      <trkpt lat="45.11355" lon="5.59284">
        <ele>1201.9753149657</ele>
        <time>2019-08-06T06:56:05Z</time>
      </trkpt>
      <trkpt lat="45.11348" lon="5.59283">
        <ele>1203.138205975</ele>
        <time>2019-08-06T06:56:09Z</time>
      </trkpt>
      <trkpt lat="45.11342" lon="5.59281">
        <ele>1204.8626829713</ele>
        <time>2019-08-06T06:56:13Z</time>
      </trkpt>
      <trkpt lat="45.11337" lon="5.5928">
        <ele>1206.0592296147</ele>
        <time>2019-08-06T06:56:17Z</time>
      </trkpt>
      <trkpt lat="45.11329" lon="5.59279">
        <ele>1208.0564413797</ele>
        <time>2019-08-06T06:56:22Z</time>
      </trkpt>
      <trkpt lat="45.11323" lon="5.59277">
        <ele>1210.0539195713</ele>
        <time>2019-08-06T06:56:26Z</time>
      </trkpt>
      <trkpt lat="45.11315" lon="5.59275">
        <ele>1210.3833552144</ele>
        <time>2019-08-06T06:56:31Z</time>
      </trkpt>
      <trkpt lat="45.11308" lon="5.59275">
        <ele>1211.191839517</ele>
        <time>2019-08-06T06:56:36Z</time>
      </trkpt>
      <trkpt lat="45.11304" lon="5.59275">
        <ele>1212.7013581938</ele>
        <time>2019-08-06T06:56:39Z</time>
      </trkpt>
      <trkpt lat="45.11298" lon="5.59275">
        <ele>1213.4681463664</ele>
        <time>2019-08-06T06:56:43Z</time>
      </trkpt>
      <trkpt lat="45.11292" lon="5.59274">
        <ele>1214.2313725858</ele>
        <time>2019-08-06T06:56:47Z</time>
      </trkpt>
      <trkpt lat="45.11285" lon="5.59272">
        <ele>1215.5566496316</ele>
        <time>2019-08-06T06:56:52Z</time>
      </trkpt>
      <trkpt lat="45.11279" lon="5.59272">
        <ele>1212.801734625</ele>
        <time>2019-08-06T06:56:56Z</time>
      </trkpt>
      <trkpt lat="45.11273" lon="5.59273">
        <ele>1215.0945783472</ele>
        <time>2019-08-06T06:57:01Z</time>
      </trkpt>
      <trkpt lat="45.11267" lon="5.59273">
        <ele>1217.92183921</ele>
        <time>2019-08-06T06:57:05Z</time>
      </trkpt>
      <trkpt lat="45.11262" lon="5.59273">
        <ele>1219.3229086315</ele>
        <time>2019-08-06T06:57:09Z</time>
      </trkpt>
      <trkpt lat="45.11257" lon="5.59275">
        <ele>1218.8255711368</ele>
        <time>2019-08-06T06:57:13Z</time>
      </trkpt>
      <trkpt lat="45.11252" lon="5.59275">
        <ele>1221.6973151987</ele>
        <time>2019-08-06T06:57:17Z</time>
      </trkpt>
      <trkpt lat="45.11245" lon="5.59276">
        <ele>1226.5171195327</ele>
        <time>2019-08-06T06:57:22Z</time>
      </trkpt>
      <trkpt lat="45.1124" lon="5.59276">
        <ele>1228.3775440467</ele>
        <time>2019-08-06T06:57:26Z</time>
      </trkpt>
      <trkpt lat="45.11233" lon="5.59278">
        <ele>1227.8048964492</ele>
        <time>2019-08-06T06:57:30Z</time>
      </trkpt>
      <trkpt lat="45.11227" lon="5.5928">
        <ele>1229.4286581164</ele>
        <time>2019-08-06T06:57:34Z</time>
      </trkpt>
      <trkpt lat="45.11219" lon="5.59282">
        <ele>1230.0733309076</ele>
        <time>2019-08-06T06:57:39Z</time>
      </trkpt>
      <trkpt lat="45.11212" lon="5.59285">
        <ele>1232.5109598966</ele>
        <time>2019-08-06T06:57:43Z</time>
      </trkpt>
      <trkpt lat="45.11206" lon="5.59287">
        <ele>1233.9705428081</ele>
        <time>2019-08-06T06:57:47Z</time>
      </trkpt>
      <trkpt lat="45.112" lon="5.59289">
        <ele>1236.1362784716</ele>
        <time>2019-08-06T06:57:51Z</time>
      </trkpt>
      <trkpt lat="45.11195" lon="5.59289">
        <ele>1233.5395943287</ele>
        <time>2019-08-06T06:57:55Z</time>
      </trkpt>
      <trkpt lat="45.11188" lon="5.59291">
        <ele>1234.1716727165</ele>
        <time>2019-08-06T06:57:59Z</time>
      </trkpt>
      <trkpt lat="45.11183" lon="5.59294">
        <ele>1237.0675659012</ele>
        <time>2019-08-06T06:58:03Z</time>
      </trkpt>
      <trkpt lat="45.11177" lon="5.59298">
        <ele>1239.1650412074</ele>
        <time>2019-08-06T06:58:07Z</time>
      </trkpt>
      <trkpt lat="45.11169" lon="5.59301">
        <ele>1241.9457964748</ele>
        <time>2019-08-06T06:58:12Z</time>
      </trkpt>
      <trkpt lat="45.11164" lon="5.59302">
        <ele>1242.3630076104</ele>
        <time>2019-08-06T06:58:16Z</time>
      </trkpt>
      <trkpt lat="45.11158" lon="5.59303">
        <ele>1241.1726729131</ele>
        <time>2019-08-06T06:58:21Z</time>
      </trkpt>
      <trkpt lat="45.11154" lon="5.59305">
        <ele>1239.1912443763</ele>
        <time>2019-08-06T06:58:24Z</time>
      </trkpt>
      <trkpt lat="45.11148" lon="5.59308">
        <ele>1241.5639371039</ele>
        <time>2019-08-06T06:58:28Z</time>
      </trkpt>
      <trkpt lat="45.11141" lon="5.5931">
        <ele>1244.8492333772</ele>
        <time>2019-08-06T06:58:33Z</time>
      </trkpt>
      <trkpt lat="45.11135" lon="5.59313">
        <ele>1245.3610726329</ele>
        <time>2019-08-06T06:58:37Z</time>
      </trkpt>
      <trkpt lat="45.11131" lon="5.59313">
        <ele>1245.5226856453</ele>
        <time>2019-08-06T06:58:40Z</time>
      </trkpt>
      <trkpt lat="45.11124" lon="5.59314">
        <ele>1246.581425621</ele>
        <time>2019-08-06T06:58:44Z</time>
      </trkpt>
      <trkpt lat="45.11112" lon="5.59314">
        <ele>1245.206154279</ele>
        <time>2019-08-06T06:58:49Z</time>
      </trkpt>
      <trkpt lat="45.11102" lon="5.59315">
        <ele>1245.6270559892</ele>
        <time>2019-08-06T06:58:54Z</time>
      </trkpt>
      <trkpt lat="45.11091" lon="5.59315">
        <ele>1248.4548305582</ele>
        <time>2019-08-06T06:58:58Z</time>
      </trkpt>
      <trkpt lat="45.11081" lon="5.59316">
        <ele>1248.7572036637</ele>
        <time>2019-08-06T06:59:02Z</time>
      </trkpt>
      <trkpt lat="45.1107" lon="5.59319">
        <ele>1250.2137584281</ele>
        <time>2019-08-06T06:59:07Z</time>
      </trkpt>
      <trkpt lat="45.11065" lon="5.59321">
        <ele>1250.9624349202</ele>
        <time>2019-08-06T06:59:10Z</time>
      </trkpt>
      <trkpt lat="45.11067" lon="5.59326">
        <ele>1251.7954172399</ele>
        <time>2019-08-06T06:59:20Z</time>
      </trkpt>
      <trkpt lat="45.11075" lon="5.59326">
        <ele>1253.0151725675</ele>
        <time>2019-08-06T06:59:25Z</time>
      </trkpt>
      <trkpt lat="45.11081" lon="5.59325">
        <ele>1253.8708961108</ele>
        <time>2019-08-06T06:59:29Z</time>
      </trkpt>
      <trkpt lat="45.11088" lon="5.59326">
        <ele>1254.6160811623</ele>
        <time>2019-08-06T06:59:33Z</time>
      </trkpt>
      <trkpt lat="45.11098" lon="5.59327">
        <ele>1255.0941691335</ele>
        <time>2019-08-06T06:59:38Z</time>
      </trkpt>
      <trkpt lat="45.11105" lon="5.59328">
        <ele>1255.7902092387</ele>
        <time>2019-08-06T06:59:42Z</time>
      </trkpt>
      <trkpt lat="45.11112" lon="5.59329">
        <ele>1256.7776457016</ele>
        <time>2019-08-06T06:59:46Z</time>
      </trkpt>
      <trkpt lat="45.11119" lon="5.59331">
        <ele>1257.3452833432</ele>
        <time>2019-08-06T06:59:50Z</time>
      </trkpt>
      <trkpt lat="45.11129" lon="5.59334">
        <ele>1258.9565297015</ele>
        <time>2019-08-06T06:59:55Z</time>
      </trkpt>
      <trkpt lat="45.11133" lon="5.59335">
        <ele>1259.4228154384</ele>
        <time>2019-08-06T06:59:58Z</time>
      </trkpt>
      <trkpt lat="45.1114" lon="5.59336">
        <ele>1258.7953826782</ele>
        <time>2019-08-06T07:00:02Z</time>
      </trkpt>
      <trkpt lat="45.11148" lon="5.59339">
        <ele>1261.0968851154</ele>
        <time>2019-08-06T07:00:07Z</time>
      </trkpt>
      <trkpt lat="45.11154" lon="5.59342">
        <ele>1262.2637801535</ele>
        <time>2019-08-06T07:00:11Z</time>
      </trkpt>
      <trkpt lat="45.11161" lon="5.59344">
        <ele>1263.3232520377</ele>
        <time>2019-08-06T07:00:15Z</time>
      </trkpt>
      <trkpt lat="45.11168" lon="5.59347">
        <ele>1264.4206834936</ele>
        <time>2019-08-06T07:00:19Z</time>
      </trkpt>
      <trkpt lat="45.11175" lon="5.59352">
        <ele>1265.9897118347</ele>
        <time>2019-08-06T07:00:24Z</time>
      </trkpt>
      <trkpt lat="45.11183" lon="5.59356">
        <ele>1267.3979268536</ele>
        <time>2019-08-06T07:00:29Z</time>
      </trkpt>
      <trkpt lat="45.11189" lon="5.59357">
        <ele>1268.5536023693</ele>
        <time>2019-08-06T07:00:32Z</time>
      </trkpt>
      <trkpt lat="45.11195" lon="5.59359">
        <ele>1268.6152482568</ele>
        <time>2019-08-06T07:00:36Z</time>
      </trkpt>
      <trkpt lat="45.11203" lon="5.59361">
        <ele>1269.1115653225</ele>
        <time>2019-08-06T07:00:40Z</time>
      </trkpt>
      <trkpt lat="45.11212" lon="5.59366">
        <ele>1271.027506101</ele>
        <time>2019-08-06T07:00:45Z</time>
      </trkpt>
      <trkpt lat="45.1122" lon="5.59371">
        <ele>1271.816618109</ele>
        <time>2019-08-06T07:00:50Z</time>
      </trkpt>
      <trkpt lat="45.11225" lon="5.59376">
        <ele>1272.569469</ele>
        <time>2019-08-06T07:00:54Z</time>
      </trkpt>
      <trkpt lat="45.11232" lon="5.59382">
        <ele>1273.7690307365</ele>
        <time>2019-08-06T07:00:59Z</time>
      </trkpt>
      <trkpt lat="45.11237" lon="5.59385">
        <ele>1274.4562164283</ele>
        <time>2019-08-06T07:01:02Z</time>
      </trkpt>
      <trkpt lat="45.11245" lon="5.59391">
        <ele>1275.5082628202</ele>
        <time>2019-08-06T07:01:07Z</time>
      </trkpt>
      <trkpt lat="45.11251" lon="5.59396">
        <ele>1276.7916835548</ele>
        <time>2019-08-06T07:01:11Z</time>
      </trkpt>
      <trkpt lat="45.11258" lon="5.59403">
        <ele>1278.2801435378</ele>
        <time>2019-08-06T07:01:16Z</time>
      </trkpt>
      <trkpt lat="45.11262" lon="5.59408">
        <ele>1279.367047396</ele>
        <time>2019-08-06T07:01:19Z</time>
      </trkpt>
      <trkpt lat="45.11267" lon="5.59415">
        <ele>1280.4884220961</ele>
        <time>2019-08-06T07:01:23Z</time>
      </trkpt>
      <trkpt lat="45.11271" lon="5.5942">
        <ele>1280.543492784</ele>
        <time>2019-08-06T07:01:26Z</time>
      </trkpt>
      <trkpt lat="45.11275" lon="5.59431">
        <ele>1281.5777465227</ele>
        <time>2019-08-06T07:01:31Z</time>
      </trkpt>
      <trkpt lat="45.11276" lon="5.59441">
        <ele>1282.1680237855</ele>
        <time>2019-08-06T07:01:35Z</time>
      </trkpt>
      <trkpt lat="45.11276" lon="5.59453">
        <ele>1283.1918223794</ele>
        <time>2019-08-06T07:01:39Z</time>
      </trkpt>
      <trkpt lat="45.11274" lon="5.59467">
        <ele>1288.9893285887</ele>
        <time>2019-08-06T07:01:44Z</time>
      </trkpt>
      <trkpt lat="45.11272" lon="5.59476">
        <ele>1288.2695937817</ele>
        <time>2019-08-06T07:01:48Z</time>
      </trkpt>
      <trkpt lat="45.1127" lon="5.59487">
        <ele>1289.0848284658</ele>
        <time>2019-08-06T07:01:52Z</time>
      </trkpt>
      <trkpt lat="45.11268" lon="5.59497">
        <ele>1289.3668637445</ele>
        <time>2019-08-06T07:01:56Z</time>
      </trkpt>
      <trkpt lat="45.11266" lon="5.59504">
        <ele>1290.4503758822</ele>
        <time>2019-08-06T07:01:59Z</time>
      </trkpt>
      <trkpt lat="45.11264" lon="5.59514">
        <ele>1291.1028416516</ele>
        <time>2019-08-06T07:02:04Z</time>
      </trkpt>
      <trkpt lat="45.11262" lon="5.59523">
        <ele>1291.1239237214</ele>
        <time>2019-08-06T07:02:08Z</time>
      </trkpt>
      <trkpt lat="45.11259" lon="5.59531">
        <ele>1291.8120488276</ele>
        <time>2019-08-06T07:02:12Z</time>
      </trkpt>
      <trkpt lat="45.11254" lon="5.59538">
        <ele>1292.5410972193</ele>
        <time>2019-08-06T07:02:16Z</time>
      </trkpt>
      <trkpt lat="45.1125" lon="5.59546">
        <ele>1293.3253396094</ele>
        <time>2019-08-06T07:02:20Z</time>
      </trkpt>
      <trkpt lat="45.11245" lon="5.59553">
        <ele>1293.9455264169</ele>
        <time>2019-08-06T07:02:24Z</time>
      </trkpt>
      <trkpt lat="45.11239" lon="5.59563">
        <ele>1294.4650673002</ele>
        <time>2019-08-06T07:02:29Z</time>
      </trkpt>
      <trkpt lat="45.11233" lon="5.59571">
        <ele>1295.452728821</ele>
        <time>2019-08-06T07:02:34Z</time>
      </trkpt>
      <trkpt lat="45.11227" lon="5.59578">
        <ele>1296.2350338649</ele>
        <time>2019-08-06T07:02:38Z</time>
      </trkpt>
      <trkpt lat="45.11221" lon="5.59583">
        <ele>1296.7324922779</ele>
        <time>2019-08-06T07:02:42Z</time>
      </trkpt>
      <trkpt lat="45.11214" lon="5.59592">
        <ele>1296.8947849832</ele>
        <time>2019-08-06T07:02:47Z</time>
      </trkpt>
      <trkpt lat="45.11208" lon="5.59601">
        <ele>1296.8672268743</ele>
        <time>2019-08-06T07:02:52Z</time>
      </trkpt>
      <trkpt lat="45.11203" lon="5.59606">
        <ele>1297.2897341166</ele>
        <time>2019-08-06T07:02:56Z</time>
      </trkpt>
      <trkpt lat="45.11198" lon="5.59611">
        <ele>1297.4259963219</ele>
        <time>2019-08-06T07:02:59Z</time>
      </trkpt>
      <trkpt lat="45.11192" lon="5.59617">
        <ele>1297.8427408433</ele>
        <time>2019-08-06T07:03:03Z</time>
      </trkpt>
      <trkpt lat="45.11186" lon="5.59622">
        <ele>1298.1606728557</ele>
        <time>2019-08-06T07:03:07Z</time>
      </trkpt>
      <trkpt lat="45.1118" lon="5.5963">
        <ele>1298.3494255863</ele>
        <time>2019-08-06T07:03:12Z</time>
      </trkpt>
      <trkpt lat="45.11174" lon="5.59636">
        <ele>1299.2931974543</ele>
        <time>2019-08-06T07:03:16Z</time>
      </trkpt>
      <trkpt lat="45.11168" lon="5.59639">
        <ele>1299.8374117772</ele>
        <time>2019-08-06T07:03:19Z</time>
      </trkpt>
      <trkpt lat="45.11159" lon="5.59645">
        <ele>1301.9220902981</ele>
        <time>2019-08-06T07:03:24Z</time>
      </trkpt>
      <trkpt lat="45.11148" lon="5.5965">
        <ele>1304.7023752033</ele>
        <time>2019-08-06T07:03:29Z</time>
      </trkpt>
      <trkpt lat="45.11143" lon="5.59655">
        <ele>1305.1156253759</ele>
        <time>2019-08-06T07:03:32Z</time>
      </trkpt>
      <trkpt lat="45.11137" lon="5.59664">
        <ele>1306.1306473162</ele>
        <time>2019-08-06T07:03:37Z</time>
      </trkpt>
      <trkpt lat="45.11131" lon="5.59676">
        <ele>1304.5260222677</ele>
        <time>2019-08-06T07:03:42Z</time>
      </trkpt>
      <trkpt lat="45.11128" lon="5.5969">
        <ele>1307.2674498473</ele>
        <time>2019-08-06T07:03:47Z</time>
      </trkpt>
      <trkpt lat="45.11128" lon="5.597">
        <ele>1308.1232450947</ele>
        <time>2019-08-06T07:03:51Z</time>
      </trkpt>
      <trkpt lat="45.11129" lon="5.59713">
        <ele>1309.084210543</ele>
        <time>2019-08-06T07:03:56Z</time>
      </trkpt>
      <trkpt lat="45.11131" lon="5.59722">
        <ele>1310.1529982749</ele>
        <time>2019-08-06T07:04:00Z</time>
      </trkpt>
      <trkpt lat="45.11134" lon="5.59735">
        <ele>1311.4576939313</ele>
        <time>2019-08-06T07:04:05Z</time>
      </trkpt>
      <trkpt lat="45.11137" lon="5.59745">
        <ele>1312.7139647992</ele>
        <time>2019-08-06T07:04:09Z</time>
      </trkpt>
      <trkpt lat="45.11141" lon="5.59755">
        <ele>1313.8581798277</ele>
        <time>2019-08-06T07:04:13Z</time>
      </trkpt>
      <trkpt lat="45.11145" lon="5.59765">
        <ele>1314.5171516904</ele>
        <time>2019-08-06T07:04:17Z</time>
      </trkpt>
      <trkpt lat="45.11147" lon="5.59777">
        <ele>1316.1999473008</ele>
        <time>2019-08-06T07:04:21Z</time>
      </trkpt>
      <trkpt lat="45.11148" lon="5.59786">
        <ele>1316.7997044611</ele>
        <time>2019-08-06T07:04:24Z</time>
      </trkpt>
      <trkpt lat="45.11148" lon="5.59802">
        <ele>1316.4664285309</ele>
        <time>2019-08-06T07:04:29Z</time>
      </trkpt>
      <trkpt lat="45.11147" lon="5.59813">
        <ele>1316.2732154579</ele>
        <time>2019-08-06T07:04:33Z</time>
      </trkpt>
      <trkpt lat="45.11145" lon="5.59825">
        <ele>1317.5639749451</ele>
        <time>2019-08-06T07:04:37Z</time>
      </trkpt>
      <trkpt lat="45.11142" lon="5.5984">
        <ele>1318.1466825266</ele>
        <time>2019-08-06T07:04:42Z</time>
      </trkpt>
      <trkpt lat="45.11139" lon="5.59854">
        <ele>1318.6239077454</ele>
        <time>2019-08-06T07:04:47Z</time>
      </trkpt>
      <trkpt lat="45.1114" lon="5.59866">
        <ele>1319.372055119</ele>
        <time>2019-08-06T07:04:51Z</time>
      </trkpt>
      <trkpt lat="45.11143" lon="5.59875">
        <ele>1320.1847378565</ele>
        <time>2019-08-06T07:04:56Z</time>
      </trkpt>
      <trkpt lat="45.11143" lon="5.59893">
        <ele>1321.1901377461</ele>
        <time>2019-08-06T07:05:00Z</time>
      </trkpt>
      <trkpt lat="45.11137" lon="5.59903">
        <ele>1321.8091311784</ele>
        <time>2019-08-06T07:05:04Z</time>
      </trkpt>
      <trkpt lat="45.11127" lon="5.59896">
        <ele>1322.7266929575</ele>
        <time>2019-08-06T07:05:09Z</time>
      </trkpt>
      <trkpt lat="45.11125" lon="5.59886">
        <ele>1323.0049418245</ele>
        <time>2019-08-06T07:05:12Z</time>
      </trkpt>
      <trkpt lat="45.11123" lon="5.59873">
        <ele>1323.7833888289</ele>
        <time>2019-08-06T07:05:16Z</time>
      </trkpt>
      <trkpt lat="45.11122" lon="5.59861">
        <ele>1324.9063865541</ele>
        <time>2019-08-06T07:05:20Z</time>
      </trkpt>
      <trkpt lat="45.11121" lon="5.59849">
        <ele>1325.3125851896</ele>
        <time>2019-08-06T07:05:24Z</time>
      </trkpt>
      <trkpt lat="45.11122" lon="5.59833">
        <ele>1326.451695417</ele>
        <time>2019-08-06T07:05:29Z</time>
      </trkpt>
      <trkpt lat="45.11122" lon="5.59825">
        <ele>1327.0178256675</ele>
        <time>2019-08-06T07:05:32Z</time>
      </trkpt>
      <trkpt lat="45.11122" lon="5.59813">
        <ele>1328.149833123</ele>
        <time>2019-08-06T07:05:36Z</time>
      </trkpt>
      <trkpt lat="45.11119" lon="5.59802">
        <ele>1329.5251543571</ele>
        <time>2019-08-06T07:05:41Z</time>
      </trkpt>
      <trkpt lat="45.11114" lon="5.59795">
        <ele>1330.1988884057</ele>
        <time>2019-08-06T07:05:45Z</time>
      </trkpt>
      <trkpt lat="45.11107" lon="5.59791">
        <ele>1330.3900549329</ele>
        <time>2019-08-06T07:05:49Z</time>
      </trkpt>
      <trkpt lat="45.11101" lon="5.59785">
        <ele>1331.3181254979</ele>
        <time>2019-08-06T07:05:53Z</time>
      </trkpt>
      <trkpt lat="45.11095" lon="5.59776">
        <ele>1332.1154367197</ele>
        <time>2019-08-06T07:05:57Z</time>
      </trkpt>
      <trkpt lat="45.1109" lon="5.59767">
        <ele>1332.9285715633</ele>
        <time>2019-08-06T07:06:01Z</time>
      </trkpt>
      <trkpt lat="45.11086" lon="5.59757">
        <ele>1334.0323604537</ele>
        <time>2019-08-06T07:06:05Z</time>
      </trkpt>
      <trkpt lat="45.11082" lon="5.59748">
        <ele>1334.8546307295</ele>
        <time>2019-08-06T07:06:09Z</time>
      </trkpt>
      <trkpt lat="45.11077" lon="5.59739">
        <ele>1335.8355800678</ele>
        <time>2019-08-06T07:06:13Z</time>
      </trkpt>
      <trkpt lat="45.11071" lon="5.59727">
        <ele>1336.9175010167</ele>
        <time>2019-08-06T07:06:18Z</time>
      </trkpt>
      <trkpt lat="45.11067" lon="5.59721">
        <ele>1337.4810566888</ele>
        <time>2019-08-06T07:06:21Z</time>
      </trkpt>
      <trkpt lat="45.1106" lon="5.59711">
        <ele>1338.3810358719</ele>
        <time>2019-08-06T07:06:26Z</time>
      </trkpt>
      <trkpt lat="45.11052" lon="5.59703">
        <ele>1339.042773432</ele>
        <time>2019-08-06T07:06:31Z</time>
      </trkpt>
      <trkpt lat="45.11048" lon="5.59698">
        <ele>1339.581571993</ele>
        <time>2019-08-06T07:06:34Z</time>
      </trkpt>
      <trkpt lat="45.1104" lon="5.5969">
        <ele>1340.6327592567</ele>
        <time>2019-08-06T07:06:39Z</time>
      </trkpt>
      <trkpt lat="45.11032" lon="5.59684">
        <ele>1341.1771241275</ele>
        <time>2019-08-06T07:06:43Z</time>
      </trkpt>
      <trkpt lat="45.11026" lon="5.59679">
        <ele>1341.5733548613</ele>
        <time>2019-08-06T07:06:47Z</time>
      </trkpt>
      <trkpt lat="45.11016" lon="5.59674">
        <ele>1342.7156123877</ele>
        <time>2019-08-06T07:06:52Z</time>
      </trkpt>
      <trkpt lat="45.11007" lon="5.59672">
        <ele>1343.590424304</ele>
        <time>2019-08-06T07:06:56Z</time>
      </trkpt>
      <trkpt lat="45.11" lon="5.59669">
        <ele>1342.9789765944</ele>
        <time>2019-08-06T07:07:00Z</time>
      </trkpt>
      <trkpt lat="45.1099" lon="5.59666">
        <ele>1343.5752816898</ele>
        <time>2019-08-06T07:07:05Z</time>
      </trkpt>
      <trkpt lat="45.10982" lon="5.59666">
        <ele>1344.0701919545</ele>
        <time>2019-08-06T07:07:09Z</time>
      </trkpt>
      <trkpt lat="45.10976" lon="5.59666">
        <ele>1344.7083837142</ele>
        <time>2019-08-06T07:07:12Z</time>
      </trkpt>
      <trkpt lat="45.10967" lon="5.59665">
        <ele>1344.5197993398</ele>
        <time>2019-08-06T07:07:17Z</time>
      </trkpt>
      <trkpt lat="45.10959" lon="5.59665">
        <ele>1346.2552368427</ele>
        <time>2019-08-06T07:07:21Z</time>
      </trkpt>
      <trkpt lat="45.10952" lon="5.59665">
        <ele>1347.3001482617</ele>
        <time>2019-08-06T07:07:25Z</time>
      </trkpt>
      <trkpt lat="45.10943" lon="5.59664">
        <ele>1347.7470434239</ele>
        <time>2019-08-06T07:07:29Z</time>
      </trkpt>
      <trkpt lat="45.10936" lon="5.59663">
        <ele>1348.1223249424</ele>
        <time>2019-08-06T07:07:33Z</time>
      </trkpt>
      <trkpt lat="45.10928" lon="5.59664">
        <ele>1350.6378572936</ele>
        <time>2019-08-06T07:07:37Z</time>
      </trkpt>
      <trkpt lat="45.10918" lon="5.59663">
        <ele>1349.9816637244</ele>
        <time>2019-08-06T07:07:42Z</time>
      </trkpt>
      <trkpt lat="45.10908" lon="5.59664">
        <ele>1350.9990083599</ele>
        <time>2019-08-06T07:07:47Z</time>
      </trkpt>
      <trkpt lat="45.10899" lon="5.59665">
        <ele>1351.6563363146</ele>
        <time>2019-08-06T07:07:52Z</time>
      </trkpt>
      <trkpt lat="45.10891" lon="5.59663">
        <ele>1352.6257133678</ele>
        <time>2019-08-06T07:07:56Z</time>
      </trkpt>
      <trkpt lat="45.10883" lon="5.59662">
        <ele>1353.1482677754</ele>
        <time>2019-08-06T07:08:00Z</time>
      </trkpt>
      <trkpt lat="45.10873" lon="5.59661">
        <ele>1354.2927273462</ele>
        <time>2019-08-06T07:08:05Z</time>
      </trkpt>
      <trkpt lat="45.10863" lon="5.59658">
        <ele>1354.9239733826</ele>
        <time>2019-08-06T07:08:10Z</time>
      </trkpt>
      <trkpt lat="45.10858" lon="5.59656">
        <ele>1355.9302604871</ele>
        <time>2019-08-06T07:08:13Z</time>
      </trkpt>
      <trkpt lat="45.10852" lon="5.59655">
        <ele>1356.8452199861</ele>
        <time>2019-08-06T07:08:16Z</time>
      </trkpt>
      <trkpt lat="45.10842" lon="5.59653">
        <ele>1358.2643086802</ele>
        <time>2019-08-06T07:08:21Z</time>
      </trkpt>
      <trkpt lat="45.10834" lon="5.59652">
        <ele>1359.6929902169</ele>
        <time>2019-08-06T07:08:25Z</time>
      </trkpt>
      <trkpt lat="45.10826" lon="5.5965">
        <ele>1359.8630121277</ele>
        <time>2019-08-06T07:08:29Z</time>
      </trkpt>
      <trkpt lat="45.10816" lon="5.5965">
        <ele>1361.1296331824</ele>
        <time>2019-08-06T07:08:34Z</time>
      </trkpt>
      <trkpt lat="45.10807" lon="5.59648">
        <ele>1361.6057221931</ele>
        <time>2019-08-06T07:08:39Z</time>
      </trkpt>
      <trkpt lat="45.10797" lon="5.59649">
        <ele>1362.5616531334</ele>
        <time>2019-08-06T07:08:44Z</time>
      </trkpt>
      <trkpt lat="45.10789" lon="5.59649">
        <ele>1363.0594816079</ele>
        <time>2019-08-06T07:08:48Z</time>
      </trkpt>
      <trkpt lat="45.10779" lon="5.5965">
        <ele>1364.6468894119</ele>
        <time>2019-08-06T07:08:53Z</time>
      </trkpt>
      <trkpt lat="45.10769" lon="5.59651">
        <ele>1365.4655208928</ele>
        <time>2019-08-06T07:08:58Z</time>
      </trkpt>
      <trkpt lat="45.10759" lon="5.59651">
        <ele>1366.2688892881</ele>
        <time>2019-08-06T07:09:03Z</time>
      </trkpt>
      <trkpt lat="45.10753" lon="5.5965">
        <ele>1366.426823567</ele>
        <time>2019-08-06T07:09:06Z</time>
      </trkpt>
      <trkpt lat="45.10745" lon="5.59651">
        <ele>1367.4929634363</ele>
        <time>2019-08-06T07:09:10Z</time>
      </trkpt>
      <trkpt lat="45.10738" lon="5.59652">
        <ele>1368.23739579</ele>
        <time>2019-08-06T07:09:14Z</time>
      </trkpt>
      <trkpt lat="45.10729" lon="5.59652">
        <ele>1368.9944785323</ele>
        <time>2019-08-06T07:09:18Z</time>
      </trkpt>
      <trkpt lat="45.1072" lon="5.59654">
        <ele>1369.702484773</ele>
        <time>2019-08-06T07:09:23Z</time>
      </trkpt>
      <trkpt lat="45.10712" lon="5.59655">
        <ele>1369.3906573971</ele>
        <time>2019-08-06T07:09:27Z</time>
      </trkpt>
      <trkpt lat="45.10704" lon="5.59657">
        <ele>1369.8942972865</ele>
        <time>2019-08-06T07:09:31Z</time>
      </trkpt>
      <trkpt lat="45.10697" lon="5.59658">
        <ele>1369.9588811834</ele>
        <time>2019-08-06T07:09:35Z</time>
      </trkpt>
      <trkpt lat="45.10689" lon="5.59659">
        <ele>1371.0912018952</ele>
        <time>2019-08-06T07:09:39Z</time>
      </trkpt>
      <trkpt lat="45.1068" lon="5.5966">
        <ele>1371.5508890969</ele>
        <time>2019-08-06T07:09:43Z</time>
      </trkpt>
      <trkpt lat="45.1067" lon="5.59659">
        <ele>1371.3152798021</ele>
        <time>2019-08-06T07:09:48Z</time>
      </trkpt>
      <trkpt lat="45.10663" lon="5.59659">
        <ele>1371.6392198876</ele>
        <time>2019-08-06T07:09:52Z</time>
      </trkpt>
      <trkpt lat="45.10655" lon="5.59659">
        <ele>1372.4172152106</ele>
        <time>2019-08-06T07:09:56Z</time>
      </trkpt>
      <trkpt lat="45.10645" lon="5.59659">
        <ele>1373.4497035533</ele>
        <time>2019-08-06T07:10:01Z</time>
      </trkpt>
      <trkpt lat="45.1064" lon="5.59659">
        <ele>1374.4693301906</ele>
        <time>2019-08-06T07:10:04Z</time>
      </trkpt>
      <trkpt lat="45.1063" lon="5.59658">
        <ele>1374.9728946696</ele>
        <time>2019-08-06T07:10:09Z</time>
      </trkpt>
      <trkpt lat="45.10622" lon="5.59659">
        <ele>1375.4883087586</ele>
        <time>2019-08-06T07:10:13Z</time>
      </trkpt>
      <trkpt lat="45.10612" lon="5.59658">
        <ele>1377.0096135539</ele>
        <time>2019-08-06T07:10:18Z</time>
      </trkpt>
      <trkpt lat="45.10603" lon="5.59657">
        <ele>1377.9343731265</ele>
        <time>2019-08-06T07:10:22Z</time>
      </trkpt>
      <trkpt lat="45.10597" lon="5.59657">
        <ele>1378.1592234838</ele>
        <time>2019-08-06T07:10:25Z</time>
      </trkpt>
      <trkpt lat="45.1059" lon="5.59657">
        <ele>1379.0355202216</ele>
        <time>2019-08-06T07:10:29Z</time>
      </trkpt>
      <trkpt lat="45.10582" lon="5.59657">
        <ele>1380.1489515205</ele>
        <time>2019-08-06T07:10:33Z</time>
      </trkpt>
      <trkpt lat="45.10572" lon="5.59655">
        <ele>1381.4182053091</ele>
        <time>2019-08-06T07:10:38Z</time>
      </trkpt>
      <trkpt lat="45.10564" lon="5.59654">
        <ele>1381.4000974271</ele>
        <time>2019-08-06T07:10:42Z</time>
      </trkpt>
      <trkpt lat="45.10559" lon="5.59652">
        <ele>1383.9421393956</ele>
        <time>2019-08-06T07:10:45Z</time>
      </trkpt>
      <trkpt lat="45.10549" lon="5.5965">
        <ele>1384.7475369566</ele>
        <time>2019-08-06T07:10:50Z</time>
      </trkpt>
      <trkpt lat="45.10539" lon="5.59648">
        <ele>1386.5174545174</ele>
        <time>2019-08-06T07:10:55Z</time>
      </trkpt>
      <trkpt lat="45.10529" lon="5.59648">
        <ele>1385.5009653021</ele>
        <time>2019-08-06T07:11:00Z</time>
      </trkpt>
      <trkpt lat="45.10521" lon="5.59647">
        <ele>1386.6365850053</ele>
        <time>2019-08-06T07:11:04Z</time>
      </trkpt>
      <trkpt lat="45.10512" lon="5.59647">
        <ele>1387.7257375813</ele>
        <time>2019-08-06T07:11:09Z</time>
      </trkpt>
      <trkpt lat="45.10504" lon="5.59647">
        <ele>1388.7910561735</ele>
        <time>2019-08-06T07:11:13Z</time>
      </trkpt>
      <trkpt lat="45.10497" lon="5.59646">
        <ele>1388.9220767101</ele>
        <time>2019-08-06T07:11:17Z</time>
      </trkpt>
      <trkpt lat="45.10489" lon="5.59647">
        <ele>1389.3823405533</ele>
        <time>2019-08-06T07:11:21Z</time>
      </trkpt>
      <trkpt lat="45.1048" lon="5.59647">
        <ele>1390.1153222618</ele>
        <time>2019-08-06T07:11:26Z</time>
      </trkpt>
      <trkpt lat="45.10473" lon="5.59648">
        <ele>1390.7588755629</ele>
        <time>2019-08-06T07:11:30Z</time>
      </trkpt>
      <trkpt lat="45.10466" lon="5.59649">
        <ele>1391.4163751205</ele>
        <time>2019-08-06T07:11:34Z</time>
      </trkpt>
      <trkpt lat="45.10458" lon="5.5965">
        <ele>1392.5097687975</ele>
        <time>2019-08-06T07:11:39Z</time>
      </trkpt>
      <trkpt lat="45.10452" lon="5.59651">
        <ele>1393.1460005871</ele>
        <time>2019-08-06T07:11:42Z</time>
      </trkpt>
      <trkpt lat="45.10445" lon="5.59652">
        <ele>1393.956292666</ele>
        <time>2019-08-06T07:11:46Z</time>
      </trkpt>
      <trkpt lat="45.10436" lon="5.59654">
        <ele>1394.5334115256</ele>
        <time>2019-08-06T07:11:51Z</time>
      </trkpt>
      <trkpt lat="45.10429" lon="5.59655">
        <ele>1395.086372182</ele>
        <time>2019-08-06T07:11:55Z</time>
      </trkpt>
      <trkpt lat="45.10422" lon="5.59657">
        <ele>1395.8872197015</ele>
        <time>2019-08-06T07:11:59Z</time>
      </trkpt>
      <trkpt lat="45.10415" lon="5.59658">
        <ele>1396.8541376561</ele>
        <time>2019-08-06T07:12:03Z</time>
      </trkpt>
      <trkpt lat="45.1041" lon="5.59659">
        <ele>1397.291185419</ele>
        <time>2019-08-06T07:12:06Z</time>
      </trkpt>
      <trkpt lat="45.10401" lon="5.59658">
        <ele>1398.1301517385</ele>
        <time>2019-08-06T07:12:11Z</time>
      </trkpt>
      <trkpt lat="45.10396" lon="5.59658">
        <ele>1399.3427096995</ele>
        <time>2019-08-06T07:12:14Z</time>
      </trkpt>
      <trkpt lat="45.10389" lon="5.59657">
        <ele>1400.3019433263</ele>
        <time>2019-08-06T07:12:18Z</time>
      </trkpt>
      <trkpt lat="45.10383" lon="5.59656">
        <ele>1400.4506197662</ele>
        <time>2019-08-06T07:12:22Z</time>
      </trkpt>
      <trkpt lat="45.1038" lon="5.59656">
        <ele>1401.376276315</ele>
        <time>2019-08-06T07:12:25Z</time>
      </trkpt>
      <trkpt lat="45.10371" lon="5.59654">
        <ele>1401.9014276216</ele>
        <time>2019-08-06T07:12:30Z</time>
      </trkpt>
      <trkpt lat="45.10365" lon="5.59652">
        <ele>1403.8346454498</ele>
        <time>2019-08-06T07:12:34Z</time>
      </trkpt>
      <trkpt lat="45.10357" lon="5.59651">
        <ele>1405.2380061418</ele>
        <time>2019-08-06T07:12:39Z</time>
      </trkpt>
      <trkpt lat="45.10352" lon="5.59651">
        <ele>1405.9305309444</ele>
        <time>2019-08-06T07:12:43Z</time>
      </trkpt>
      <trkpt lat="45.10347" lon="5.59649">
        <ele>1406.4615849461</ele>
        <time>2019-08-06T07:12:46Z</time>
      </trkpt>
      <trkpt lat="45.1034" lon="5.59646">
        <ele>1407.5324707947</ele>
        <time>2019-08-06T07:12:51Z</time>
      </trkpt>
      <trkpt lat="45.10335" lon="5.59644">
        <ele>1408.4373842075</ele>
        <time>2019-08-06T07:12:55Z</time>
      </trkpt>
      <trkpt lat="45.10329" lon="5.59644">
        <ele>1409.2919406289</ele>
        <time>2019-08-06T07:12:59Z</time>
      </trkpt>
      <trkpt lat="45.10324" lon="5.59643">
        <ele>1409.9521906505</ele>
        <time>2019-08-06T07:13:02Z</time>
      </trkpt>
      <trkpt lat="45.10316" lon="5.59642">
        <ele>1410.903345328</ele>
        <time>2019-08-06T07:13:07Z</time>
      </trkpt>
      <trkpt lat="45.1031" lon="5.59642">
        <ele>1411.6773281804</ele>
        <time>2019-08-06T07:13:11Z</time>
      </trkpt>
      <trkpt lat="45.10302" lon="5.59641">
        <ele>1412.7652352708</ele>
        <time>2019-08-06T07:13:16Z</time>
      </trkpt>
      <trkpt lat="45.10297" lon="5.59641">
        <ele>1412.9942546524</ele>
        <time>2019-08-06T07:13:19Z</time>
      </trkpt>
      <trkpt lat="45.10289" lon="5.59642">
        <ele>1414.0982130531</ele>
        <time>2019-08-06T07:13:24Z</time>
      </trkpt>
      <trkpt lat="45.10282" lon="5.59641">
        <ele>1414.7831452063</ele>
        <time>2019-08-06T07:13:28Z</time>
      </trkpt>
      <trkpt lat="45.10275" lon="5.59641">
        <ele>1415.8214373536</ele>
        <time>2019-08-06T07:13:32Z</time>
      </trkpt>
      <trkpt lat="45.10269" lon="5.59641">
        <ele>1416.6967991486</ele>
        <time>2019-08-06T07:13:36Z</time>
      </trkpt>
      <trkpt lat="45.1026" lon="5.5964">
        <ele>1417.6785680726</ele>
        <time>2019-08-06T07:13:41Z</time>
      </trkpt>
      <trkpt lat="45.10254" lon="5.59638">
        <ele>1418.6957384788</ele>
        <time>2019-08-06T07:13:45Z</time>
      </trkpt>
      <trkpt lat="45.10249" lon="5.59635">
        <ele>1419.073889896</ele>
        <time>2019-08-06T07:13:49Z</time>
      </trkpt>
      <trkpt lat="45.10242" lon="5.59633">
        <ele>1420.0220420504</ele>
        <time>2019-08-06T07:13:54Z</time>
      </trkpt>
      <trkpt lat="45.10236" lon="5.59632">
        <ele>1421.0088676945</ele>
        <time>2019-08-06T07:13:58Z</time>
      </trkpt>
      <trkpt lat="45.10233" lon="5.59629">
        <ele>1420.7197594002</ele>
        <time>2019-08-06T07:14:04Z</time>
      </trkpt>
      <trkpt lat="45.10232" lon="5.59624">
        <ele>1421.7202322436</ele>
        <time>2019-08-06T07:16:53Z</time>
      </trkpt>
      <trkpt lat="45.10226" lon="5.59622">
        <ele>1422.5833157988</ele>
        <time>2019-08-06T07:16:57Z</time>
      </trkpt>
      <trkpt lat="45.10219" lon="5.59618">
        <ele>1423.1591831514</ele>
        <time>2019-08-06T07:17:01Z</time>
      </trkpt>
      <trkpt lat="45.10212" lon="5.59613">
        <ele>1423.4887433421</ele>
        <time>2019-08-06T07:17:05Z</time>
      </trkpt>
      <trkpt lat="45.10205" lon="5.59608">
        <ele>1423.6838813764</ele>
        <time>2019-08-06T07:17:09Z</time>
      </trkpt>
      <trkpt lat="45.10197" lon="5.59601">
        <ele>1423.9520047768</ele>
        <time>2019-08-06T07:17:14Z</time>
      </trkpt>
      <trkpt lat="45.10189" lon="5.59597">
        <ele>1424.2634668191</ele>
        <time>2019-08-06T07:17:18Z</time>
      </trkpt>
      <trkpt lat="45.10181" lon="5.59593">
        <ele>1424.5902554271</ele>
        <time>2019-08-06T07:17:22Z</time>
      </trkpt>
      <trkpt lat="45.10172" lon="5.59591">
        <ele>1424.8505760929</ele>
        <time>2019-08-06T07:17:26Z</time>
      </trkpt>
      <trkpt lat="45.10161" lon="5.59593">
        <ele>1425.0975138881</ele>
        <time>2019-08-06T07:17:31Z</time>
      </trkpt>
      <trkpt lat="45.10152" lon="5.596">
        <ele>1425.2751821419</ele>
        <time>2019-08-06T07:17:35Z</time>
      </trkpt>
      <trkpt lat="45.10142" lon="5.59612">
        <ele>1424.5572030045</ele>
        <time>2019-08-06T07:17:39Z</time>
      </trkpt>
      <trkpt lat="45.10131" lon="5.59636">
        <ele>1424.2332517558</ele>
        <time>2019-08-06T07:17:44Z</time>
      </trkpt>
      <trkpt lat="45.10126" lon="5.59653">
        <ele>1424.4530169123</ele>
        <time>2019-08-06T07:17:48Z</time>
      </trkpt>
      <trkpt lat="45.1012" lon="5.59667">
        <ele>1425.0345881061</ele>
        <time>2019-08-06T07:17:52Z</time>
      </trkpt>
      <trkpt lat="45.1011" lon="5.5968">
        <ele>1425.0739354594</ele>
        <time>2019-08-06T07:17:57Z</time>
      </trkpt>
      <trkpt lat="45.10102" lon="5.59687">
        <ele>1425.5613587264</ele>
        <time>2019-08-06T07:18:01Z</time>
      </trkpt>
      <trkpt lat="45.10094" lon="5.59694">
        <ele>1426.5786159341</ele>
        <time>2019-08-06T07:18:05Z</time>
      </trkpt>
      <trkpt lat="45.10085" lon="5.59702">
        <ele>1426.704934282</ele>
        <time>2019-08-06T07:18:10Z</time>
      </trkpt>
      <trkpt lat="45.10078" lon="5.59709">
        <ele>1428.1787735859</ele>
        <time>2019-08-06T07:18:14Z</time>
      </trkpt>
      <trkpt lat="45.10072" lon="5.59714">
        <ele>1428.9235493699</ele>
        <time>2019-08-06T07:18:17Z</time>
      </trkpt>
      <trkpt lat="45.10064" lon="5.59719">
        <ele>1430.215824162</ele>
        <time>2019-08-06T07:18:21Z</time>
      </trkpt>
      <trkpt lat="45.10053" lon="5.59717">
        <ele>1431.3938414675</ele>
        <time>2019-08-06T07:18:26Z</time>
      </trkpt>
      <trkpt lat="45.10046" lon="5.59712">
        <ele>1432.3264265597</ele>
        <time>2019-08-06T07:18:30Z</time>
      </trkpt>
      <trkpt lat="45.10042" lon="5.59705">
        <ele>1435.5610208857</ele>
        <time>2019-08-06T07:18:33Z</time>
      </trkpt>
      <trkpt lat="45.10036" lon="5.59696">
        <ele>1436.8549828726</ele>
        <time>2019-08-06T07:18:37Z</time>
      </trkpt>
      <trkpt lat="45.10029" lon="5.59684">
        <ele>1438.1017434333</ele>
        <time>2019-08-06T07:18:42Z</time>
      </trkpt>
      <trkpt lat="45.10024" lon="5.59676">
        <ele>1438.2996778341</ele>
        <time>2019-08-06T07:18:46Z</time>
      </trkpt>
      <trkpt lat="45.10013" lon="5.59664">
        <ele>1436.4693496416</ele>
        <time>2019-08-06T07:18:51Z</time>
      </trkpt>
      <trkpt lat="45.09998" lon="5.59653">
        <ele>1436.6966184586</ele>
        <time>2019-08-06T07:18:56Z</time>
      </trkpt>
      <trkpt lat="45.09985" lon="5.5965">
        <ele>1437.0146929777</ele>
        <time>2019-08-06T07:19:00Z</time>
      </trkpt>
      <trkpt lat="45.09972" lon="5.59653">
        <ele>1437.1730930431</ele>
        <time>2019-08-06T07:19:04Z</time>
      </trkpt>
      <trkpt lat="45.09959" lon="5.5966">
        <ele>1438.2384527276</ele>
        <time>2019-08-06T07:19:08Z</time>
      </trkpt>
      <trkpt lat="45.09951" lon="5.59673">
        <ele>1438.7383694158</ele>
        <time>2019-08-06T07:19:12Z</time>
      </trkpt>
      <trkpt lat="45.09946" lon="5.59689">
        <ele>1439.9266050241</ele>
        <time>2019-08-06T07:19:17Z</time>
      </trkpt>
      <trkpt lat="45.09943" lon="5.59705">
        <ele>1441.0096854603</ele>
        <time>2019-08-06T07:19:22Z</time>
      </trkpt>
      <trkpt lat="45.09944" lon="5.59718">
        <ele>1442.0346379798</ele>
        <time>2019-08-06T07:19:26Z</time>
      </trkpt>
      <trkpt lat="45.0995" lon="5.59729">
        <ele>1442.4855507493</ele>
        <time>2019-08-06T07:19:30Z</time>
      </trkpt>
      <trkpt lat="45.09958" lon="5.59739">
        <ele>1443.4602878995</ele>
        <time>2019-08-06T07:19:34Z</time>
      </trkpt>
      <trkpt lat="45.09967" lon="5.59748">
        <ele>1443.7922121382</ele>
        <time>2019-08-06T07:19:38Z</time>
      </trkpt>
      <trkpt lat="45.09974" lon="5.59764">
        <ele>1444.3467261725</ele>
        <time>2019-08-06T07:19:43Z</time>
      </trkpt>
      <trkpt lat="45.09975" lon="5.59778">
        <ele>1445.2190303234</ele>
        <time>2019-08-06T07:19:47Z</time>
      </trkpt>
      <trkpt lat="45.09973" lon="5.59788">
        <ele>1445.4301190049</ele>
        <time>2019-08-06T07:19:50Z</time>
      </trkpt>
      <trkpt lat="45.09966" lon="5.598">
        <ele>1445.9970722577</ele>
        <time>2019-08-06T07:19:54Z</time>
      </trkpt>
      <trkpt lat="45.09955" lon="5.59809">
        <ele>1446.1317825095</ele>
        <time>2019-08-06T07:19:59Z</time>
      </trkpt>
      <trkpt lat="45.09943" lon="5.59815">
        <ele>1446.0662861544</ele>
        <time>2019-08-06T07:20:03Z</time>
      </trkpt>
      <trkpt lat="45.0993" lon="5.59821">
        <ele>1444.9905384901</ele>
        <time>2019-08-06T07:20:07Z</time>
      </trkpt>
      <trkpt lat="45.09893" lon="5.59843">
        <ele>1443.5845073659</ele>
        <time>2019-08-06T07:20:12Z</time>
      </trkpt>
      <trkpt lat="45.09872" lon="5.59849">
        <ele>1444.6349809882</ele>
        <time>2019-08-06T07:20:16Z</time>
      </trkpt>
      <trkpt lat="45.09859" lon="5.59849">
        <ele>1445.2524707905</ele>
        <time>2019-08-06T07:20:20Z</time>
      </trkpt>
      <trkpt lat="45.09845" lon="5.59847">
        <ele>1446.6877788285</ele>
        <time>2019-08-06T07:20:25Z</time>
      </trkpt>
      <trkpt lat="45.09833" lon="5.59846">
        <ele>1447.2200043213</ele>
        <time>2019-08-06T07:20:29Z</time>
      </trkpt>
      <trkpt lat="45.09822" lon="5.59845">
        <ele>1447.0616564957</ele>
        <time>2019-08-06T07:20:33Z</time>
      </trkpt>
      <trkpt lat="45.09811" lon="5.59844">
        <ele>1447.1791211296</ele>
        <time>2019-08-06T07:20:37Z</time>
      </trkpt>
      <trkpt lat="45.09798" lon="5.59846">
        <ele>1447.4297594589</ele>
        <time>2019-08-06T07:20:41Z</time>
      </trkpt>
      <trkpt lat="45.09786" lon="5.5985">
        <ele>1447.5199062852</ele>
        <time>2019-08-06T07:20:45Z</time>
      </trkpt>
      <trkpt lat="45.09765" lon="5.59856">
        <ele>1447.4103513993</ele>
        <time>2019-08-06T07:20:50Z</time>
      </trkpt>
      <trkpt lat="45.09742" lon="5.5986">
        <ele>1445.073647857</ele>
        <time>2019-08-06T07:20:55Z</time>
      </trkpt>
      <trkpt lat="45.09719" lon="5.59865">
        <ele>1443.2925210964</ele>
        <time>2019-08-06T07:20:59Z</time>
      </trkpt>
      <trkpt lat="45.09682" lon="5.59866">
        <ele>1440.6442152158</ele>
        <time>2019-08-06T07:21:04Z</time>
      </trkpt>
      <trkpt lat="45.09658" lon="5.59861">
        <ele>1439.5439985752</ele>
        <time>2019-08-06T07:21:07Z</time>
      </trkpt>
      <trkpt lat="45.09625" lon="5.59853">
        <ele>1440.4901901004</ele>
        <time>2019-08-06T07:21:12Z</time>
      </trkpt>
      <trkpt lat="45.09598" lon="5.59849">
        <ele>1440.3166984278</ele>
        <time>2019-08-06T07:21:17Z</time>
      </trkpt>
      <trkpt lat="45.09573" lon="5.59847">
        <ele>1439.6637932811</ele>
        <time>2019-08-06T07:21:22Z</time>
      </trkpt>
      <trkpt lat="45.09559" lon="5.59849">
        <ele>1439.0671402305</ele>
        <time>2019-08-06T07:21:25Z</time>
      </trkpt>
      <trkpt lat="45.09541" lon="5.59857">
        <ele>1437.5979714946</ele>
        <time>2019-08-06T07:21:29Z</time>
      </trkpt>
      <trkpt lat="45.09523" lon="5.59857">
        <ele>1437.7890465071</ele>
        <time>2019-08-06T07:21:32Z</time>
      </trkpt>
      <trkpt lat="45.09499" lon="5.59856">
        <ele>1436.3609566105</ele>
        <time>2019-08-06T07:21:36Z</time>
      </trkpt>
      <trkpt lat="45.09476" lon="5.59854">
        <ele>1435.5861713822</ele>
        <time>2019-08-06T07:21:40Z</time>
      </trkpt>
      <trkpt lat="45.09459" lon="5.59847">
        <ele>1435.9505250366</ele>
        <time>2019-08-06T07:21:44Z</time>
      </trkpt>
      <trkpt lat="45.09444" lon="5.59842">
        <ele>1437.0686147902</ele>
        <time>2019-08-06T07:21:48Z</time>
      </trkpt>
      <trkpt lat="45.09434" lon="5.59844">
        <ele>1436.6391541467</ele>
        <time>2019-08-06T07:21:52Z</time>
      </trkpt>
      <trkpt lat="45.09422" lon="5.59854">
        <ele>1436.7454280565</ele>
        <time>2019-08-06T07:21:57Z</time>
      </trkpt>
      <trkpt lat="45.09411" lon="5.59864">
        <ele>1441.2856570787</ele>
        <time>2019-08-06T07:22:02Z</time>
      </trkpt>
      <trkpt lat="45.094" lon="5.59872">
        <ele>1442.0639475933</ele>
        <time>2019-08-06T07:22:07Z</time>
      </trkpt>
      <trkpt lat="45.09388" lon="5.59877">
        <ele>1442.1821744219</ele>
        <time>2019-08-06T07:22:12Z</time>
      </trkpt>
      <trkpt lat="45.09379" lon="5.59876">
        <ele>1443.3373601682</ele>
        <time>2019-08-06T07:22:16Z</time>
      </trkpt>
      <trkpt lat="45.09367" lon="5.59872">
        <ele>1444.4616419027</ele>
        <time>2019-08-06T07:22:21Z</time>
      </trkpt>
      <trkpt lat="45.09357" lon="5.59866">
        <ele>1445.8247053553</ele>
        <time>2019-08-06T07:22:25Z</time>
      </trkpt>
      <trkpt lat="45.09344" lon="5.59862">
        <ele>1447.6744515776</ele>
        <time>2019-08-06T07:22:30Z</time>
      </trkpt>
      <trkpt lat="45.09331" lon="5.59859">
        <ele>1448.6540356437</ele>
        <time>2019-08-06T07:22:35Z</time>
      </trkpt>
      <trkpt lat="45.09318" lon="5.59853">
        <ele>1450.4427721823</ele>
        <time>2019-08-06T07:22:40Z</time>
      </trkpt>
      <trkpt lat="45.09312" lon="5.59847">
        <ele>1451.7673847527</ele>
        <time>2019-08-06T07:22:43Z</time>
      </trkpt>
      <trkpt lat="45.09304" lon="5.59839">
        <ele>1453.0885824416</ele>
        <time>2019-08-06T07:22:47Z</time>
      </trkpt>
      <trkpt lat="45.09291" lon="5.59833">
        <ele>1454.9136711789</ele>
        <time>2019-08-06T07:22:52Z</time>
      </trkpt>
      <trkpt lat="45.09279" lon="5.59835">
        <ele>1455.7634170654</ele>
        <time>2019-08-06T07:22:57Z</time>
      </trkpt>
      <trkpt lat="45.09272" lon="5.59837">
        <ele>1456.6815582732</ele>
        <time>2019-08-06T07:23:00Z</time>
      </trkpt>
      <trkpt lat="45.09264" lon="5.59842">
        <ele>1458.0909939603</ele>
        <time>2019-08-06T07:23:04Z</time>
      </trkpt>
      <trkpt lat="45.09257" lon="5.5985">
        <ele>1458.4466695906</ele>
        <time>2019-08-06T07:23:08Z</time>
      </trkpt>
      <trkpt lat="45.09251" lon="5.59858">
        <ele>1458.8109127163</ele>
        <time>2019-08-06T07:23:12Z</time>
      </trkpt>
      <trkpt lat="45.09249" lon="5.59861">
        <ele>1456.2096334399</ele>
        <time>2019-08-06T07:23:59Z</time>
      </trkpt>
      <trkpt lat="45.09241" lon="5.59875">
        <ele>1457.2149357729</ele>
        <time>2019-08-06T07:24:04Z</time>
      </trkpt>
      <trkpt lat="45.09232" lon="5.5989">
        <ele>1456.9117131739</ele>
        <time>2019-08-06T07:24:09Z</time>
      </trkpt>
      <trkpt lat="45.09226" lon="5.59901">
        <ele>1457.161484167</ele>
        <time>2019-08-06T07:24:13Z</time>
      </trkpt>
      <trkpt lat="45.09215" lon="5.59915">
        <ele>1457.2469086527</ele>
        <time>2019-08-06T07:24:18Z</time>
      </trkpt>
      <trkpt lat="45.09204" lon="5.59929">
        <ele>1457.1304189394</ele>
        <time>2019-08-06T07:24:23Z</time>
      </trkpt>
      <trkpt lat="45.09191" lon="5.59953">
        <ele>1455.9218650196</ele>
        <time>2019-08-06T07:24:28Z</time>
      </trkpt>
      <trkpt lat="45.09179" lon="5.59976">
        <ele>1453.9983838162</ele>
        <time>2019-08-06T07:24:32Z</time>
      </trkpt>
      <trkpt lat="45.09174" lon="5.60002">
        <ele>1451.9534531577</ele>
        <time>2019-08-06T07:24:36Z</time>
      </trkpt>
      <trkpt lat="45.09173" lon="5.60019">
        <ele>1450.949401361</ele>
        <time>2019-08-06T07:24:40Z</time>
      </trkpt>
      <trkpt lat="45.09172" lon="5.60032">
        <ele>1451.0341731959</ele>
        <time>2019-08-06T07:24:44Z</time>
      </trkpt>
      <trkpt lat="45.09173" lon="5.60038">
        <ele>1451.0791766198</ele>
        <time>2019-08-06T07:24:49Z</time>
      </trkpt>
      <trkpt lat="45.09174" lon="5.60041">
        <ele>1451.2316638172</ele>
        <time>2019-08-06T07:25:31Z</time>
      </trkpt>
      <trkpt lat="45.09177" lon="5.60042">
        <ele>1450.3712469143</ele>
        <time>2019-08-06T07:25:34Z</time>
      </trkpt>
      <trkpt lat="45.09179" lon="5.60034">
        <ele>1451.0260833202</ele>
        <time>2019-08-06T07:25:38Z</time>
      </trkpt>
      <trkpt lat="45.09178" lon="5.60028">
        <ele>1450.9939668802</ele>
        <time>2019-08-06T07:25:41Z</time>
      </trkpt>
      <trkpt lat="45.09174" lon="5.60024">
        <ele>1451.1507638886</ele>
        <time>2019-08-06T07:25:45Z</time>
      </trkpt>
      <trkpt lat="45.09174" lon="5.60019">
        <ele>1450.3405719015</ele>
        <time>2019-08-06T07:26:03Z</time>
      </trkpt>
      <trkpt lat="45.09177" lon="5.60016">
        <ele>1449.5819530397</ele>
        <time>2019-08-06T07:26:10Z</time>
      </trkpt>
      <trkpt lat="45.09197" lon="5.60028">
        <ele>1449.6572824197</ele>
        <time>2019-08-06T07:26:15Z</time>
      </trkpt>
      <trkpt lat="45.09212" lon="5.60035">
        <ele>1449.4029915434</ele>
        <time>2019-08-06T07:26:19Z</time>
      </trkpt>
      <trkpt lat="45.09232" lon="5.60044">
        <ele>1449.418379022</ele>
        <time>2019-08-06T07:26:24Z</time>
      </trkpt>
      <trkpt lat="45.09252" lon="5.60052">
        <ele>1449.2699913572</ele>
        <time>2019-08-06T07:26:29Z</time>
      </trkpt>
      <trkpt lat="45.09268" lon="5.60061">
        <ele>1448.6280914345</ele>
        <time>2019-08-06T07:26:33Z</time>
      </trkpt>
      <trkpt lat="45.0928" lon="5.60067">
        <ele>1449.0747982822</ele>
        <time>2019-08-06T07:26:36Z</time>
      </trkpt>
      <trkpt lat="45.09293" lon="5.6007">
        <ele>1449.8724814433</ele>
        <time>2019-08-06T07:26:40Z</time>
      </trkpt>
      <trkpt lat="45.09304" lon="5.60073">
        <ele>1450.9028141461</ele>
        <time>2019-08-06T07:26:45Z</time>
      </trkpt>
      <trkpt lat="45.09316" lon="5.60078">
        <ele>1451.5963747204</ele>
        <time>2019-08-06T07:26:49Z</time>
      </trkpt>
      <trkpt lat="45.09324" lon="5.60082">
        <ele>1452.3114588179</ele>
        <time>2019-08-06T07:26:52Z</time>
      </trkpt>
      <trkpt lat="45.09338" lon="5.60087">
        <ele>1453.3987663163</ele>
        <time>2019-08-06T07:26:57Z</time>
      </trkpt>
      <trkpt lat="45.09352" lon="5.60094">
        <ele>1454.1213968153</ele>
        <time>2019-08-06T07:27:02Z</time>
      </trkpt>
      <trkpt lat="45.09367" lon="5.60102">
        <ele>1454.1293806106</ele>
        <time>2019-08-06T07:27:07Z</time>
      </trkpt>
      <trkpt lat="45.09378" lon="5.6011">
        <ele>1454.0758316933</ele>
        <time>2019-08-06T07:27:10Z</time>
      </trkpt>
      <trkpt lat="45.09398" lon="5.60125">
        <ele>1454.1329432414</ele>
        <time>2019-08-06T07:27:15Z</time>
      </trkpt>
      <trkpt lat="45.09411" lon="5.60135">
        <ele>1454.1331395398</ele>
        <time>2019-08-06T07:27:19Z</time>
      </trkpt>
      <trkpt lat="45.09429" lon="5.60145">
        <ele>1453.9402055113</ele>
        <time>2019-08-06T07:27:24Z</time>
      </trkpt>
      <trkpt lat="45.09446" lon="5.60157">
        <ele>1453.6806641602</ele>
        <time>2019-08-06T07:27:29Z</time>
      </trkpt>
      <trkpt lat="45.09459" lon="5.60161">
        <ele>1453.7980947107</ele>
        <time>2019-08-06T07:27:34Z</time>
      </trkpt>
      <trkpt lat="45.09463" lon="5.60163">
        <ele>1454.0049063813</ele>
        <time>2019-08-06T07:27:40Z</time>
      </trkpt>
      <trkpt lat="45.09461" lon="5.60169">
        <ele>1452.8792595928</ele>
        <time>2019-08-06T07:28:16Z</time>
      </trkpt>
      <trkpt lat="45.09457" lon="5.602">
        <ele>1451.3035559218</ele>
        <time>2019-08-06T07:28:20Z</time>
      </trkpt>
      <trkpt lat="45.09457" lon="5.60234">
        <ele>1448.4108736563</ele>
        <time>2019-08-06T07:28:24Z</time>
      </trkpt>
      <trkpt lat="45.09465" lon="5.60274">
        <ele>1444.7353921231</ele>
        <time>2019-08-06T07:28:28Z</time>
      </trkpt>
      <trkpt lat="45.09483" lon="5.60303">
        <ele>1442.2984196531</ele>
        <time>2019-08-06T07:28:32Z</time>
      </trkpt>
      <trkpt lat="45.09508" lon="5.60321">
        <ele>1439.5096054937</ele>
        <time>2019-08-06T07:28:36Z</time>
      </trkpt>
      <trkpt lat="45.09544" lon="5.60342">
        <ele>1435.1286535758</ele>
        <time>2019-08-06T07:28:41Z</time>
      </trkpt>
      <trkpt lat="45.09572" lon="5.60359">
        <ele>1433.3316178904</ele>
        <time>2019-08-06T07:28:46Z</time>
      </trkpt>
      <trkpt lat="45.09577" lon="5.60362">
        <ele>1431.7186286959</ele>
        <time>2019-08-06T07:28:50Z</time>
      </trkpt>
      <trkpt lat="45.09581" lon="5.60365">
        <ele>1429.7021931469</ele>
        <time>2019-08-06T07:29:20Z</time>
      </trkpt>
      <trkpt lat="45.09582" lon="5.60366">
        <ele>1429.0473719396</ele>
        <time>2019-08-06T07:29:23Z</time>
      </trkpt>
      <trkpt lat="45.09602" lon="5.6038">
        <ele>1427.711097192</ele>
        <time>2019-08-06T07:29:28Z</time>
      </trkpt>
      <trkpt lat="45.09622" lon="5.60388">
        <ele>1425.9505357804</ele>
        <time>2019-08-06T07:29:32Z</time>
      </trkpt>
      <trkpt lat="45.09653" lon="5.60401">
        <ele>1423.2838331091</ele>
        <time>2019-08-06T07:29:37Z</time>
      </trkpt>
      <trkpt lat="45.09681" lon="5.60411">
        <ele>1420.8293616061</ele>
        <time>2019-08-06T07:29:41Z</time>
      </trkpt>
      <trkpt lat="45.0972" lon="5.60419">
        <ele>1418.0309613361</ele>
        <time>2019-08-06T07:29:46Z</time>
      </trkpt>
      <trkpt lat="45.09766" lon="5.60429">
        <ele>1415.1043668441</ele>
        <time>2019-08-06T07:29:51Z</time>
      </trkpt>
      <trkpt lat="45.09796" lon="5.6043">
        <ele>1412.9165970051</ele>
        <time>2019-08-06T07:29:54Z</time>
      </trkpt>
      <trkpt lat="45.09835" lon="5.60441">
        <ele>1411.1211383018</ele>
        <time>2019-08-06T07:29:58Z</time>
      </trkpt>
      <trkpt lat="45.09863" lon="5.60452">
        <ele>1409.7710208561</ele>
        <time>2019-08-06T07:30:01Z</time>
      </trkpt>
      <trkpt lat="45.09912" lon="5.60461">
        <ele>1406.4867043342</ele>
        <time>2019-08-06T07:30:06Z</time>
      </trkpt>
      <trkpt lat="45.09966" lon="5.60467">
        <ele>1403.2738462288</ele>
        <time>2019-08-06T07:30:11Z</time>
      </trkpt>
      <trkpt lat="45.10007" lon="5.60477">
        <ele>1400.50524823</ele>
        <time>2019-08-06T07:30:15Z</time>
      </trkpt>
      <trkpt lat="45.10048" lon="5.60494">
        <ele>1397.4006994448</ele>
        <time>2019-08-06T07:30:19Z</time>
      </trkpt>
      <trkpt lat="45.10091" lon="5.60509">
        <ele>1393.9343599363</ele>
        <time>2019-08-06T07:30:23Z</time>
      </trkpt>
      <trkpt lat="45.10144" lon="5.60526">
        <ele>1390.4173385084</ele>
        <time>2019-08-06T07:30:28Z</time>
      </trkpt>
      <trkpt lat="45.10175" lon="5.60533">
        <ele>1389.2831393653</ele>
        <time>2019-08-06T07:30:31Z</time>
      </trkpt>
      <trkpt lat="45.10205" lon="5.6054">
        <ele>1388.3758475281</ele>
        <time>2019-08-06T07:30:34Z</time>
      </trkpt>
      <trkpt lat="45.10243" lon="5.60545">
        <ele>1385.1600409621</ele>
        <time>2019-08-06T07:30:38Z</time>
      </trkpt>
      <trkpt lat="45.10282" lon="5.60554">
        <ele>1382.8692351534</ele>
        <time>2019-08-06T07:30:42Z</time>
      </trkpt>
      <trkpt lat="45.10331" lon="5.60576">
        <ele>1378.8642835899</ele>
        <time>2019-08-06T07:30:47Z</time>
      </trkpt>
      <trkpt lat="45.10366" lon="5.6059">
        <ele>1376.1426744005</ele>
        <time>2019-08-06T07:30:51Z</time>
      </trkpt>
      <trkpt lat="45.10394" lon="5.60596">
        <ele>1372.7193382637</ele>
        <time>2019-08-06T07:30:54Z</time>
      </trkpt>
      <trkpt lat="45.10431" lon="5.60607">
        <ele>1368.4687230907</ele>
        <time>2019-08-06T07:30:58Z</time>
      </trkpt>
      <trkpt lat="45.10476" lon="5.60614">
        <ele>1363.8912070837</ele>
        <time>2019-08-06T07:31:03Z</time>
      </trkpt>
      <trkpt lat="45.10525" lon="5.60619">
        <ele>1359.8689022647</ele>
        <time>2019-08-06T07:31:08Z</time>
      </trkpt>
      <trkpt lat="45.10555" lon="5.60623">
        <ele>1356.64749739</ele>
        <time>2019-08-06T07:31:11Z</time>
      </trkpt>
      <trkpt lat="45.10609" lon="5.60629">
        <ele>1352.4297384393</ele>
        <time>2019-08-06T07:31:16Z</time>
      </trkpt>
      <trkpt lat="45.10653" lon="5.60638">
        <ele>1348.6700104435</ele>
        <time>2019-08-06T07:31:20Z</time>
      </trkpt>
      <trkpt lat="45.10694" lon="5.60642">
        <ele>1348.0211205234</ele>
        <time>2019-08-06T07:31:24Z</time>
      </trkpt>
      <trkpt lat="45.10726" lon="5.60644">
        <ele>1347.8895171641</ele>
        <time>2019-08-06T07:31:28Z</time>
      </trkpt>
      <trkpt lat="45.10756" lon="5.60645">
        <ele>1348.8409626078</ele>
        <time>2019-08-06T07:31:33Z</time>
      </trkpt>
      <trkpt lat="45.10776" lon="5.60645">
        <ele>1349.3756903927</ele>
        <time>2019-08-06T07:31:37Z</time>
      </trkpt>
      <trkpt lat="45.10794" lon="5.60646">
        <ele>1350.5225929217</ele>
        <time>2019-08-06T07:31:41Z</time>
      </trkpt>
      <trkpt lat="45.10814" lon="5.60646">
        <ele>1352.1445153207</ele>
        <time>2019-08-06T07:31:46Z</time>
      </trkpt>
      <trkpt lat="45.10829" lon="5.60645">
        <ele>1353.2688870286</ele>
        <time>2019-08-06T07:31:51Z</time>
      </trkpt>
      <trkpt lat="45.10843" lon="5.60644">
        <ele>1353.4201559912</ele>
        <time>2019-08-06T07:31:54Z</time>
      </trkpt>
      <trkpt lat="45.10857" lon="5.60639">
        <ele>1353.7808018785</ele>
        <time>2019-08-06T07:31:58Z</time>
      </trkpt>
      <trkpt lat="45.10869" lon="5.60637">
        <ele>1353.9472158607</ele>
        <time>2019-08-06T07:32:01Z</time>
      </trkpt>
      <trkpt lat="45.10885" lon="5.60634">
        <ele>1355.176878727</ele>
        <time>2019-08-06T07:32:05Z</time>
      </trkpt>
      <trkpt lat="45.109" lon="5.60633">
        <ele>1356.9713208246</ele>
        <time>2019-08-06T07:32:09Z</time>
      </trkpt>
      <trkpt lat="45.10918" lon="5.6063">
        <ele>1358.1042226432</ele>
        <time>2019-08-06T07:32:14Z</time>
      </trkpt>
      <trkpt lat="45.10927" lon="5.60628">
        <ele>1359.2153466601</ele>
        <time>2019-08-06T07:32:18Z</time>
      </trkpt>
      <trkpt lat="45.10939" lon="5.60626">
        <ele>1359.9910149721</ele>
        <time>2019-08-06T07:32:22Z</time>
      </trkpt>
      <trkpt lat="45.10948" lon="5.60624">
        <ele>1360.5153893927</ele>
        <time>2019-08-06T07:32:25Z</time>
      </trkpt>
      <trkpt lat="45.10966" lon="5.60621">
        <ele>1361.5302516351</ele>
        <time>2019-08-06T07:32:30Z</time>
      </trkpt>
      <trkpt lat="45.10981" lon="5.60619">
        <ele>1362.5693887907</ele>
        <time>2019-08-06T07:32:34Z</time>
      </trkpt>
      <trkpt lat="45.10989" lon="5.60617">
        <ele>1362.9890336062</ele>
        <time>2019-08-06T07:32:37Z</time>
      </trkpt>
      <trkpt lat="45.11012" lon="5.60615">
        <ele>1363.6901644007</ele>
        <time>2019-08-06T07:32:42Z</time>
      </trkpt>
      <trkpt lat="45.11027" lon="5.60612">
        <ele>1364.5134171631</ele>
        <time>2019-08-06T07:32:47Z</time>
      </trkpt>
      <trkpt lat="45.1104" lon="5.60611">
        <ele>1365.3878705154</ele>
        <time>2019-08-06T07:32:51Z</time>
      </trkpt>
      <trkpt lat="45.11049" lon="5.60611">
        <ele>1366.2510889136</ele>
        <time>2019-08-06T07:32:54Z</time>
      </trkpt>
      <trkpt lat="45.1107" lon="5.60618">
        <ele>1366.7914919781</ele>
        <time>2019-08-06T07:32:58Z</time>
      </trkpt>
      <trkpt lat="45.11089" lon="5.60619">
        <ele>1367.7151433348</ele>
        <time>2019-08-06T07:33:03Z</time>
      </trkpt>
      <trkpt lat="45.11104" lon="5.6062">
        <ele>1368.8279944497</ele>
        <time>2019-08-06T07:33:07Z</time>
      </trkpt>
      <trkpt lat="45.11114" lon="5.60618">
        <ele>1370.3536580105</ele>
        <time>2019-08-06T07:33:11Z</time>
      </trkpt>
      <trkpt lat="45.11126" lon="5.60618">
        <ele>1371.3794080252</ele>
        <time>2019-08-06T07:33:15Z</time>
      </trkpt>
      <trkpt lat="45.11142" lon="5.60618">
        <ele>1372.2428614711</ele>
        <time>2019-08-06T07:33:19Z</time>
      </trkpt>
      <trkpt lat="45.11153" lon="5.60619">
        <ele>1372.9347067252</ele>
        <time>2019-08-06T07:33:23Z</time>
      </trkpt>
      <trkpt lat="45.11164" lon="5.60621">
        <ele>1373.386310779</ele>
        <time>2019-08-06T07:33:28Z</time>
      </trkpt>
      <trkpt lat="45.1117" lon="5.60624">
        <ele>1373.5129435982</ele>
        <time>2019-08-06T07:33:32Z</time>
      </trkpt>
      <trkpt lat="45.11174" lon="5.60626">
        <ele>1373.617423131</ele>
        <time>2019-08-06T07:33:38Z</time>
      </trkpt>
      <trkpt lat="45.11177" lon="5.60627">
        <ele>1373.5400327422</ele>
        <time>2019-08-06T07:33:49Z</time>
      </trkpt>
      <trkpt lat="45.11183" lon="5.60632">
        <ele>1373.8374870704</ele>
        <time>2019-08-06T07:33:53Z</time>
      </trkpt>
      <trkpt lat="45.11195" lon="5.60645">
        <ele>1374.3483908942</ele>
        <time>2019-08-06T07:33:58Z</time>
      </trkpt>
      <trkpt lat="45.11205" lon="5.60655">
        <ele>1374.8210974324</ele>
        <time>2019-08-06T07:34:03Z</time>
      </trkpt>
      <trkpt lat="45.11214" lon="5.60664">
        <ele>1375.3418725711</ele>
        <time>2019-08-06T07:34:07Z</time>
      </trkpt>
      <trkpt lat="45.11226" lon="5.60672">
        <ele>1375.597177861</ele>
        <time>2019-08-06T07:34:11Z</time>
      </trkpt>
      <trkpt lat="45.1124" lon="5.60675">
        <ele>1376.1283283511</ele>
        <time>2019-08-06T07:34:15Z</time>
      </trkpt>
      <trkpt lat="45.11251" lon="5.60675">
        <ele>1376.8151833935</ele>
        <time>2019-08-06T07:34:19Z</time>
      </trkpt>
      <trkpt lat="45.11263" lon="5.60673">
        <ele>1377.6756819359</ele>
        <time>2019-08-06T07:34:23Z</time>
      </trkpt>
      <trkpt lat="45.11278" lon="5.60668">
        <ele>1378.9175686287</ele>
        <time>2019-08-06T07:34:28Z</time>
      </trkpt>
      <trkpt lat="45.11292" lon="5.60679">
        <ele>1379.2012074746</ele>
        <time>2019-08-06T07:34:33Z</time>
      </trkpt>
      <trkpt lat="45.11294" lon="5.60693">
        <ele>1379.1273951066</ele>
        <time>2019-08-06T07:34:37Z</time>
      </trkpt>
      <trkpt lat="45.11287" lon="5.60713">
        <ele>1380.0207813241</ele>
        <time>2019-08-06T07:34:41Z</time>
      </trkpt>
      <trkpt lat="45.11279" lon="5.60724">
        <ele>1381.3502211907</ele>
        <time>2019-08-06T07:34:45Z</time>
      </trkpt>
      <trkpt lat="45.1127" lon="5.6073">
        <ele>1381.5375220524</ele>
        <time>2019-08-06T07:34:48Z</time>
      </trkpt>
      <trkpt lat="45.11259" lon="5.60732">
        <ele>1382.0059530542</ele>
        <time>2019-08-06T07:34:51Z</time>
      </trkpt>
      <trkpt lat="45.11243" lon="5.60733">
        <ele>1382.3790332174</ele>
        <time>2019-08-06T07:34:56Z</time>
      </trkpt>
      <trkpt lat="45.11227" lon="5.6073">
        <ele>1382.9569101044</ele>
        <time>2019-08-06T07:35:01Z</time>
      </trkpt>
      <trkpt lat="45.11216" lon="5.60727">
        <ele>1383.6061539216</ele>
        <time>2019-08-06T07:35:05Z</time>
      </trkpt>
      <trkpt lat="45.112" lon="5.60716">
        <ele>1384.4990107888</ele>
        <time>2019-08-06T07:35:10Z</time>
      </trkpt>
      <trkpt lat="45.1119" lon="5.6071">
        <ele>1385.001275383</ele>
        <time>2019-08-06T07:35:14Z</time>
      </trkpt>
      <trkpt lat="45.11178" lon="5.60703">
        <ele>1385.9304178143</ele>
        <time>2019-08-06T07:35:18Z</time>
      </trkpt>
      <trkpt lat="45.11163" lon="5.60694">
        <ele>1387.2892840157</ele>
        <time>2019-08-06T07:35:23Z</time>
      </trkpt>
      <trkpt lat="45.11152" lon="5.60689">
        <ele>1388.1816549294</ele>
        <time>2019-08-06T07:35:27Z</time>
      </trkpt>
      <trkpt lat="45.11139" lon="5.60683">
        <ele>1389.1179595394</ele>
        <time>2019-08-06T07:35:31Z</time>
      </trkpt>
      <trkpt lat="45.11126" lon="5.6068">
        <ele>1389.9450351948</ele>
        <time>2019-08-06T07:35:35Z</time>
      </trkpt>
      <trkpt lat="45.11115" lon="5.60679">
        <ele>1390.5716798773</ele>
        <time>2019-08-06T07:35:39Z</time>
      </trkpt>
      <trkpt lat="45.11107" lon="5.60686">
        <ele>1390.7772636822</ele>
        <time>2019-08-06T07:35:42Z</time>
      </trkpt>
      <trkpt lat="45.11106" lon="5.607">
        <ele>1391.5358846174</ele>
        <time>2019-08-06T07:35:46Z</time>
      </trkpt>
      <trkpt lat="45.11114" lon="5.6071">
        <ele>1391.9844754005</ele>
        <time>2019-08-06T07:35:50Z</time>
      </trkpt>
      <trkpt lat="45.11131" lon="5.60721">
        <ele>1393.4620737502</ele>
        <time>2019-08-06T07:35:55Z</time>
      </trkpt>
      <trkpt lat="45.11143" lon="5.60729">
        <ele>1394.2519969262</ele>
        <time>2019-08-06T07:36:00Z</time>
      </trkpt>
      <trkpt lat="45.11159" lon="5.60741">
        <ele>1395.4122182195</ele>
        <time>2019-08-06T07:36:05Z</time>
      </trkpt>
      <trkpt lat="45.1117" lon="5.60753">
        <ele>1396.670518035</ele>
        <time>2019-08-06T07:36:09Z</time>
      </trkpt>
      <trkpt lat="45.11179" lon="5.60761">
        <ele>1397.6478297546</ele>
        <time>2019-08-06T07:36:13Z</time>
      </trkpt>
      <trkpt lat="45.11192" lon="5.60776">
        <ele>1398.4958463992</ele>
        <time>2019-08-06T07:36:18Z</time>
      </trkpt>
      <trkpt lat="45.11205" lon="5.6079">
        <ele>1399.3801789156</ele>
        <time>2019-08-06T07:36:23Z</time>
      </trkpt>
      <trkpt lat="45.11216" lon="5.60796">
        <ele>1400.1591811112</ele>
        <time>2019-08-06T07:36:27Z</time>
      </trkpt>
      <trkpt lat="45.11232" lon="5.60803">
        <ele>1401.2137352387</ele>
        <time>2019-08-06T07:36:32Z</time>
      </trkpt>
      <trkpt lat="45.11243" lon="5.60804">
        <ele>1401.8507510455</ele>
        <time>2019-08-06T07:36:36Z</time>
      </trkpt>
      <trkpt lat="45.1126" lon="5.60803">
        <ele>1402.6586031657</ele>
        <time>2019-08-06T07:36:41Z</time>
      </trkpt>
      <trkpt lat="45.11277" lon="5.60806">
        <ele>1403.3626660498</ele>
        <time>2019-08-06T07:36:46Z</time>
      </trkpt>
      <trkpt lat="45.11291" lon="5.60805">
        <ele>1404.3045027567</ele>
        <time>2019-08-06T07:36:50Z</time>
      </trkpt>
      <trkpt lat="45.113" lon="5.608">
        <ele>1404.8877821871</ele>
        <time>2019-08-06T07:36:53Z</time>
      </trkpt>
      <trkpt lat="45.11311" lon="5.60791">
        <ele>1405.0439630503</ele>
        <time>2019-08-06T07:36:57Z</time>
      </trkpt>
      <trkpt lat="45.11323" lon="5.60781">
        <ele>1405.092843526</ele>
        <time>2019-08-06T07:37:01Z</time>
      </trkpt>
      <trkpt lat="45.11344" lon="5.60766">
        <ele>1404.4852036665</ele>
        <time>2019-08-06T07:37:06Z</time>
      </trkpt>
      <trkpt lat="45.11361" lon="5.60757">
        <ele>1403.8025576588</ele>
        <time>2019-08-06T07:37:10Z</time>
      </trkpt>
      <trkpt lat="45.11387" lon="5.60749">
        <ele>1402.9065976668</ele>
        <time>2019-08-06T07:37:15Z</time>
      </trkpt>
      <trkpt lat="45.1141" lon="5.60746">
        <ele>1402.4123495529</ele>
        <time>2019-08-06T07:37:19Z</time>
      </trkpt>
      <trkpt lat="45.11435" lon="5.60745">
        <ele>1402.5822666371</ele>
        <time>2019-08-06T07:37:23Z</time>
      </trkpt>
      <trkpt lat="45.11461" lon="5.60751">
        <ele>1401.735556983</ele>
        <time>2019-08-06T07:37:27Z</time>
      </trkpt>
      <trkpt lat="45.11487" lon="5.60759">
        <ele>1400.8194182675</ele>
        <time>2019-08-06T07:37:31Z</time>
      </trkpt>
      <trkpt lat="45.11521" lon="5.60774">
        <ele>1399.1985194402</ele>
        <time>2019-08-06T07:37:36Z</time>
      </trkpt>
      <trkpt lat="45.11555" lon="5.60797">
        <ele>1397.5732246105</ele>
        <time>2019-08-06T07:37:41Z</time>
      </trkpt>
      <trkpt lat="45.11572" lon="5.60823">
        <ele>1396.4829441147</ele>
        <time>2019-08-06T07:37:45Z</time>
      </trkpt>
      <trkpt lat="45.11588" lon="5.60864">
        <ele>1394.6990815007</ele>
        <time>2019-08-06T07:37:50Z</time>
      </trkpt>
      <trkpt lat="45.11596" lon="5.60891">
        <ele>1393.3951572762</ele>
        <time>2019-08-06T07:37:53Z</time>
      </trkpt>
      <trkpt lat="45.11615" lon="5.60922">
        <ele>1392.0900152145</ele>
        <time>2019-08-06T07:37:58Z</time>
      </trkpt>
      <trkpt lat="45.11623" lon="5.60925">
        <ele>1391.7983525339</ele>
        <time>2019-08-06T07:38:02Z</time>
      </trkpt>
      <trkpt lat="45.11627" lon="5.60927">
        <ele>1391.4988683011</ele>
        <time>2019-08-06T07:38:23Z</time>
      </trkpt>
      <trkpt lat="45.11627" lon="5.60936">
        <ele>1391.5859289602</ele>
        <time>2019-08-06T07:38:26Z</time>
      </trkpt>
      <trkpt lat="45.1163" lon="5.60962">
        <ele>1391.2878193236</ele>
        <time>2019-08-06T07:38:30Z</time>
      </trkpt>
      <trkpt lat="45.11641" lon="5.60986">
        <ele>1390.6708827747</ele>
        <time>2019-08-06T07:38:35Z</time>
      </trkpt>
      <trkpt lat="45.11653" lon="5.60997">
        <ele>1389.9454911929</ele>
        <time>2019-08-06T07:38:39Z</time>
      </trkpt>
      <trkpt lat="45.11665" lon="5.61011">
        <ele>1388.5504943544</ele>
        <time>2019-08-06T07:38:43Z</time>
      </trkpt>
      <trkpt lat="45.11694" lon="5.61019">
        <ele>1383.903545313</ele>
        <time>2019-08-06T07:38:48Z</time>
      </trkpt>
      <trkpt lat="45.11718" lon="5.61004">
        <ele>1380.7498271805</ele>
        <time>2019-08-06T07:38:52Z</time>
      </trkpt>
      <trkpt lat="45.11739" lon="5.61005">
        <ele>1379.79794998</ele>
        <time>2019-08-06T07:38:55Z</time>
      </trkpt>
      <trkpt lat="45.11768" lon="5.6101">
        <ele>1378.1459417167</ele>
        <time>2019-08-06T07:38:59Z</time>
      </trkpt>
      <trkpt lat="45.11798" lon="5.61014">
        <ele>1376.4927831962</ele>
        <time>2019-08-06T07:39:03Z</time>
      </trkpt>
      <trkpt lat="45.11822" lon="5.61019">
        <ele>1375.6864182085</ele>
        <time>2019-08-06T07:39:06Z</time>
      </trkpt>
      <trkpt lat="45.11853" lon="5.61026">
        <ele>1375.6781227364</ele>
        <time>2019-08-06T07:39:11Z</time>
      </trkpt>
      <trkpt lat="45.11882" lon="5.61035">
        <ele>1374.6714570045</ele>
        <time>2019-08-06T07:39:16Z</time>
      </trkpt>
      <trkpt lat="45.11904" lon="5.61049">
        <ele>1374.7912568058</ele>
        <time>2019-08-06T07:39:20Z</time>
      </trkpt>
      <trkpt lat="45.1192" lon="5.61072">
        <ele>1375.7586042823</ele>
        <time>2019-08-06T07:39:25Z</time>
      </trkpt>
      <trkpt lat="45.11931" lon="5.61087">
        <ele>1375.8981561247</ele>
        <time>2019-08-06T07:39:29Z</time>
      </trkpt>
      <trkpt lat="45.11945" lon="5.61103">
        <ele>1376.0550060948</ele>
        <time>2019-08-06T07:39:33Z</time>
      </trkpt>
      <trkpt lat="45.11949" lon="5.61108">
        <ele>1376.3736550038</ele>
        <time>2019-08-06T07:39:36Z</time>
      </trkpt>
      <trkpt lat="45.11956" lon="5.6112">
        <ele>1378.0345790963</ele>
        <time>2019-08-06T07:39:41Z</time>
      </trkpt>
      <trkpt lat="45.11963" lon="5.61128">
        <ele>1379.2080406003</ele>
        <time>2019-08-06T07:39:45Z</time>
      </trkpt>
      <trkpt lat="45.11967" lon="5.61131">
        <ele>1381.2098207843</ele>
        <time>2019-08-06T07:40:32Z</time>
      </trkpt>
      <trkpt lat="45.11965" lon="5.61126">
        <ele>1380.4292086568</ele>
        <time>2019-08-06T07:40:39Z</time>
      </trkpt>
      <trkpt lat="45.11952" lon="5.61114">
        <ele>1379.065251603</ele>
        <time>2019-08-06T07:40:43Z</time>
      </trkpt>
      <trkpt lat="45.1194" lon="5.611">
        <ele>1377.97853585</ele>
        <time>2019-08-06T07:40:48Z</time>
      </trkpt>
      <trkpt lat="45.11938" lon="5.61093">
        <ele>1377.1785247087</ele>
        <time>2019-08-06T07:40:51Z</time>
      </trkpt>
      <trkpt lat="45.11941" lon="5.61095">
        <ele>1376.4038814942</ele>
        <time>2019-08-06T07:41:01Z</time>
      </trkpt>
      <trkpt lat="45.11948" lon="5.61108">
        <ele>1377.1368504949</ele>
        <time>2019-08-06T07:41:06Z</time>
      </trkpt>
      <trkpt lat="45.11957" lon="5.61118">
        <ele>1378.435369946</ele>
        <time>2019-08-06T07:41:10Z</time>
      </trkpt>
      <trkpt lat="45.11967" lon="5.6113">
        <ele>1379.7608036958</ele>
        <time>2019-08-06T07:41:15Z</time>
      </trkpt>
      <trkpt lat="45.11974" lon="5.6114">
        <ele>1381.0639122674</ele>
        <time>2019-08-06T07:41:19Z</time>
      </trkpt>
      <trkpt lat="45.11984" lon="5.61153">
        <ele>1382.7506777533</ele>
        <time>2019-08-06T07:41:24Z</time>
      </trkpt>
      <trkpt lat="45.11991" lon="5.61161">
        <ele>1383.6292739682</ele>
        <time>2019-08-06T07:41:28Z</time>
      </trkpt>
      <trkpt lat="45.11995" lon="5.6117">
        <ele>1383.9687107402</ele>
        <time>2019-08-06T07:41:32Z</time>
      </trkpt>
      <trkpt lat="45.11995" lon="5.61175">
        <ele>1383.5192077863</ele>
        <time>2019-08-06T07:41:46Z</time>
      </trkpt>
      <trkpt lat="45.12" lon="5.61185">
        <ele>1383.4278085401</ele>
        <time>2019-08-06T07:41:51Z</time>
      </trkpt>
      <trkpt lat="45.12004" lon="5.61195">
        <ele>1383.4783270727</ele>
        <time>2019-08-06T07:41:54Z</time>
      </trkpt>
      <trkpt lat="45.12011" lon="5.61214">
        <ele>1383.9808046049</ele>
        <time>2019-08-06T07:41:59Z</time>
      </trkpt>
      <trkpt lat="45.12015" lon="5.6123">
        <ele>1385.5215574675</ele>
        <time>2019-08-06T07:42:03Z</time>
      </trkpt>
      <trkpt lat="45.12018" lon="5.61246">
        <ele>1386.9872791001</ele>
        <time>2019-08-06T07:42:08Z</time>
      </trkpt>
      <trkpt lat="45.12021" lon="5.61259">
        <ele>1388.7569233104</ele>
        <time>2019-08-06T07:42:12Z</time>
      </trkpt>
      <trkpt lat="45.12025" lon="5.61272">
        <ele>1391.0916726676</ele>
        <time>2019-08-06T07:42:17Z</time>
      </trkpt>
      <trkpt lat="45.12028" lon="5.61281">
        <ele>1392.2964220866</ele>
        <time>2019-08-06T07:42:21Z</time>
      </trkpt>
      <trkpt lat="45.12033" lon="5.6129">
        <ele>1393.9214324286</ele>
        <time>2019-08-06T07:42:25Z</time>
      </trkpt>
      <trkpt lat="45.12038" lon="5.61302">
        <ele>1395.029884675</ele>
        <time>2019-08-06T07:42:30Z</time>
      </trkpt>
      <trkpt lat="45.12044" lon="5.61311">
        <ele>1396.2298120537</ele>
        <time>2019-08-06T07:42:34Z</time>
      </trkpt>
      <trkpt lat="45.12049" lon="5.6132">
        <ele>1396.4771091874</ele>
        <time>2019-08-06T07:42:38Z</time>
      </trkpt>
      <trkpt lat="45.12055" lon="5.61332">
        <ele>1397.5927406222</ele>
        <time>2019-08-06T07:42:43Z</time>
      </trkpt>
      <trkpt lat="45.12061" lon="5.6134">
        <ele>1398.8692570552</ele>
        <time>2019-08-06T07:42:47Z</time>
      </trkpt>
      <trkpt lat="45.12068" lon="5.61348">
        <ele>1400.0796627842</ele>
        <time>2019-08-06T07:42:51Z</time>
      </trkpt>
      <trkpt lat="45.12076" lon="5.61357">
        <ele>1401.6222621907</ele>
        <time>2019-08-06T07:42:56Z</time>
      </trkpt>
      <trkpt lat="45.12085" lon="5.6136">
        <ele>1402.9643616346</ele>
        <time>2019-08-06T07:43:01Z</time>
      </trkpt>
      <trkpt lat="45.12093" lon="5.6136">
        <ele>1403.5871960695</ele>
        <time>2019-08-06T07:43:05Z</time>
      </trkpt>
      <trkpt lat="45.12104" lon="5.61358">
        <ele>1404.4254547403</ele>
        <time>2019-08-06T07:43:10Z</time>
      </trkpt>
      <trkpt lat="45.12114" lon="5.61355">
        <ele>1405.0845480103</ele>
        <time>2019-08-06T07:43:14Z</time>
      </trkpt>
      <trkpt lat="45.12124" lon="5.61352">
        <ele>1404.9020407069</ele>
        <time>2019-08-06T07:43:18Z</time>
      </trkpt>
      <trkpt lat="45.12144" lon="5.61351">
        <ele>1404.0442193717</ele>
        <time>2019-08-06T07:43:22Z</time>
      </trkpt>
      <trkpt lat="45.12151" lon="5.61354">
        <ele>1405.9194121482</ele>
        <time>2019-08-06T07:43:25Z</time>
      </trkpt>
      <trkpt lat="45.12163" lon="5.61359">
        <ele>1407.8564911383</ele>
        <time>2019-08-06T07:43:30Z</time>
      </trkpt>
      <trkpt lat="45.12188" lon="5.61359">
        <ele>1407.1051584841</ele>
        <time>2019-08-06T07:43:35Z</time>
      </trkpt>
      <trkpt lat="45.12213" lon="5.61367">
        <ele>1405.8751557087</ele>
        <time>2019-08-06T07:43:39Z</time>
      </trkpt>
      <trkpt lat="45.12254" lon="5.61375">
        <ele>1402.6727086551</ele>
        <time>2019-08-06T07:43:44Z</time>
      </trkpt>
      <trkpt lat="45.12268" lon="5.61373">
        <ele>1405.5531322068</ele>
        <time>2019-08-06T07:43:47Z</time>
      </trkpt>
      <trkpt lat="45.12273" lon="5.61371">
        <ele>1405.913199879</ele>
        <time>2019-08-06T07:43:51Z</time>
      </trkpt>
      <trkpt lat="45.1228" lon="5.61377">
        <ele>1406.6092795621</ele>
        <time>2019-08-06T07:43:55Z</time>
      </trkpt>
      <trkpt lat="45.12282" lon="5.61384">
        <ele>1407.1662609234</ele>
        <time>2019-08-06T07:43:58Z</time>
      </trkpt>
      <trkpt lat="45.12279" lon="5.61393">
        <ele>1407.6221406439</ele>
        <time>2019-08-06T07:44:02Z</time>
      </trkpt>
      <trkpt lat="45.12276" lon="5.61399">
        <ele>1408.3415594402</ele>
        <time>2019-08-06T07:44:05Z</time>
      </trkpt>
      <trkpt lat="45.12268" lon="5.61405">
        <ele>1409.3793505787</ele>
        <time>2019-08-06T07:44:09Z</time>
      </trkpt>
      <trkpt lat="45.12261" lon="5.61411">
        <ele>1408.9577740105</ele>
        <time>2019-08-06T07:44:13Z</time>
      </trkpt>
      <trkpt lat="45.12253" lon="5.61419">
        <ele>1410.2381376829</ele>
        <time>2019-08-06T07:44:18Z</time>
      </trkpt>
      <trkpt lat="45.12246" lon="5.61425">
        <ele>1411.0235616559</ele>
        <time>2019-08-06T07:44:23Z</time>
      </trkpt>
      <trkpt lat="45.12237" lon="5.61427">
        <ele>1411.754843579</ele>
        <time>2019-08-06T07:44:28Z</time>
      </trkpt>
      <trkpt lat="45.12231" lon="5.61429">
        <ele>1412.7147266182</ele>
        <time>2019-08-06T07:44:32Z</time>
      </trkpt>
      <trkpt lat="45.12225" lon="5.61428">
        <ele>1413.5606741881</ele>
        <time>2019-08-06T07:44:36Z</time>
      </trkpt>
      <trkpt lat="45.1222" lon="5.61432">
        <ele>1414.907918389</ele>
        <time>2019-08-06T07:44:41Z</time>
      </trkpt>
      <trkpt lat="45.12221" lon="5.6144">
        <ele>1416.1683492118</ele>
        <time>2019-08-06T07:44:45Z</time>
      </trkpt>
      <trkpt lat="45.12226" lon="5.61449">
        <ele>1417.8562822809</ele>
        <time>2019-08-06T07:44:50Z</time>
      </trkpt>
      <trkpt lat="45.1223" lon="5.61454">
        <ele>1419.3234026472</ele>
        <time>2019-08-06T07:44:53Z</time>
      </trkpt>
      <trkpt lat="45.12236" lon="5.6146">
        <ele>1421.7387711972</ele>
        <time>2019-08-06T07:44:57Z</time>
      </trkpt>
      <trkpt lat="45.1224" lon="5.61467">
        <ele>1424.1847818273</ele>
        <time>2019-08-06T07:45:01Z</time>
      </trkpt>
      <trkpt lat="45.12246" lon="5.61474">
        <ele>1426.4409663482</ele>
        <time>2019-08-06T07:45:06Z</time>
      </trkpt>
      <trkpt lat="45.12252" lon="5.61479">
        <ele>1426.0572620248</ele>
        <time>2019-08-06T07:45:11Z</time>
      </trkpt>
      <trkpt lat="45.12258" lon="5.6148">
        <ele>1427.52165841</ele>
        <time>2019-08-06T07:45:15Z</time>
      </trkpt>
      <trkpt lat="45.12264" lon="5.61483">
        <ele>1428.0263989772</ele>
        <time>2019-08-06T07:45:19Z</time>
      </trkpt>
      <trkpt lat="45.12269" lon="5.6149">
        <ele>1428.8732891641</ele>
        <time>2019-08-06T07:45:23Z</time>
      </trkpt>
      <trkpt lat="45.12269" lon="5.61499">
        <ele>1430.4558811402</ele>
        <time>2019-08-06T07:45:27Z</time>
      </trkpt>
      <trkpt lat="45.12265" lon="5.61507">
        <ele>1430.9129083773</ele>
        <time>2019-08-06T07:45:31Z</time>
      </trkpt>
      <trkpt lat="45.12258" lon="5.61515">
        <ele>1432.1565681254</ele>
        <time>2019-08-06T07:45:36Z</time>
      </trkpt>
      <trkpt lat="45.1225" lon="5.61521">
        <ele>1433.3905790245</ele>
        <time>2019-08-06T07:45:41Z</time>
      </trkpt>
      <trkpt lat="45.12245" lon="5.61524">
        <ele>1434.3683824882</ele>
        <time>2019-08-06T07:45:44Z</time>
      </trkpt>
      <trkpt lat="45.1224" lon="5.61527">
        <ele>1435.1684184613</ele>
        <time>2019-08-06T07:45:48Z</time>
      </trkpt>
      <trkpt lat="45.12233" lon="5.6153">
        <ele>1436.5520123183</ele>
        <time>2019-08-06T07:45:52Z</time>
      </trkpt>
      <trkpt lat="45.12225" lon="5.61532">
        <ele>1438.3991690458</ele>
        <time>2019-08-06T07:45:57Z</time>
      </trkpt>
      <trkpt lat="45.12219" lon="5.61533">
        <ele>1439.7258539246</ele>
        <time>2019-08-06T07:46:01Z</time>
      </trkpt>
      <trkpt lat="45.12214" lon="5.61538">
        <ele>1440.05244844</ele>
        <time>2019-08-06T07:46:06Z</time>
      </trkpt>
      <trkpt lat="45.12216" lon="5.61549">
        <ele>1440.8112409509</ele>
        <time>2019-08-06T07:46:10Z</time>
      </trkpt>
      <trkpt lat="45.12223" lon="5.61558">
        <ele>1441.2754358017</ele>
        <time>2019-08-06T07:46:15Z</time>
      </trkpt>
      <trkpt lat="45.12227" lon="5.61563">
        <ele>1441.3266331125</ele>
        <time>2019-08-06T07:46:19Z</time>
      </trkpt>
      <trkpt lat="45.1223" lon="5.61568">
        <ele>1441.0365048588</ele>
        <time>2019-08-06T07:46:29Z</time>
      </trkpt>
      <trkpt lat="45.12232" lon="5.61568">
        <ele>1441.2722857511</ele>
        <time>2019-08-06T07:46:42Z</time>
      </trkpt>
      <trkpt lat="45.12239" lon="5.61568">
        <ele>1442.3934650385</ele>
        <time>2019-08-06T07:46:46Z</time>
      </trkpt>
      <trkpt lat="45.12256" lon="5.61581">
        <ele>1442.4655765959</ele>
        <time>2019-08-06T07:46:51Z</time>
      </trkpt>
      <trkpt lat="45.12263" lon="5.61584">
        <ele>1442.809237698</ele>
        <time>2019-08-06T07:46:55Z</time>
      </trkpt>
      <trkpt lat="45.12272" lon="5.61581">
        <ele>1445.1942527132</ele>
        <time>2019-08-06T07:46:59Z</time>
      </trkpt>
      <trkpt lat="45.1228" lon="5.61579">
        <ele>1447.1779593128</ele>
        <time>2019-08-06T07:47:04Z</time>
      </trkpt>
      <trkpt lat="45.12288" lon="5.61578">
        <ele>1449.9286451719</ele>
        <time>2019-08-06T07:47:08Z</time>
      </trkpt>
      <trkpt lat="45.12296" lon="5.61579">
        <ele>1450.5725278212</ele>
        <time>2019-08-06T07:47:13Z</time>
      </trkpt>
      <trkpt lat="45.12302" lon="5.6158">
        <ele>1451.1257549634</ele>
        <time>2019-08-06T07:47:17Z</time>
      </trkpt>
      <trkpt lat="45.12308" lon="5.61582">
        <ele>1453.0417473094</ele>
        <time>2019-08-06T07:47:21Z</time>
      </trkpt>
      <trkpt lat="45.12313" lon="5.61583">
        <ele>1453.4573744356</ele>
        <time>2019-08-06T07:47:25Z</time>
      </trkpt>
      <trkpt lat="45.12323" lon="5.61585">
        <ele>1455.5402508759</ele>
        <time>2019-08-06T07:47:30Z</time>
      </trkpt>
      <trkpt lat="45.12328" lon="5.61587">
        <ele>1456.5663924021</ele>
        <time>2019-08-06T07:47:33Z</time>
      </trkpt>
      <trkpt lat="45.12334" lon="5.61588">
        <ele>1456.5705999438</ele>
        <time>2019-08-06T07:47:37Z</time>
      </trkpt>
      <trkpt lat="45.12343" lon="5.61589">
        <ele>1456.9323732588</ele>
        <time>2019-08-06T07:47:42Z</time>
      </trkpt>
      <trkpt lat="45.1235" lon="5.61588">
        <ele>1459.0940928188</ele>
        <time>2019-08-06T07:47:46Z</time>
      </trkpt>
      <trkpt lat="45.12359" lon="5.61591">
        <ele>1460.0842886727</ele>
        <time>2019-08-06T07:47:51Z</time>
      </trkpt>
      <trkpt lat="45.12366" lon="5.61593">
        <ele>1461.9310201231</ele>
        <time>2019-08-06T07:47:55Z</time>
      </trkpt>
      <trkpt lat="45.12373" lon="5.61595">
        <ele>1461.4149028145</ele>
        <time>2019-08-06T07:47:59Z</time>
      </trkpt>
      <trkpt lat="45.12383" lon="5.61602">
        <ele>1461.5324801593</ele>
        <time>2019-08-06T07:48:04Z</time>
      </trkpt>
      <trkpt lat="45.12395" lon="5.61608">
        <ele>1461.0585435247</ele>
        <time>2019-08-06T07:48:09Z</time>
      </trkpt>
      <trkpt lat="45.12404" lon="5.6161">
        <ele>1462.4341911694</ele>
        <time>2019-08-06T07:48:13Z</time>
      </trkpt>
      <trkpt lat="45.12411" lon="5.61614">
        <ele>1464.7770370663</ele>
        <time>2019-08-06T07:48:17Z</time>
      </trkpt>
      <trkpt lat="45.1242" lon="5.6162">
        <ele>1466.1727066273</ele>
        <time>2019-08-06T07:48:20Z</time>
      </trkpt>
      <trkpt lat="45.12438" lon="5.61633">
        <ele>1466.4512105634</ele>
        <time>2019-08-06T07:48:25Z</time>
      </trkpt>
      <trkpt lat="45.12444" lon="5.61636">
        <ele>1466.984630118</ele>
        <time>2019-08-06T07:48:29Z</time>
      </trkpt>
      <trkpt lat="45.12449" lon="5.61637">
        <ele>1467.3261144767</ele>
        <time>2019-08-06T07:48:32Z</time>
      </trkpt>
      <trkpt lat="45.12457" lon="5.61635">
        <ele>1469.8148068954</ele>
        <time>2019-08-06T07:48:36Z</time>
      </trkpt>
      <trkpt lat="45.12466" lon="5.61634">
        <ele>1468.6823876937</ele>
        <time>2019-08-06T07:48:41Z</time>
      </trkpt>
      <trkpt lat="45.12471" lon="5.61636">
        <ele>1468.2103198695</ele>
        <time>2019-08-06T07:48:44Z</time>
      </trkpt>
      <trkpt lat="45.12479" lon="5.61642">
        <ele>1471.6290664937</ele>
        <time>2019-08-06T07:48:49Z</time>
      </trkpt>
      <trkpt lat="45.12482" lon="5.61646">
        <ele>1473.3523722456</ele>
        <time>2019-08-06T07:48:52Z</time>
      </trkpt>
      <trkpt lat="45.12487" lon="5.61655">
        <ele>1473.3395940355</ele>
        <time>2019-08-06T07:48:57Z</time>
      </trkpt>
      <trkpt lat="45.1249" lon="5.61651">
        <ele>1465.9235084162</ele>
        <time>2019-08-06T07:51:31Z</time>
      </trkpt>
      <trkpt lat="45.12496" lon="5.61648">
        <ele>1466.0914382756</ele>
        <time>2019-08-06T07:51:36Z</time>
      </trkpt>
      <trkpt lat="45.125" lon="5.61649">
        <ele>1465.4834237888</ele>
        <time>2019-08-06T07:52:18Z</time>
      </trkpt>
      <trkpt lat="45.12504" lon="5.61649">
        <ele>1464.0377054583</ele>
        <time>2019-08-06T07:52:22Z</time>
      </trkpt>
      <trkpt lat="45.1251" lon="5.61649">
        <ele>1462.9998219588</ele>
        <time>2019-08-06T07:52:27Z</time>
      </trkpt>
      <trkpt lat="45.12515" lon="5.6165">
        <ele>1460.3925752853</ele>
        <time>2019-08-06T07:52:31Z</time>
      </trkpt>
      <trkpt lat="45.12523" lon="5.61652">
        <ele>1459.3818007172</ele>
        <time>2019-08-06T07:52:35Z</time>
      </trkpt>
      <trkpt lat="45.12534" lon="5.61652">
        <ele>1455.8382404075</ele>
        <time>2019-08-06T07:52:40Z</time>
      </trkpt>
      <trkpt lat="45.12541" lon="5.6165">
        <ele>1456.8608551743</ele>
        <time>2019-08-06T07:52:43Z</time>
      </trkpt>
      <trkpt lat="45.12551" lon="5.61643">
        <ele>1453.9139646655</ele>
        <time>2019-08-06T07:52:47Z</time>
      </trkpt>
      <trkpt lat="45.12556" lon="5.61637">
        <ele>1452.0103093208</ele>
        <time>2019-08-06T07:52:51Z</time>
      </trkpt>
      <trkpt lat="45.12558" lon="5.61629">
        <ele>1449.3178628199</ele>
        <time>2019-08-06T07:52:55Z</time>
      </trkpt>
      <trkpt lat="45.12555" lon="5.61624">
        <ele>1445.881962718</ele>
        <time>2019-08-06T07:53:00Z</time>
      </trkpt>
      <trkpt lat="45.12548" lon="5.61624">
        <ele>1442.349770385</ele>
        <time>2019-08-06T07:53:04Z</time>
      </trkpt>
      <trkpt lat="45.12549" lon="5.61619">
        <ele>1440.7406741479</ele>
        <time>2019-08-06T07:53:08Z</time>
      </trkpt>
      <trkpt lat="45.12557" lon="5.61602">
        <ele>1436.9303333844</ele>
        <time>2019-08-06T07:53:13Z</time>
      </trkpt>
      <trkpt lat="45.12566" lon="5.61581">
        <ele>1435.3318795759</ele>
        <time>2019-08-06T07:53:16Z</time>
      </trkpt>
      <trkpt lat="45.12582" lon="5.61561">
        <ele>1432.3374985315</ele>
        <time>2019-08-06T07:53:21Z</time>
      </trkpt>
      <trkpt lat="45.12593" lon="5.61546">
        <ele>1430.3907697063</ele>
        <time>2019-08-06T07:53:25Z</time>
      </trkpt>
      <trkpt lat="45.126" lon="5.61533">
        <ele>1428.2065175328</ele>
        <time>2019-08-06T07:53:29Z</time>
      </trkpt>
      <trkpt lat="45.12609" lon="5.61521">
        <ele>1427.1113846992</ele>
        <time>2019-08-06T07:53:33Z</time>
      </trkpt>
      <trkpt lat="45.12616" lon="5.61509">
        <ele>1425.2935994758</ele>
        <time>2019-08-06T07:53:37Z</time>
      </trkpt>
      <trkpt lat="45.12624" lon="5.61497">
        <ele>1423.6755657536</ele>
        <time>2019-08-06T07:53:41Z</time>
      </trkpt>
      <trkpt lat="45.12637" lon="5.61489">
        <ele>1421.8724772204</ele>
        <time>2019-08-06T07:53:45Z</time>
      </trkpt>
      <trkpt lat="45.12648" lon="5.61481">
        <ele>1419.888705849</ele>
        <time>2019-08-06T07:53:49Z</time>
      </trkpt>
      <trkpt lat="45.12662" lon="5.61475">
        <ele>1418.3655486874</ele>
        <time>2019-08-06T07:53:53Z</time>
      </trkpt>
      <trkpt lat="45.12689" lon="5.6147">
        <ele>1416.3080031575</ele>
        <time>2019-08-06T07:53:58Z</time>
      </trkpt>
      <trkpt lat="45.12711" lon="5.61464">
        <ele>1418.2428754583</ele>
        <time>2019-08-06T07:54:02Z</time>
      </trkpt>
      <trkpt lat="45.12744" lon="5.61462">
        <ele>1414.6782093122</ele>
        <time>2019-08-06T07:54:07Z</time>
      </trkpt>
      <trkpt lat="45.12758" lon="5.61459">
        <ele>1411.0264926032</ele>
        <time>2019-08-06T07:54:11Z</time>
      </trkpt>
      <trkpt lat="45.12767" lon="5.61451">
        <ele>1409.7352378124</ele>
        <time>2019-08-06T07:54:15Z</time>
      </trkpt>
      <trkpt lat="45.12781" lon="5.61445">
        <ele>1407.3120266149</ele>
        <time>2019-08-06T07:54:20Z</time>
      </trkpt>
      <trkpt lat="45.12792" lon="5.6144">
        <ele>1404.0379387995</ele>
        <time>2019-08-06T07:54:24Z</time>
      </trkpt>
      <trkpt lat="45.12802" lon="5.61432">
        <ele>1401.119276896</ele>
        <time>2019-08-06T07:54:28Z</time>
      </trkpt>
      <trkpt lat="45.12818" lon="5.6142">
        <ele>1397.1348279899</ele>
        <time>2019-08-06T07:54:33Z</time>
      </trkpt>
      <trkpt lat="45.12834" lon="5.61405">
        <ele>1393.9235110644</ele>
        <time>2019-08-06T07:54:38Z</time>
      </trkpt>
      <trkpt lat="45.12846" lon="5.61395">
        <ele>1389.3956079835</ele>
        <time>2019-08-06T07:54:42Z</time>
      </trkpt>
      <trkpt lat="45.12852" lon="5.61391">
        <ele>1387.9589810319</ele>
        <time>2019-08-06T07:54:45Z</time>
      </trkpt>
      <trkpt lat="45.12864" lon="5.61375">
        <ele>1384.3564731517</ele>
        <time>2019-08-06T07:54:49Z</time>
      </trkpt>
      <trkpt lat="45.12868" lon="5.6137">
        <ele>1382.7027517797</ele>
        <time>2019-08-06T07:54:53Z</time>
      </trkpt>
      <trkpt lat="45.12869" lon="5.61367">
        <ele>1380.3850372748</ele>
        <time>2019-08-06T07:54:58Z</time>
      </trkpt>
      <trkpt lat="45.12871" lon="5.61358">
        <ele>1378.6198180248</ele>
        <time>2019-08-06T07:55:01Z</time>
      </trkpt>
      <trkpt lat="45.12877" lon="5.61344">
        <ele>1376.6569345688</ele>
        <time>2019-08-06T07:55:05Z</time>
      </trkpt>
      <trkpt lat="45.1288" lon="5.61333">
        <ele>1373.3047057225</ele>
        <time>2019-08-06T07:55:09Z</time>
      </trkpt>
      <trkpt lat="45.12879" lon="5.61325">
        <ele>1370.3638401753</ele>
        <time>2019-08-06T07:55:14Z</time>
      </trkpt>
      <trkpt lat="45.12877" lon="5.6132">
        <ele>1371.8276111081</ele>
        <time>2019-08-06T07:55:39Z</time>
      </trkpt>
      <trkpt lat="45.1288" lon="5.61322">
        <ele>1372.8904857199</ele>
        <time>2019-08-06T07:56:10Z</time>
      </trkpt>
      <trkpt lat="45.12881" lon="5.61328">
        <ele>1372.8525214596</ele>
        <time>2019-08-06T07:56:14Z</time>
      </trkpt>
      <trkpt lat="45.12881" lon="5.61335">
        <ele>1371.9192179713</ele>
        <time>2019-08-06T07:56:19Z</time>
      </trkpt>
      <trkpt lat="45.1288" lon="5.61342">
        <ele>1372.7323413232</ele>
        <time>2019-08-06T07:56:24Z</time>
      </trkpt>
      <trkpt lat="45.12878" lon="5.61348">
        <ele>1371.6689655343</ele>
        <time>2019-08-06T07:56:29Z</time>
      </trkpt>
      <trkpt lat="45.12876" lon="5.61353">
        <ele>1372.2570233437</ele>
        <time>2019-08-06T07:56:34Z</time>
      </trkpt>
      <trkpt lat="45.12874" lon="5.61358">
        <ele>1372.7872557855</ele>
        <time>2019-08-06T07:56:39Z</time>
      </trkpt>
      <trkpt lat="45.12872" lon="5.61361">
        <ele>1374.6618107489</ele>
        <time>2019-08-06T07:56:45Z</time>
      </trkpt>
      <trkpt lat="45.12872" lon="5.61366">
        <ele>1373.34932575</ele>
        <time>2019-08-06T07:56:53Z</time>
      </trkpt>
      <trkpt lat="45.12876" lon="5.61367">
        <ele>1374.7130022541</ele>
        <time>2019-08-06T07:57:07Z</time>
      </trkpt>
      <trkpt lat="45.12878" lon="5.61364">
        <ele>1373.746167909</ele>
        <time>2019-08-06T07:57:11Z</time>
      </trkpt>
      <trkpt lat="45.12885" lon="5.61359">
        <ele>1373.4605404793</ele>
        <time>2019-08-06T07:57:15Z</time>
      </trkpt>
      <trkpt lat="45.12895" lon="5.61353">
        <ele>1372.9739698676</ele>
        <time>2019-08-06T07:57:19Z</time>
      </trkpt>
      <trkpt lat="45.12898" lon="5.61352">
        <ele>1373.1803644333</ele>
        <time>2019-08-06T07:57:23Z</time>
      </trkpt>
      <trkpt lat="45.12903" lon="5.61348">
        <ele>1375.4264560277</ele>
        <time>2019-08-06T07:57:28Z</time>
      </trkpt>
      <trkpt lat="45.12906" lon="5.61343">
        <ele>1376.2615696828</ele>
        <time>2019-08-06T07:57:33Z</time>
      </trkpt>
      <trkpt lat="45.1291" lon="5.61342">
        <ele>1375.6594762658</ele>
        <time>2019-08-06T07:57:38Z</time>
      </trkpt>
      <trkpt lat="45.1292" lon="5.61338">
        <ele>1375.567606466</ele>
        <time>2019-08-06T07:57:43Z</time>
      </trkpt>
      <trkpt lat="45.12929" lon="5.61334">
        <ele>1375.5988783551</ele>
        <time>2019-08-06T07:57:47Z</time>
      </trkpt>
      <trkpt lat="45.12931" lon="5.61331">
        <ele>1374.0559249636</ele>
        <time>2019-08-06T07:58:02Z</time>
      </trkpt>
      <trkpt lat="45.12938" lon="5.61316">
        <ele>1373.9166863996</ele>
        <time>2019-08-06T07:58:07Z</time>
      </trkpt>
      <trkpt lat="45.12955" lon="5.61289">
        <ele>1372.6845356795</ele>
        <time>2019-08-06T07:58:12Z</time>
      </trkpt>
      <trkpt lat="45.12962" lon="5.61275">
        <ele>1372.8966703021</ele>
        <time>2019-08-06T07:58:16Z</time>
      </trkpt>
      <trkpt lat="45.12968" lon="5.61263">
        <ele>1373.0983010348</ele>
        <time>2019-08-06T07:58:20Z</time>
      </trkpt>
      <trkpt lat="45.12974" lon="5.61249">
        <ele>1373.4147643454</ele>
        <time>2019-08-06T07:58:25Z</time>
      </trkpt>
      <trkpt lat="45.1298" lon="5.61237">
        <ele>1373.6126209087</ele>
        <time>2019-08-06T07:58:29Z</time>
      </trkpt>
      <trkpt lat="45.12985" lon="5.61227">
        <ele>1373.9014003497</ele>
        <time>2019-08-06T07:58:33Z</time>
      </trkpt>
      <trkpt lat="45.12992" lon="5.61215">
        <ele>1374.6005701834</ele>
        <time>2019-08-06T07:58:37Z</time>
      </trkpt>
      <trkpt lat="45.12995" lon="5.61205">
        <ele>1374.5161637509</ele>
        <time>2019-08-06T07:58:42Z</time>
      </trkpt>
      <trkpt lat="45.12997" lon="5.61202">
        <ele>1374.8631453097</ele>
        <time>2019-08-06T07:59:26Z</time>
      </trkpt>
      <trkpt lat="45.13001" lon="5.61204">
        <ele>1374.5353367222</ele>
        <time>2019-08-06T07:59:31Z</time>
      </trkpt>
      <trkpt lat="45.13006" lon="5.61207">
        <ele>1373.4447949666</ele>
        <time>2019-08-06T07:59:34Z</time>
      </trkpt>
      <trkpt lat="45.13022" lon="5.6122">
        <ele>1371.7821145976</ele>
        <time>2019-08-06T07:59:39Z</time>
      </trkpt>
      <trkpt lat="45.1303" lon="5.61222">
        <ele>1370.8584710025</ele>
        <time>2019-08-06T07:59:43Z</time>
      </trkpt>
      <trkpt lat="45.1304" lon="5.61227">
        <ele>1369.8412955188</ele>
        <time>2019-08-06T07:59:46Z</time>
      </trkpt>
      <trkpt lat="45.13051" lon="5.61231">
        <ele>1369.9196160855</ele>
        <time>2019-08-06T07:59:51Z</time>
      </trkpt>
      <trkpt lat="45.13055" lon="5.61232">
        <ele>1370.6995355798</ele>
        <time>2019-08-06T07:59:54Z</time>
      </trkpt>
      <trkpt lat="45.13059" lon="5.61232">
        <ele>1372.4473068837</ele>
        <time>2019-08-06T08:00:10Z</time>
      </trkpt>
      <trkpt lat="45.13068" lon="5.61238">
        <ele>1372.3204325221</ele>
        <time>2019-08-06T08:00:15Z</time>
      </trkpt>
      <trkpt lat="45.13075" lon="5.61243">
        <ele>1372.7766965654</ele>
        <time>2019-08-06T08:00:19Z</time>
      </trkpt>
      <trkpt lat="45.13083" lon="5.6125">
        <ele>1372.0105121094</ele>
        <time>2019-08-06T08:00:23Z</time>
      </trkpt>
      <trkpt lat="45.1309" lon="5.61253">
        <ele>1370.9638333552</ele>
        <time>2019-08-06T08:00:28Z</time>
      </trkpt>
      <trkpt lat="45.13101" lon="5.61255">
        <ele>1368.8310604163</ele>
        <time>2019-08-06T08:00:32Z</time>
      </trkpt>
      <trkpt lat="45.13121" lon="5.61257">
        <ele>1366.1465616702</ele>
        <time>2019-08-06T08:00:36Z</time>
      </trkpt>
      <trkpt lat="45.13128" lon="5.61261">
        <ele>1364.8675477293</ele>
        <time>2019-08-06T08:00:40Z</time>
      </trkpt>
      <trkpt lat="45.13135" lon="5.61262">
        <ele>1366.9166049405</ele>
        <time>2019-08-06T08:00:44Z</time>
      </trkpt>
      <trkpt lat="45.13142" lon="5.61263">
        <ele>1364.6151903107</ele>
        <time>2019-08-06T08:00:48Z</time>
      </trkpt>
      <trkpt lat="45.13147" lon="5.61262">
        <ele>1365.6743685092</ele>
        <time>2019-08-06T08:00:51Z</time>
      </trkpt>
      <trkpt lat="45.13153" lon="5.61261">
        <ele>1368.7965975353</ele>
        <time>2019-08-06T08:00:55Z</time>
      </trkpt>
      <trkpt lat="45.13163" lon="5.61258">
        <ele>1372.3513673534</ele>
        <time>2019-08-06T08:01:00Z</time>
      </trkpt>
      <trkpt lat="45.1317" lon="5.61255">
        <ele>1374.8864326146</ele>
        <time>2019-08-06T08:01:05Z</time>
      </trkpt>
      <trkpt lat="45.13177" lon="5.61253">
        <ele>1376.3176138394</ele>
        <time>2019-08-06T08:01:09Z</time>
      </trkpt>
      <trkpt lat="45.13182" lon="5.61252">
        <ele>1377.3242581131</ele>
        <time>2019-08-06T08:01:12Z</time>
      </trkpt>
      <trkpt lat="45.1319" lon="5.61252">
        <ele>1378.8950151557</ele>
        <time>2019-08-06T08:01:16Z</time>
      </trkpt>
      <trkpt lat="45.13197" lon="5.61251">
        <ele>1380.5166351354</ele>
        <time>2019-08-06T08:01:20Z</time>
      </trkpt>
      <trkpt lat="45.13206" lon="5.61249">
        <ele>1381.1132535613</ele>
        <time>2019-08-06T08:01:25Z</time>
      </trkpt>
      <trkpt lat="45.13218" lon="5.61249">
        <ele>1380.0785593287</ele>
        <time>2019-08-06T08:01:30Z</time>
      </trkpt>
      <trkpt lat="45.13225" lon="5.61249">
        <ele>1380.3970924644</ele>
        <time>2019-08-06T08:01:34Z</time>
      </trkpt>
      <trkpt lat="45.13235" lon="5.61253">
        <ele>1381.6405214768</ele>
        <time>2019-08-06T08:01:38Z</time>
      </trkpt>
      <trkpt lat="45.1324" lon="5.61256">
        <ele>1381.7344141044</ele>
        <time>2019-08-06T08:01:42Z</time>
      </trkpt>
      <trkpt lat="45.13243" lon="5.61259">
        <ele>1378.8848900823</ele>
        <time>2019-08-06T08:02:03Z</time>
      </trkpt>
      <trkpt lat="45.13248" lon="5.61261">
        <ele>1378.5859560956</ele>
        <time>2019-08-06T08:02:07Z</time>
      </trkpt>
      <trkpt lat="45.13255" lon="5.61265">
        <ele>1377.6379927005</ele>
        <time>2019-08-06T08:02:11Z</time>
      </trkpt>
      <trkpt lat="45.13262" lon="5.61271">
        <ele>1377.2537519178</ele>
        <time>2019-08-06T08:02:15Z</time>
      </trkpt>
      <trkpt lat="45.13274" lon="5.6128">
        <ele>1375.4010469836</ele>
        <time>2019-08-06T08:02:20Z</time>
      </trkpt>
      <trkpt lat="45.13278" lon="5.61286">
        <ele>1375.9436340103</ele>
        <time>2019-08-06T08:02:23Z</time>
      </trkpt>
      <trkpt lat="45.13282" lon="5.61287">
        <ele>1374.4657193882</ele>
        <time>2019-08-06T08:02:51Z</time>
      </trkpt>
      <trkpt lat="45.13285" lon="5.61291">
        <ele>1375.594391905</ele>
        <time>2019-08-06T08:02:59Z</time>
      </trkpt>
      <trkpt lat="45.13289" lon="5.61293">
        <ele>1376.9340993465</ele>
        <time>2019-08-06T08:03:06Z</time>
      </trkpt>
      <trkpt lat="45.13291" lon="5.61298">
        <ele>1377.356723373</ele>
        <time>2019-08-06T08:03:16Z</time>
      </trkpt>
      <trkpt lat="45.13294" lon="5.61303">
        <ele>1375.8359297804</ele>
        <time>2019-08-06T08:03:23Z</time>
      </trkpt>
      <trkpt lat="45.13296" lon="5.61308">
        <ele>1372.7187832005</ele>
        <time>2019-08-06T08:03:42Z</time>
      </trkpt>
      <trkpt lat="45.13298" lon="5.61311">
        <ele>1373.8820529079</ele>
        <time>2019-08-06T08:03:48Z</time>
      </trkpt>
      <trkpt lat="45.13301" lon="5.61318">
        <ele>1373.7294881829</ele>
        <time>2019-08-06T08:03:52Z</time>
      </trkpt>
      <trkpt lat="45.13307" lon="5.61329">
        <ele>1370.8463411064</ele>
        <time>2019-08-06T08:03:57Z</time>
      </trkpt>
      <trkpt lat="45.13309" lon="5.61334">
        <ele>1369.8621819119</ele>
        <time>2019-08-06T08:04:01Z</time>
      </trkpt>
      <trkpt lat="45.13318" lon="5.61341">
        <ele>1367.4705290138</ele>
        <time>2019-08-06T08:04:06Z</time>
      </trkpt>
      <trkpt lat="45.13331" lon="5.61347">
        <ele>1369.9711771775</ele>
        <time>2019-08-06T08:04:10Z</time>
      </trkpt>
      <trkpt lat="45.13335" lon="5.6135">
        <ele>1369.1851003716</ele>
        <time>2019-08-06T08:04:14Z</time>
      </trkpt>
      <trkpt lat="45.13332" lon="5.61352">
        <ele>1368.9256483456</ele>
        <time>2019-08-06T08:04:27Z</time>
      </trkpt>
      <trkpt lat="45.13327" lon="5.61351">
        <ele>1370.2778444559</ele>
        <time>2019-08-06T08:04:31Z</time>
      </trkpt>
      <trkpt lat="45.13319" lon="5.61345">
        <ele>1372.577315429</ele>
        <time>2019-08-06T08:04:36Z</time>
      </trkpt>
      <trkpt lat="45.13313" lon="5.61337">
        <ele>1374.3865919321</ele>
        <time>2019-08-06T08:04:40Z</time>
      </trkpt>
      <trkpt lat="45.13308" lon="5.6133">
        <ele>1375.5145746214</ele>
        <time>2019-08-06T08:04:44Z</time>
      </trkpt>
      <trkpt lat="45.13304" lon="5.61324">
        <ele>1375.6274511349</ele>
        <time>2019-08-06T08:04:48Z</time>
      </trkpt>
      <trkpt lat="45.133" lon="5.61319">
        <ele>1376.8869634865</ele>
        <time>2019-08-06T08:04:52Z</time>
      </trkpt>
      <trkpt lat="45.13296" lon="5.61309">
        <ele>1377.3609088525</ele>
        <time>2019-08-06T08:04:57Z</time>
      </trkpt>
      <trkpt lat="45.13293" lon="5.61307">
        <ele>1376.1853713796</ele>
        <time>2019-08-06T08:05:07Z</time>
      </trkpt>
      <trkpt lat="45.1329" lon="5.61304">
        <ele>1377.2145082374</ele>
        <time>2019-08-06T08:05:14Z</time>
      </trkpt>
      <trkpt lat="45.1329" lon="5.61302">
        <ele>1376.211416047</ele>
        <time>2019-08-06T08:05:21Z</time>
      </trkpt>
      <trkpt lat="45.13283" lon="5.61289">
        <ele>1376.0827041434</ele>
        <time>2019-08-06T08:05:26Z</time>
      </trkpt>
      <trkpt lat="45.1328" lon="5.61284">
        <ele>1376.1212055946</ele>
        <time>2019-08-06T08:05:29Z</time>
      </trkpt>
      <trkpt lat="45.13275" lon="5.61279">
        <ele>1378.5093763276</ele>
        <time>2019-08-06T08:05:33Z</time>
      </trkpt>
      <trkpt lat="45.1327" lon="5.61274">
        <ele>1378.1361246448</ele>
        <time>2019-08-06T08:05:37Z</time>
      </trkpt>
      <trkpt lat="45.13264" lon="5.61272">
        <ele>1378.7983318918</ele>
        <time>2019-08-06T08:05:42Z</time>
      </trkpt>
      <trkpt lat="45.13256" lon="5.61267">
        <ele>1379.6121761578</ele>
        <time>2019-08-06T08:05:46Z</time>
      </trkpt>
      <trkpt lat="45.13247" lon="5.61263">
        <ele>1381.031605012</ele>
        <time>2019-08-06T08:05:50Z</time>
      </trkpt>
      <trkpt lat="45.13238" lon="5.61258">
        <ele>1380.7904085819</ele>
        <time>2019-08-06T08:05:54Z</time>
      </trkpt>
      <trkpt lat="45.13228" lon="5.61254">
        <ele>1381.6845275278</ele>
        <time>2019-08-06T08:05:59Z</time>
      </trkpt>
      <trkpt lat="45.13216" lon="5.61253">
        <ele>1379.8774050084</ele>
        <time>2019-08-06T08:06:04Z</time>
      </trkpt>
      <trkpt lat="45.13208" lon="5.61253">
        <ele>1378.9961974943</ele>
        <time>2019-08-06T08:06:08Z</time>
      </trkpt>
      <trkpt lat="45.13194" lon="5.61254">
        <ele>1377.2484375446</ele>
        <time>2019-08-06T08:06:13Z</time>
      </trkpt>
      <trkpt lat="45.13176" lon="5.61255">
        <ele>1375.7602636356</ele>
        <time>2019-08-06T08:06:17Z</time>
      </trkpt>
      <trkpt lat="45.13162" lon="5.61257">
        <ele>1374.9207175721</ele>
        <time>2019-08-06T08:06:22Z</time>
      </trkpt>
      <trkpt lat="45.13149" lon="5.61259">
        <ele>1374.855300491</ele>
        <time>2019-08-06T08:06:27Z</time>
      </trkpt>
      <trkpt lat="45.13136" lon="5.6126">
        <ele>1374.2927127388</ele>
        <time>2019-08-06T08:06:31Z</time>
      </trkpt>
      <trkpt lat="45.13118" lon="5.61256">
        <ele>1373.2318483649</ele>
        <time>2019-08-06T08:06:35Z</time>
      </trkpt>
      <trkpt lat="45.13107" lon="5.61254">
        <ele>1375.9932272966</ele>
        <time>2019-08-06T08:06:40Z</time>
      </trkpt>
      <trkpt lat="45.13101" lon="5.61253">
        <ele>1375.3158884327</ele>
        <time>2019-08-06T08:06:44Z</time>
      </trkpt>
      <trkpt lat="45.13094" lon="5.61254">
        <ele>1374.911760963</ele>
        <time>2019-08-06T08:06:48Z</time>
      </trkpt>
      <trkpt lat="45.13087" lon="5.61254">
        <ele>1375.1958471528</ele>
        <time>2019-08-06T08:06:52Z</time>
      </trkpt>
      <trkpt lat="45.13077" lon="5.6125">
        <ele>1374.441523821</ele>
        <time>2019-08-06T08:06:57Z</time>
      </trkpt>
      <trkpt lat="45.1307" lon="5.61246">
        <ele>1374.6393775698</ele>
        <time>2019-08-06T08:07:00Z</time>
      </trkpt>
      <trkpt lat="45.1306" lon="5.61238">
        <ele>1373.9163403089</ele>
        <time>2019-08-06T08:07:05Z</time>
      </trkpt>
      <trkpt lat="45.13049" lon="5.61231">
        <ele>1374.0812872172</ele>
        <time>2019-08-06T08:07:10Z</time>
      </trkpt>
      <trkpt lat="45.13038" lon="5.61226">
        <ele>1375.3263667291</ele>
        <time>2019-08-06T08:07:15Z</time>
      </trkpt>
      <trkpt lat="45.13029" lon="5.61223">
        <ele>1376.2136164742</ele>
        <time>2019-08-06T08:07:19Z</time>
      </trkpt>
      <trkpt lat="45.13021" lon="5.6122">
        <ele>1376.797858978</ele>
        <time>2019-08-06T08:07:23Z</time>
      </trkpt>
      <trkpt lat="45.13011" lon="5.61215">
        <ele>1377.7609973883</ele>
        <time>2019-08-06T08:07:28Z</time>
      </trkpt>
      <trkpt lat="45.13003" lon="5.61209">
        <ele>1378.3641010688</ele>
        <time>2019-08-06T08:07:32Z</time>
      </trkpt>
      <trkpt lat="45.12999" lon="5.61208">
        <ele>1375.7282355437</ele>
        <time>2019-08-06T08:08:19Z</time>
      </trkpt>
      <trkpt lat="45.12993" lon="5.61201">
        <ele>1375.6308102436</ele>
        <time>2019-08-06T08:08:23Z</time>
      </trkpt>
      <trkpt lat="45.12986" lon="5.61194">
        <ele>1375.4380051563</ele>
        <time>2019-08-06T08:08:27Z</time>
      </trkpt>
      <trkpt lat="45.12978" lon="5.61182">
        <ele>1373.0127512216</ele>
        <time>2019-08-06T08:08:32Z</time>
      </trkpt>
      <trkpt lat="45.12972" lon="5.61169">
        <ele>1372.7237776978</ele>
        <time>2019-08-06T08:08:36Z</time>
      </trkpt>
      <trkpt lat="45.12964" lon="5.6115">
        <ele>1371.89298486</ele>
        <time>2019-08-06T08:08:40Z</time>
      </trkpt>
      <trkpt lat="45.12956" lon="5.61127">
        <ele>1369.4052367728</ele>
        <time>2019-08-06T08:08:45Z</time>
      </trkpt>
      <trkpt lat="45.12948" lon="5.61106">
        <ele>1368.6711894882</ele>
        <time>2019-08-06T08:08:50Z</time>
      </trkpt>
      <trkpt lat="45.12939" lon="5.61085">
        <ele>1368.0124867664</ele>
        <time>2019-08-06T08:08:54Z</time>
      </trkpt>
      <trkpt lat="45.1292" lon="5.61047">
        <ele>1366.9178369605</ele>
        <time>2019-08-06T08:08:59Z</time>
      </trkpt>
      <trkpt lat="45.12911" lon="5.61025">
        <ele>1365.3116464848</ele>
        <time>2019-08-06T08:09:03Z</time>
      </trkpt>
      <trkpt lat="45.12907" lon="5.61005">
        <ele>1361.3476778482</ele>
        <time>2019-08-06T08:09:07Z</time>
      </trkpt>
      <trkpt lat="45.12901" lon="5.60984">
        <ele>1358.4773716104</ele>
        <time>2019-08-06T08:09:11Z</time>
      </trkpt>
      <trkpt lat="45.12889" lon="5.60958">
        <ele>1356.8265309504</ele>
        <time>2019-08-06T08:09:15Z</time>
      </trkpt>
      <trkpt lat="45.12878" lon="5.60935">
        <ele>1351.3160718292</ele>
        <time>2019-08-06T08:09:19Z</time>
      </trkpt>
      <trkpt lat="45.12864" lon="5.60918">
        <ele>1345.0172432857</ele>
        <time>2019-08-06T08:09:23Z</time>
      </trkpt>
      <trkpt lat="45.12852" lon="5.60898">
        <ele>1339.0317128122</ele>
        <time>2019-08-06T08:09:28Z</time>
      </trkpt>
      <trkpt lat="45.12847" lon="5.60879">
        <ele>1332.4633261688</ele>
        <time>2019-08-06T08:09:31Z</time>
      </trkpt>
      <trkpt lat="45.1284" lon="5.6086">
        <ele>1323.5289694159</ele>
        <time>2019-08-06T08:09:36Z</time>
      </trkpt>
      <trkpt lat="45.12828" lon="5.60833">
        <ele>1316.6681190283</ele>
        <time>2019-08-06T08:09:40Z</time>
      </trkpt>
      <trkpt lat="45.12818" lon="5.60815">
        <ele>1308.1108891406</ele>
        <time>2019-08-06T08:09:45Z</time>
      </trkpt>
      <trkpt lat="45.12814" lon="5.60795">
        <ele>1298.9629424841</ele>
        <time>2019-08-06T08:09:50Z</time>
      </trkpt>
      <trkpt lat="45.1281" lon="5.60778">
        <ele>1293.3978044743</ele>
        <time>2019-08-06T08:09:54Z</time>
      </trkpt>
      <trkpt lat="45.12808" lon="5.60773">
        <ele>1292.9690962034</ele>
        <time>2019-08-06T08:09:59Z</time>
      </trkpt>
      <trkpt lat="45.12805" lon="5.60761">
        <ele>1287.5750964956</ele>
        <time>2019-08-06T08:10:04Z</time>
      </trkpt>
      <trkpt lat="45.12797" lon="5.60735">
        <ele>1281.5154437116</ele>
        <time>2019-08-06T08:10:08Z</time>
      </trkpt>
      <trkpt lat="45.12787" lon="5.60711">
        <ele>1276.5452109607</ele>
        <time>2019-08-06T08:10:12Z</time>
      </trkpt>
      <trkpt lat="45.12777" lon="5.60686">
        <ele>1274.5498299421</ele>
        <time>2019-08-06T08:10:16Z</time>
      </trkpt>
      <trkpt lat="45.12766" lon="5.60667">
        <ele>1271.0492894914</ele>
        <time>2019-08-06T08:10:20Z</time>
      </trkpt>
      <trkpt lat="45.12759" lon="5.60654">
        <ele>1267.5157959406</ele>
        <time>2019-08-06T08:10:23Z</time>
      </trkpt>
      <trkpt lat="45.12751" lon="5.60624">
        <ele>1266.9924133345</ele>
        <time>2019-08-06T08:10:27Z</time>
      </trkpt>
      <trkpt lat="45.12739" lon="5.60581">
        <ele>1262.9284997595</ele>
        <time>2019-08-06T08:10:32Z</time>
      </trkpt>
      <trkpt lat="45.12728" lon="5.60555">
        <ele>1260.5313763735</ele>
        <time>2019-08-06T08:10:36Z</time>
      </trkpt>
      <trkpt lat="45.12719" lon="5.6053">
        <ele>1257.2425134391</ele>
        <time>2019-08-06T08:10:40Z</time>
      </trkpt>
      <trkpt lat="45.12713" lon="5.60514">
        <ele>1254.6071262532</ele>
        <time>2019-08-06T08:10:43Z</time>
      </trkpt>
      <trkpt lat="45.12709" lon="5.60501">
        <ele>1254.1682583271</ele>
        <time>2019-08-06T08:10:47Z</time>
      </trkpt>
      <trkpt lat="45.12708" lon="5.60492">
        <ele>1252.9913758401</ele>
        <time>2019-08-06T08:10:51Z</time>
      </trkpt>
      <trkpt lat="45.1271" lon="5.60491">
        <ele>1251.5324464863</ele>
        <time>2019-08-06T08:10:55Z</time>
      </trkpt>
      <trkpt lat="45.12716" lon="5.60494">
        <ele>1250.087768236</ele>
        <time>2019-08-06T08:11:00Z</time>
      </trkpt>
      <trkpt lat="45.12721" lon="5.60497">
        <ele>1247.3518398797</ele>
        <time>2019-08-06T08:11:04Z</time>
      </trkpt>
      <trkpt lat="45.12728" lon="5.60502">
        <ele>1246.2222906994</ele>
        <time>2019-08-06T08:11:08Z</time>
      </trkpt>
      <trkpt lat="45.12734" lon="5.60507">
        <ele>1244.5894695307</ele>
        <time>2019-08-06T08:11:12Z</time>
      </trkpt>
      <trkpt lat="45.12737" lon="5.60512">
        <ele>1242.3885933275</ele>
        <time>2019-08-06T08:11:19Z</time>
      </trkpt>
      <trkpt lat="45.12741" lon="5.60515">
        <ele>1239.5801619919</ele>
        <time>2019-08-06T08:11:28Z</time>
      </trkpt>
      <trkpt lat="45.12748" lon="5.60523">
        <ele>1238.9696982764</ele>
        <time>2019-08-06T08:11:32Z</time>
      </trkpt>
      <trkpt lat="45.12767" lon="5.60542">
        <ele>1236.5649107436</ele>
        <time>2019-08-06T08:11:37Z</time>
      </trkpt>
      <trkpt lat="45.1279" lon="5.60557">
        <ele>1232.9263858555</ele>
        <time>2019-08-06T08:11:42Z</time>
      </trkpt>
      <trkpt lat="45.12801" lon="5.60568">
        <ele>1230.9623810807</ele>
        <time>2019-08-06T08:11:46Z</time>
      </trkpt>
      <trkpt lat="45.12806" lon="5.60573">
        <ele>1225.4242446482</ele>
        <time>2019-08-06T08:11:49Z</time>
      </trkpt>
      <trkpt lat="45.12822" lon="5.60598">
        <ele>1219.6612176664</ele>
        <time>2019-08-06T08:11:54Z</time>
      </trkpt>
      <trkpt lat="45.1284" lon="5.60617">
        <ele>1215.9425366394</ele>
        <time>2019-08-06T08:11:59Z</time>
      </trkpt>
      <trkpt lat="45.12855" lon="5.60637">
        <ele>1212.0459972919</ele>
        <time>2019-08-06T08:12:03Z</time>
      </trkpt>
      <trkpt lat="45.12868" lon="5.60661">
        <ele>1206.3575814124</ele>
        <time>2019-08-06T08:12:07Z</time>
      </trkpt>
      <trkpt lat="45.12885" lon="5.60678">
        <ele>1209.195683288</ele>
        <time>2019-08-06T08:12:11Z</time>
      </trkpt>
      <trkpt lat="45.12906" lon="5.60676">
        <ele>1204.9382634698</ele>
        <time>2019-08-06T08:12:15Z</time>
      </trkpt>
      <trkpt lat="45.12934" lon="5.60664">
        <ele>1205.0164196221</ele>
        <time>2019-08-06T08:12:20Z</time>
      </trkpt>
      <trkpt lat="45.12957" lon="5.60673">
        <ele>1201.5335457117</ele>
        <time>2019-08-06T08:12:24Z</time>
      </trkpt>
      <trkpt lat="45.12972" lon="5.60691">
        <ele>1198.74705265</ele>
        <time>2019-08-06T08:12:29Z</time>
      </trkpt>
      <trkpt lat="45.12983" lon="5.60721">
        <ele>1192.4400183383</ele>
        <time>2019-08-06T08:12:34Z</time>
      </trkpt>
      <trkpt lat="45.12987" lon="5.60735">
        <ele>1191.4422934456</ele>
        <time>2019-08-06T08:12:38Z</time>
      </trkpt>
      <trkpt lat="45.12992" lon="5.6074">
        <ele>1188.8227366767</ele>
        <time>2019-08-06T08:12:42Z</time>
      </trkpt>
      <trkpt lat="45.12997" lon="5.60743">
        <ele>1185.5310459877</ele>
        <time>2019-08-06T08:12:45Z</time>
      </trkpt>
      <trkpt lat="45.13016" lon="5.6076">
        <ele>1181.4061202538</ele>
        <time>2019-08-06T08:12:49Z</time>
      </trkpt>
      <trkpt lat="45.13029" lon="5.60779">
        <ele>1181.6221175662</ele>
        <time>2019-08-06T08:12:53Z</time>
      </trkpt>
      <trkpt lat="45.13042" lon="5.60801">
        <ele>1172.9453520581</ele>
        <time>2019-08-06T08:12:58Z</time>
      </trkpt>
      <trkpt lat="45.13051" lon="5.60805">
        <ele>1174.603643656</ele>
        <time>2019-08-06T08:13:02Z</time>
      </trkpt>
      <trkpt lat="45.13064" lon="5.60801">
        <ele>1169.8841787121</ele>
        <time>2019-08-06T08:13:07Z</time>
      </trkpt>
      <trkpt lat="45.13068" lon="5.60797">
        <ele>1167.4194888014</ele>
        <time>2019-08-06T08:13:12Z</time>
      </trkpt>
      <trkpt lat="45.13086" lon="5.60785">
        <ele>1165.1822577664</ele>
        <time>2019-08-06T08:13:16Z</time>
      </trkpt>
      <trkpt lat="45.13103" lon="5.60773">
        <ele>1161.3966381842</ele>
        <time>2019-08-06T08:13:20Z</time>
      </trkpt>
      <trkpt lat="45.13112" lon="5.60749">
        <ele>1155.4979336171</ele>
        <time>2019-08-06T08:13:25Z</time>
      </trkpt>
      <trkpt lat="45.1312" lon="5.60728">
        <ele>1152.4441743299</ele>
        <time>2019-08-06T08:13:29Z</time>
      </trkpt>
      <trkpt lat="45.13127" lon="5.60713">
        <ele>1146.7511936955</ele>
        <time>2019-08-06T08:13:33Z</time>
      </trkpt>
      <trkpt lat="45.13129" lon="5.60702">
        <ele>1143.8952781284</ele>
        <time>2019-08-06T08:13:36Z</time>
      </trkpt>
      <trkpt lat="45.13138" lon="5.60684">
        <ele>1141.3127077666</ele>
        <time>2019-08-06T08:13:39Z</time>
      </trkpt>
      <trkpt lat="45.13146" lon="5.60653">
        <ele>1135.7365776572</ele>
        <time>2019-08-06T08:13:44Z</time>
      </trkpt>
      <trkpt lat="45.13152" lon="5.60628">
        <ele>1133.6566537</ele>
        <time>2019-08-06T08:13:48Z</time>
      </trkpt>
      <trkpt lat="45.13164" lon="5.60598">
        <ele>1127.0117803068</ele>
        <time>2019-08-06T08:13:53Z</time>
      </trkpt>
      <trkpt lat="45.13173" lon="5.60573">
        <ele>1125.2135803699</ele>
        <time>2019-08-06T08:13:57Z</time>
      </trkpt>
      <trkpt lat="45.13184" lon="5.60544">
        <ele>1119.0369601425</ele>
        <time>2019-08-06T08:14:02Z</time>
      </trkpt>
      <trkpt lat="45.13193" lon="5.60522">
        <ele>1112.0291401051</ele>
        <time>2019-08-06T08:14:06Z</time>
      </trkpt>
      <trkpt lat="45.13198" lon="5.60502">
        <ele>1109.4884696479</ele>
        <time>2019-08-06T08:14:10Z</time>
      </trkpt>
      <trkpt lat="45.13203" lon="5.60478">
        <ele>1105.2262963428</ele>
        <time>2019-08-06T08:14:15Z</time>
      </trkpt>
      <trkpt lat="45.13216" lon="5.6046">
        <ele>1100.4298250554</ele>
        <time>2019-08-06T08:14:19Z</time>
      </trkpt>
      <trkpt lat="45.13235" lon="5.60444">
        <ele>1098.2206256659</ele>
        <time>2019-08-06T08:14:24Z</time>
      </trkpt>
      <trkpt lat="45.13243" lon="5.60434">
        <ele>1095.0781046421</ele>
        <time>2019-08-06T08:14:28Z</time>
      </trkpt>
      <trkpt lat="45.13265" lon="5.60427">
        <ele>1088.6697373702</ele>
        <time>2019-08-06T08:14:33Z</time>
      </trkpt>
      <trkpt lat="45.13281" lon="5.60431">
        <ele>1085.2205136004</ele>
        <time>2019-08-06T08:14:36Z</time>
      </trkpt>
      <trkpt lat="45.13312" lon="5.60416">
        <ele>1078.9754528182</ele>
        <time>2019-08-06T08:14:41Z</time>
      </trkpt>
      <trkpt lat="45.13339" lon="5.60407">
        <ele>1072.1175688827</ele>
        <time>2019-08-06T08:14:46Z</time>
      </trkpt>
      <trkpt lat="45.1335" lon="5.60432">
        <ele>1072.2253737769</ele>
        <time>2019-08-06T08:14:50Z</time>
      </trkpt>
      <trkpt lat="45.13359" lon="5.60457">
        <ele>1072.8556064398</ele>
        <time>2019-08-06T08:14:55Z</time>
      </trkpt>
      <trkpt lat="45.1337" lon="5.60472">
        <ele>1073.2174882916</ele>
        <time>2019-08-06T08:14:59Z</time>
      </trkpt>
      <trkpt lat="45.13379" lon="5.60479">
        <ele>1073.144898192</ele>
        <time>2019-08-06T08:15:02Z</time>
      </trkpt>
      <trkpt lat="45.13392" lon="5.60485">
        <ele>1073.2407276063</ele>
        <time>2019-08-06T08:15:06Z</time>
      </trkpt>
      <trkpt lat="45.13407" lon="5.60491">
        <ele>1074.0187666738</ele>
        <time>2019-08-06T08:15:11Z</time>
      </trkpt>
      <trkpt lat="45.13421" lon="5.60498">
        <ele>1074.6183123016</ele>
        <time>2019-08-06T08:15:15Z</time>
      </trkpt>
      <trkpt lat="45.13434" lon="5.60505">
        <ele>1075.3398891877</ele>
        <time>2019-08-06T08:15:19Z</time>
      </trkpt>
      <trkpt lat="45.13447" lon="5.60513">
        <ele>1076.3701006023</ele>
        <time>2019-08-06T08:15:23Z</time>
      </trkpt>
      <trkpt lat="45.13462" lon="5.60523">
        <ele>1076.7828934572</ele>
        <time>2019-08-06T08:15:28Z</time>
      </trkpt>
      <trkpt lat="45.13474" lon="5.60531">
        <ele>1077.4654548004</ele>
        <time>2019-08-06T08:15:32Z</time>
      </trkpt>
      <trkpt lat="45.13486" lon="5.6054">
        <ele>1077.4588381399</ele>
        <time>2019-08-06T08:15:36Z</time>
      </trkpt>
      <trkpt lat="45.135" lon="5.6055">
        <ele>1078.3631502009</ele>
        <time>2019-08-06T08:15:41Z</time>
      </trkpt>
      <trkpt lat="45.1351" lon="5.60556">
        <ele>1079.072453158</ele>
        <time>2019-08-06T08:15:44Z</time>
      </trkpt>
      <trkpt lat="45.13524" lon="5.60561">
        <ele>1079.6743069258</ele>
        <time>2019-08-06T08:15:48Z</time>
      </trkpt>
      <trkpt lat="45.13537" lon="5.6056">
        <ele>1080.1022368697</ele>
        <time>2019-08-06T08:15:52Z</time>
      </trkpt>
      <trkpt lat="45.13549" lon="5.60556">
        <ele>1080.9103640697</ele>
        <time>2019-08-06T08:15:56Z</time>
      </trkpt>
      <trkpt lat="45.13567" lon="5.60548">
        <ele>1081.9230603795</ele>
        <time>2019-08-06T08:16:01Z</time>
      </trkpt>
      <trkpt lat="45.13575" lon="5.60544">
        <ele>1082.5399780086</ele>
        <time>2019-08-06T08:16:04Z</time>
      </trkpt>
      <trkpt lat="45.13588" lon="5.6054">
        <ele>1083.4718061122</ele>
        <time>2019-08-06T08:16:08Z</time>
      </trkpt>
      <trkpt lat="45.13601" lon="5.60539">
        <ele>1084.1454398697</ele>
        <time>2019-08-06T08:16:12Z</time>
      </trkpt>
      <trkpt lat="45.13608" lon="5.60538">
        <ele>1084.6170917973</ele>
        <time>2019-08-06T08:16:15Z</time>
      </trkpt>
      <trkpt lat="45.13631" lon="5.60543">
        <ele>1085.4738561017</ele>
        <time>2019-08-06T08:16:20Z</time>
      </trkpt>
      <trkpt lat="45.13645" lon="5.60541">
        <ele>1085.7986204022</ele>
        <time>2019-08-06T08:16:24Z</time>
      </trkpt>
      <trkpt lat="45.13654" lon="5.60536">
        <ele>1086.5267903445</ele>
        <time>2019-08-06T08:16:27Z</time>
      </trkpt>
      <trkpt lat="45.13665" lon="5.60523">
        <ele>1087.0281907017</ele>
        <time>2019-08-06T08:16:32Z</time>
      </trkpt>
      <trkpt lat="45.13675" lon="5.60509">
        <ele>1088.092461915</ele>
        <time>2019-08-06T08:16:36Z</time>
      </trkpt>
      <trkpt lat="45.13683" lon="5.60499">
        <ele>1088.5522841286</ele>
        <time>2019-08-06T08:16:39Z</time>
      </trkpt>
      <trkpt lat="45.13692" lon="5.60485">
        <ele>1089.3831705468</ele>
        <time>2019-08-06T08:16:43Z</time>
      </trkpt>
      <trkpt lat="45.13705" lon="5.60468">
        <ele>1090.1943990904</ele>
        <time>2019-08-06T08:16:47Z</time>
      </trkpt>
      <trkpt lat="45.13717" lon="5.60456">
        <ele>1090.4193849195</ele>
        <time>2019-08-06T08:16:51Z</time>
      </trkpt>
      <trkpt lat="45.1373" lon="5.60445">
        <ele>1090.7593053452</ele>
        <time>2019-08-06T08:16:55Z</time>
      </trkpt>
      <trkpt lat="45.1374" lon="5.6044">
        <ele>1090.7812022995</ele>
        <time>2019-08-06T08:16:58Z</time>
      </trkpt>
      <trkpt lat="45.13751" lon="5.60436">
        <ele>1090.1585944929</ele>
        <time>2019-08-06T08:17:01Z</time>
      </trkpt>
      <trkpt lat="45.13772" lon="5.60436">
        <ele>1090.2638841416</ele>
        <time>2019-08-06T08:17:06Z</time>
      </trkpt>
      <trkpt lat="45.13783" lon="5.6044">
        <ele>1090.4794044166</ele>
        <time>2019-08-06T08:17:09Z</time>
      </trkpt>
      <trkpt lat="45.13802" lon="5.60454">
        <ele>1090.8829672927</ele>
        <time>2019-08-06T08:17:14Z</time>
      </trkpt>
      <trkpt lat="45.13819" lon="5.60476">
        <ele>1091.4523597103</ele>
        <time>2019-08-06T08:17:19Z</time>
      </trkpt>
      <trkpt lat="45.13835" lon="5.60499">
        <ele>1092.1380566557</ele>
        <time>2019-08-06T08:17:24Z</time>
      </trkpt>
      <trkpt lat="45.13846" lon="5.60513">
        <ele>1092.3726675162</ele>
        <time>2019-08-06T08:17:27Z</time>
      </trkpt>
      <trkpt lat="45.13863" lon="5.60538">
        <ele>1092.5169561663</ele>
        <time>2019-08-06T08:17:32Z</time>
      </trkpt>
      <trkpt lat="45.13877" lon="5.60557">
        <ele>1092.9125454138</ele>
        <time>2019-08-06T08:17:36Z</time>
      </trkpt>
      <trkpt lat="45.13891" lon="5.60577">
        <ele>1093.1623368715</ele>
        <time>2019-08-06T08:17:40Z</time>
      </trkpt>
      <trkpt lat="45.13906" lon="5.60596">
        <ele>1093.2076274895</ele>
        <time>2019-08-06T08:17:44Z</time>
      </trkpt>
      <trkpt lat="45.13929" lon="5.60604">
        <ele>1093.3492505384</ele>
        <time>2019-08-06T08:17:49Z</time>
      </trkpt>
      <trkpt lat="45.13953" lon="5.60596">
        <ele>1092.6491289433</ele>
        <time>2019-08-06T08:17:54Z</time>
      </trkpt>
      <trkpt lat="45.13972" lon="5.60581">
        <ele>1092.408660772</ele>
        <time>2019-08-06T08:17:58Z</time>
      </trkpt>
      <trkpt lat="45.13991" lon="5.60569">
        <ele>1092.511786086</ele>
        <time>2019-08-06T08:18:02Z</time>
      </trkpt>
      <trkpt lat="45.14016" lon="5.60566">
        <ele>1091.9379791485</ele>
        <time>2019-08-06T08:18:07Z</time>
      </trkpt>
      <trkpt lat="45.14031" lon="5.60568">
        <ele>1091.7491821331</ele>
        <time>2019-08-06T08:18:10Z</time>
      </trkpt>
      <trkpt lat="45.14055" lon="5.60573">
        <ele>1091.7001582266</ele>
        <time>2019-08-06T08:18:15Z</time>
      </trkpt>
      <trkpt lat="45.14075" lon="5.60577">
        <ele>1091.5753154161</ele>
        <time>2019-08-06T08:18:19Z</time>
      </trkpt>
      <trkpt lat="45.14094" lon="5.60583">
        <ele>1090.4225784345</ele>
        <time>2019-08-06T08:18:23Z</time>
      </trkpt>
      <trkpt lat="45.14118" lon="5.60594">
        <ele>1089.0265884339</ele>
        <time>2019-08-06T08:18:27Z</time>
      </trkpt>
      <trkpt lat="45.14141" lon="5.60609">
        <ele>1088.435396874</ele>
        <time>2019-08-06T08:18:31Z</time>
      </trkpt>
      <trkpt lat="45.14164" lon="5.60645">
        <ele>1087.8631337186</ele>
        <time>2019-08-06T08:18:36Z</time>
      </trkpt>
      <trkpt lat="45.14171" lon="5.60683">
        <ele>1088.3544576775</ele>
        <time>2019-08-06T08:18:40Z</time>
      </trkpt>
      <trkpt lat="45.14187" lon="5.60709">
        <ele>1090.1972642969</ele>
        <time>2019-08-06T08:18:45Z</time>
      </trkpt>
      <trkpt lat="45.14208" lon="5.6071">
        <ele>1091.9406713461</ele>
        <time>2019-08-06T08:18:49Z</time>
      </trkpt>
      <trkpt lat="45.14227" lon="5.6071">
        <ele>1092.7260062402</ele>
        <time>2019-08-06T08:18:53Z</time>
      </trkpt>
      <trkpt lat="45.14246" lon="5.60708">
        <ele>1092.6711949046</ele>
        <time>2019-08-06T08:18:57Z</time>
      </trkpt>
      <trkpt lat="45.14264" lon="5.60704">
        <ele>1093.4200067241</ele>
        <time>2019-08-06T08:19:01Z</time>
      </trkpt>
      <trkpt lat="45.1428" lon="5.60702">
        <ele>1095.1205071385</ele>
        <time>2019-08-06T08:19:05Z</time>
      </trkpt>
      <trkpt lat="45.14294" lon="5.60699">
        <ele>1093.7555513912</ele>
        <time>2019-08-06T08:19:09Z</time>
      </trkpt>
      <trkpt lat="45.14315" lon="5.60687">
        <ele>1094.0069462032</ele>
        <time>2019-08-06T08:19:13Z</time>
      </trkpt>
      <trkpt lat="45.14337" lon="5.60674">
        <ele>1091.7782101884</ele>
        <time>2019-08-06T08:19:17Z</time>
      </trkpt>
      <trkpt lat="45.14362" lon="5.60662">
        <ele>1092.5105064137</ele>
        <time>2019-08-06T08:19:21Z</time>
      </trkpt>
      <trkpt lat="45.14375" lon="5.6066">
        <ele>1092.1270272245</ele>
        <time>2019-08-06T08:19:24Z</time>
      </trkpt>
      <trkpt lat="45.14399" lon="5.60665">
        <ele>1093.1443313028</ele>
        <time>2019-08-06T08:19:29Z</time>
      </trkpt>
      <trkpt lat="45.14419" lon="5.60675">
        <ele>1093.0781882411</ele>
        <time>2019-08-06T08:19:33Z</time>
      </trkpt>
      <trkpt lat="45.14436" lon="5.60686">
        <ele>1092.7041680087</ele>
        <time>2019-08-06T08:19:37Z</time>
      </trkpt>
      <trkpt lat="45.14447" lon="5.60695">
        <ele>1095.0075529584</ele>
        <time>2019-08-06T08:19:42Z</time>
      </trkpt>
      <trkpt lat="45.14453" lon="5.607">
        <ele>1096.3928957292</ele>
        <time>2019-08-06T08:19:46Z</time>
      </trkpt>
      <trkpt lat="45.14459" lon="5.60705">
        <ele>1096.754138026</ele>
        <time>2019-08-06T08:19:50Z</time>
      </trkpt>
      <trkpt lat="45.14466" lon="5.6071">
        <ele>1097.7180129565</ele>
        <time>2019-08-06T08:19:55Z</time>
      </trkpt>
      <trkpt lat="45.14471" lon="5.60713">
        <ele>1098.9329856866</ele>
        <time>2019-08-06T08:19:59Z</time>
      </trkpt>
      <trkpt lat="45.1448" lon="5.60717">
        <ele>1100.4798619038</ele>
        <time>2019-08-06T08:20:04Z</time>
      </trkpt>
      <trkpt lat="45.14485" lon="5.6072">
        <ele>1101.1165110059</ele>
        <time>2019-08-06T08:20:08Z</time>
      </trkpt>
      <trkpt lat="45.14489" lon="5.60722">
        <ele>1102.1377522319</ele>
        <time>2019-08-06T08:20:11Z</time>
      </trkpt>
      <trkpt lat="45.14493" lon="5.60724">
        <ele>1103.1319674462</ele>
        <time>2019-08-06T08:20:15Z</time>
      </trkpt>
      <trkpt lat="45.14502" lon="5.60728">
        <ele>1105.0463710927</ele>
        <time>2019-08-06T08:20:19Z</time>
      </trkpt>
      <trkpt lat="45.14508" lon="5.60732">
        <ele>1105.3886903685</ele>
        <time>2019-08-06T08:20:24Z</time>
      </trkpt>
      <trkpt lat="45.14513" lon="5.60735">
        <ele>1106.551785258</ele>
        <time>2019-08-06T08:20:28Z</time>
      </trkpt>
      <trkpt lat="45.14518" lon="5.60737">
        <ele>1107.1235450657</ele>
        <time>2019-08-06T08:20:31Z</time>
      </trkpt>
      <trkpt lat="45.14523" lon="5.6074">
        <ele>1107.8961739721</ele>
        <time>2019-08-06T08:20:35Z</time>
      </trkpt>
      <trkpt lat="45.14529" lon="5.60744">
        <ele>1108.7473780798</ele>
        <time>2019-08-06T08:20:39Z</time>
      </trkpt>
      <trkpt lat="45.14535" lon="5.60748">
        <ele>1110.3052673165</ele>
        <time>2019-08-06T08:20:44Z</time>
      </trkpt>
      <trkpt lat="45.1454" lon="5.60753">
        <ele>1111.1771278108</ele>
        <time>2019-08-06T08:20:48Z</time>
      </trkpt>
      <trkpt lat="45.14547" lon="5.60759">
        <ele>1112.7977599663</ele>
        <time>2019-08-06T08:20:53Z</time>
      </trkpt>
      <trkpt lat="45.1455" lon="5.60766">
        <ele>1112.8665969025</ele>
        <time>2019-08-06T08:20:57Z</time>
      </trkpt>
      <trkpt lat="45.14551" lon="5.60772">
        <ele>1112.5869592031</ele>
        <time>2019-08-06T08:21:02Z</time>
      </trkpt>
      <trkpt lat="45.14549" lon="5.60778">
        <ele>1113.1401522361</ele>
        <time>2019-08-06T08:21:42Z</time>
      </trkpt>
      <trkpt lat="45.14536" lon="5.60794">
        <ele>1110.9634459649</ele>
        <time>2019-08-06T08:21:46Z</time>
      </trkpt>
      <trkpt lat="45.1452" lon="5.60816">
        <ele>1108.6902477751</ele>
        <time>2019-08-06T08:21:50Z</time>
      </trkpt>
      <trkpt lat="45.14499" lon="5.60845">
        <ele>1105.804046979</ele>
        <time>2019-08-06T08:21:54Z</time>
      </trkpt>
      <trkpt lat="45.14472" lon="5.60876">
        <ele>1104.2594840698</ele>
        <time>2019-08-06T08:21:58Z</time>
      </trkpt>
      <trkpt lat="45.14429" lon="5.60918">
        <ele>1103.6154940939</ele>
        <time>2019-08-06T08:22:03Z</time>
      </trkpt>
      <trkpt lat="45.14404" lon="5.60959">
        <ele>1103.0001170112</ele>
        <time>2019-08-06T08:22:07Z</time>
      </trkpt>
      <trkpt lat="45.14387" lon="5.61004">
        <ele>1098.0187460232</ele>
        <time>2019-08-06T08:22:11Z</time>
      </trkpt>
      <trkpt lat="45.14397" lon="5.61016">
        <ele>1091.562341229</ele>
        <time>2019-08-06T08:22:15Z</time>
      </trkpt>
      <trkpt lat="45.14431" lon="5.61012">
        <ele>1093.9754590904</ele>
        <time>2019-08-06T08:22:19Z</time>
      </trkpt>
      <trkpt lat="45.14461" lon="5.61018">
        <ele>1092.0252858585</ele>
        <time>2019-08-06T08:22:22Z</time>
      </trkpt>
      <trkpt lat="45.14506" lon="5.61035">
        <ele>1089.3074840172</ele>
        <time>2019-08-06T08:22:27Z</time>
      </trkpt>
      <trkpt lat="45.1454" lon="5.61042">
        <ele>1086.301615357</ele>
        <time>2019-08-06T08:22:31Z</time>
      </trkpt>
      <trkpt lat="45.14568" lon="5.61046">
        <ele>1086.7012631326</ele>
        <time>2019-08-06T08:22:34Z</time>
      </trkpt>
      <trkpt lat="45.14603" lon="5.61058">
        <ele>1085.4192544282</ele>
        <time>2019-08-06T08:22:39Z</time>
      </trkpt>
      <trkpt lat="45.14628" lon="5.61083">
        <ele>1080.9542674172</ele>
        <time>2019-08-06T08:22:44Z</time>
      </trkpt>
      <trkpt lat="45.14624" lon="5.61116">
        <ele>1078.2558207865</ele>
        <time>2019-08-06T08:22:49Z</time>
      </trkpt>
      <trkpt lat="45.14595" lon="5.61151">
        <ele>1074.0646181885</ele>
        <time>2019-08-06T08:22:54Z</time>
      </trkpt>
      <trkpt lat="45.14581" lon="5.612">
        <ele>1067.1272632915</ele>
        <time>2019-08-06T08:22:58Z</time>
      </trkpt>
      <trkpt lat="45.14572" lon="5.61235">
        <ele>1066.8263382161</ele>
        <time>2019-08-06T08:23:01Z</time>
      </trkpt>
      <trkpt lat="45.14554" lon="5.61279">
        <ele>1061.569115698</ele>
        <time>2019-08-06T08:23:05Z</time>
      </trkpt>
      <trkpt lat="45.14528" lon="5.61317">
        <ele>1060.2806530315</ele>
        <time>2019-08-06T08:23:09Z</time>
      </trkpt>
      <trkpt lat="45.14493" lon="5.61374">
        <ele>1054.5913183452</ele>
        <time>2019-08-06T08:23:14Z</time>
      </trkpt>
      <trkpt lat="45.14459" lon="5.61438">
        <ele>1056.475738236</ele>
        <time>2019-08-06T08:23:19Z</time>
      </trkpt>
      <trkpt lat="45.14457" lon="5.61477">
        <ele>1051.7257534519</ele>
        <time>2019-08-06T08:23:23Z</time>
      </trkpt>
      <trkpt lat="45.14473" lon="5.6153">
        <ele>1046.6826689227</ele>
        <time>2019-08-06T08:23:28Z</time>
      </trkpt>
      <trkpt lat="45.14486" lon="5.6158">
        <ele>1044.5654359999</ele>
        <time>2019-08-06T08:23:32Z</time>
      </trkpt>
      <trkpt lat="45.14508" lon="5.61622">
        <ele>1043.6331953094</ele>
        <time>2019-08-06T08:23:36Z</time>
      </trkpt>
      <trkpt lat="45.14524" lon="5.61665">
        <ele>1044.4354334403</ele>
        <time>2019-08-06T08:23:41Z</time>
      </trkpt>
      <trkpt lat="45.14528" lon="5.61685">
        <ele>1041.9565706453</ele>
        <time>2019-08-06T08:23:44Z</time>
      </trkpt>
      <trkpt lat="45.14533" lon="5.61719">
        <ele>1041.015185602</ele>
        <time>2019-08-06T08:23:49Z</time>
      </trkpt>
      <trkpt lat="45.14536" lon="5.61746">
        <ele>1040.9514188389</ele>
        <time>2019-08-06T08:23:53Z</time>
      </trkpt>
      <trkpt lat="45.14531" lon="5.6178">
        <ele>1040.6390706597</ele>
        <time>2019-08-06T08:23:58Z</time>
      </trkpt>
      <trkpt lat="45.14524" lon="5.61814">
        <ele>1037.7013537399</ele>
        <time>2019-08-06T08:24:02Z</time>
      </trkpt>
      <trkpt lat="45.14524" lon="5.61838">
        <ele>1038.8940189529</ele>
        <time>2019-08-06T08:24:07Z</time>
      </trkpt>
      <trkpt lat="45.14524" lon="5.61848">
        <ele>1040.592887815</ele>
        <time>2019-08-06T08:24:10Z</time>
      </trkpt>
      <trkpt lat="45.1453" lon="5.61863">
        <ele>1042.2903631241</ele>
        <time>2019-08-06T08:24:14Z</time>
      </trkpt>
      <trkpt lat="45.14536" lon="5.61877">
        <ele>1043.8415123143</ele>
        <time>2019-08-06T08:24:18Z</time>
      </trkpt>
      <trkpt lat="45.14543" lon="5.61892">
        <ele>1048.1567908462</ele>
        <time>2019-08-06T08:24:23Z</time>
      </trkpt>
      <trkpt lat="45.14548" lon="5.61902">
        <ele>1049.8157833425</ele>
        <time>2019-08-06T08:24:26Z</time>
      </trkpt>
      <trkpt lat="45.14553" lon="5.61913">
        <ele>1048.9817321586</ele>
        <time>2019-08-06T08:24:30Z</time>
      </trkpt>
      <trkpt lat="45.14563" lon="5.61925">
        <ele>1050.4439388423</ele>
        <time>2019-08-06T08:24:35Z</time>
      </trkpt>
      <trkpt lat="45.14576" lon="5.61935">
        <ele>1049.3294892795</ele>
        <time>2019-08-06T08:24:40Z</time>
      </trkpt>
      <trkpt lat="45.14586" lon="5.61942">
        <ele>1045.7927955054</ele>
        <time>2019-08-06T08:24:44Z</time>
      </trkpt>
      <trkpt lat="45.14599" lon="5.61947">
        <ele>1047.8522141924</ele>
        <time>2019-08-06T08:24:48Z</time>
      </trkpt>
      <trkpt lat="45.1462" lon="5.61951">
        <ele>1048.3602233405</ele>
        <time>2019-08-06T08:24:53Z</time>
      </trkpt>
      <trkpt lat="45.14632" lon="5.61951">
        <ele>1047.4379437705</ele>
        <time>2019-08-06T08:24:56Z</time>
      </trkpt>
      <trkpt lat="45.14645" lon="5.6195">
        <ele>1050.5426166859</ele>
        <time>2019-08-06T08:25:01Z</time>
      </trkpt>
      <trkpt lat="45.14652" lon="5.61952">
        <ele>1049.1569609105</ele>
        <time>2019-08-06T08:25:04Z</time>
      </trkpt>
      <trkpt lat="45.14662" lon="5.61954">
        <ele>1049.0843426289</ele>
        <time>2019-08-06T08:25:08Z</time>
      </trkpt>
      <trkpt lat="45.14671" lon="5.61956">
        <ele>1049.6009319084</ele>
        <time>2019-08-06T08:25:12Z</time>
      </trkpt>
      <trkpt lat="45.14678" lon="5.61957">
        <ele>1049.0884115387</ele>
        <time>2019-08-06T08:25:16Z</time>
      </trkpt>
      <trkpt lat="45.1469" lon="5.61963">
        <ele>1047.5477772158</ele>
        <time>2019-08-06T08:25:21Z</time>
      </trkpt>
      <trkpt lat="45.14696" lon="5.61966">
        <ele>1047.4890242334</ele>
        <time>2019-08-06T08:25:24Z</time>
      </trkpt>
      <trkpt lat="45.14707" lon="5.61972">
        <ele>1049.133916504</ele>
        <time>2019-08-06T08:25:28Z</time>
      </trkpt>
      <trkpt lat="45.14719" lon="5.61981">
        <ele>1052.2479876293</ele>
        <time>2019-08-06T08:25:33Z</time>
      </trkpt>
      <trkpt lat="45.14727" lon="5.61988">
        <ele>1051.3777097724</ele>
        <time>2019-08-06T08:25:36Z</time>
      </trkpt>
      <trkpt lat="45.14739" lon="5.61995">
        <ele>1051.4385624158</ele>
        <time>2019-08-06T08:25:41Z</time>
      </trkpt>
      <trkpt lat="45.1475" lon="5.62">
        <ele>1054.188968908</ele>
        <time>2019-08-06T08:25:45Z</time>
      </trkpt>
      <trkpt lat="45.14759" lon="5.62002">
        <ele>1055.2143809283</ele>
        <time>2019-08-06T08:25:49Z</time>
      </trkpt>
      <trkpt lat="45.14767" lon="5.62001">
        <ele>1054.12373569</ele>
        <time>2019-08-06T08:25:53Z</time>
      </trkpt>
      <trkpt lat="45.14777" lon="5.62">
        <ele>1052.9871284106</ele>
        <time>2019-08-06T08:25:58Z</time>
      </trkpt>
      <trkpt lat="45.14785" lon="5.61997">
        <ele>1053.6974939251</ele>
        <time>2019-08-06T08:26:02Z</time>
      </trkpt>
      <trkpt lat="45.14791" lon="5.61995">
        <ele>1055.7078219026</ele>
        <time>2019-08-06T08:26:05Z</time>
      </trkpt>
      <trkpt lat="45.14801" lon="5.61991">
        <ele>1058.0933940522</ele>
        <time>2019-08-06T08:26:10Z</time>
      </trkpt>
      <trkpt lat="45.14807" lon="5.61989">
        <ele>1058.523832936</ele>
        <time>2019-08-06T08:26:13Z</time>
      </trkpt>
      <trkpt lat="45.14814" lon="5.61986">
        <ele>1058.6180652896</ele>
        <time>2019-08-06T08:26:17Z</time>
      </trkpt>
      <trkpt lat="45.14824" lon="5.61983">
        <ele>1059.1832665307</ele>
        <time>2019-08-06T08:26:22Z</time>
      </trkpt>
      <trkpt lat="45.14831" lon="5.61983">
        <ele>1058.7584173577</ele>
        <time>2019-08-06T08:26:26Z</time>
      </trkpt>
      <trkpt lat="45.1484" lon="5.61982">
        <ele>1059.3911321945</ele>
        <time>2019-08-06T08:26:30Z</time>
      </trkpt>
      <trkpt lat="45.14852" lon="5.61981">
        <ele>1060.2006463424</ele>
        <time>2019-08-06T08:26:35Z</time>
      </trkpt>
      <trkpt lat="45.14859" lon="5.61981">
        <ele>1060.3103206417</ele>
        <time>2019-08-06T08:26:38Z</time>
      </trkpt>
      <trkpt lat="45.1487" lon="5.61979">
        <ele>1060.8112169825</ele>
        <time>2019-08-06T08:26:42Z</time>
      </trkpt>
      <trkpt lat="45.14884" lon="5.61977">
        <ele>1060.1976176376</ele>
        <time>2019-08-06T08:26:46Z</time>
      </trkpt>
      <trkpt lat="45.149" lon="5.61975">
        <ele>1060.381875201</ele>
        <time>2019-08-06T08:26:51Z</time>
      </trkpt>
      <trkpt lat="45.14917" lon="5.61973">
        <ele>1060.5464507032</ele>
        <time>2019-08-06T08:26:56Z</time>
      </trkpt>
      <trkpt lat="45.14938" lon="5.6197">
        <ele>1059.8581826145</ele>
        <time>2019-08-06T08:27:00Z</time>
      </trkpt>
      <trkpt lat="45.14942" lon="5.61969">
        <ele>1061.6049091044</ele>
        <time>2019-08-06T08:27:03Z</time>
      </trkpt>
      <trkpt lat="45.1495" lon="5.61967">
        <ele>1063.0635947919</ele>
        <time>2019-08-06T08:27:07Z</time>
      </trkpt>
      <trkpt lat="45.14959" lon="5.61966">
        <ele>1067.1488928449</ele>
        <time>2019-08-06T08:27:11Z</time>
      </trkpt>
      <trkpt lat="45.14967" lon="5.61964">
        <ele>1067.6030079078</ele>
        <time>2019-08-06T08:27:15Z</time>
      </trkpt>
      <trkpt lat="45.14978" lon="5.61963">
        <ele>1068.8117021666</ele>
        <time>2019-08-06T08:27:20Z</time>
      </trkpt>
      <trkpt lat="45.14986" lon="5.61963">
        <ele>1069.7909441143</ele>
        <time>2019-08-06T08:27:24Z</time>
      </trkpt>
      <trkpt lat="45.14992" lon="5.61964">
        <ele>1070.4035048705</ele>
        <time>2019-08-06T08:27:27Z</time>
      </trkpt>
      <trkpt lat="45.15004" lon="5.61968">
        <ele>1070.7293629284</ele>
        <time>2019-08-06T08:27:32Z</time>
      </trkpt>
      <trkpt lat="45.15013" lon="5.61971">
        <ele>1071.6297775731</ele>
        <time>2019-08-06T08:27:36Z</time>
      </trkpt>
      <trkpt lat="45.15023" lon="5.61973">
        <ele>1072.5128755825</ele>
        <time>2019-08-06T08:27:41Z</time>
      </trkpt>
      <trkpt lat="45.15029" lon="5.61972">
        <ele>1073.2442031365</ele>
        <time>2019-08-06T08:27:44Z</time>
      </trkpt>
      <trkpt lat="45.15039" lon="5.61969">
        <ele>1076.0901375695</ele>
        <time>2019-08-06T08:27:49Z</time>
      </trkpt>
      <trkpt lat="45.15048" lon="5.61963">
        <ele>1076.4312932488</ele>
        <time>2019-08-06T08:27:53Z</time>
      </trkpt>
      <trkpt lat="45.1506" lon="5.61957">
        <ele>1075.2411582226</ele>
        <time>2019-08-06T08:27:58Z</time>
      </trkpt>
      <trkpt lat="45.15071" lon="5.61951">
        <ele>1075.8461928264</ele>
        <time>2019-08-06T08:28:02Z</time>
      </trkpt>
      <trkpt lat="45.15085" lon="5.61942">
        <ele>1077.0597964726</ele>
        <time>2019-08-06T08:28:07Z</time>
      </trkpt>
      <trkpt lat="45.15096" lon="5.61937">
        <ele>1077.4310922739</ele>
        <time>2019-08-06T08:28:11Z</time>
      </trkpt>
      <trkpt lat="45.15105" lon="5.6193">
        <ele>1077.7693606555</ele>
        <time>2019-08-06T08:28:15Z</time>
      </trkpt>
      <trkpt lat="45.15114" lon="5.61923">
        <ele>1079.0304783486</ele>
        <time>2019-08-06T08:28:19Z</time>
      </trkpt>
      <trkpt lat="45.1512" lon="5.6192">
        <ele>1079.668160301</ele>
        <time>2019-08-06T08:28:22Z</time>
      </trkpt>
      <trkpt lat="45.1513" lon="5.61917">
        <ele>1080.8065382535</ele>
        <time>2019-08-06T08:28:27Z</time>
      </trkpt>
      <trkpt lat="45.15138" lon="5.61914">
        <ele>1081.6007593843</ele>
        <time>2019-08-06T08:28:31Z</time>
      </trkpt>
      <trkpt lat="45.15146" lon="5.61911">
        <ele>1082.4352460396</ele>
        <time>2019-08-06T08:28:35Z</time>
      </trkpt>
      <trkpt lat="45.15156" lon="5.61907">
        <ele>1083.7892497876</ele>
        <time>2019-08-06T08:28:40Z</time>
      </trkpt>
      <trkpt lat="45.15166" lon="5.61902">
        <ele>1084.9405416863</ele>
        <time>2019-08-06T08:28:45Z</time>
      </trkpt>
      <trkpt lat="45.15173" lon="5.61899">
        <ele>1085.6191169437</ele>
        <time>2019-08-06T08:28:48Z</time>
      </trkpt>
      <trkpt lat="45.15182" lon="5.61894">
        <ele>1087.2011160458</ele>
        <time>2019-08-06T08:28:53Z</time>
      </trkpt>
      <trkpt lat="45.15191" lon="5.6189">
        <ele>1088.1835353129</ele>
        <time>2019-08-06T08:28:58Z</time>
      </trkpt>
      <trkpt lat="45.15197" lon="5.61888">
        <ele>1089.1790862561</ele>
        <time>2019-08-06T08:29:01Z</time>
      </trkpt>
      <trkpt lat="45.15207" lon="5.61886">
        <ele>1088.89605026</ele>
        <time>2019-08-06T08:29:05Z</time>
      </trkpt>
      <trkpt lat="45.15215" lon="5.61881">
        <ele>1089.7431135956</ele>
        <time>2019-08-06T08:29:09Z</time>
      </trkpt>
      <trkpt lat="45.15224" lon="5.61876">
        <ele>1090.1953654798</ele>
        <time>2019-08-06T08:29:13Z</time>
      </trkpt>
      <trkpt lat="45.15234" lon="5.61875">
        <ele>1090.8386243049</ele>
        <time>2019-08-06T08:29:17Z</time>
      </trkpt>
      <trkpt lat="45.15244" lon="5.61874">
        <ele>1091.2848539189</ele>
        <time>2019-08-06T08:29:22Z</time>
      </trkpt>
      <trkpt lat="45.15254" lon="5.61871">
        <ele>1091.4632615871</ele>
        <time>2019-08-06T08:29:27Z</time>
      </trkpt>
      <trkpt lat="45.15264" lon="5.61869">
        <ele>1093.7906328083</ele>
        <time>2019-08-06T08:29:31Z</time>
      </trkpt>
      <trkpt lat="45.15272" lon="5.61867">
        <ele>1095.0644448289</ele>
        <time>2019-08-06T08:29:35Z</time>
      </trkpt>
      <trkpt lat="45.15281" lon="5.61865">
        <ele>1095.7129027196</ele>
        <time>2019-08-06T08:29:39Z</time>
      </trkpt>
      <trkpt lat="45.15291" lon="5.61863">
        <ele>1095.8388522651</ele>
        <time>2019-08-06T08:29:44Z</time>
      </trkpt>
      <trkpt lat="45.15297" lon="5.61862">
        <ele>1096.0346401777</ele>
        <time>2019-08-06T08:29:47Z</time>
      </trkpt>
      <trkpt lat="45.15306" lon="5.61859">
        <ele>1099.2562530508</ele>
        <time>2019-08-06T08:29:51Z</time>
      </trkpt>
      <trkpt lat="45.15317" lon="5.61859">
        <ele>1100.6183828971</ele>
        <time>2019-08-06T08:29:56Z</time>
      </trkpt>
      <trkpt lat="45.15327" lon="5.61861">
        <ele>1102.1852725139</ele>
        <time>2019-08-06T08:30:00Z</time>
      </trkpt>
      <trkpt lat="45.15334" lon="5.61862">
        <ele>1102.731361486</ele>
        <time>2019-08-06T08:30:03Z</time>
      </trkpt>
      <trkpt lat="45.15344" lon="5.61865">
        <ele>1103.1139263439</ele>
        <time>2019-08-06T08:30:07Z</time>
      </trkpt>
      <trkpt lat="45.15351" lon="5.61869">
        <ele>1103.4547607571</ele>
        <time>2019-08-06T08:30:10Z</time>
      </trkpt>
      <trkpt lat="45.15357" lon="5.61874">
        <ele>1102.505669076</ele>
        <time>2019-08-06T08:30:14Z</time>
      </trkpt>
      <trkpt lat="45.15364" lon="5.61877">
        <ele>1104.3311650689</ele>
        <time>2019-08-06T08:30:18Z</time>
      </trkpt>
      <trkpt lat="45.15372" lon="5.61881">
        <ele>1105.9518811412</ele>
        <time>2019-08-06T08:30:22Z</time>
      </trkpt>
      <trkpt lat="45.15382" lon="5.61887">
        <ele>1107.730874864</ele>
        <time>2019-08-06T08:30:27Z</time>
      </trkpt>
      <trkpt lat="45.15387" lon="5.6189">
        <ele>1108.6236442654</ele>
        <time>2019-08-06T08:30:30Z</time>
      </trkpt>
      <trkpt lat="45.15392" lon="5.61895">
        <ele>1110.1465090807</ele>
        <time>2019-08-06T08:30:34Z</time>
      </trkpt>
      <trkpt lat="45.15398" lon="5.61906">
        <ele>1111.3547138096</ele>
        <time>2019-08-06T08:30:38Z</time>
      </trkpt>
      <trkpt lat="45.15404" lon="5.61913">
        <ele>1111.642495977</ele>
        <time>2019-08-06T08:30:42Z</time>
      </trkpt>
      <trkpt lat="45.15412" lon="5.61919">
        <ele>1112.344242802</ele>
        <time>2019-08-06T08:30:47Z</time>
      </trkpt>
      <trkpt lat="45.15419" lon="5.61924">
        <ele>1112.9569786391</ele>
        <time>2019-08-06T08:30:51Z</time>
      </trkpt>
      <trkpt lat="45.15426" lon="5.61925">
        <ele>1114.2692503048</ele>
        <time>2019-08-06T08:30:55Z</time>
      </trkpt>
      <trkpt lat="45.15437" lon="5.61931">
        <ele>1114.9099945192</ele>
        <time>2019-08-06T08:31:00Z</time>
      </trkpt>
      <trkpt lat="45.15446" lon="5.61934">
        <ele>1115.7425808094</ele>
        <time>2019-08-06T08:31:04Z</time>
      </trkpt>
      <trkpt lat="45.15453" lon="5.61938">
        <ele>1116.3664650169</ele>
        <time>2019-08-06T08:31:07Z</time>
      </trkpt>
      <trkpt lat="45.15461" lon="5.6194">
        <ele>1117.9244369746</ele>
        <time>2019-08-06T08:31:11Z</time>
      </trkpt>
      <trkpt lat="45.15469" lon="5.61942">
        <ele>1118.5211653079</ele>
        <time>2019-08-06T08:31:14Z</time>
      </trkpt>
      <trkpt lat="45.15477" lon="5.61942">
        <ele>1119.5226795511</ele>
        <time>2019-08-06T08:31:18Z</time>
      </trkpt>
      <trkpt lat="45.15487" lon="5.6194">
        <ele>1120.8014433523</ele>
        <time>2019-08-06T08:31:23Z</time>
      </trkpt>
      <trkpt lat="45.15495" lon="5.61936">
        <ele>1121.528238377</ele>
        <time>2019-08-06T08:31:26Z</time>
      </trkpt>
      <trkpt lat="45.15503" lon="5.61932">
        <ele>1122.3222445233</ele>
        <time>2019-08-06T08:31:30Z</time>
      </trkpt>
      <trkpt lat="45.15511" lon="5.61926">
        <ele>1123.1855015607</ele>
        <time>2019-08-06T08:31:34Z</time>
      </trkpt>
      <trkpt lat="45.15518" lon="5.61923">
        <ele>1124.1349052762</ele>
        <time>2019-08-06T08:31:38Z</time>
      </trkpt>
      <trkpt lat="45.15528" lon="5.61916">
        <ele>1124.9213263832</ele>
        <time>2019-08-06T08:31:42Z</time>
      </trkpt>
      <trkpt lat="45.15537" lon="5.61913">
        <ele>1124.4244726465</ele>
        <time>2019-08-06T08:31:46Z</time>
      </trkpt>
      <trkpt lat="45.15548" lon="5.6191">
        <ele>1124.6292584353</ele>
        <time>2019-08-06T08:31:51Z</time>
      </trkpt>
      <trkpt lat="45.15556" lon="5.61908">
        <ele>1125.555754802</ele>
        <time>2019-08-06T08:31:55Z</time>
      </trkpt>
      <trkpt lat="45.15566" lon="5.61904">
        <ele>1126.4499303746</ele>
        <time>2019-08-06T08:31:59Z</time>
      </trkpt>
      <trkpt lat="45.15575" lon="5.61903">
        <ele>1127.2246094922</ele>
        <time>2019-08-06T08:32:03Z</time>
      </trkpt>
      <trkpt lat="45.15583" lon="5.61902">
        <ele>1127.566782024</ele>
        <time>2019-08-06T08:32:07Z</time>
      </trkpt>
      <trkpt lat="45.15593" lon="5.61901">
        <ele>1127.909969835</ele>
        <time>2019-08-06T08:32:12Z</time>
      </trkpt>
      <trkpt lat="45.15605" lon="5.61901">
        <ele>1129.8709146957</ele>
        <time>2019-08-06T08:32:17Z</time>
      </trkpt>
      <trkpt lat="45.15615" lon="5.61903">
        <ele>1131.1256880631</ele>
        <time>2019-08-06T08:32:21Z</time>
      </trkpt>
      <trkpt lat="45.15624" lon="5.61905">
        <ele>1132.3070422903</ele>
        <time>2019-08-06T08:32:25Z</time>
      </trkpt>
      <trkpt lat="45.15634" lon="5.61909">
        <ele>1133.2336469198</ele>
        <time>2019-08-06T08:32:29Z</time>
      </trkpt>
      <trkpt lat="45.15645" lon="5.61912">
        <ele>1133.9136417405</ele>
        <time>2019-08-06T08:32:33Z</time>
      </trkpt>
      <trkpt lat="45.15657" lon="5.61915">
        <ele>1134.4869544881</ele>
        <time>2019-08-06T08:32:37Z</time>
      </trkpt>
      <trkpt lat="45.15666" lon="5.61918">
        <ele>1134.5815960995</ele>
        <time>2019-08-06T08:32:40Z</time>
      </trkpt>
      <trkpt lat="45.15682" lon="5.61923">
        <ele>1135.3095940479</ele>
        <time>2019-08-06T08:32:45Z</time>
      </trkpt>
      <trkpt lat="45.15698" lon="5.61927">
        <ele>1134.068297804</ele>
        <time>2019-08-06T08:32:50Z</time>
      </trkpt>
      <trkpt lat="45.15709" lon="5.6193">
        <ele>1134.6216932462</ele>
        <time>2019-08-06T08:32:54Z</time>
      </trkpt>
      <trkpt lat="45.15717" lon="5.61931">
        <ele>1135.0918416215</ele>
        <time>2019-08-06T08:32:59Z</time>
      </trkpt>
      <trkpt lat="45.1572" lon="5.61932">
        <ele>1134.9892591403</ele>
        <time>2019-08-06T08:33:04Z</time>
      </trkpt>
      <trkpt lat="45.15727" lon="5.61932">
        <ele>1134.6231900211</ele>
        <time>2019-08-06T08:33:07Z</time>
      </trkpt>
      <trkpt lat="45.15743" lon="5.6193">
        <ele>1134.7002168106</ele>
        <time>2019-08-06T08:33:11Z</time>
      </trkpt>
      <trkpt lat="45.15772" lon="5.61936">
        <ele>1134.200840649</ele>
        <time>2019-08-06T08:33:16Z</time>
      </trkpt>
      <trkpt lat="45.15793" lon="5.61943">
        <ele>1135.2285148108</ele>
        <time>2019-08-06T08:33:20Z</time>
      </trkpt>
      <trkpt lat="45.1581" lon="5.61941">
        <ele>1136.6132580097</ele>
        <time>2019-08-06T08:33:25Z</time>
      </trkpt>
      <trkpt lat="45.1582" lon="5.61918">
        <ele>1136.803639464</ele>
        <time>2019-08-06T08:33:29Z</time>
      </trkpt>
      <trkpt lat="45.15829" lon="5.61896">
        <ele>1136.891452119</ele>
        <time>2019-08-06T08:33:33Z</time>
      </trkpt>
      <trkpt lat="45.15839" lon="5.61869">
        <ele>1137.0116626256</ele>
        <time>2019-08-06T08:33:38Z</time>
      </trkpt>
      <trkpt lat="45.15845" lon="5.61856">
        <ele>1137.1639644388</ele>
        <time>2019-08-06T08:33:42Z</time>
      </trkpt>
      <trkpt lat="45.1585" lon="5.61842">
        <ele>1139.6451694143</ele>
        <time>2019-08-06T08:33:46Z</time>
      </trkpt>
      <trkpt lat="45.15858" lon="5.61826">
        <ele>1141.7927498659</ele>
        <time>2019-08-06T08:33:50Z</time>
      </trkpt>
      <trkpt lat="45.15867" lon="5.61812">
        <ele>1144.1320405272</ele>
        <time>2019-08-06T08:33:55Z</time>
      </trkpt>
      <trkpt lat="45.15882" lon="5.618">
        <ele>1143.7438608793</ele>
        <time>2019-08-06T08:34:00Z</time>
      </trkpt>
      <trkpt lat="45.15893" lon="5.61795">
        <ele>1144.4362296923</ele>
        <time>2019-08-06T08:34:04Z</time>
      </trkpt>
      <trkpt lat="45.15907" lon="5.61793">
        <ele>1144.7527669187</ele>
        <time>2019-08-06T08:34:08Z</time>
      </trkpt>
      <trkpt lat="45.1592" lon="5.61791">
        <ele>1144.6470214939</ele>
        <time>2019-08-06T08:34:12Z</time>
      </trkpt>
      <trkpt lat="45.15934" lon="5.61789">
        <ele>1144.9886913544</ele>
        <time>2019-08-06T08:34:16Z</time>
      </trkpt>
      <trkpt lat="45.15946" lon="5.61786">
        <ele>1145.8145123382</ele>
        <time>2019-08-06T08:34:20Z</time>
      </trkpt>
      <trkpt lat="45.15956" lon="5.61782">
        <ele>1147.1412815094</ele>
        <time>2019-08-06T08:34:24Z</time>
      </trkpt>
      <trkpt lat="45.15964" lon="5.61778">
        <ele>1148.269771405</ele>
        <time>2019-08-06T08:34:27Z</time>
      </trkpt>
      <trkpt lat="45.15976" lon="5.61774">
        <ele>1149.3149566504</ele>
        <time>2019-08-06T08:34:31Z</time>
      </trkpt>
      <trkpt lat="45.15984" lon="5.6177">
        <ele>1149.8095428534</ele>
        <time>2019-08-06T08:34:34Z</time>
      </trkpt>
      <trkpt lat="45.15993" lon="5.61768">
        <ele>1150.3182915978</ele>
        <time>2019-08-06T08:34:38Z</time>
      </trkpt>
      <trkpt lat="45.16005" lon="5.61766">
        <ele>1151.1127124129</ele>
        <time>2019-08-06T08:34:42Z</time>
      </trkpt>
      <trkpt lat="45.16022" lon="5.61766">
        <ele>1152.4310135747</ele>
        <time>2019-08-06T08:34:47Z</time>
      </trkpt>
      <trkpt lat="45.16034" lon="5.61767">
        <ele>1152.9311988317</ele>
        <time>2019-08-06T08:34:51Z</time>
      </trkpt>
      <trkpt lat="45.16046" lon="5.61768">
        <ele>1153.7737503006</ele>
        <time>2019-08-06T08:34:55Z</time>
      </trkpt>
      <trkpt lat="45.16055" lon="5.61771">
        <ele>1155.1602643744</ele>
        <time>2019-08-06T08:34:58Z</time>
      </trkpt>
      <trkpt lat="45.16065" lon="5.61775">
        <ele>1156.283835619</ele>
        <time>2019-08-06T08:35:02Z</time>
      </trkpt>
      <trkpt lat="45.16078" lon="5.61785">
        <ele>1157.8071855966</ele>
        <time>2019-08-06T08:35:07Z</time>
      </trkpt>
      <trkpt lat="45.16089" lon="5.61796">
        <ele>1158.3707942312</ele>
        <time>2019-08-06T08:35:12Z</time>
      </trkpt>
      <trkpt lat="45.16096" lon="5.61804">
        <ele>1158.1123800123</ele>
        <time>2019-08-06T08:35:15Z</time>
      </trkpt>
      <trkpt lat="45.16102" lon="5.61836">
        <ele>1155.9391160376</ele>
        <time>2019-08-06T08:35:19Z</time>
      </trkpt>
      <trkpt lat="45.16095" lon="5.61877">
        <ele>1153.3707473749</ele>
        <time>2019-08-06T08:35:23Z</time>
      </trkpt>
      <trkpt lat="45.16096" lon="5.61928">
        <ele>1151.1077642967</ele>
        <time>2019-08-06T08:35:27Z</time>
      </trkpt>
      <trkpt lat="45.16118" lon="5.61984">
        <ele>1150.2474348085</ele>
        <time>2019-08-06T08:35:32Z</time>
      </trkpt>
      <trkpt lat="45.16134" lon="5.62021">
        <ele>1150.6912303655</ele>
        <time>2019-08-06T08:35:36Z</time>
      </trkpt>
      <trkpt lat="45.16144" lon="5.62058">
        <ele>1152.1791005938</ele>
        <time>2019-08-06T08:35:41Z</time>
      </trkpt>
      <trkpt lat="45.16145" lon="5.62092">
        <ele>1150.8124073936</ele>
        <time>2019-08-06T08:35:45Z</time>
      </trkpt>
      <trkpt lat="45.16149" lon="5.62144">
        <ele>1149.3664645746</ele>
        <time>2019-08-06T08:35:50Z</time>
      </trkpt>
      <trkpt lat="45.16162" lon="5.62176">
        <ele>1149.8853611132</ele>
        <time>2019-08-06T08:35:54Z</time>
      </trkpt>
      <trkpt lat="45.16182" lon="5.62197">
        <ele>1150.8013524073</ele>
        <time>2019-08-06T08:35:58Z</time>
      </trkpt>
      <trkpt lat="45.16198" lon="5.62213">
        <ele>1152.7446135178</ele>
        <time>2019-08-06T08:36:02Z</time>
      </trkpt>
      <trkpt lat="45.16209" lon="5.62225">
        <ele>1153.0376430379</ele>
        <time>2019-08-06T08:36:05Z</time>
      </trkpt>
      <trkpt lat="45.16217" lon="5.62247">
        <ele>1152.0907872728</ele>
        <time>2019-08-06T08:36:09Z</time>
      </trkpt>
      <trkpt lat="45.16214" lon="5.62276">
        <ele>1151.0726729241</ele>
        <time>2019-08-06T08:36:13Z</time>
      </trkpt>
      <trkpt lat="45.16214" lon="5.62319">
        <ele>1149.814381457</ele>
        <time>2019-08-06T08:36:18Z</time>
      </trkpt>
      <trkpt lat="45.1622" lon="5.62344">
        <ele>1149.45119201</ele>
        <time>2019-08-06T08:36:21Z</time>
      </trkpt>
      <trkpt lat="45.16226" lon="5.62368">
        <ele>1149.865046307</ele>
        <time>2019-08-06T08:36:24Z</time>
      </trkpt>
      <trkpt lat="45.16237" lon="5.62395">
        <ele>1149.1364001754</ele>
        <time>2019-08-06T08:36:28Z</time>
      </trkpt>
      <trkpt lat="45.16257" lon="5.62416">
        <ele>1147.8161716121</ele>
        <time>2019-08-06T08:36:32Z</time>
      </trkpt>
      <trkpt lat="45.16281" lon="5.62432">
        <ele>1147.3725423599</ele>
        <time>2019-08-06T08:36:36Z</time>
      </trkpt>
      <trkpt lat="45.16299" lon="5.62455">
        <ele>1147.6243160119</ele>
        <time>2019-08-06T08:36:40Z</time>
      </trkpt>
      <trkpt lat="45.16315" lon="5.62473">
        <ele>1148.1984582451</ele>
        <time>2019-08-06T08:36:44Z</time>
      </trkpt>
      <trkpt lat="45.16327" lon="5.62482">
        <ele>1148.5091945785</ele>
        <time>2019-08-06T08:36:48Z</time>
      </trkpt>
      <trkpt lat="45.16332" lon="5.62491">
        <ele>1150.3498650202</ele>
        <time>2019-08-06T08:36:53Z</time>
      </trkpt>
      <trkpt lat="45.1633" lon="5.625">
        <ele>1151.9186107363</ele>
        <time>2019-08-06T08:36:57Z</time>
      </trkpt>
      <trkpt lat="45.16327" lon="5.6251">
        <ele>1153.5363161644</ele>
        <time>2019-08-06T08:37:02Z</time>
      </trkpt>
      <trkpt lat="45.16322" lon="5.62521">
        <ele>1155.2202189191</ele>
        <time>2019-08-06T08:37:07Z</time>
      </trkpt>
      <trkpt lat="45.16317" lon="5.6253">
        <ele>1156.8608312884</ele>
        <time>2019-08-06T08:37:12Z</time>
      </trkpt>
      <trkpt lat="45.16312" lon="5.6254">
        <ele>1158.2762749846</ele>
        <time>2019-08-06T08:37:16Z</time>
      </trkpt>
      <trkpt lat="45.16311" lon="5.62548">
        <ele>1159.1070863745</ele>
        <time>2019-08-06T08:37:21Z</time>
      </trkpt>
      <trkpt lat="45.16319" lon="5.62555">
        <ele>1159.0683161573</ele>
        <time>2019-08-06T08:37:26Z</time>
      </trkpt>
      <trkpt lat="45.16328" lon="5.62559">
        <ele>1158.8447600314</ele>
        <time>2019-08-06T08:37:29Z</time>
      </trkpt>
      <trkpt lat="45.1634" lon="5.62565">
        <ele>1159.1395014658</ele>
        <time>2019-08-06T08:37:33Z</time>
      </trkpt>
      <trkpt lat="45.1635" lon="5.62571">
        <ele>1159.2315528475</ele>
        <time>2019-08-06T08:37:36Z</time>
      </trkpt>
      <trkpt lat="45.16363" lon="5.62581">
        <ele>1159.8064614638</ele>
        <time>2019-08-06T08:37:40Z</time>
      </trkpt>
      <trkpt lat="45.16378" lon="5.62598">
        <ele>1159.8867093971</ele>
        <time>2019-08-06T08:37:44Z</time>
      </trkpt>
      <trkpt lat="45.16392" lon="5.62617">
        <ele>1160.4456115417</ele>
        <time>2019-08-06T08:37:49Z</time>
      </trkpt>
      <trkpt lat="45.16401" lon="5.62628">
        <ele>1160.5863015617</ele>
        <time>2019-08-06T08:37:52Z</time>
      </trkpt>
      <trkpt lat="45.16414" lon="5.62643">
        <ele>1159.6109524133</ele>
        <time>2019-08-06T08:37:56Z</time>
      </trkpt>
      <trkpt lat="45.16434" lon="5.62655">
        <ele>1158.1322436099</ele>
        <time>2019-08-06T08:38:00Z</time>
      </trkpt>
      <trkpt lat="45.16453" lon="5.6266">
        <ele>1158.3240181037</ele>
        <time>2019-08-06T08:38:04Z</time>
      </trkpt>
      <trkpt lat="45.16472" lon="5.62667">
        <ele>1157.6145950727</ele>
        <time>2019-08-06T08:38:08Z</time>
      </trkpt>
      <trkpt lat="45.16493" lon="5.62655">
        <ele>1155.8042414112</ele>
        <time>2019-08-06T08:38:12Z</time>
      </trkpt>
      <trkpt lat="45.16507" lon="5.62644">
        <ele>1157.3208405178</ele>
        <time>2019-08-06T08:38:16Z</time>
      </trkpt>
      <trkpt lat="45.16524" lon="5.62628">
        <ele>1157.9786196465</ele>
        <time>2019-08-06T08:38:21Z</time>
      </trkpt>
      <trkpt lat="45.16538" lon="5.62609">
        <ele>1158.6834877942</ele>
        <time>2019-08-06T08:38:25Z</time>
      </trkpt>
      <trkpt lat="45.16553" lon="5.62593">
        <ele>1160.9997526006</ele>
        <time>2019-08-06T08:38:29Z</time>
      </trkpt>
      <trkpt lat="45.16563" lon="5.62572">
        <ele>1161.8224868978</ele>
        <time>2019-08-06T08:38:34Z</time>
      </trkpt>
      <trkpt lat="45.16572" lon="5.62545">
        <ele>1160.9540067187</ele>
        <time>2019-08-06T08:38:38Z</time>
      </trkpt>
      <trkpt lat="45.16573" lon="5.62509">
        <ele>1159.7679481814</ele>
        <time>2019-08-06T08:38:43Z</time>
      </trkpt>
      <trkpt lat="45.1658" lon="5.62477">
        <ele>1160.6348323028</ele>
        <time>2019-08-06T08:38:47Z</time>
      </trkpt>
      <trkpt lat="45.16591" lon="5.62441">
        <ele>1162.1481093994</ele>
        <time>2019-08-06T08:38:52Z</time>
      </trkpt>
      <trkpt lat="45.16599" lon="5.62418">
        <ele>1163.2147336148</ele>
        <time>2019-08-06T08:38:56Z</time>
      </trkpt>
      <trkpt lat="45.1661" lon="5.62402">
        <ele>1164.0138973567</ele>
        <time>2019-08-06T08:39:00Z</time>
      </trkpt>
      <trkpt lat="45.16619" lon="5.62391">
        <ele>1163.9827077687</ele>
        <time>2019-08-06T08:39:03Z</time>
      </trkpt>
      <trkpt lat="45.16629" lon="5.62382">
        <ele>1164.6718847807</ele>
        <time>2019-08-06T08:39:08Z</time>
      </trkpt>
      <trkpt lat="45.16636" lon="5.6238">
        <ele>1164.8436134004</ele>
        <time>2019-08-06T08:39:11Z</time>
      </trkpt>
      <trkpt lat="45.16644" lon="5.6238">
        <ele>1165.1096970825</ele>
        <time>2019-08-06T08:39:15Z</time>
      </trkpt>
      <trkpt lat="45.16652" lon="5.6238">
        <ele>1165.21214644</ele>
        <time>2019-08-06T08:39:19Z</time>
      </trkpt>
      <trkpt lat="45.16663" lon="5.62383">
        <ele>1164.0144194394</ele>
        <time>2019-08-06T08:39:23Z</time>
      </trkpt>
      <trkpt lat="45.16687" lon="5.62395">
        <ele>1164.0880202432</ele>
        <time>2019-08-06T08:39:28Z</time>
      </trkpt>
      <trkpt lat="45.16713" lon="5.62412">
        <ele>1161.5481345361</ele>
        <time>2019-08-06T08:39:33Z</time>
      </trkpt>
      <trkpt lat="45.16731" lon="5.62426">
        <ele>1160.0506034014</ele>
        <time>2019-08-06T08:39:36Z</time>
      </trkpt>
      <trkpt lat="45.16754" lon="5.62446">
        <ele>1160.5431550648</ele>
        <time>2019-08-06T08:39:40Z</time>
      </trkpt>
      <trkpt lat="45.16768" lon="5.6245">
        <ele>1162.7424135291</ele>
        <time>2019-08-06T08:39:45Z</time>
      </trkpt>
      <trkpt lat="45.16774" lon="5.62449">
        <ele>1163.1662239489</ele>
        <time>2019-08-06T08:39:49Z</time>
      </trkpt>
      <trkpt lat="45.16786" lon="5.62448">
        <ele>1163.3371389354</ele>
        <time>2019-08-06T08:39:53Z</time>
      </trkpt>
      <trkpt lat="45.16799" lon="5.62446">
        <ele>1163.7107539511</ele>
        <time>2019-08-06T08:39:58Z</time>
      </trkpt>
      <trkpt lat="45.16805" lon="5.62444">
        <ele>1165.1652758445</ele>
        <time>2019-08-06T08:40:01Z</time>
      </trkpt>
      <trkpt lat="45.16818" lon="5.6244">
        <ele>1166.6280742905</ele>
        <time>2019-08-06T08:40:06Z</time>
      </trkpt>
      <trkpt lat="45.16832" lon="5.62436">
        <ele>1167.876485464</ele>
        <time>2019-08-06T08:40:11Z</time>
      </trkpt>
      <trkpt lat="45.16841" lon="5.62434">
        <ele>1170.869284691</ele>
        <time>2019-08-06T08:40:15Z</time>
      </trkpt>
      <trkpt lat="45.16855" lon="5.62433">
        <ele>1170.8704509928</ele>
        <time>2019-08-06T08:40:19Z</time>
      </trkpt>
      <trkpt lat="45.16867" lon="5.62434">
        <ele>1170.6487101282</ele>
        <time>2019-08-06T08:40:23Z</time>
      </trkpt>
      <trkpt lat="45.16879" lon="5.62436">
        <ele>1170.0326507641</ele>
        <time>2019-08-06T08:40:27Z</time>
      </trkpt>
      <trkpt lat="45.16893" lon="5.62442">
        <ele>1170.0831243635</ele>
        <time>2019-08-06T08:40:31Z</time>
      </trkpt>
      <trkpt lat="45.16902" lon="5.62447">
        <ele>1170.1092484282</ele>
        <time>2019-08-06T08:40:34Z</time>
      </trkpt>
      <trkpt lat="45.16915" lon="5.6246">
        <ele>1170.9626649619</ele>
        <time>2019-08-06T08:40:39Z</time>
      </trkpt>
      <trkpt lat="45.16929" lon="5.62479">
        <ele>1169.7769323483</ele>
        <time>2019-08-06T08:40:43Z</time>
      </trkpt>
      <trkpt lat="45.16936" lon="5.62494">
        <ele>1169.7010029932</ele>
        <time>2019-08-06T08:40:46Z</time>
      </trkpt>
      <trkpt lat="45.16938" lon="5.62525">
        <ele>1169.2034980981</ele>
        <time>2019-08-06T08:40:50Z</time>
      </trkpt>
      <trkpt lat="45.16936" lon="5.62556">
        <ele>1168.441040917</ele>
        <time>2019-08-06T08:40:54Z</time>
      </trkpt>
      <trkpt lat="45.16933" lon="5.6259">
        <ele>1168.4971701547</ele>
        <time>2019-08-06T08:40:59Z</time>
      </trkpt>
      <trkpt lat="45.16932" lon="5.62615">
        <ele>1168.1793600575</ele>
        <time>2019-08-06T08:41:03Z</time>
      </trkpt>
      <trkpt lat="45.16936" lon="5.62639">
        <ele>1168.1037048714</ele>
        <time>2019-08-06T08:41:07Z</time>
      </trkpt>
      <trkpt lat="45.16943" lon="5.62654">
        <ele>1168.3085112825</ele>
        <time>2019-08-06T08:41:10Z</time>
      </trkpt>
      <trkpt lat="45.16957" lon="5.62667">
        <ele>1168.7544836741</ele>
        <time>2019-08-06T08:41:14Z</time>
      </trkpt>
      <trkpt lat="45.16967" lon="5.62675">
        <ele>1170.0757771901</ele>
        <time>2019-08-06T08:41:19Z</time>
      </trkpt>
      <trkpt lat="45.16973" lon="5.6268">
        <ele>1170.233266264</ele>
        <time>2019-08-06T08:41:23Z</time>
      </trkpt>
      <trkpt lat="45.16984" lon="5.62691">
        <ele>1170.4960377362</ele>
        <time>2019-08-06T08:41:27Z</time>
      </trkpt>
      <trkpt lat="45.16997" lon="5.62699">
        <ele>1170.5883735512</ele>
        <time>2019-08-06T08:41:31Z</time>
      </trkpt>
      <trkpt lat="45.17009" lon="5.62707">
        <ele>1170.8623684783</ele>
        <time>2019-08-06T08:41:34Z</time>
      </trkpt>
      <trkpt lat="45.17022" lon="5.62716">
        <ele>1171.0343759908</ele>
        <time>2019-08-06T08:41:39Z</time>
      </trkpt>
      <trkpt lat="45.1704" lon="5.62732">
        <ele>1171.2649674462</ele>
        <time>2019-08-06T08:41:44Z</time>
      </trkpt>
      <trkpt lat="45.17051" lon="5.62746">
        <ele>1171.5846414014</ele>
        <time>2019-08-06T08:41:49Z</time>
      </trkpt>
      <trkpt lat="45.17069" lon="5.62754">
        <ele>1170.7226067973</ele>
        <time>2019-08-06T08:41:53Z</time>
      </trkpt>
      <trkpt lat="45.17091" lon="5.62759">
        <ele>1169.3364848499</ele>
        <time>2019-08-06T08:41:57Z</time>
      </trkpt>
      <trkpt lat="45.17117" lon="5.62764">
        <ele>1168.3003186963</ele>
        <time>2019-08-06T08:42:01Z</time>
      </trkpt>
      <trkpt lat="45.17144" lon="5.62771">
        <ele>1166.8077620841</ele>
        <time>2019-08-06T08:42:05Z</time>
      </trkpt>
      <trkpt lat="45.17182" lon="5.62781">
        <ele>1162.7027205987</ele>
        <time>2019-08-06T08:42:10Z</time>
      </trkpt>
      <trkpt lat="45.17221" lon="5.62784">
        <ele>1157.0162049359</ele>
        <time>2019-08-06T08:42:14Z</time>
      </trkpt>
      <trkpt lat="45.17259" lon="5.62775">
        <ele>1150.1660039964</ele>
        <time>2019-08-06T08:42:18Z</time>
      </trkpt>
      <trkpt lat="45.17289" lon="5.62756">
        <ele>1145.5158931495</ele>
        <time>2019-08-06T08:42:23Z</time>
      </trkpt>
      <trkpt lat="45.17296" lon="5.62743">
        <ele>1144.7019921791</ele>
        <time>2019-08-06T08:42:28Z</time>
      </trkpt>
      <trkpt lat="45.17296" lon="5.6274">
        <ele>1146.4723643516</ele>
        <time>2019-08-06T08:44:18Z</time>
      </trkpt>
      <trkpt lat="45.17302" lon="5.62723">
        <ele>1145.7354081746</ele>
        <time>2019-08-06T08:44:22Z</time>
      </trkpt>
      <trkpt lat="45.17313" lon="5.62695">
        <ele>1144.4850721604</ele>
        <time>2019-08-06T08:44:27Z</time>
      </trkpt>
      <trkpt lat="45.17325" lon="5.62682">
        <ele>1143.8378964538</ele>
        <time>2019-08-06T08:44:30Z</time>
      </trkpt>
      <trkpt lat="45.17344" lon="5.62664">
        <ele>1142.8454637359</ele>
        <time>2019-08-06T08:44:35Z</time>
      </trkpt>
      <trkpt lat="45.17354" lon="5.62655">
        <ele>1142.4400919132</ele>
        <time>2019-08-06T08:44:38Z</time>
      </trkpt>
      <trkpt lat="45.17363" lon="5.62645">
        <ele>1141.3886308988</ele>
        <time>2019-08-06T08:44:42Z</time>
      </trkpt>
      <trkpt lat="45.17382" lon="5.62628">
        <ele>1141.758716607</ele>
        <time>2019-08-06T08:44:47Z</time>
      </trkpt>
      <trkpt lat="45.17399" lon="5.62603">
        <ele>1140.9942211057</ele>
        <time>2019-08-06T08:44:52Z</time>
      </trkpt>
      <trkpt lat="45.17414" lon="5.62586">
        <ele>1140.2469660488</ele>
        <time>2019-08-06T08:44:56Z</time>
      </trkpt>
      <trkpt lat="45.17424" lon="5.62568">
        <ele>1140.2475759269</ele>
        <time>2019-08-06T08:45:00Z</time>
      </trkpt>
      <trkpt lat="45.17439" lon="5.62549">
        <ele>1139.1982453032</ele>
        <time>2019-08-06T08:45:05Z</time>
      </trkpt>
      <trkpt lat="45.17456" lon="5.62532">
        <ele>1137.3305282656</ele>
        <time>2019-08-06T08:45:09Z</time>
      </trkpt>
      <trkpt lat="45.17472" lon="5.62515">
        <ele>1135.8586776484</ele>
        <time>2019-08-06T08:45:12Z</time>
      </trkpt>
      <trkpt lat="45.17494" lon="5.62488">
        <ele>1136.2271121124</ele>
        <time>2019-08-06T08:45:17Z</time>
      </trkpt>
      <trkpt lat="45.17516" lon="5.62481">
        <ele>1135.7838612431</ele>
        <time>2019-08-06T08:45:22Z</time>
      </trkpt>
      <trkpt lat="45.17533" lon="5.62482">
        <ele>1134.5020953146</ele>
        <time>2019-08-06T08:45:26Z</time>
      </trkpt>
      <trkpt lat="45.17554" lon="5.62485">
        <ele>1135.1033851445</ele>
        <time>2019-08-06T08:45:30Z</time>
      </trkpt>
      <trkpt lat="45.1758" lon="5.62491">
        <ele>1135.6297029955</ele>
        <time>2019-08-06T08:45:35Z</time>
      </trkpt>
      <trkpt lat="45.17597" lon="5.62487">
        <ele>1133.7910384034</ele>
        <time>2019-08-06T08:45:39Z</time>
      </trkpt>
      <trkpt lat="45.17612" lon="5.62493">
        <ele>1130.5022799826</ele>
        <time>2019-08-06T08:45:43Z</time>
      </trkpt>
      <trkpt lat="45.17625" lon="5.62509">
        <ele>1129.7862321785</ele>
        <time>2019-08-06T08:45:46Z</time>
      </trkpt>
      <trkpt lat="45.17641" lon="5.62524">
        <ele>1128.7470302486</ele>
        <time>2019-08-06T08:45:50Z</time>
      </trkpt>
      <trkpt lat="45.17663" lon="5.62524">
        <ele>1131.6366798281</ele>
        <time>2019-08-06T08:45:55Z</time>
      </trkpt>
      <trkpt lat="45.17675" lon="5.62522">
        <ele>1129.8424060993</ele>
        <time>2019-08-06T08:45:59Z</time>
      </trkpt>
      <trkpt lat="45.17685" lon="5.62512">
        <ele>1130.8181969635</ele>
        <time>2019-08-06T08:46:04Z</time>
      </trkpt>
      <trkpt lat="45.17704" lon="5.62504">
        <ele>1132.0162017885</ele>
        <time>2019-08-06T08:46:07Z</time>
      </trkpt>
      <trkpt lat="45.17726" lon="5.62504">
        <ele>1134.192630773</ele>
        <time>2019-08-06T08:46:12Z</time>
      </trkpt>
      <trkpt lat="45.17744" lon="5.62517">
        <ele>1130.1331513667</ele>
        <time>2019-08-06T08:46:16Z</time>
      </trkpt>
      <trkpt lat="45.17755" lon="5.62532">
        <ele>1127.777966214</ele>
        <time>2019-08-06T08:46:19Z</time>
      </trkpt>
      <trkpt lat="45.17766" lon="5.62551">
        <ele>1123.1859526911</ele>
        <time>2019-08-06T08:46:23Z</time>
      </trkpt>
      <trkpt lat="45.1777" lon="5.6257">
        <ele>1118.5136345362</ele>
        <time>2019-08-06T08:46:27Z</time>
      </trkpt>
      <trkpt lat="45.17768" lon="5.62581">
        <ele>1114.289618365</ele>
        <time>2019-08-06T08:46:31Z</time>
      </trkpt>
      <trkpt lat="45.17755" lon="5.62607">
        <ele>1111.9846017059</ele>
        <time>2019-08-06T08:46:35Z</time>
      </trkpt>
      <trkpt lat="45.1774" lon="5.62631">
        <ele>1106.4536694437</ele>
        <time>2019-08-06T08:46:39Z</time>
      </trkpt>
      <trkpt lat="45.17716" lon="5.62682">
        <ele>1106.4680156648</ele>
        <time>2019-08-06T08:46:44Z</time>
      </trkpt>
      <trkpt lat="45.17693" lon="5.6273">
        <ele>1099.3252528873</ele>
        <time>2019-08-06T08:46:49Z</time>
      </trkpt>
      <trkpt lat="45.17685" lon="5.62759">
        <ele>1099.9712061114</ele>
        <time>2019-08-06T08:46:53Z</time>
      </trkpt>
      <trkpt lat="45.17687" lon="5.62783">
        <ele>1097.3016894931</ele>
        <time>2019-08-06T08:46:56Z</time>
      </trkpt>
      <trkpt lat="45.1769" lon="5.6281">
        <ele>1097.8003671222</ele>
        <time>2019-08-06T08:47:00Z</time>
      </trkpt>
      <trkpt lat="45.17692" lon="5.62854">
        <ele>1089.6037959696</ele>
        <time>2019-08-06T08:47:05Z</time>
      </trkpt>
      <trkpt lat="45.1769" lon="5.62898">
        <ele>1087.509145729</ele>
        <time>2019-08-06T08:47:09Z</time>
      </trkpt>
      <trkpt lat="45.1769" lon="5.62945">
        <ele>1081.7464641418</ele>
        <time>2019-08-06T08:47:14Z</time>
      </trkpt>
      <trkpt lat="45.17694" lon="5.62986">
        <ele>1077.1548892774</ele>
        <time>2019-08-06T08:47:18Z</time>
      </trkpt>
      <trkpt lat="45.17692" lon="5.63032">
        <ele>1071.3158956589</ele>
        <time>2019-08-06T08:47:23Z</time>
      </trkpt>
      <trkpt lat="45.1769" lon="5.63055">
        <ele>1069.3904042045</ele>
        <time>2019-08-06T08:47:26Z</time>
      </trkpt>
      <trkpt lat="45.17682" lon="5.63092">
        <ele>1066.5259120867</ele>
        <time>2019-08-06T08:47:31Z</time>
      </trkpt>
      <trkpt lat="45.17682" lon="5.63118">
        <ele>1062.3430110361</ele>
        <time>2019-08-06T08:47:35Z</time>
      </trkpt>
      <trkpt lat="45.177" lon="5.63142">
        <ele>1058.8411637969</ele>
        <time>2019-08-06T08:47:39Z</time>
      </trkpt>
      <trkpt lat="45.17726" lon="5.63159">
        <ele>1053.8092284188</ele>
        <time>2019-08-06T08:47:42Z</time>
      </trkpt>
      <trkpt lat="45.17752" lon="5.63164">
        <ele>1053.8810841733</ele>
        <time>2019-08-06T08:47:47Z</time>
      </trkpt>
      <trkpt lat="45.17758" lon="5.63169">
        <ele>1054.0210445113</ele>
        <time>2019-08-06T08:47:50Z</time>
      </trkpt>
      <trkpt lat="45.17766" lon="5.63181">
        <ele>1056.0369916622</ele>
        <time>2019-08-06T08:47:55Z</time>
      </trkpt>
      <trkpt lat="45.17767" lon="5.6319">
        <ele>1057.0639357387</ele>
        <time>2019-08-06T08:47:58Z</time>
      </trkpt>
      <trkpt lat="45.17767" lon="5.63202">
        <ele>1058.6108638936</ele>
        <time>2019-08-06T08:48:02Z</time>
      </trkpt>
      <trkpt lat="45.17765" lon="5.63216">
        <ele>1059.9264690524</ele>
        <time>2019-08-06T08:48:07Z</time>
      </trkpt>
      <trkpt lat="45.17761" lon="5.6323">
        <ele>1061.0320268298</ele>
        <time>2019-08-06T08:48:11Z</time>
      </trkpt>
      <trkpt lat="45.17757" lon="5.63242">
        <ele>1061.235464214</ele>
        <time>2019-08-06T08:48:15Z</time>
      </trkpt>
      <trkpt lat="45.17748" lon="5.6326">
        <ele>1061.5159481997</ele>
        <time>2019-08-06T08:48:19Z</time>
      </trkpt>
      <trkpt lat="45.17738" lon="5.63277">
        <ele>1061.3263860524</ele>
        <time>2019-08-06T08:48:22Z</time>
      </trkpt>
      <trkpt lat="45.1773" lon="5.6329">
        <ele>1060.4822888943</ele>
        <time>2019-08-06T08:48:26Z</time>
      </trkpt>
      <trkpt lat="45.17723" lon="5.6331">
        <ele>1060.368857556</ele>
        <time>2019-08-06T08:48:30Z</time>
      </trkpt>
      <trkpt lat="45.17721" lon="5.63327">
        <ele>1061.7158195064</ele>
        <time>2019-08-06T08:48:34Z</time>
      </trkpt>
      <trkpt lat="45.17718" lon="5.63345">
        <ele>1062.5193249347</ele>
        <time>2019-08-06T08:48:38Z</time>
      </trkpt>
      <trkpt lat="45.17717" lon="5.63363">
        <ele>1063.771785564</ele>
        <time>2019-08-06T08:48:42Z</time>
      </trkpt>
      <trkpt lat="45.17721" lon="5.63392">
        <ele>1062.723214468</ele>
        <time>2019-08-06T08:48:46Z</time>
      </trkpt>
      <trkpt lat="45.1772" lon="5.63421">
        <ele>1061.586988947</ele>
        <time>2019-08-06T08:48:51Z</time>
      </trkpt>
      <trkpt lat="45.17717" lon="5.63445">
        <ele>1059.4258375921</ele>
        <time>2019-08-06T08:48:54Z</time>
      </trkpt>
      <trkpt lat="45.17716" lon="5.63486">
        <ele>1058.2080723525</ele>
        <time>2019-08-06T08:48:58Z</time>
      </trkpt>
      <trkpt lat="45.17717" lon="5.63515">
        <ele>1058.8476734177</ele>
        <time>2019-08-06T08:49:01Z</time>
      </trkpt>
      <trkpt lat="45.17714" lon="5.63544">
        <ele>1059.9422907971</ele>
        <time>2019-08-06T08:49:06Z</time>
      </trkpt>
      <trkpt lat="45.17714" lon="5.63558">
        <ele>1058.7041032497</ele>
        <time>2019-08-06T08:49:09Z</time>
      </trkpt>
      <trkpt lat="45.17718" lon="5.63572">
        <ele>1060.6865128464</ele>
        <time>2019-08-06T08:49:13Z</time>
      </trkpt>
      <trkpt lat="45.17726" lon="5.63592">
        <ele>1062.0872155733</ele>
        <time>2019-08-06T08:49:18Z</time>
      </trkpt>
      <trkpt lat="45.17732" lon="5.63606">
        <ele>1061.6396153955</ele>
        <time>2019-08-06T08:49:21Z</time>
      </trkpt>
      <trkpt lat="45.17742" lon="5.63624">
        <ele>1062.0455160382</ele>
        <time>2019-08-06T08:49:25Z</time>
      </trkpt>
      <trkpt lat="45.17751" lon="5.6363">
        <ele>1062.2724477161</ele>
        <time>2019-08-06T08:49:29Z</time>
      </trkpt>
      <trkpt lat="45.17763" lon="5.63633">
        <ele>1061.6023724503</ele>
        <time>2019-08-06T08:49:33Z</time>
      </trkpt>
      <trkpt lat="45.17777" lon="5.63664">
        <ele>1058.7051079302</ele>
        <time>2019-08-06T08:49:38Z</time>
      </trkpt>
      <trkpt lat="45.17784" lon="5.637">
        <ele>1054.7657687685</ele>
        <time>2019-08-06T08:49:42Z</time>
      </trkpt>
      <trkpt lat="45.17787" lon="5.63742">
        <ele>1052.1241152173</ele>
        <time>2019-08-06T08:49:46Z</time>
      </trkpt>
      <trkpt lat="45.17789" lon="5.63776">
        <ele>1050.4261437122</ele>
        <time>2019-08-06T08:49:50Z</time>
      </trkpt>
      <trkpt lat="45.17801" lon="5.63791">
        <ele>1048.3782231558</ele>
        <time>2019-08-06T08:49:54Z</time>
      </trkpt>
      <trkpt lat="45.17816" lon="5.63816">
        <ele>1046.5267108582</ele>
        <time>2019-08-06T08:49:58Z</time>
      </trkpt>
      <trkpt lat="45.17822" lon="5.63849">
        <ele>1046.9402151266</ele>
        <time>2019-08-06T08:50:02Z</time>
      </trkpt>
      <trkpt lat="45.17821" lon="5.63874">
        <ele>1047.7629850572</ele>
        <time>2019-08-06T08:50:06Z</time>
      </trkpt>
      <trkpt lat="45.17819" lon="5.639">
        <ele>1048.7613210171</ele>
        <time>2019-08-06T08:50:11Z</time>
      </trkpt>
      <trkpt lat="45.17817" lon="5.63915">
        <ele>1050.4932678445</ele>
        <time>2019-08-06T08:50:15Z</time>
      </trkpt>
      <trkpt lat="45.17816" lon="5.63927">
        <ele>1051.6729030258</ele>
        <time>2019-08-06T08:50:18Z</time>
      </trkpt>
      <trkpt lat="45.17814" lon="5.63947">
        <ele>1053.1440003962</ele>
        <time>2019-08-06T08:50:23Z</time>
      </trkpt>
      <trkpt lat="45.17811" lon="5.63969">
        <ele>1054.0007801089</ele>
        <time>2019-08-06T08:50:28Z</time>
      </trkpt>
      <trkpt lat="45.1781" lon="5.63985">
        <ele>1055.9192607955</ele>
        <time>2019-08-06T08:50:32Z</time>
      </trkpt>
      <trkpt lat="45.17809" lon="5.63999">
        <ele>1057.4676137784</ele>
        <time>2019-08-06T08:50:36Z</time>
      </trkpt>
      <trkpt lat="45.17807" lon="5.64012">
        <ele>1056.4050210126</ele>
        <time>2019-08-06T08:50:40Z</time>
      </trkpt>
      <trkpt lat="45.17816" lon="5.64037">
        <ele>1056.018457973</ele>
        <time>2019-08-06T08:50:44Z</time>
      </trkpt>
      <trkpt lat="45.17839" lon="5.6404">
        <ele>1055.5623191003</ele>
        <time>2019-08-06T08:50:49Z</time>
      </trkpt>
      <trkpt lat="45.17855" lon="5.64038">
        <ele>1056.3448972034</ele>
        <time>2019-08-06T08:50:53Z</time>
      </trkpt>
      <trkpt lat="45.17868" lon="5.64037">
        <ele>1058.1375963108</ele>
        <time>2019-08-06T08:50:58Z</time>
      </trkpt>
      <trkpt lat="45.17878" lon="5.64037">
        <ele>1059.6035966325</ele>
        <time>2019-08-06T08:51:02Z</time>
      </trkpt>
      <trkpt lat="45.17887" lon="5.64037">
        <ele>1059.8759207564</ele>
        <time>2019-08-06T08:51:05Z</time>
      </trkpt>
      <trkpt lat="45.17899" lon="5.64036">
        <ele>1059.2913766828</ele>
        <time>2019-08-06T08:51:09Z</time>
      </trkpt>
      <trkpt lat="45.17913" lon="5.64035">
        <ele>1059.791151977</ele>
        <time>2019-08-06T08:51:13Z</time>
      </trkpt>
      <trkpt lat="45.17926" lon="5.64035">
        <ele>1059.530537832</ele>
        <time>2019-08-06T08:51:17Z</time>
      </trkpt>
      <trkpt lat="45.1794" lon="5.64036">
        <ele>1060.1131072813</ele>
        <time>2019-08-06T08:51:21Z</time>
      </trkpt>
      <trkpt lat="45.17948" lon="5.64035">
        <ele>1061.168203613</ele>
        <time>2019-08-06T08:51:24Z</time>
      </trkpt>
      <trkpt lat="45.17961" lon="5.64036">
        <ele>1061.7662735184</ele>
        <time>2019-08-06T08:51:28Z</time>
      </trkpt>
      <trkpt lat="45.17974" lon="5.64035">
        <ele>1061.8744060869</ele>
        <time>2019-08-06T08:51:32Z</time>
      </trkpt>
      <trkpt lat="45.17985" lon="5.64034">
        <ele>1062.1726098001</ele>
        <time>2019-08-06T08:51:36Z</time>
      </trkpt>
      <trkpt lat="45.18002" lon="5.64035">
        <ele>1062.9718324041</ele>
        <time>2019-08-06T08:51:41Z</time>
      </trkpt>
      <trkpt lat="45.1801" lon="5.64034">
        <ele>1063.7988169828</ele>
        <time>2019-08-06T08:51:44Z</time>
      </trkpt>
      <trkpt lat="45.18023" lon="5.6403">
        <ele>1063.8577335494</ele>
        <time>2019-08-06T08:51:49Z</time>
      </trkpt>
      <trkpt lat="45.18035" lon="5.64026">
        <ele>1064.6367070909</ele>
        <time>2019-08-06T08:51:54Z</time>
      </trkpt>
      <trkpt lat="45.18045" lon="5.64023">
        <ele>1065.6884537036</ele>
        <time>2019-08-06T08:51:58Z</time>
      </trkpt>
      <trkpt lat="45.18056" lon="5.6402">
        <ele>1067.1767968275</ele>
        <time>2019-08-06T08:52:03Z</time>
      </trkpt>
      <trkpt lat="45.18067" lon="5.64016">
        <ele>1068.8365472512</ele>
        <time>2019-08-06T08:52:08Z</time>
      </trkpt>
      <trkpt lat="45.18078" lon="5.64014">
        <ele>1070.4539920835</ele>
        <time>2019-08-06T08:52:13Z</time>
      </trkpt>
      <trkpt lat="45.18085" lon="5.64016">
        <ele>1071.5623245113</ele>
        <time>2019-08-06T08:52:16Z</time>
      </trkpt>
      <trkpt lat="45.18097" lon="5.64031">
        <ele>1073.2842162042</ele>
        <time>2019-08-06T08:52:20Z</time>
      </trkpt>
      <trkpt lat="45.18102" lon="5.64039">
        <ele>1074.0220712984</ele>
        <time>2019-08-06T08:52:23Z</time>
      </trkpt>
      <trkpt lat="45.18109" lon="5.64047">
        <ele>1074.164451117</ele>
        <time>2019-08-06T08:52:27Z</time>
      </trkpt>
      <trkpt lat="45.18113" lon="5.64051">
        <ele>1075.1665767638</ele>
        <time>2019-08-06T08:52:30Z</time>
      </trkpt>
      <trkpt lat="45.18118" lon="5.64051">
        <ele>1075.7233848174</ele>
        <time>2019-08-06T08:52:33Z</time>
      </trkpt>
      <trkpt lat="45.18126" lon="5.6405">
        <ele>1077.8404167124</ele>
        <time>2019-08-06T08:52:38Z</time>
      </trkpt>
      <trkpt lat="45.18134" lon="5.6405">
        <ele>1079.2429112365</ele>
        <time>2019-08-06T08:52:42Z</time>
      </trkpt>
      <trkpt lat="45.18146" lon="5.6405">
        <ele>1079.7634300223</ele>
        <time>2019-08-06T08:52:47Z</time>
      </trkpt>
      <trkpt lat="45.18157" lon="5.64053">
        <ele>1079.7150961476</ele>
        <time>2019-08-06T08:52:51Z</time>
      </trkpt>
      <trkpt lat="45.18173" lon="5.64078">
        <ele>1078.4669449202</ele>
        <time>2019-08-06T08:52:55Z</time>
      </trkpt>
      <trkpt lat="45.18186" lon="5.64091">
        <ele>1077.2992763854</ele>
        <time>2019-08-06T08:52:58Z</time>
      </trkpt>
      <trkpt lat="45.18203" lon="5.64099">
        <ele>1074.9106795312</ele>
        <time>2019-08-06T08:53:02Z</time>
      </trkpt>
      <trkpt lat="45.18218" lon="5.64097">
        <ele>1075.4718370492</ele>
        <time>2019-08-06T08:53:06Z</time>
      </trkpt>
      <trkpt lat="45.18234" lon="5.64087">
        <ele>1076.9508905312</ele>
        <time>2019-08-06T08:53:10Z</time>
      </trkpt>
      <trkpt lat="45.18253" lon="5.64086">
        <ele>1076.0858647778</ele>
        <time>2019-08-06T08:53:14Z</time>
      </trkpt>
      <trkpt lat="45.18263" lon="5.64089">
        <ele>1074.9924869119</ele>
        <time>2019-08-06T08:53:18Z</time>
      </trkpt>
      <trkpt lat="45.18275" lon="5.64076">
        <ele>1075.4095964837</ele>
        <time>2019-08-06T08:53:23Z</time>
      </trkpt>
      <trkpt lat="45.18284" lon="5.64053">
        <ele>1074.2288460817</ele>
        <time>2019-08-06T08:53:28Z</time>
      </trkpt>
      <trkpt lat="45.18293" lon="5.64036">
        <ele>1070.8158694001</ele>
        <time>2019-08-06T08:53:32Z</time>
      </trkpt>
      <trkpt lat="45.18298" lon="5.64023">
        <ele>1068.356691391</ele>
        <time>2019-08-06T08:53:35Z</time>
      </trkpt>
      <trkpt lat="45.1831" lon="5.63994">
        <ele>1065.081896791</ele>
        <time>2019-08-06T08:53:39Z</time>
      </trkpt>
      <trkpt lat="45.18318" lon="5.63972">
        <ele>1061.9752653786</ele>
        <time>2019-08-06T08:53:44Z</time>
      </trkpt>
      <trkpt lat="45.18338" lon="5.63952">
        <ele>1059.9098564828</ele>
        <time>2019-08-06T08:53:49Z</time>
      </trkpt>
      <trkpt lat="45.18357" lon="5.63938">
        <ele>1056.865718569</ele>
        <time>2019-08-06T08:53:54Z</time>
      </trkpt>
      <trkpt lat="45.18374" lon="5.63934">
        <ele>1054.7684541861</ele>
        <time>2019-08-06T08:53:58Z</time>
      </trkpt>
      <trkpt lat="45.18399" lon="5.63932">
        <ele>1049.8296540478</ele>
        <time>2019-08-06T08:54:03Z</time>
      </trkpt>
      <trkpt lat="45.18417" lon="5.63933">
        <ele>1047.9342335077</ele>
        <time>2019-08-06T08:54:07Z</time>
      </trkpt>
      <trkpt lat="45.18438" lon="5.63931">
        <ele>1047.3726232465</ele>
        <time>2019-08-06T08:54:11Z</time>
      </trkpt>
      <trkpt lat="45.18449" lon="5.63929">
        <ele>1047.9517160399</ele>
        <time>2019-08-06T08:54:15Z</time>
      </trkpt>
      <trkpt lat="45.1846" lon="5.63931">
        <ele>1049.4259181064</ele>
        <time>2019-08-06T08:54:19Z</time>
      </trkpt>
      <trkpt lat="45.18479" lon="5.63929">
        <ele>1050.7782840966</ele>
        <time>2019-08-06T08:54:24Z</time>
      </trkpt>
      <trkpt lat="45.18504" lon="5.63923">
        <ele>1052.3324746157</ele>
        <time>2019-08-06T08:54:28Z</time>
      </trkpt>
      <trkpt lat="45.18528" lon="5.63912">
        <ele>1051.5045416084</ele>
        <time>2019-08-06T08:54:33Z</time>
      </trkpt>
      <trkpt lat="45.18539" lon="5.63912">
        <ele>1050.2616620543</ele>
        <time>2019-08-06T08:54:36Z</time>
      </trkpt>
      <trkpt lat="45.18559" lon="5.63914">
        <ele>1053.0611656831</ele>
        <time>2019-08-06T08:54:41Z</time>
      </trkpt>
      <trkpt lat="45.18569" lon="5.63915">
        <ele>1054.6124822345</ele>
        <time>2019-08-06T08:54:44Z</time>
      </trkpt>
      <trkpt lat="45.18581" lon="5.63918">
        <ele>1053.8020743454</ele>
        <time>2019-08-06T08:54:48Z</time>
      </trkpt>
      <trkpt lat="45.18594" lon="5.63923">
        <ele>1053.3064441893</ele>
        <time>2019-08-06T08:54:52Z</time>
      </trkpt>
      <trkpt lat="45.18626" lon="5.63938">
        <ele>1055.8578108633</ele>
        <time>2019-08-06T08:54:57Z</time>
      </trkpt>
      <trkpt lat="45.18636" lon="5.63942">
        <ele>1054.9012967102</ele>
        <time>2019-08-06T08:55:01Z</time>
      </trkpt>
      <trkpt lat="45.18658" lon="5.6395">
        <ele>1055.454589354</ele>
        <time>2019-08-06T08:55:05Z</time>
      </trkpt>
      <trkpt lat="45.18678" lon="5.63953">
        <ele>1056.2804212093</ele>
        <time>2019-08-06T08:55:10Z</time>
      </trkpt>
      <trkpt lat="45.1869" lon="5.63956">
        <ele>1054.6589670735</ele>
        <time>2019-08-06T08:55:14Z</time>
      </trkpt>
      <trkpt lat="45.18707" lon="5.63962">
        <ele>1053.746362093</ele>
        <time>2019-08-06T08:55:17Z</time>
      </trkpt>
      <trkpt lat="45.18729" lon="5.63968">
        <ele>1052.4409723811</ele>
        <time>2019-08-06T08:55:22Z</time>
      </trkpt>
      <trkpt lat="45.18745" lon="5.6397">
        <ele>1053.5846626287</ele>
        <time>2019-08-06T08:55:26Z</time>
      </trkpt>
      <trkpt lat="45.18756" lon="5.63973">
        <ele>1052.5055217623</ele>
        <time>2019-08-06T08:55:30Z</time>
      </trkpt>
      <trkpt lat="45.18777" lon="5.63977">
        <ele>1051.8875084198</ele>
        <time>2019-08-06T08:55:34Z</time>
      </trkpt>
      <trkpt lat="45.18785" lon="5.63978">
        <ele>1052.0509543784</ele>
        <time>2019-08-06T08:55:38Z</time>
      </trkpt>
      <trkpt lat="45.18804" lon="5.6398">
        <ele>1050.4341844234</ele>
        <time>2019-08-06T08:55:43Z</time>
      </trkpt>
      <trkpt lat="45.18816" lon="5.63981">
        <ele>1051.38433363</ele>
        <time>2019-08-06T08:55:47Z</time>
      </trkpt>
      <trkpt lat="45.18838" lon="5.63986">
        <ele>1051.6651074328</ele>
        <time>2019-08-06T08:55:51Z</time>
      </trkpt>
      <trkpt lat="45.1886" lon="5.6399">
        <ele>1050.7984698745</ele>
        <time>2019-08-06T08:55:56Z</time>
      </trkpt>
      <trkpt lat="45.18887" lon="5.63994">
        <ele>1048.6542708918</ele>
        <time>2019-08-06T08:56:01Z</time>
      </trkpt>
      <trkpt lat="45.18902" lon="5.63994">
        <ele>1047.5101360227</ele>
        <time>2019-08-06T08:56:04Z</time>
      </trkpt>
      <trkpt lat="45.18921" lon="5.63992">
        <ele>1046.5239209765</ele>
        <time>2019-08-06T08:56:09Z</time>
      </trkpt>
      <trkpt lat="45.18937" lon="5.63982">
        <ele>1047.6352903674</ele>
        <time>2019-08-06T08:56:13Z</time>
      </trkpt>
      <trkpt lat="45.18956" lon="5.63976">
        <ele>1048.344625845</ele>
        <time>2019-08-06T08:56:18Z</time>
      </trkpt>
      <trkpt lat="45.18968" lon="5.63973">
        <ele>1048.833302869</ele>
        <time>2019-08-06T08:56:21Z</time>
      </trkpt>
      <trkpt lat="45.1898" lon="5.6397">
        <ele>1049.5628930902</ele>
        <time>2019-08-06T08:56:26Z</time>
      </trkpt>
      <trkpt lat="45.18988" lon="5.63949">
        <ele>1048.4408803618</ele>
        <time>2019-08-06T08:56:31Z</time>
      </trkpt>
      <trkpt lat="45.18986" lon="5.63919">
        <ele>1048.9040634637</ele>
        <time>2019-08-06T08:56:35Z</time>
      </trkpt>
      <trkpt lat="45.18983" lon="5.639">
        <ele>1048.5558390019</ele>
        <time>2019-08-06T08:56:39Z</time>
      </trkpt>
      <trkpt lat="45.1898" lon="5.6388">
        <ele>1047.2449975302</ele>
        <time>2019-08-06T08:56:44Z</time>
      </trkpt>
      <trkpt lat="45.18978" lon="5.63859">
        <ele>1046.6888409415</ele>
        <time>2019-08-06T08:56:48Z</time>
      </trkpt>
      <trkpt lat="45.18977" lon="5.63842">
        <ele>1046.7005391753</ele>
        <time>2019-08-06T08:56:51Z</time>
      </trkpt>
      <trkpt lat="45.18976" lon="5.63816">
        <ele>1046.831508078</ele>
        <time>2019-08-06T08:56:56Z</time>
      </trkpt>
      <trkpt lat="45.18973" lon="5.63792">
        <ele>1047.2305553082</ele>
        <time>2019-08-06T08:57:01Z</time>
      </trkpt>
      <trkpt lat="45.18966" lon="5.63776">
        <ele>1046.5120101905</ele>
        <time>2019-08-06T08:57:05Z</time>
      </trkpt>
      <trkpt lat="45.1896" lon="5.63755">
        <ele>1046.2238559873</ele>
        <time>2019-08-06T08:57:09Z</time>
      </trkpt>
      <trkpt lat="45.18951" lon="5.63729">
        <ele>1044.9689225716</ele>
        <time>2019-08-06T08:57:13Z</time>
      </trkpt>
      <trkpt lat="45.18939" lon="5.63702">
        <ele>1046.1591914397</ele>
        <time>2019-08-06T08:57:17Z</time>
      </trkpt>
      <trkpt lat="45.18933" lon="5.63685">
        <ele>1046.9512965386</ele>
        <time>2019-08-06T08:57:21Z</time>
      </trkpt>
      <trkpt lat="45.18924" lon="5.6366">
        <ele>1047.0710424825</ele>
        <time>2019-08-06T08:57:25Z</time>
      </trkpt>
      <trkpt lat="45.18917" lon="5.63628">
        <ele>1048.4967657865</ele>
        <time>2019-08-06T08:57:30Z</time>
      </trkpt>
      <trkpt lat="45.18912" lon="5.63612">
        <ele>1048.1889189015</ele>
        <time>2019-08-06T08:57:34Z</time>
      </trkpt>
      <trkpt lat="45.18908" lon="5.63596">
        <ele>1047.9475673151</ele>
        <time>2019-08-06T08:57:38Z</time>
      </trkpt>
      <trkpt lat="45.18903" lon="5.63571">
        <ele>1046.0178828567</ele>
        <time>2019-08-06T08:57:43Z</time>
      </trkpt>
      <trkpt lat="45.18898" lon="5.63542">
        <ele>1045.8838265778</ele>
        <time>2019-08-06T08:57:47Z</time>
      </trkpt>
      <trkpt lat="45.18893" lon="5.63527">
        <ele>1045.0060364113</ele>
        <time>2019-08-06T08:57:51Z</time>
      </trkpt>
      <trkpt lat="45.18887" lon="5.63512">
        <ele>1042.5892000253</ele>
        <time>2019-08-06T08:57:55Z</time>
      </trkpt>
      <trkpt lat="45.1888" lon="5.63489">
        <ele>1038.5285586367</ele>
        <time>2019-08-06T08:58:00Z</time>
      </trkpt>
      <trkpt lat="45.18879" lon="5.63463">
        <ele>1035.0439767311</ele>
        <time>2019-08-06T08:58:04Z</time>
      </trkpt>
      <trkpt lat="45.1888" lon="5.63447">
        <ele>1031.7754611538</ele>
        <time>2019-08-06T08:58:07Z</time>
      </trkpt>
      <trkpt lat="45.18897" lon="5.63433">
        <ele>1031.6770571317</ele>
        <time>2019-08-06T08:58:11Z</time>
      </trkpt>
      <trkpt lat="45.18918" lon="5.63419">
        <ele>1034.226730285</ele>
        <time>2019-08-06T08:58:16Z</time>
      </trkpt>
      <trkpt lat="45.18939" lon="5.63407">
        <ele>1032.3325235792</ele>
        <time>2019-08-06T08:58:20Z</time>
      </trkpt>
      <trkpt lat="45.18969" lon="5.6343">
        <ele>1026.7544260145</ele>
        <time>2019-08-06T08:58:25Z</time>
      </trkpt>
      <trkpt lat="45.18989" lon="5.63448">
        <ele>1024.0886684717</ele>
        <time>2019-08-06T08:58:29Z</time>
      </trkpt>
      <trkpt lat="45.19003" lon="5.63443">
        <ele>1022.0906735995</ele>
        <time>2019-08-06T08:58:32Z</time>
      </trkpt>
      <trkpt lat="45.19026" lon="5.63423">
        <ele>1019.3722168356</ele>
        <time>2019-08-06T08:58:36Z</time>
      </trkpt>
      <trkpt lat="45.19047" lon="5.6342">
        <ele>1015.580422618</ele>
        <time>2019-08-06T08:58:40Z</time>
      </trkpt>
      <trkpt lat="45.19074" lon="5.63459">
        <ele>1011.4823720251</ele>
        <time>2019-08-06T08:58:45Z</time>
      </trkpt>
      <trkpt lat="45.1909" lon="5.63508">
        <ele>1009.5860857155</ele>
        <time>2019-08-06T08:58:50Z</time>
      </trkpt>
      <trkpt lat="45.19104" lon="5.63541">
        <ele>1007.5445986539</ele>
        <time>2019-08-06T08:58:54Z</time>
      </trkpt>
      <trkpt lat="45.19122" lon="5.63579">
        <ele>1006.7673483648</ele>
        <time>2019-08-06T08:58:58Z</time>
      </trkpt>
      <trkpt lat="45.19136" lon="5.63609">
        <ele>1006.0531142679</ele>
        <time>2019-08-06T08:59:01Z</time>
      </trkpt>
      <trkpt lat="45.19159" lon="5.63656">
        <ele>1003.5831004479</ele>
        <time>2019-08-06T08:59:06Z</time>
      </trkpt>
      <trkpt lat="45.19171" lon="5.63683">
        <ele>1001.9878662064</ele>
        <time>2019-08-06T08:59:09Z</time>
      </trkpt>
      <trkpt lat="45.19191" lon="5.63724">
        <ele>1000.3611037267</ele>
        <time>2019-08-06T08:59:14Z</time>
      </trkpt>
      <trkpt lat="45.19203" lon="5.63749">
        <ele>999.39785500942</ele>
        <time>2019-08-06T08:59:17Z</time>
      </trkpt>
      <trkpt lat="45.19218" lon="5.63778">
        <ele>999.13289048885</ele>
        <time>2019-08-06T08:59:21Z</time>
      </trkpt>
      <trkpt lat="45.19235" lon="5.63811">
        <ele>998.92984591278</ele>
        <time>2019-08-06T08:59:26Z</time>
      </trkpt>
      <trkpt lat="45.19257" lon="5.63841">
        <ele>997.40571035563</ele>
        <time>2019-08-06T08:59:31Z</time>
      </trkpt>
      <trkpt lat="45.19278" lon="5.63865">
        <ele>996.1184171002</ele>
        <time>2019-08-06T08:59:35Z</time>
      </trkpt>
      <trkpt lat="45.19308" lon="5.63894">
        <ele>993.41384275411</ele>
        <time>2019-08-06T08:59:40Z</time>
      </trkpt>
      <trkpt lat="45.19335" lon="5.63923">
        <ele>992.22631527947</ele>
        <time>2019-08-06T08:59:44Z</time>
      </trkpt>
      <trkpt lat="45.19356" lon="5.6395">
        <ele>990.88596774627</ele>
        <time>2019-08-06T08:59:47Z</time>
      </trkpt>
      <trkpt lat="45.19382" lon="5.63986">
        <ele>989.30637335585</ele>
        <time>2019-08-06T08:59:51Z</time>
      </trkpt>
      <trkpt lat="45.19413" lon="5.64026">
        <ele>988.51744698218</ele>
        <time>2019-08-06T08:59:56Z</time>
      </trkpt>
      <trkpt lat="45.19442" lon="5.64058">
        <ele>984.41592177206</ele>
        <time>2019-08-06T09:00:00Z</time>
      </trkpt>
      <trkpt lat="45.19475" lon="5.64113">
        <ele>979.30463338486</ele>
        <time>2019-08-06T09:00:05Z</time>
      </trkpt>
      <trkpt lat="45.19494" lon="5.64143">
        <ele>977.9371314033</ele>
        <time>2019-08-06T09:00:08Z</time>
      </trkpt>
      <trkpt lat="45.19517" lon="5.64179">
        <ele>977.15897193954</ele>
        <time>2019-08-06T09:00:12Z</time>
      </trkpt>
      <trkpt lat="45.1954" lon="5.64193">
        <ele>976.80007081773</ele>
        <time>2019-08-06T09:00:16Z</time>
      </trkpt>
      <trkpt lat="45.19552" lon="5.64173">
        <ele>975.63912652985</ele>
        <time>2019-08-06T09:00:20Z</time>
      </trkpt>
      <trkpt lat="45.19556" lon="5.64142">
        <ele>973.92208728873</ele>
        <time>2019-08-06T09:00:24Z</time>
      </trkpt>
      <trkpt lat="45.19546" lon="5.64106">
        <ele>973.5110420842</ele>
        <time>2019-08-06T09:00:28Z</time>
      </trkpt>
      <trkpt lat="45.19531" lon="5.64075">
        <ele>972.92643946914</ele>
        <time>2019-08-06T09:00:32Z</time>
      </trkpt>
      <trkpt lat="45.19517" lon="5.64047">
        <ele>975.95344234258</ele>
        <time>2019-08-06T09:00:36Z</time>
      </trkpt>
      <trkpt lat="45.19499" lon="5.64015">
        <ele>973.97178008468</ele>
        <time>2019-08-06T09:00:41Z</time>
      </trkpt>
      <trkpt lat="45.19483" lon="5.63986">
        <ele>973.57313013845</ele>
        <time>2019-08-06T09:00:45Z</time>
      </trkpt>
      <trkpt lat="45.19467" lon="5.63941">
        <ele>972.67866997803</ele>
        <time>2019-08-06T09:00:50Z</time>
      </trkpt>
      <trkpt lat="45.1946" lon="5.63917">
        <ele>973.97333228747</ele>
        <time>2019-08-06T09:00:53Z</time>
      </trkpt>
      <trkpt lat="45.19445" lon="5.63891">
        <ele>972.17102956737</ele>
        <time>2019-08-06T09:00:57Z</time>
      </trkpt>
      <trkpt lat="45.19425" lon="5.63881">
        <ele>972.32970221209</ele>
        <time>2019-08-06T09:01:01Z</time>
      </trkpt>
      <trkpt lat="45.194" lon="5.63864">
        <ele>972.95904049141</ele>
        <time>2019-08-06T09:01:06Z</time>
      </trkpt>
      <trkpt lat="45.19385" lon="5.63818">
        <ele>970.19535230356</ele>
        <time>2019-08-06T09:01:11Z</time>
      </trkpt>
      <trkpt lat="45.19381" lon="5.63773">
        <ele>969.42061216364</ele>
        <time>2019-08-06T09:01:15Z</time>
      </trkpt>
      <trkpt lat="45.19376" lon="5.63739">
        <ele>968.19452712313</ele>
        <time>2019-08-06T09:01:18Z</time>
      </trkpt>
      <trkpt lat="45.19372" lon="5.63687">
        <ele>966.74475984577</ele>
        <time>2019-08-06T09:01:23Z</time>
      </trkpt>
      <trkpt lat="45.19369" lon="5.6364">
        <ele>965.6583265476</ele>
        <time>2019-08-06T09:01:27Z</time>
      </trkpt>
      <trkpt lat="45.19357" lon="5.63594">
        <ele>963.41676926166</ele>
        <time>2019-08-06T09:01:31Z</time>
      </trkpt>
      <trkpt lat="45.19348" lon="5.63557">
        <ele>961.36065556618</ele>
        <time>2019-08-06T09:01:34Z</time>
      </trkpt>
      <trkpt lat="45.19336" lon="5.63499">
        <ele>957.66613849144</ele>
        <time>2019-08-06T09:01:39Z</time>
      </trkpt>
      <trkpt lat="45.19325" lon="5.6347">
        <ele>956.32921720088</ele>
        <time>2019-08-06T09:01:43Z</time>
      </trkpt>
      <trkpt lat="45.19334" lon="5.63463">
        <ele>956.01292212837</ele>
        <time>2019-08-06T09:01:47Z</time>
      </trkpt>
      <trkpt lat="45.19342" lon="5.63472">
        <ele>953.17073460238</ele>
        <time>2019-08-06T09:01:52Z</time>
      </trkpt>
      <trkpt lat="45.1936" lon="5.63484">
        <ele>949.73706578105</ele>
        <time>2019-08-06T09:01:56Z</time>
      </trkpt>
      <trkpt lat="45.19375" lon="5.63498">
        <ele>949.21421260897</ele>
        <time>2019-08-06T09:02:00Z</time>
      </trkpt>
      <trkpt lat="45.19386" lon="5.6351">
        <ele>945.9611469513</ele>
        <time>2019-08-06T09:02:05Z</time>
      </trkpt>
      <trkpt lat="45.19392" lon="5.63518">
        <ele>943.95384290982</ele>
        <time>2019-08-06T09:02:08Z</time>
      </trkpt>
      <trkpt lat="45.19391" lon="5.6352">
        <ele>942.54511508597</ele>
        <time>2019-08-06T09:02:14Z</time>
      </trkpt>
      <trkpt lat="45.19385" lon="5.63488">
        <ele>944.8828029153</ele>
        <time>2019-08-06T09:02:18Z</time>
      </trkpt>
      <trkpt lat="45.19374" lon="5.63458">
        <ele>944.01819504393</ele>
        <time>2019-08-06T09:02:22Z</time>
      </trkpt>
      <trkpt lat="45.19349" lon="5.63416">
        <ele>941.87272780339</ele>
        <time>2019-08-06T09:02:27Z</time>
      </trkpt>
      <trkpt lat="45.19324" lon="5.63382">
        <ele>939.656825942</ele>
        <time>2019-08-06T09:02:31Z</time>
      </trkpt>
      <trkpt lat="45.19295" lon="5.63337">
        <ele>933.95541097416</ele>
        <time>2019-08-06T09:02:36Z</time>
      </trkpt>
      <trkpt lat="45.19276" lon="5.63312">
        <ele>930.76198959545</ele>
        <time>2019-08-06T09:02:39Z</time>
      </trkpt>
      <trkpt lat="45.19245" lon="5.6328">
        <ele>928.3303293473</ele>
        <time>2019-08-06T09:02:44Z</time>
      </trkpt>
      <trkpt lat="45.19214" lon="5.63263">
        <ele>927.66147970073</ele>
        <time>2019-08-06T09:02:49Z</time>
      </trkpt>
      <trkpt lat="45.19202" lon="5.63261">
        <ele>926.51912079113</ele>
        <time>2019-08-06T09:02:53Z</time>
      </trkpt>
      <trkpt lat="45.19193" lon="5.63259">
        <ele>926.94623933201</ele>
        <time>2019-08-06T09:02:57Z</time>
      </trkpt>
      <trkpt lat="45.19182" lon="5.63257">
        <ele>927.83830756738</ele>
        <time>2019-08-06T09:03:02Z</time>
      </trkpt>
      <trkpt lat="45.19171" lon="5.63254">
        <ele>928.59911844845</ele>
        <time>2019-08-06T09:03:07Z</time>
      </trkpt>
      <trkpt lat="45.19162" lon="5.63253">
        <ele>928.97144099778</ele>
        <time>2019-08-06T09:03:11Z</time>
      </trkpt>
      <trkpt lat="45.1915" lon="5.63251">
        <ele>928.25746290294</ele>
        <time>2019-08-06T09:03:15Z</time>
      </trkpt>
      <trkpt lat="45.19133" lon="5.63247">
        <ele>926.03598899723</ele>
        <time>2019-08-06T09:03:18Z</time>
      </trkpt>
      <trkpt lat="45.19104" lon="5.63227">
        <ele>924.90298689264</ele>
        <time>2019-08-06T09:03:23Z</time>
      </trkpt>
      <trkpt lat="45.19074" lon="5.63205">
        <ele>921.39184858684</ele>
        <time>2019-08-06T09:03:28Z</time>
      </trkpt>
      <trkpt lat="45.19059" lon="5.63186">
        <ele>923.04184036846</ele>
        <time>2019-08-06T09:03:31Z</time>
      </trkpt>
      <trkpt lat="45.1905" lon="5.6316">
        <ele>923.56673885271</ele>
        <time>2019-08-06T09:03:35Z</time>
      </trkpt>
      <trkpt lat="45.19037" lon="5.63146">
        <ele>922.44773770326</ele>
        <time>2019-08-06T09:03:40Z</time>
      </trkpt>
      <trkpt lat="45.19019" lon="5.63124">
        <ele>921.81488122229</ele>
        <time>2019-08-06T09:03:45Z</time>
      </trkpt>
      <trkpt lat="45.19" lon="5.63103">
        <ele>920.82378019353</ele>
        <time>2019-08-06T09:03:49Z</time>
      </trkpt>
      <trkpt lat="45.18971" lon="5.63084">
        <ele>919.6052769333</ele>
        <time>2019-08-06T09:03:53Z</time>
      </trkpt>
      <trkpt lat="45.18947" lon="5.63064">
        <ele>915.65045080757</ele>
        <time>2019-08-06T09:03:58Z</time>
      </trkpt>
      <trkpt lat="45.18919" lon="5.63054">
        <ele>911.68522066376</ele>
        <time>2019-08-06T09:04:02Z</time>
      </trkpt>
      <trkpt lat="45.18894" lon="5.63032">
        <ele>909.33493071319</ele>
        <time>2019-08-06T09:04:06Z</time>
      </trkpt>
      <trkpt lat="45.18869" lon="5.63001">
        <ele>906.75436219787</ele>
        <time>2019-08-06T09:04:10Z</time>
      </trkpt>
      <trkpt lat="45.18838" lon="5.62966">
        <ele>902.08450377926</ele>
        <time>2019-08-06T09:04:14Z</time>
      </trkpt>
      <trkpt lat="45.18803" lon="5.62933">
        <ele>897.41091291128</ele>
        <time>2019-08-06T09:04:18Z</time>
      </trkpt>
      <trkpt lat="45.18782" lon="5.62917">
        <ele>894.14804206669</ele>
        <time>2019-08-06T09:04:21Z</time>
      </trkpt>
      <trkpt lat="45.18762" lon="5.62898">
        <ele>894.13414262012</ele>
        <time>2019-08-06T09:04:25Z</time>
      </trkpt>
      <trkpt lat="45.18737" lon="5.62878">
        <ele>893.16645796655</ele>
        <time>2019-08-06T09:04:29Z</time>
      </trkpt>
      <trkpt lat="45.18705" lon="5.62851">
        <ele>889.64245715954</ele>
        <time>2019-08-06T09:04:34Z</time>
      </trkpt>
      <trkpt lat="45.18672" lon="5.62824">
        <ele>888.36810351131</ele>
        <time>2019-08-06T09:04:38Z</time>
      </trkpt>
      <trkpt lat="45.18632" lon="5.62785">
        <ele>881.47765050173</ele>
        <time>2019-08-06T09:04:43Z</time>
      </trkpt>
      <trkpt lat="45.18595" lon="5.6276">
        <ele>880.63848152052</ele>
        <time>2019-08-06T09:04:47Z</time>
      </trkpt>
      <trkpt lat="45.1857" lon="5.62739">
        <ele>878.96938489504</ele>
        <time>2019-08-06T09:04:51Z</time>
      </trkpt>
      <trkpt lat="45.18552" lon="5.62719">
        <ele>879.2196690187</ele>
        <time>2019-08-06T09:04:55Z</time>
      </trkpt>
      <trkpt lat="45.18535" lon="5.627">
        <ele>878.4489265198</ele>
        <time>2019-08-06T09:04:59Z</time>
      </trkpt>
      <trkpt lat="45.18515" lon="5.62675">
        <ele>878.79357218111</ele>
        <time>2019-08-06T09:05:04Z</time>
      </trkpt>
      <trkpt lat="45.185" lon="5.62657">
        <ele>879.21215587842</ele>
        <time>2019-08-06T09:05:08Z</time>
      </trkpt>
      <trkpt lat="45.18488" lon="5.62639">
        <ele>879.5128434952</ele>
        <time>2019-08-06T09:05:12Z</time>
      </trkpt>
      <trkpt lat="45.18479" lon="5.62619">
        <ele>879.72092281376</ele>
        <time>2019-08-06T09:05:16Z</time>
      </trkpt>
      <trkpt lat="45.18475" lon="5.62601">
        <ele>879.95683805915</ele>
        <time>2019-08-06T09:05:19Z</time>
      </trkpt>
      <trkpt lat="45.18463" lon="5.62577">
        <ele>880.0441412854</ele>
        <time>2019-08-06T09:05:24Z</time>
      </trkpt>
      <trkpt lat="45.18449" lon="5.62559">
        <ele>880.20078594435</ele>
        <time>2019-08-06T09:05:28Z</time>
      </trkpt>
      <trkpt lat="45.18435" lon="5.62536">
        <ele>878.82583227175</ele>
        <time>2019-08-06T09:05:32Z</time>
      </trkpt>
      <trkpt lat="45.18423" lon="5.62506">
        <ele>876.60033193849</ele>
        <time>2019-08-06T09:05:36Z</time>
      </trkpt>
      <trkpt lat="45.18421" lon="5.62465">
        <ele>873.65062698202</ele>
        <time>2019-08-06T09:05:41Z</time>
      </trkpt>
      <trkpt lat="45.18422" lon="5.62436">
        <ele>871.67742704826</ele>
        <time>2019-08-06T09:05:45Z</time>
      </trkpt>
      <trkpt lat="45.18403" lon="5.62441">
        <ele>868.87881844268</ele>
        <time>2019-08-06T09:05:50Z</time>
      </trkpt>
      <trkpt lat="45.18381" lon="5.62463">
        <ele>865.05292447114</ele>
        <time>2019-08-06T09:05:54Z</time>
      </trkpt>
      <trkpt lat="45.18351" lon="5.6248">
        <ele>861.87450629934</ele>
        <time>2019-08-06T09:05:58Z</time>
      </trkpt>
      <trkpt lat="45.18322" lon="5.6248">
        <ele>859.82702640569</ele>
        <time>2019-08-06T09:06:02Z</time>
      </trkpt>
      <trkpt lat="45.1831" lon="5.62447">
        <ele>859.69377329556</ele>
        <time>2019-08-06T09:06:06Z</time>
      </trkpt>
      <trkpt lat="45.18303" lon="5.62414">
        <ele>859.65612054182</ele>
        <time>2019-08-06T09:06:10Z</time>
      </trkpt>
      <trkpt lat="45.1829" lon="5.62385">
        <ele>859.76412334355</ele>
        <time>2019-08-06T09:06:14Z</time>
      </trkpt>
      <trkpt lat="45.18273" lon="5.62364">
        <ele>860.74895025062</ele>
        <time>2019-08-06T09:06:18Z</time>
      </trkpt>
      <trkpt lat="45.18259" lon="5.6235">
        <ele>861.66616453111</ele>
        <time>2019-08-06T09:06:21Z</time>
      </trkpt>
      <trkpt lat="45.18247" lon="5.62336">
        <ele>862.59567589299</ele>
        <time>2019-08-06T09:06:24Z</time>
      </trkpt>
      <trkpt lat="45.18232" lon="5.62319">
        <ele>863.34851850376</ele>
        <time>2019-08-06T09:06:28Z</time>
      </trkpt>
      <trkpt lat="45.18218" lon="5.62306">
        <ele>862.86307452069</ele>
        <time>2019-08-06T09:06:31Z</time>
      </trkpt>
      <trkpt lat="45.18195" lon="5.62281">
        <ele>860.49183379933</ele>
        <time>2019-08-06T09:06:35Z</time>
      </trkpt>
      <trkpt lat="45.18173" lon="5.62235">
        <ele>859.50383322676</ele>
        <time>2019-08-06T09:06:40Z</time>
      </trkpt>
      <trkpt lat="45.18161" lon="5.62194">
        <ele>860.6417631308</ele>
        <time>2019-08-06T09:06:44Z</time>
      </trkpt>
      <trkpt lat="45.18146" lon="5.62154">
        <ele>861.59529509053</ele>
        <time>2019-08-06T09:06:49Z</time>
      </trkpt>
      <trkpt lat="45.1812" lon="5.6214">
        <ele>859.12573977057</ele>
        <time>2019-08-06T09:06:53Z</time>
      </trkpt>
      <trkpt lat="45.18088" lon="5.62129">
        <ele>855.61109136814</ele>
        <time>2019-08-06T09:06:57Z</time>
      </trkpt>
      <trkpt lat="45.18055" lon="5.62099">
        <ele>851.02624318793</ele>
        <time>2019-08-06T09:07:01Z</time>
      </trkpt>
      <trkpt lat="45.18015" lon="5.62057">
        <ele>845.49253390794</ele>
        <time>2019-08-06T09:07:06Z</time>
      </trkpt>
      <trkpt lat="45.1798" lon="5.62065">
        <ele>843.21589464009</ele>
        <time>2019-08-06T09:07:10Z</time>
      </trkpt>
      <trkpt lat="45.17957" lon="5.62069">
        <ele>842.61121208084</ele>
        <time>2019-08-06T09:07:13Z</time>
      </trkpt>
      <trkpt lat="45.17932" lon="5.62057">
        <ele>841.85543857758</ele>
        <time>2019-08-06T09:07:18Z</time>
      </trkpt>
      <trkpt lat="45.17926" lon="5.62037">
        <ele>841.6681005035</ele>
        <time>2019-08-06T09:07:22Z</time>
      </trkpt>
      <trkpt lat="45.17934" lon="5.6201">
        <ele>841.62224969948</ele>
        <time>2019-08-06T09:07:26Z</time>
      </trkpt>
      <trkpt lat="45.17956" lon="5.61999">
        <ele>842.38310470353</ele>
        <time>2019-08-06T09:07:31Z</time>
      </trkpt>
      <trkpt lat="45.17977" lon="5.61996">
        <ele>842.53477512888</ele>
        <time>2019-08-06T09:07:35Z</time>
      </trkpt>
      <trkpt lat="45.17998" lon="5.61983">
        <ele>843.18887897338</ele>
        <time>2019-08-06T09:07:39Z</time>
      </trkpt>
      <trkpt lat="45.18015" lon="5.61979">
        <ele>844.19410129219</ele>
        <time>2019-08-06T09:07:42Z</time>
      </trkpt>
      <trkpt lat="45.18044" lon="5.61983">
        <ele>843.81844163134</ele>
        <time>2019-08-06T09:07:47Z</time>
      </trkpt>
      <trkpt lat="45.18065" lon="5.61995">
        <ele>844.21385901106</ele>
        <time>2019-08-06T09:07:51Z</time>
      </trkpt>
      <trkpt lat="45.1808" lon="5.62007">
        <ele>844.37441493763</ele>
        <time>2019-08-06T09:07:54Z</time>
      </trkpt>
      <trkpt lat="45.18095" lon="5.62025">
        <ele>844.04364943</ele>
        <time>2019-08-06T09:07:58Z</time>
      </trkpt>
      <trkpt lat="45.18106" lon="5.62038">
        <ele>843.13883483551</ele>
        <time>2019-08-06T09:08:03Z</time>
      </trkpt>
      <trkpt lat="45.18106" lon="5.62015">
        <ele>842.79338543087</ele>
        <time>2019-08-06T09:08:07Z</time>
      </trkpt>
      <trkpt lat="45.18091" lon="5.62001">
        <ele>842.86899186132</ele>
        <time>2019-08-06T09:08:11Z</time>
      </trkpt>
      <trkpt lat="45.18081" lon="5.61993">
        <ele>842.77194979014</ele>
        <time>2019-08-06T09:08:15Z</time>
      </trkpt>
      <trkpt lat="45.18069" lon="5.61982">
        <ele>843.07575910828</ele>
        <time>2019-08-06T09:08:19Z</time>
      </trkpt>
      <trkpt lat="45.18059" lon="5.61972">
        <ele>843.59613903927</ele>
        <time>2019-08-06T09:08:23Z</time>
      </trkpt>
      <trkpt lat="45.1805" lon="5.61964">
        <ele>844.83055256598</ele>
        <time>2019-08-06T09:08:27Z</time>
      </trkpt>
      <trkpt lat="45.18035" lon="5.61956">
        <ele>846.36103657853</ele>
        <time>2019-08-06T09:08:32Z</time>
      </trkpt>
      <trkpt lat="45.18024" lon="5.61954">
        <ele>847.45519704092</ele>
        <time>2019-08-06T09:08:36Z</time>
      </trkpt>
      <trkpt lat="45.18012" lon="5.61956">
        <ele>848.1437653547</ele>
        <time>2019-08-06T09:08:40Z</time>
      </trkpt>
      <trkpt lat="45.18003" lon="5.61959">
        <ele>848.90182791083</ele>
        <time>2019-08-06T09:08:43Z</time>
      </trkpt>
      <trkpt lat="45.17989" lon="5.61965">
        <ele>849.65450736331</ele>
        <time>2019-08-06T09:08:48Z</time>
      </trkpt>
      <trkpt lat="45.17974" lon="5.6197">
        <ele>851.44260499363</ele>
        <time>2019-08-06T09:08:53Z</time>
      </trkpt>
      <trkpt lat="45.17959" lon="5.61968">
        <ele>851.68053264929</ele>
        <time>2019-08-06T09:08:58Z</time>
      </trkpt>
      <trkpt lat="45.17948" lon="5.61962">
        <ele>852.33343605031</ele>
        <time>2019-08-06T09:09:02Z</time>
      </trkpt>
      <trkpt lat="45.1794" lon="5.61956">
        <ele>853.00259840345</ele>
        <time>2019-08-06T09:09:05Z</time>
      </trkpt>
      <trkpt lat="45.17928" lon="5.61948">
        <ele>853.42316408065</ele>
        <time>2019-08-06T09:09:09Z</time>
      </trkpt>
      <trkpt lat="45.17918" lon="5.61941">
        <ele>854.09776568106</ele>
        <time>2019-08-06T09:09:13Z</time>
      </trkpt>
      <trkpt lat="45.17905" lon="5.61932">
        <ele>853.80651091789</ele>
        <time>2019-08-06T09:09:18Z</time>
      </trkpt>
      <trkpt lat="45.17899" lon="5.61928">
        <ele>853.96016212361</ele>
        <time>2019-08-06T09:09:21Z</time>
      </trkpt>
      <trkpt lat="45.17886" lon="5.61922">
        <ele>853.90927197149</ele>
        <time>2019-08-06T09:09:25Z</time>
      </trkpt>
      <trkpt lat="45.17871" lon="5.61915">
        <ele>854.44115105051</ele>
        <time>2019-08-06T09:09:30Z</time>
      </trkpt>
      <trkpt lat="45.17861" lon="5.61911">
        <ele>854.84657563859</ele>
        <time>2019-08-06T09:09:33Z</time>
      </trkpt>
      <trkpt lat="45.17852" lon="5.61907">
        <ele>855.21639486439</ele>
        <time>2019-08-06T09:09:36Z</time>
      </trkpt>
      <trkpt lat="45.17839" lon="5.61901">
        <ele>855.51587997763</ele>
        <time>2019-08-06T09:09:40Z</time>
      </trkpt>
      <trkpt lat="45.17827" lon="5.61894">
        <ele>855.97572504824</ele>
        <time>2019-08-06T09:09:44Z</time>
      </trkpt>
      <trkpt lat="45.17818" lon="5.6189">
        <ele>856.30145032771</ele>
        <time>2019-08-06T09:09:47Z</time>
      </trkpt>
      <trkpt lat="45.17802" lon="5.61883">
        <ele>857.21085725012</ele>
        <time>2019-08-06T09:09:52Z</time>
      </trkpt>
      <trkpt lat="45.17789" lon="5.6188">
        <ele>857.60134715063</ele>
        <time>2019-08-06T09:09:56Z</time>
      </trkpt>
      <trkpt lat="45.17772" lon="5.61879">
        <ele>857.76364800708</ele>
        <time>2019-08-06T09:10:01Z</time>
      </trkpt>
      <trkpt lat="45.17758" lon="5.6188">
        <ele>858.13326446534</ele>
        <time>2019-08-06T09:10:05Z</time>
      </trkpt>
      <trkpt lat="45.1774" lon="5.61881">
        <ele>858.70805106722</ele>
        <time>2019-08-06T09:10:10Z</time>
      </trkpt>
      <trkpt lat="45.17723" lon="5.61881">
        <ele>859.32345576173</ele>
        <time>2019-08-06T09:10:15Z</time>
      </trkpt>
      <trkpt lat="45.1771" lon="5.61879">
        <ele>859.4338699704</ele>
        <time>2019-08-06T09:10:19Z</time>
      </trkpt>
      <trkpt lat="45.17719" lon="5.61866">
        <ele>859.00794494028</ele>
        <time>2019-08-06T09:10:24Z</time>
      </trkpt>
      <trkpt lat="45.17732" lon="5.61868">
        <ele>859.68844427633</ele>
        <time>2019-08-06T09:10:28Z</time>
      </trkpt>
      <trkpt lat="45.17745" lon="5.61867">
        <ele>861.50669874819</ele>
        <time>2019-08-06T09:10:33Z</time>
      </trkpt>
      <trkpt lat="45.17754" lon="5.61866">
        <ele>862.3534844725</ele>
        <time>2019-08-06T09:10:36Z</time>
      </trkpt>
      <trkpt lat="45.17758" lon="5.61863">
        <ele>863.20382299276</ele>
        <time>2019-08-06T09:10:39Z</time>
      </trkpt>
      <trkpt lat="45.17767" lon="5.61857">
        <ele>864.2537084597</ele>
        <time>2019-08-06T09:10:43Z</time>
      </trkpt>
      <trkpt lat="45.17777" lon="5.61851">
        <ele>865.05775154017</ele>
        <time>2019-08-06T09:10:47Z</time>
      </trkpt>
      <trkpt lat="45.17787" lon="5.61844">
        <ele>866.10322201873</ele>
        <time>2019-08-06T09:10:51Z</time>
      </trkpt>
      <trkpt lat="45.17794" lon="5.6184">
        <ele>867.36877316539</ele>
        <time>2019-08-06T09:10:55Z</time>
      </trkpt>
      <trkpt lat="45.17801" lon="5.61838">
        <ele>868.49823918445</ele>
        <time>2019-08-06T09:10:59Z</time>
      </trkpt>
      <trkpt lat="45.17813" lon="5.6184">
        <ele>869.88937664929</ele>
        <time>2019-08-06T09:11:04Z</time>
      </trkpt>
      <trkpt lat="45.17823" lon="5.61844">
        <ele>870.78700673193</ele>
        <time>2019-08-06T09:11:08Z</time>
      </trkpt>
      <trkpt lat="45.17834" lon="5.61847">
        <ele>872.21098103596</ele>
        <time>2019-08-06T09:11:13Z</time>
      </trkpt>
      <trkpt lat="45.1784" lon="5.61849">
        <ele>873.18894355068</ele>
        <time>2019-08-06T09:11:16Z</time>
      </trkpt>
      <trkpt lat="45.1785" lon="5.61849">
        <ele>874.00048250939</ele>
        <time>2019-08-06T09:11:21Z</time>
      </trkpt>
      <trkpt lat="45.17859" lon="5.61847">
        <ele>874.75277728309</ele>
        <time>2019-08-06T09:11:25Z</time>
      </trkpt>
      <trkpt lat="45.17867" lon="5.61845">
        <ele>875.83621521658</ele>
        <time>2019-08-06T09:11:29Z</time>
      </trkpt>
      <trkpt lat="45.17873" lon="5.61843">
        <ele>876.6701677051</ele>
        <time>2019-08-06T09:11:32Z</time>
      </trkpt>
      <trkpt lat="45.1788" lon="5.61841">
        <ele>877.50133521114</ele>
        <time>2019-08-06T09:11:36Z</time>
      </trkpt>
      <trkpt lat="45.17892" lon="5.61838">
        <ele>878.81847239833</ele>
        <time>2019-08-06T09:11:41Z</time>
      </trkpt>
      <trkpt lat="45.17903" lon="5.61835">
        <ele>879.95942548786</ele>
        <time>2019-08-06T09:11:46Z</time>
      </trkpt>
      <trkpt lat="45.17911" lon="5.61833">
        <ele>880.63891322233</ele>
        <time>2019-08-06T09:11:50Z</time>
      </trkpt>
      <trkpt lat="45.1792" lon="5.61834">
        <ele>882.34115781426</ele>
        <time>2019-08-06T09:11:54Z</time>
      </trkpt>
      <trkpt lat="45.17929" lon="5.61835">
        <ele>884.32928565342</ele>
        <time>2019-08-06T09:11:58Z</time>
      </trkpt>
      <trkpt lat="45.1794" lon="5.61838">
        <ele>885.80572145089</ele>
        <time>2019-08-06T09:12:03Z</time>
      </trkpt>
      <trkpt lat="45.17951" lon="5.61837">
        <ele>886.58971991052</ele>
        <time>2019-08-06T09:12:08Z</time>
      </trkpt>
      <trkpt lat="45.17957" lon="5.61837">
        <ele>886.83225721576</ele>
        <time>2019-08-06T09:12:11Z</time>
      </trkpt>
      <trkpt lat="45.17968" lon="5.61835">
        <ele>887.73687483603</ele>
        <time>2019-08-06T09:12:16Z</time>
      </trkpt>
      <trkpt lat="45.17977" lon="5.61833">
        <ele>888.57154044746</ele>
        <time>2019-08-06T09:12:20Z</time>
      </trkpt>
      <trkpt lat="45.17989" lon="5.61831">
        <ele>888.87998371658</ele>
        <time>2019-08-06T09:12:25Z</time>
      </trkpt>
      <trkpt lat="45.17999" lon="5.61828">
        <ele>889.30922196171</ele>
        <time>2019-08-06T09:12:30Z</time>
      </trkpt>
      <trkpt lat="45.18007" lon="5.61825">
        <ele>889.98896419614</ele>
        <time>2019-08-06T09:12:34Z</time>
      </trkpt>
      <trkpt lat="45.18016" lon="5.61821">
        <ele>890.8958882119</ele>
        <time>2019-08-06T09:12:38Z</time>
      </trkpt>
      <trkpt lat="45.18028" lon="5.61817">
        <ele>891.63701806566</ele>
        <time>2019-08-06T09:12:42Z</time>
      </trkpt>
      <trkpt lat="45.18035" lon="5.61813">
        <ele>892.47681689346</ele>
        <time>2019-08-06T09:12:46Z</time>
      </trkpt>
      <trkpt lat="45.18048" lon="5.61809">
        <ele>893.4753803709</ele>
        <time>2019-08-06T09:12:51Z</time>
      </trkpt>
      <trkpt lat="45.18054" lon="5.61807">
        <ele>894.16637331239</ele>
        <time>2019-08-06T09:12:54Z</time>
      </trkpt>
      <trkpt lat="45.18062" lon="5.61805">
        <ele>894.34325036088</ele>
        <time>2019-08-06T09:12:58Z</time>
      </trkpt>
      <trkpt lat="45.18074" lon="5.61806">
        <ele>895.26308708626</ele>
        <time>2019-08-06T09:13:02Z</time>
      </trkpt>
      <trkpt lat="45.18083" lon="5.61806">
        <ele>895.08058124549</ele>
        <time>2019-08-06T09:13:06Z</time>
      </trkpt>
      <trkpt lat="45.18095" lon="5.61805">
        <ele>896.39070760468</ele>
        <time>2019-08-06T09:13:11Z</time>
      </trkpt>
      <trkpt lat="45.18102" lon="5.61804">
        <ele>896.77044814325</ele>
        <time>2019-08-06T09:13:14Z</time>
      </trkpt>
      <trkpt lat="45.18113" lon="5.61802">
        <ele>898.00553844687</ele>
        <time>2019-08-06T09:13:19Z</time>
      </trkpt>
      <trkpt lat="45.18123" lon="5.61799">
        <ele>898.21533080988</ele>
        <time>2019-08-06T09:13:24Z</time>
      </trkpt>
      <trkpt lat="45.18131" lon="5.61796">
        <ele>898.72840997671</ele>
        <time>2019-08-06T09:13:28Z</time>
      </trkpt>
      <trkpt lat="45.18139" lon="5.61794">
        <ele>899.99545032576</ele>
        <time>2019-08-06T09:13:32Z</time>
      </trkpt>
      <trkpt lat="45.1815" lon="5.61792">
        <ele>901.34562867475</ele>
        <time>2019-08-06T09:13:37Z</time>
      </trkpt>
      <trkpt lat="45.1816" lon="5.61788">
        <ele>901.91964763265</ele>
        <time>2019-08-06T09:13:41Z</time>
      </trkpt>
      <trkpt lat="45.18169" lon="5.61784">
        <ele>903.07824827812</ele>
        <time>2019-08-06T09:13:45Z</time>
      </trkpt>
      <trkpt lat="45.18179" lon="5.61781">
        <ele>903.49645744805</ele>
        <time>2019-08-06T09:13:49Z</time>
      </trkpt>
      <trkpt lat="45.1819" lon="5.61778">
        <ele>904.6814227756</ele>
        <time>2019-08-06T09:13:54Z</time>
      </trkpt>
      <trkpt lat="45.18197" lon="5.61776">
        <ele>904.9961621324</ele>
        <time>2019-08-06T09:13:58Z</time>
      </trkpt>
      <trkpt lat="45.18207" lon="5.61778">
        <ele>907.78304137402</ele>
        <time>2019-08-06T09:14:02Z</time>
      </trkpt>
      <trkpt lat="45.18217" lon="5.61783">
        <ele>909.17542359091</ele>
        <time>2019-08-06T09:14:07Z</time>
      </trkpt>
      <trkpt lat="45.18225" lon="5.61787">
        <ele>910.19184758183</ele>
        <time>2019-08-06T09:14:11Z</time>
      </trkpt>
      <trkpt lat="45.18234" lon="5.61791">
        <ele>911.09403153729</ele>
        <time>2019-08-06T09:14:15Z</time>
      </trkpt>
      <trkpt lat="45.18244" lon="5.61796">
        <ele>911.8838600686</ele>
        <time>2019-08-06T09:14:20Z</time>
      </trkpt>
      <trkpt lat="45.18256" lon="5.61803">
        <ele>912.86132736852</ele>
        <time>2019-08-06T09:14:25Z</time>
      </trkpt>
      <trkpt lat="45.18266" lon="5.61807">
        <ele>913.47487754797</ele>
        <time>2019-08-06T09:14:29Z</time>
      </trkpt>
      <trkpt lat="45.1828" lon="5.61809">
        <ele>914.45361657282</ele>
        <time>2019-08-06T09:14:34Z</time>
      </trkpt>
      <trkpt lat="45.18291" lon="5.61809">
        <ele>915.0175637672</ele>
        <time>2019-08-06T09:14:38Z</time>
      </trkpt>
      <trkpt lat="45.18306" lon="5.61813">
        <ele>915.62107581917</ele>
        <time>2019-08-06T09:14:43Z</time>
      </trkpt>
      <trkpt lat="45.18318" lon="5.61818">
        <ele>915.89918612827</ele>
        <time>2019-08-06T09:14:47Z</time>
      </trkpt>
      <trkpt lat="45.18333" lon="5.61824">
        <ele>916.29658673064</ele>
        <time>2019-08-06T09:14:52Z</time>
      </trkpt>
      <trkpt lat="45.18345" lon="5.61829">
        <ele>916.69267534019</ele>
        <time>2019-08-06T09:14:56Z</time>
      </trkpt>
      <trkpt lat="45.18357" lon="5.61835">
        <ele>916.81426220635</ele>
        <time>2019-08-06T09:15:00Z</time>
      </trkpt>
      <trkpt lat="45.18373" lon="5.61847">
        <ele>916.00717735354</ele>
        <time>2019-08-06T09:15:05Z</time>
      </trkpt>
      <trkpt lat="45.18393" lon="5.61859">
        <ele>915.54215172374</ele>
        <time>2019-08-06T09:15:09Z</time>
      </trkpt>
      <trkpt lat="45.18405" lon="5.61869">
        <ele>915.04909479993</ele>
        <time>2019-08-06T09:15:12Z</time>
      </trkpt>
      <trkpt lat="45.18425" lon="5.61879">
        <ele>913.67125466489</ele>
        <time>2019-08-06T09:15:16Z</time>
      </trkpt>
      <trkpt lat="45.18447" lon="5.61882">
        <ele>912.84425908796</ele>
        <time>2019-08-06T09:15:20Z</time>
      </trkpt>
      <trkpt lat="45.18467" lon="5.61877">
        <ele>913.43017414193</ele>
        <time>2019-08-06T09:15:24Z</time>
      </trkpt>
      <trkpt lat="45.18479" lon="5.61869">
        <ele>913.74610475574</ele>
        <time>2019-08-06T09:15:27Z</time>
      </trkpt>
      <trkpt lat="45.18495" lon="5.61846">
        <ele>914.78372633702</ele>
        <time>2019-08-06T09:15:32Z</time>
      </trkpt>
      <trkpt lat="45.18507" lon="5.61818">
        <ele>914.96485284736</ele>
        <time>2019-08-06T09:15:37Z</time>
      </trkpt>
      <trkpt lat="45.18516" lon="5.61793">
        <ele>914.6866213797</ele>
        <time>2019-08-06T09:15:41Z</time>
      </trkpt>
      <trkpt lat="45.18527" lon="5.61768">
        <ele>914.35973536862</ele>
        <time>2019-08-06T09:15:45Z</time>
      </trkpt>
      <trkpt lat="45.18542" lon="5.61743">
        <ele>913.45566859815</ele>
        <time>2019-08-06T09:15:49Z</time>
      </trkpt>
      <trkpt lat="45.18559" lon="5.6172">
        <ele>913.46374685674</ele>
        <time>2019-08-06T09:15:53Z</time>
      </trkpt>
      <trkpt lat="45.18578" lon="5.617">
        <ele>913.79927060103</ele>
        <time>2019-08-06T09:15:57Z</time>
      </trkpt>
      <trkpt lat="45.18594" lon="5.61682">
        <ele>914.55492710478</ele>
        <time>2019-08-06T09:16:01Z</time>
      </trkpt>
      <trkpt lat="45.18611" lon="5.61665">
        <ele>915.21614824424</ele>
        <time>2019-08-06T09:16:05Z</time>
      </trkpt>
      <trkpt lat="45.18635" lon="5.61648">
        <ele>914.82309339823</ele>
        <time>2019-08-06T09:16:10Z</time>
      </trkpt>
      <trkpt lat="45.18653" lon="5.61623">
        <ele>913.88132627115</ele>
        <time>2019-08-06T09:16:14Z</time>
      </trkpt>
      <trkpt lat="45.18669" lon="5.61594">
        <ele>913.69683571893</ele>
        <time>2019-08-06T09:16:18Z</time>
      </trkpt>
      <trkpt lat="45.18673" lon="5.61587">
        <ele>913.79788549308</ele>
        <time>2019-08-06T09:16:22Z</time>
      </trkpt>
      <trkpt lat="45.1869" lon="5.61521">
        <ele>914.04179470527</ele>
        <time>2019-08-06T09:16:27Z</time>
      </trkpt>
      <trkpt lat="45.18701" lon="5.61491">
        <ele>915.12664068549</ele>
        <time>2019-08-06T09:16:31Z</time>
      </trkpt>
      <trkpt lat="45.18722" lon="5.6149">
        <ele>916.5948323263</ele>
        <time>2019-08-06T09:16:35Z</time>
      </trkpt>
      <trkpt lat="45.18737" lon="5.61511">
        <ele>916.97123967804</ele>
        <time>2019-08-06T09:16:39Z</time>
      </trkpt>
      <trkpt lat="45.18751" lon="5.61542">
        <ele>916.86815164039</ele>
        <time>2019-08-06T09:16:44Z</time>
      </trkpt>
      <trkpt lat="45.18767" lon="5.61574">
        <ele>917.40856823977</ele>
        <time>2019-08-06T09:16:49Z</time>
      </trkpt>
      <trkpt lat="45.18775" lon="5.61604">
        <ele>916.93880569874</ele>
        <time>2019-08-06T09:16:53Z</time>
      </trkpt>
      <trkpt lat="45.18783" lon="5.61643">
        <ele>917.00382840241</ele>
        <time>2019-08-06T09:16:58Z</time>
      </trkpt>
      <trkpt lat="45.18792" lon="5.61681">
        <ele>917.44198011806</ele>
        <time>2019-08-06T09:17:03Z</time>
      </trkpt>
      <trkpt lat="45.18799" lon="5.61712">
        <ele>917.7923984165</ele>
        <time>2019-08-06T09:17:07Z</time>
      </trkpt>
      <trkpt lat="45.18806" lon="5.61742">
        <ele>918.30570347622</ele>
        <time>2019-08-06T09:17:11Z</time>
      </trkpt>
      <trkpt lat="45.18809" lon="5.61766">
        <ele>918.47040734759</ele>
        <time>2019-08-06T09:17:14Z</time>
      </trkpt>
      <trkpt lat="45.18814" lon="5.61805">
        <ele>919.33554789037</ele>
        <time>2019-08-06T09:17:19Z</time>
      </trkpt>
      <trkpt lat="45.18819" lon="5.61833">
        <ele>920.51414950193</ele>
        <time>2019-08-06T09:17:23Z</time>
      </trkpt>
      <trkpt lat="45.18824" lon="5.61857">
        <ele>920.98957985228</ele>
        <time>2019-08-06T09:17:27Z</time>
      </trkpt>
      <trkpt lat="45.1883" lon="5.61882">
        <ele>920.02097886129</ele>
        <time>2019-08-06T09:17:31Z</time>
      </trkpt>
      <trkpt lat="45.18841" lon="5.61915">
        <ele>917.80141454252</ele>
        <time>2019-08-06T09:17:35Z</time>
      </trkpt>
      <trkpt lat="45.1887" lon="5.61953">
        <ele>914.2079513249</ele>
        <time>2019-08-06T09:17:40Z</time>
      </trkpt>
      <trkpt lat="45.18903" lon="5.61975">
        <ele>911.84852207915</ele>
        <time>2019-08-06T09:17:44Z</time>
      </trkpt>
      <trkpt lat="45.1893" lon="5.6198">
        <ele>911.27631322047</ele>
        <time>2019-08-06T09:17:47Z</time>
      </trkpt>
      <trkpt lat="45.18961" lon="5.61978">
        <ele>912.10928162502</ele>
        <time>2019-08-06T09:17:51Z</time>
      </trkpt>
      <trkpt lat="45.18979" lon="5.61975">
        <ele>912.5188210597</ele>
        <time>2019-08-06T09:17:54Z</time>
      </trkpt>
      <trkpt lat="45.19" lon="5.61971">
        <ele>913.12125341337</ele>
        <time>2019-08-06T09:17:58Z</time>
      </trkpt>
      <trkpt lat="45.19015" lon="5.61974">
        <ele>913.2466798985</ele>
        <time>2019-08-06T09:18:02Z</time>
      </trkpt>
      <trkpt lat="45.19027" lon="5.61982">
        <ele>911.51993894062</ele>
        <time>2019-08-06T09:18:06Z</time>
      </trkpt>
      <trkpt lat="45.19031" lon="5.61984">
        <ele>912.46789949956</ele>
        <time>2019-08-06T09:18:22Z</time>
      </trkpt>
      <trkpt lat="45.19031" lon="5.61984">
        <ele>912.46789949956</ele>
        <time>2019-08-06T09:18:22Z</time>
      </trkpt>
    </trkseg>
  </trk>
</gpx>